# Wetter Temperatur Luftdruck Luftfeuchtigkeit Sichtweite Windgeschwindigkeit Windrichtung Zeit
1 Clouds 15 1016 36 0 1.28 79 22:25 24.01.2020
2 Clouds 16 1017 33 0 1.34 61 21:43 24.01.2020
3 Clouds 14 1017 34 0 1.34 35 21:21 24.01.2020
4 Clouds 16 1018 33 0 1.79 58 20:57 24.01.2020
5 Clouds 17 1018 30 0 1.34 61 20:39 24.01.2020
6 Clouds 13 1018 37 0 1.17 75 20:20 24.01.2020
7 Clouds 14 1018 37 0 0.7 83 19:57 24.01.2020
8 Clouds 14 1018 37 0 0.7 83 19:38 24.01.2020
9 Clouds 14 1018 37 0 0.7 83 19:20 24.01.2020
10 Clouds 16 1019 34 0 0.45 74 18:43 24.01.2020
11 Clouds 13 1019 40 0 0.45 59 18:23 24.01.2020
12 Clouds 11 1019 48 0 0.7 83 17:46 24.01.2020
13 Clouds 8 1018 54 0 0.7 83 17:23 24.01.2020
14 Clouds 2 1019 76 0 0.26 8 16:59 24.01.2020
15 Clouds 1 1018 76 0 0.26 8 16:39 24.01.2020
16 Clouds 1 1019 73 0 0.26 8 16:20 24.01.2020
17 Clouds 2 1018 69 0 0.26 8 15:43 24.01.2020
18 Clouds 2 1018 67 0 0.26 8 15:22 24.01.2020
19 Clouds 3 1018 65 0 0.26 8 14:57 24.01.2020
20 Clouds 3 1018 64 0 0.45 85 14:38 24.01.2020
21 Clouds 3 1018 64 0 0.45 85 14:38 24.01.2020
22 Clouds 2 1018 68 0 0.45 4 14:20 24.01.2020
23 Clouds 2 1018 70 0 0.87 288 13:42 24.01.2020
24 Clouds 2 1018 69 0 0.71 308 13:23 24.01.2020
25 Clouds 4 1018 63 0 0.45 259 12:44 24.01.2020
26 Clouds 3 1019 65 0 0.45 74 12:22 24.01.2020
27 Clouds 3 1019 67 0 0.45 348 11:57 24.01.2020
28 Clouds 1 1019 75 0 0.71 308 11:38 24.01.2020
29 Clouds 1 1019 75 0 0.75 276 11:18 24.01.2020
30 Clouds 1 1019 75 0 0.75 276 11:18 24.01.2020
31 Clouds 1 1019 72 0 0.75 276 10:41 24.01.2020
32 Clouds 2 1019 69 0 0.75 276 10:20 24.01.2020
33 Clouds 3 1020 68 0 0.75 276 09:54 24.01.2020
34 Clouds 2 1020 72 0 0.75 276 09:36 24.01.2020
35 Clouds 1 1020 75 0 0.45 272 09:18 24.01.2020
36 Clouds 1 1020 74 0 0.75 276 08:39 24.01.2020
37 Clouds 1 1020 74 0 0.75 276 08:39 24.01.2020
38 Clouds 1 1020 72 0 0.69 291 08:19 24.01.2020
39 Clouds 2 1021 70 0 0.82 265 07:47 24.01.2020
40 Clouds 1 1021 72 0 0.82 265 07:22 24.01.2020
41 Clouds 2 1021 72 0 0.82 265 06:45 24.01.2020
42 Clouds 2 1021 69 0 0.82 265 06:24 24.01.2020
43 Clouds 3 1020 67 0 0.82 265 05:37 24.01.2020
44 Clouds 6 1020 53 0 0.24 299 03:47 24.01.2020
45 Clouds 9 1020 42 0 0.45 329 02:41 24.01.2020
46 Clouds 11 1020 41 0 0.89 25 02:22 24.01.2020
47 Clouds 13 1020 38 0 0.89 40 01:39 24.01.2020
48 Clear 14 1019 37 0 0.93 90 00:52 24.01.2020
49 Clear 14 1019 37 0 0.93 90 00:19 24.01.2020
50 Clear 14 1019 37 0 0.93 90 23:42 23.01.2020
51 Clear 14 1019 37 0 0.93 90 23:23 23.01.2020
52 Clear 14 1020 36 0 1.66 58 22:58 23.01.2020
53 Clear 14 1020 36 0 1.66 58 22:37 23.01.2020
54 Clear 14 1020 36 0 1.66 58 22:18 23.01.2020
55 Clear 14 1020 36 0 1.66 58 21:55 23.01.2020
56 Clear 14 1020 36 0 1.66 58 21:37 23.01.2020
57 Clear 14 1020 36 0 1.66 58 21:19 23.01.2020
58 Clear 14 1020 36 0 1.66 58 20:55 23.01.2020
59 Clear 14 1020 36 0 1.66 58 20:37 23.01.2020
60 Clouds 13 1023 46 0 1.96 39 20:18 23.01.2020
61 Clouds 13 1023 46 0 1.96 39 19:44 23.01.2020
62 Clouds 13 1023 46 0 1.96 39 19:24 23.01.2020
63 Clouds 13 1023 46 0 1.96 39 18:59 23.01.2020
64 Clouds 13 1025 39 0 0.89 123 18:39 23.01.2020
65 Clouds 13 1025 38 0 0.89 150 18:20 23.01.2020
66 Clouds 13 1025 39 0 1.96 39 17:56 23.01.2020
67 Clouds 11 1026 44 0 0.89 323 17:38 23.01.2020
68 Clouds 7 1023 74 0 1.64 8 17:18 23.01.2020
69 Clouds 7 1026 56 0 1.64 8 16:39 23.01.2020
70 Clouds 6 1026 57 0 1.34 311 16:20 23.01.2020
71 Clouds 6 1026 58 0 0.45 329 15:58 23.01.2020
72 Clouds 6 1026 58 0 1.34 337 15:40 23.01.2020
73 Clouds 6 1025 59 0 0.89 325 15:19 23.01.2020
74 Clouds 6 1025 59 0 0.89 325 15:19 23.01.2020
75 Clouds 6 1025 59 0 1.34 335 14:59 23.01.2020
76 Clouds 6 1025 60 0 2.24 325 14:41 23.01.2020
77 Clouds 6 1025 61 0 1.34 334 14:23 23.01.2020
78 Clear 3 1025 66 0 1.34 266 13:59 23.01.2020
79 Clear 3 1025 64 0 0.45 77 13:38 23.01.2020
80 Clear 4 1025 61 0 1.64 357 13:19 23.01.2020
81 Clear 7 1025 54 0 1.64 357 12:46 23.01.2020
82 Clear 7 1026 52 0 0.45 223 12:25 23.01.2020
83 Clear 7 1026 56 0 1.79 347 11:57 23.01.2020
84 Clear 4 1026 64 0 1.34 2 11:38 23.01.2020
85 Clear 2 1026 69 0 0.45 119 11:19 23.01.2020
86 Clear 2 1026 70 0 0.45 117 10:44 23.01.2020
87 Clear 2 1026 71 0 0.45 77 10:22 23.01.2020
88 Clear 2 1026 69 0 0.45 323 09:57 23.01.2020
89 Clear 2 1026 67 0 1.03 13 09:36 23.01.2020
90 Clear 3 1026 66 0 1.03 13 09:18 23.01.2020
91 Clear 4 1026 63 0 1.03 13 08:41 23.01.2020
92 Clear 4 1026 63 0 0.96 10 08:22 23.01.2020
93 Clear 2 1026 68 0 0.85 3 07:45 23.01.2020
94 Clear 2 1026 69 0 0.85 3 07:26 23.01.2020
95 Clear 8 1023 69 0 0.85 3 06:53 23.01.2020
96 Clear 8 1023 69 0 0.85 3 06:23 23.01.2020
97 Clear 3 1025 68 0 0.85 3 05:57 23.01.2020
98 Clouds 3 1024 70 0 0.69 42 04:24 23.01.2020
99 Clouds 8 1023 53 0 0.45 316 02:34 23.01.2020
100 Clouds 12 1020 53 0 1.07 128 01:41 23.01.2020
101 Clouds 12 1020 51 0 1.25 111 00:28 23.01.2020
102 Clouds 12 1020 51 0 1.25 111 23:48 22.01.2020
103 Clouds 12 1020 51 0 1.25 111 23:30 22.01.2020
104 Clouds 11 1020 52 0 1.21 111 22:59 22.01.2020
105 Clouds 11 1020 52 0 1.21 111 22:41 22.01.2020
106 Clouds 11 1020 52 0 1.21 111 22:23 22.01.2020
107 Clouds 16 1023 37 0 1.34 50 21:42 22.01.2020
108 Clouds 16 1023 37 0 1.34 45 21:22 22.01.2020
109 Clouds 15 1023 39 0 0.89 92 20:59 22.01.2020
110 Clouds 14 1024 40 0 1.34 64 20:41 22.01.2020
111 Clouds 14 1024 41 0 0.89 18 20:23 22.01.2020
112 Clouds 9 1022 64 0 0.68 80 19:57 22.01.2020
113 Clouds 9 1022 64 0 0.68 80 19:39 22.01.2020
114 Clouds 9 1022 64 0 0.68 80 19:19 22.01.2020
115 Clouds 9 1022 64 0 0.68 80 18:57 22.01.2020
116 Clouds 9 1024 59 0 0.68 80 18:38 22.01.2020
117 Clouds 8 1024 60 0 0.45 223 18:20 22.01.2020
118 Clouds 8 1024 61 0 0.45 223 17:55 22.01.2020
119 Clouds 7 1024 66 0 0.68 80 17:37 22.01.2020
120 Clouds 5 1024 75 0 0.38 326 17:19 22.01.2020
121 Clouds 2 1023 81 0 0.38 326 16:43 22.01.2020
122 Clouds 2 1023 79 0 0.38 326 16:23 22.01.2020
123 Clouds 1 1023 84 0 1.34 18 15:59 22.01.2020
124 Clouds 1 1023 81 0 0.45 346 15:40 22.01.2020
125 Clouds 1 1022 83 0 0.89 349 15:22 22.01.2020
126 Clouds 1 1022 87 0 0.45 292 14:57 22.01.2020
127 Clouds -1 1022 87 0 0.38 326 14:37 22.01.2020
128 Clouds -1 1022 87 0 0.45 306 14:18 22.01.2020
129 Clouds -1 1022 83 0 0.47 17 13:54 22.01.2020
130 Clouds 1 1022 81 0 0.47 17 13:36 22.01.2020
131 Clouds 1 1021 79 0 0.8 2 13:18 22.01.2020
132 Clouds 2 1021 77 0 0.8 2 12:55 22.01.2020
133 Clouds 2 1022 82 0 0.89 316 12:37 22.01.2020
134 Clouds -2 1022 90 0 0.89 349 12:18 22.01.2020
135 Clouds -2 1022 90 0 0.89 349 11:56 22.01.2020
136 Clouds -1 1022 86 0 0.8 2 11:37 22.01.2020
137 Clouds -1 1022 85 0 0.37 266 11:18 22.01.2020
138 Clouds -1 1022 85 0 0.37 266 10:43 22.01.2020
139 Clouds -1 1021 87 0 0.37 266 10:20 22.01.2020
140 Clouds -1 1021 89 0 0.37 266 09:43 22.01.2020
141 Clouds -1 1021 85 0 0.45 275 09:25 22.01.2020
142 Clouds 0 1021 83 0 0.37 266 08:57 22.01.2020
143 Clouds 0 1021 84 0 0.37 266 08:39 22.01.2020
144 Clouds 1 1021 82 0 0.04 268 08:21 22.01.2020
145 Clouds 1 1021 82 0 0.45 274 07:54 22.01.2020
146 Clouds 0 1021 83 0 0.04 268 07:36 22.01.2020
147 Clouds 0 1021 81 0 0.04 268 07:18 22.01.2020
148 Clouds 1 1021 79 0 0.04 268 06:30 22.01.2020
149 Clouds 7 1019 66 0 0.04 268 05:41 22.01.2020
150 Clouds 7 1019 66 0 0.04 268 05:41 22.01.2020
151 Clouds 3 1020 68 0 0.36 45 04:18 22.01.2020
152 Clouds 4 1020 66 0 0.36 45 03:22 22.01.2020
153 Clouds 5 1019 63 0 1.79 3 02:27 22.01.2020
154 Clouds 10 1016 55 0 1.82 140 00:45 22.01.2020
155 Clouds 10 1016 55 0 1.82 140 00:26 22.01.2020
156 Clouds 10 1016 55 0 1.82 140 23:39 21.01.2020
157 Clouds 10 1017 57 0 1.66 131 23:21 21.01.2020
158 Clouds 10 1017 57 0 1.66 131 22:59 21.01.2020
159 Clouds 10 1017 57 0 1.66 131 22:39 21.01.2020
160 Clouds 10 1017 57 0 1.66 131 22:20 21.01.2020
161 Clouds 10 1017 57 0 1.66 131 21:56 21.01.2020
162 Clouds 13 1018 43 0 0.89 40 21:37 21.01.2020
163 Clouds 12 1018 46 0 1.34 28 21:19 21.01.2020
164 Clouds 12 1018 46 0 1.34 28 21:19 21.01.2020
165 Clouds 10 1019 51 0 1.34 45 20:55 21.01.2020
166 Clouds 9 1019 52 0 0.45 45 20:37 21.01.2020
167 Clouds 8 1019 59 0 0.55 34 20:18 21.01.2020
168 Clouds 8 1019 59 0 0.55 34 20:18 21.01.2020
169 Clouds 8 1019 59 0 0.55 34 19:55 21.01.2020
170 Clouds 8 1019 56 0 0.45 94 19:37 21.01.2020
171 Clouds 8 1019 59 0 0.55 34 19:18 21.01.2020
172 Clouds 7 1019 62 0 1.34 95 18:55 21.01.2020
173 Clouds 6 1019 66 0 0.45 134 18:36 21.01.2020
174 Clouds 4 1019 71 0 0.55 34 18:18 21.01.2020
175 Clouds 4 1019 73 0 0.45 303 17:42 21.01.2020
176 Clouds 3 1019 77 0 2.26 279 17:19 21.01.2020
177 Clouds 2 1018 80 0 0.45 273 16:57 21.01.2020
178 Clouds -2 1018 89 0 2.26 279 16:36 21.01.2020
179 Clouds -2 1018 87 0 2.26 279 16:18 21.01.2020
180 Clouds -2 1018 84 0 2.26 279 15:41 21.01.2020
181 Clouds -2 1017 82 0 2.26 279 15:20 21.01.2020
182 Clouds -1 1017 84 0 2.26 279 14:58 21.01.2020
183 Clouds -1 1016 82 0 2.26 279 14:37 21.01.2020
184 Rain -1 1017 79 0 3.11 242 14:19 21.01.2020
185 Rain 0 1017 77 0 3.11 242 13:39 21.01.2020
186 Rain 2 1017 73 0 3.11 242 13:19 21.01.2020
187 Clouds 3 1017 71 0 0.45 175 12:43 21.01.2020
188 Clouds 3 1017 71 0 0.89 162 12:25 21.01.2020
189 Clouds 3 1017 71 0 1.34 164 11:57 21.01.2020
190 Clouds 3 1017 73 0 1.34 160 11:38 21.01.2020
191 Clouds 3 1017 75 0 1.79 135 11:20 21.01.2020
192 Clouds 4 1017 71 0 1.79 150 10:44 21.01.2020
193 Clouds 4 1017 72 0 1.79 212 10:24 21.01.2020
194 Clouds 3 1017 77 0 2.68 183 09:59 21.01.2020
195 Clouds 3 1017 77 0 2.68 183 09:41 21.01.2020
196 Clouds 3 1018 78 0 1.34 104 09:22 21.01.2020
197 Clouds 3 1018 78 0 1.34 104 09:22 21.01.2020
198 Clouds 6 1017 59 0 2.68 223 08:48 21.01.2020
199 Clouds 6 1017 56 0 2.24 252 08:29 21.01.2020
200 Clouds 7 1017 44 0 1.34 202 07:57 21.01.2020
201 Clouds 7 1017 42 0 1.9 221 07:38 21.01.2020
202 Clouds 7 1017 42 0 0.45 74 07:20 21.01.2020
203 Clouds 7 1017 41 0 1.9 221 06:45 21.01.2020
204 Clouds 7 1017 41 0 1.9 221 06:25 21.01.2020
205 Clouds 8 1017 38 0 0.45 148 05:42 21.01.2020
206 Clouds 8 1017 37 0 0.45 160 04:39 21.01.2020
207 Clouds 6 1017 37 0 1.2 178 02:56 21.01.2020
208 Clouds 9 1016 30 0 0.89 140 01:51 21.01.2020
209 Clouds 13 1017 25 0 2.24 71 01:18 21.01.2020
210 Clouds 13 1016 30 0 2.41 169 00:36 21.01.2020
211 Clouds 13 1016 30 0 2.41 169 23:58 20.01.2020
212 Clouds 12 1017 27 0 1.34 40 23:38 20.01.2020
213 Clouds 12 1017 26 0 0.89 116 23:19 20.01.2020
214 Clouds 12 1018 25 0 1.79 106 22:56 20.01.2020
215 Clouds 12 1017 26 0 2.24 75 22:37 20.01.2020
216 Clouds 12 1017 26 0 1.79 81 22:19 20.01.2020
217 Clouds 11 1017 27 0 2.24 29 21:57 20.01.2020
218 Clouds 12 1017 26 0 1.34 63 21:37 20.01.2020
219 Clouds 12 1018 26 0 1.79 35 21:19 20.01.2020
220 Clouds 12 1018 26 0 1.34 50 20:55 20.01.2020
221 Clouds 13 1019 26 0 1.34 66 20:36 20.01.2020
222 Clouds 12 1019 29 0 1.79 31 20:18 20.01.2020
223 Clouds 11 1019 28 0 1.79 60 19:56 20.01.2020
224 Clouds 10 1020 31 0 1.34 76 19:37 20.01.2020
225 Clouds 9 1021 33 0 1.34 59 19:18 20.01.2020
226 Clouds 7 1021 39 0 0.55 106 18:43 20.01.2020
227 Clouds 6 1021 40 0 0.55 106 18:22 20.01.2020
228 Clouds 6 1021 42 0 0.55 106 17:41 20.01.2020
229 Clouds 5 1020 40 0 0.45 339 17:19 20.01.2020
230 Clouds 4 1020 41 0 0.86 318 16:59 20.01.2020
231 Clouds 3 1020 48 0 0.86 318 16:37 20.01.2020
232 Clouds 3 1020 49 0 0.86 318 16:18 20.01.2020
233 Clouds 3 1020 49 0 0.86 318 16:18 20.01.2020
234 Clouds 3 1020 49 0 0.86 318 16:18 20.01.2020
235 Clouds 3 1021 47 0 0.45 347 15:54 20.01.2020
236 Clouds 3 1021 45 0 0.86 318 15:36 20.01.2020
237 Clouds 3 1020 44 0 0.45 347 15:18 20.01.2020
238 Clouds 3 1020 46 0 0.86 318 14:41 20.01.2020
239 Clouds 3 1020 46 0 0.45 347 14:22 20.01.2020
240 Clouds 3 1020 47 0 2.11 8 13:58 20.01.2020
241 Clouds 3 1020 46 0 2.11 8 13:40 20.01.2020
242 Clouds 3 1020 45 0 1.74 21 13:21 20.01.2020
243 Clouds 3 1021 45 0 1.74 21 12:46 20.01.2020
244 Clouds 3 1021 45 0 0.45 347 12:28 20.01.2020
245 Clouds 3 1021 44 0 1.74 21 11:57 20.01.2020
246 Clouds 3 1021 44 0 1.74 21 11:38 20.01.2020
247 Clouds 4 1021 42 0 1.83 322 11:20 20.01.2020
248 Clouds 4 1022 39 0 0.89 347 10:48 20.01.2020
249 Clouds 5 1022 39 0 1.83 322 10:22 20.01.2020
250 Clouds 5 1022 39 0 1.83 322 10:22 20.01.2020
251 Clouds 5 1021 37 0 0.89 342 09:57 20.01.2020
252 Clouds 6 1021 35 0 0.89 322 09:38 20.01.2020
253 Clouds 6 1022 36 0 1.83 322 09:19 20.01.2020
254 Clouds 7 1023 34 0 1.34 349 08:43 20.01.2020
255 Clouds 6 1023 35 0 0.45 255 08:25 20.01.2020
256 Clouds 8 1023 29 0 0.45 327 07:45 20.01.2020
257 Clouds 8 1023 29 0 0.89 335 07:24 20.01.2020
258 Clouds 8 1024 29 0 0.89 321 06:48 20.01.2020
259 Clouds 8 1024 29 0 0.89 349 06:27 20.01.2020
260 Clouds 7 1024 33 0 2.33 14 05:42 20.01.2020
261 Clouds 7 1024 32 0 0.89 345 05:22 20.01.2020
262 Clouds 8 1025 30 0 2.34 13 04:47 20.01.2020
263 Clouds 7 1025 33 0 0.45 18 02:58 20.01.2020
264 Clouds 10 1025 26 0 2.7 33 01:55 20.01.2020
265 Clouds 11 1025 22 0 0.45 20 01:37 20.01.2020
266 Clouds 12 1025 21 0 0.89 40 00:45 20.01.2020
267 Clouds 12 1022 25 0 2.69 35 00:24 20.01.2020
268 Clouds 12 1022 25 0 2.69 35 23:39 19.01.2020
269 Clouds 13 1023 23 0 3.28 45 23:20 19.01.2020
270 Clouds 13 1023 23 0 3.28 45 23:20 19.01.2020
271 Clouds 13 1023 23 0 3.28 45 22:57 19.01.2020
272 Clouds 13 1023 23 0 3.28 45 22:39 19.01.2020
273 Clouds 13 1023 23 0 3.28 45 22:20 19.01.2020
274 Clouds 13 1023 23 0 3.28 45 21:57 19.01.2020
275 Clouds 13 1023 23 0 3.28 45 21:38 19.01.2020
276 Clouds 13 1023 23 0 3.28 45 21:20 19.01.2020
277 Clouds 13 1023 23 0 3.28 45 20:57 19.01.2020
278 Clouds 17 1027 17 0 1.34 19 20:39 19.01.2020
279 Clouds 11 1026 25 0 3.37 39 20:21 19.01.2020
280 Clouds 11 1025 24 0 3.01 39 19:57 19.01.2020
281 Clouds 11 1025 24 0 3.01 39 19:39 19.01.2020
282 Clouds 11 1025 24 0 3.01 39 19:20 19.01.2020
283 Clouds 11 1025 24 0 3.01 39 18:59 19.01.2020
284 Clouds 13 1029 22 0 0.45 78 18:41 19.01.2020
285 Clouds 12 1029 24 0 0.89 62 18:21 19.01.2020
286 Clouds 11 1029 26 0 0.45 326 17:58 19.01.2020
287 Clouds 10 1029 27 0 0.45 330 17:40 19.01.2020
288 Clouds 6 1025 31 0 2.53 17 17:21 19.01.2020
289 Clouds 4 1029 37 0 1.34 351 16:59 19.01.2020
290 Clouds 3 1029 43 0 2.53 17 16:40 19.01.2020
291 Clouds 3 1029 38 0 1.34 332 16:21 19.01.2020
292 Clouds 2 1028 39 0 1.34 337 15:59 19.01.2020
293 Clouds 2 1028 40 0 2.53 17 15:40 19.01.2020
294 Clouds 4 1029 35 0 0.45 314 15:21 19.01.2020
295 Clouds 4 1029 32 0 1.79 314 14:59 19.01.2020
296 Clouds 4 1029 33 0 0.89 324 14:40 19.01.2020
297 Clouds 6 1029 28 0 0.89 314 14:19 19.01.2020
298 Clouds 5 1029 29 0 1.79 322 13:58 19.01.2020
299 Clouds 6 1028 29 0 0.89 322 13:38 19.01.2020
300 Clouds 5 1029 30 0 0.45 341 13:20 19.01.2020
301 Clouds 4 1029 31 0 1.34 340 12:56 19.01.2020
302 Clouds 4 1029 32 0 0.89 343 12:37 19.01.2020
303 Clouds 4 1029 31 0 0.45 346 12:19 19.01.2020
304 Clouds 4 1029 34 0 0.89 332 11:56 19.01.2020
305 Clouds 5 1030 35 0 2.68 329 11:37 19.01.2020
306 Clear 4 1030 35 0 1.34 322 11:18 19.01.2020
307 Clear 5 1030 33 0 2.68 310 10:39 19.01.2020
308 Clear 5 1030 32 0 4.02 330 10:20 19.01.2020
309 Clear 4 1030 32 0 2.24 324 09:57 19.01.2020
310 Clear 4 1030 32 0 2.24 324 09:57 19.01.2020
311 Clear 4 1031 31 0 2.24 289 09:38 19.01.2020
312 Clear 3 1031 33 0 2.68 289 09:19 19.01.2020
313 Clear 2 1031 35 0 1.79 6 08:55 19.01.2020
314 Clear 6 1027 28 0 2.65 7 08:32 19.01.2020
315 Clouds -1 1031 44 0 2.8 359 07:54 19.01.2020
316 Clouds -1 1031 46 0 2.8 359 07:28 19.01.2020
317 Clouds -1 1031 48 0 0.45 337 06:55 19.01.2020
318 Clouds 7 1026 25 0 2.8 359 06:22 19.01.2020
319 Clouds 1 1030 49 0 2.55 4 03:58 19.01.2020
320 Clouds 6 1030 35 0 2.55 4 02:34 19.01.2020
321 Clouds 7 1030 31 0 0.89 325 01:42 19.01.2020
322 Clouds 8 1029 26 0 0.45 40 01:20 19.01.2020
323 Clouds 10 1029 26 0 0.89 50 00:44 19.01.2020
324 Clouds 10 1029 26 0 0.89 67 00:21 19.01.2020
325 Clouds 11 1029 26 0 0.89 50 23:54 18.01.2020
326 Clouds 10 1025 23 0 2.61 39 23:36 18.01.2020
327 Clouds 9 1026 23 0 2.53 41 23:18 18.01.2020
328 Clouds 9 1026 23 0 2.53 41 22:41 18.01.2020
329 Clouds 9 1026 23 0 2.53 41 22:23 18.01.2020
330 Clouds 9 1026 23 0 2.53 41 21:58 18.01.2020
331 Clouds 9 1026 23 0 2.53 41 21:39 18.01.2020
332 Clouds 12 1030 25 0 0.89 292 21:20 18.01.2020
333 Clouds 11 1030 27 0 2.53 41 20:57 18.01.2020
334 Clouds 9 1031 29 0 0.45 301 20:39 18.01.2020
335 Clouds 8 1031 27 0 0.89 338 20:19 18.01.2020
336 Clouds 8 1031 29 0 0.45 323 19:43 18.01.2020
337 Clouds 7 1031 31 0 0.89 326 19:24 18.01.2020
338 Clouds 7 1032 35 0 1.34 329 18:43 18.01.2020
339 Clouds 6 1032 35 0 1.34 332 18:25 18.01.2020
340 Clouds 7 1031 37 0 1.34 347 17:59 18.01.2020
341 Clouds 6 1031 38 0 1.34 308 17:40 18.01.2020
342 Clouds 3 1031 43 0 1.34 333 17:21 18.01.2020
343 Clouds 3 1031 44 0 1.34 337 16:57 18.01.2020
344 Clouds 2 1031 46 0 3.13 331 16:38 18.01.2020
345 Clouds 2 1031 48 0 1.34 314 16:19 18.01.2020
346 Clouds 2 1031 48 0 1.34 314 16:19 18.01.2020
347 Clouds 1 1031 48 0 2.24 323 15:47 18.01.2020
348 Clouds 1 1031 48 0 2.24 323 15:47 18.01.2020
349 Clouds 1 1030 50 0 1.34 331 15:26 18.01.2020
350 Clouds -2 1030 57 0 1.82 355 14:59 18.01.2020
351 Clouds -2 1030 59 0 1.82 355 14:41 18.01.2020
352 Clouds -2 1030 57 0 2.12 356 14:19 18.01.2020
353 Clouds -1 1030 56 0 2.12 356 13:57 18.01.2020
354 Clouds -2 1029 59 0 2.12 356 13:36 18.01.2020
355 Clouds -2 1029 60 0 2.01 359 13:18 18.01.2020
356 Clouds -2 1029 60 0 2.01 359 13:18 18.01.2020
357 Clouds -1 1029 54 0 0.45 334 12:41 18.01.2020
358 Clouds 0 1030 50 0 1.34 337 12:22 18.01.2020
359 Clouds -1 1030 54 0 1.34 318 11:57 18.01.2020
360 Clouds -2 1029 59 0 0.45 160 11:38 18.01.2020
361 Clouds 0 1029 55 0 1.53 0 11:19 18.01.2020
362 Clouds 1 1029 53 0 1.79 339 10:43 18.01.2020
363 Clouds -2 1029 65 0 0.45 330 10:21 18.01.2020
364 Clouds -3 1029 71 0 1.53 0 09:56 18.01.2020
365 Clouds -4 1029 74 0 1.53 0 09:38 18.01.2020
366 Clouds -4 1029 71 0 1.53 0 09:18 18.01.2020
367 Clouds -3 1029 68 0 1.53 0 08:42 18.01.2020
368 Clouds -3 1029 68 0 1.38 12 08:20 18.01.2020
369 Clouds -3 1029 67 0 1.38 12 07:58 18.01.2020
370 Clouds -3 1029 67 0 1.38 12 07:37 18.01.2020
371 Clouds -2 1028 64 0 1.38 12 06:50 18.01.2020
372 Clouds -2 1028 61 0 0.45 6 06:27 18.01.2020
373 Clouds -1 1028 59 0 1.38 12 05:49 18.01.2020
374 Clouds 0 1028 53 0 0.85 352 04:24 18.01.2020
375 Clouds 3 1027 42 0 0.89 29 02:34 18.01.2020
376 Clouds 5 1026 37 0 1.34 4 01:40 18.01.2020
377 Clouds 7 1024 45 0 1.13 139 00:39 18.01.2020
378 Clouds 7 1024 45 0 1.13 139 00:19 18.01.2020
379 Clouds 7 1024 45 0 1.13 139 23:58 17.01.2020
380 Clouds 7 1024 45 0 1.13 139 23:39 17.01.2020
381 Clouds 7 1024 51 0 1.91 63 23:18 17.01.2020
382 Clouds 7 1024 51 0 1.91 63 22:41 17.01.2020
383 Clouds 7 1024 51 0 1.91 63 22:20 17.01.2020
384 Clouds 10 1026 30 0 1.34 23 21:56 17.01.2020
385 Clouds 10 1026 30 0 0.45 28 21:37 17.01.2020
386 Clouds 11 1026 29 0 0.89 347 21:19 17.01.2020
387 Clouds 11 1026 31 0 1.79 96 20:41 17.01.2020
388 Clouds 6 1025 48 0 1.18 78 20:21 17.01.2020
389 Clouds 6 1025 48 0 1.18 78 19:58 17.01.2020
390 Clouds 6 1025 48 0 1.18 78 19:39 17.01.2020
391 Clouds 6 1025 48 0 1.18 78 19:20 17.01.2020
392 Clouds 5 1026 43 0 1.34 293 18:58 17.01.2020
393 Clouds 4 1025 43 0 0.89 322 18:39 17.01.2020
394 Clouds 4 1025 45 0 0.89 333 18:21 17.01.2020
395 Clouds 3 1024 48 0 1.34 314 17:40 17.01.2020
396 Clear -1 1023 63 0 1.72 305 17:22 17.01.2020
397 Clear -4 1023 76 0 1.72 305 16:57 17.01.2020
398 Clear -4 1023 76 0 1.72 305 16:39 17.01.2020
399 Clear -4 1022 74 0 1.72 305 16:19 17.01.2020
400 Clear -3 1021 69 0 1.72 305 15:45 17.01.2020
401 Clear -2 1021 66 0 1.72 305 15:26 17.01.2020
402 Clear -1 1020 67 0 1.79 330 14:46 17.01.2020
403 Clear -2 1019 71 0 1.79 305 14:27 17.01.2020
404 Clouds -3 1019 73 0 3.61 266 13:58 17.01.2020
405 Clouds -3 1019 73 0 3.61 266 13:58 17.01.2020
406 Clouds -3 1019 73 0 3.61 266 13:38 17.01.2020
407 Clouds -4 1018 74 0 0.45 324 13:19 17.01.2020
408 Clouds -3 1018 72 0 0.45 311 12:44 17.01.2020
409 Clouds -2 1017 68 0 0.45 320 12:22 17.01.2020
410 Clouds -1 1016 52 0 0.89 26 11:40 17.01.2020
411 Clouds -1 1016 46 0 0.89 262 11:19 17.01.2020
412 Clouds -1 1015 45 0 4.59 251 10:45 17.01.2020
413 Clouds 1 1015 39 0 0.45 233 10:23 17.01.2020
414 Clouds 3 1017 73 0 4.59 251 09:59 17.01.2020
415 Clouds 3 1017 73 0 4.59 251 09:41 17.01.2020
416 Clouds 3 1017 73 0 4.59 251 09:20 17.01.2020
417 Clouds 3 1017 73 0 4.59 251 08:46 17.01.2020
418 Clouds 3 1017 73 0 4.59 251 08:26 17.01.2020
419 Clouds 2 1013 62 0 3.13 223 07:56 17.01.2020
420 Clouds 3 1012 52 0 6.71 229 07:36 17.01.2020
421 Clouds 3 1012 53 0 5.81 241 07:18 17.01.2020
422 Clouds 2 1012 59 0 4.92 225 06:43 17.01.2020
423 Clouds 1 1012 85 0 1.79 223 05:59 17.01.2020
424 Clear 3 1010 54 0 4.02 236 03:44 17.01.2020
425 Clear 7 1011 48 0 5.78 215 02:55 17.01.2020
426 Clear 7 1011 48 0 5.78 215 02:28 17.01.2020
427 Clouds 8 1010 14 0 5.36 208 01:32 17.01.2020
428 Clear 11 1010 31 0 5.02 209 00:58 17.01.2020
429 Clear 11 1010 31 0 5.02 209 00:29 17.01.2020
430 Clear 11 1010 31 0 5.02 209 23:54 16.01.2020
431 Clear 11 1010 31 0 5.02 209 23:36 16.01.2020
432 Clear 10 1011 28 0 4.92 254 23:18 16.01.2020
433 Clear 11 1012 27 0 6.26 252 22:40 16.01.2020
434 Clear 11 1012 25 0 6.26 231 22:21 16.01.2020
435 Clear 11 1012 25 0 4.47 262 21:56 16.01.2020
436 Clear 10 1012 25 0 5.36 227 21:37 16.01.2020
437 Clear 11 1013 26 0 4.92 287 21:18 16.01.2020
438 Clear 11 1013 25 0 4.47 235 20:56 16.01.2020
439 Clear 11 1014 27 0 4.47 293 20:37 16.01.2020
440 Clouds 10 1015 42 0 3.1 200 20:18 16.01.2020
441 Clouds 10 1015 42 0 3.1 200 19:55 16.01.2020
442 Clouds 9 1015 28 0 3.13 148 19:36 16.01.2020
443 Clouds 9 1015 28 0 3.13 148 19:18 16.01.2020
444 Clouds 10 1016 28 0 1.79 155 18:55 16.01.2020
445 Clouds 9 1016 28 0 2.24 98 18:36 16.01.2020
446 Clouds 9 1016 30 0 1.79 85 18:18 16.01.2020
447 Clouds 8 1016 31 0 0.89 143 17:41 16.01.2020
448 Clouds 7 1016 32 0 2.24 123 17:22 16.01.2020
449 Clouds 4 1016 39 0 0.45 141 16:57 16.01.2020
450 Clouds 4 1016 39 0 0.45 141 16:38 16.01.2020
451 Clouds 4 1016 40 0 0.45 127 16:19 16.01.2020
452 Clouds 2 1017 46 0 0.45 132 15:44 16.01.2020
453 Clouds 0 1017 55 0 0.45 352 15:22 16.01.2020
454 Clouds 1 1017 55 0 2.42 224 14:57 16.01.2020
455 Clouds 0 1017 54 0 2.42 224 14:38 16.01.2020
456 Clear -1 1017 60 0 1.26 211 14:20 16.01.2020
457 Clear -1 1017 62 0 0.45 81 13:44 16.01.2020
458 Clouds 0 1017 58 0 1.42 207 13:25 16.01.2020
459 Clouds 0 1017 63 0 0.45 70 12:47 16.01.2020
460 Clouds -1 1017 62 0 0.45 71 12:28 16.01.2020
461 Clouds 0 1017 60 0 1.42 207 11:59 16.01.2020
462 Clouds 1 1017 60 0 1.42 207 11:40 16.01.2020
463 Clouds 1 1018 59 0 0.89 70 11:22 16.01.2020
464 Clear 4 1016 56 0 1.06 205 10:40 16.01.2020
465 -273 0 0 0 0 0 10:22 16.01.2020
466 Clear 1 1018 58 0 1.06 205 09:59 16.01.2020
467 Clear 1 1018 59 0 1.06 205 09:41 16.01.2020
468 Clear 0 1018 61 0 0.45 101 09:23 16.01.2020
469 Clear 1 1018 60 0 0.89 76 08:55 16.01.2020
470 Clear 1 1018 59 0 1.06 205 08:36 16.01.2020
471 Clear 2 1019 58 0 0.89 40 07:59 16.01.2020
472 Clear 2 1019 58 0 0.89 40 07:41 16.01.2020
473 Clear 1 1019 58 0 1.34 87 07:23 16.01.2020
474 Clear 2 1019 58 0 1.34 87 06:46 16.01.2020
475 Clear 1 1019 59 0 0.45 91 06:28 16.01.2020
476 Clear 2 1019 57 0 1.34 79 05:46 16.01.2020
477 Clear 1 1019 60 0 1.34 129 04:46 16.01.2020
478 Clear 2 1019 54 0 0.15 336 03:29 16.01.2020
479 Clear 3 1019 49 0 0.45 33 02:44 16.01.2020
480 Clouds 9 1018 34 0 2.24 50 01:24 16.01.2020
481 Clouds 9 1015 44 0 1.41 103 00:41 16.01.2020
482 Clouds 9 1015 44 0 1.41 103 00:19 16.01.2020
483 Clouds 9 1015 44 0 1.41 103 23:40 15.01.2020
484 Clouds 9 1016 43 0 1.79 96 23:20 15.01.2020
485 Clouds 9 1016 43 0 1.79 96 23:19 15.01.2020
486 Clouds 9 1016 43 0 1.79 96 22:56 15.01.2020
487 Clouds 9 1016 43 0 1.79 96 22:36 15.01.2020
488 Clouds 9 1016 43 0 1.79 96 22:18 15.01.2020
489 Clouds 13 1019 28 0 1.79 21 21:55 15.01.2020
490 Clouds 13 1019 28 0 1.34 40 21:36 15.01.2020
491 Clouds 13 1020 30 0 1.34 50 21:18 15.01.2020
492 Clouds 13 1020 30 0 1.34 50 21:18 15.01.2020
493 Clouds 13 1020 29 0 1.34 83 20:54 15.01.2020
494 Clouds 13 1020 30 0 1.34 29 20:36 15.01.2020
495 Clear 7 1018 48 0 1.63 55 20:18 15.01.2020
496 Clear 8 1019 43 0 1.84 42 19:54 15.01.2020
497 Clear 8 1019 43 0 1.84 42 19:36 15.01.2020
498 Clear 8 1019 43 0 1.84 42 19:18 15.01.2020
499 Clear 8 1019 43 0 1.84 42 19:18 15.01.2020
500 Clear 8 1019 43 0 1.84 42 18:54 15.01.2020
501 Clear 8 1021 38 0 1.84 42 18:36 15.01.2020
502 Clear 9 1021 37 0 1.84 42 18:18 15.01.2020
503 Clear 8 1019 43 0 1.84 42 17:40 15.01.2020
504 Clear 1 1021 72 0 0.92 18 17:22 15.01.2020
505 Clear 2 1018 65 0 0.92 18 16:57 15.01.2020
506 Clear -4 1021 82 0 0.92 18 16:38 15.01.2020
507 Clear -4 1020 82 0 0.92 18 16:20 15.01.2020
508 Clear -4 1020 82 0 0.92 18 16:20 15.01.2020
509 Clear -4 1020 82 0 0.92 18 16:20 15.01.2020
510 Clear -5 1020 82 0 0.92 18 15:43 15.01.2020
511 Clear -5 1020 81 0 0.92 18 15:21 15.01.2020
512 Clear -4 1020 80 0 0.92 18 14:57 15.01.2020
513 Clear -4 1020 77 0 0.92 18 14:39 15.01.2020
514 Clear -4 1020 79 0 0.52 17 14:18 15.01.2020
515 Clear -5 1019 82 0 0.52 17 13:44 15.01.2020
516 Clear -5 1019 82 0 0.52 17 13:44 15.01.2020
517 Clear -5 1019 82 0 0.52 17 13:23 15.01.2020
518 Clear -5 1019 80 0 0.78 26 12:57 15.01.2020
519 Clear -4 1019 77 0 0.78 26 12:39 15.01.2020
520 Clear -4 1019 75 0 0.78 26 12:19 15.01.2020
521 Clear 3 1018 65 0 0.78 26 11:55 15.01.2020
522 Clear -2 1020 71 0 0.78 26 11:36 15.01.2020
523 Clear -2 1020 71 0 0.78 26 11:36 15.01.2020
524 Clear -2 1020 70 0 0.45 344 11:18 15.01.2020
525 Clear -3 1019 75 0 0.89 141 10:41 15.01.2020
526 Clear -4 1020 77 0 0.45 141 10:21 15.01.2020
527 Clear -3 1020 75 0 0.76 234 09:42 15.01.2020
528 Clear -3 1020 76 0 0.76 234 09:22 15.01.2020
529 Clear -3 1020 75 0 0.76 234 08:55 15.01.2020
530 Clear -3 1020 73 0 0.76 234 08:37 15.01.2020
531 Clear -3 1020 71 0 0.25 243 08:19 15.01.2020
532 Clear -1 1019 64 0 0.25 243 07:43 15.01.2020
533 Clear -1 1019 65 0 0.25 243 07:24 15.01.2020
534 Clear -1 1019 65 0 0.25 243 06:44 15.01.2020
535 Clear -2 1019 68 0 0.25 243 05:57 15.01.2020
536 Clear -1 1018 66 0 1.63 352 04:34 15.01.2020
537 Clear 4 1018 49 0 1.63 352 02:30 15.01.2020
538 Clear 9 1014 41 0 1.27 103 01:25 15.01.2020
539 Clear 8 1015 43 0 1.45 59 00:45 15.01.2020
540 Clear 8 1015 43 0 1.45 59 00:26 15.01.2020
541 Clear 8 1015 43 0 1.45 59 23:48 14.01.2020
542 Clear 8 1015 43 0 1.45 59 23:29 14.01.2020
543 Clear 11 1017 34 0 1.79 50 22:59 14.01.2020
544 Clear 11 1017 35 0 2.24 60 22:40 14.01.2020
545 Clear 11 1017 36 0 1.79 55 22:19 14.01.2020
546 Clear 11 1017 36 0 2.68 45 21:58 14.01.2020
547 Clear 11 1017 37 0 2.68 34 21:39 14.01.2020
548 Clear 10 1018 38 0 2.24 40 21:21 14.01.2020
549 Clear 10 1018 39 0 2.24 45 20:58 14.01.2020
550 Clear 9 1018 40 0 1.34 54 20:40 14.01.2020
551 Clouds 7 1018 46 0 0.9 216 20:19 14.01.2020
552 Clear 7 1018 49 0 0.54 178 19:55 14.01.2020
553 Clear 8 1019 45 0 1.34 50 19:37 14.01.2020
554 Clear 7 1019 47 0 1.34 91 19:18 14.01.2020
555 Clear 6 1019 52 0 1.34 71 18:41 14.01.2020
556 Clear 5 1020 54 0 2.24 348 18:21 14.01.2020
557 Clear 4 1019 55 0 0.45 188 17:59 14.01.2020
558 Clear 2 1019 66 0 0.89 59 17:37 14.01.2020
559 Clear 1 1019 69 0 0.45 316 17:19 14.01.2020
560 Clear -1 1018 76 0 0.89 103 16:55 14.01.2020
561 Clear -4 1018 80 0 0.89 23 16:37 14.01.2020
562 Clear -4 1019 81 0 0.89 230 16:19 14.01.2020
563 Clear -3 1019 74 0 0.67 339 15:42 14.01.2020
564 Clear -3 1019 78 0 0.45 40 15:19 14.01.2020
565 Clear -3 1018 78 0 0.89 235 14:47 14.01.2020
566 Clear -3 1018 78 0 0.89 235 14:23 14.01.2020
567 Clear 3 1017 66 0 1.87 272 13:59 14.01.2020
568 Clear -1 1019 71 0 0.45 329 13:41 14.01.2020
569 Clear -2 1019 75 0 1.34 3 13:19 14.01.2020
570 Clear 2 1017 68 0 1.32 272 12:42 14.01.2020
571 Clear 2 1017 68 0 1.32 272 12:24 14.01.2020
572 Clear 2 1017 68 0 1.32 272 11:58 14.01.2020
573 Clear 2 1017 68 0 1.32 272 11:40 14.01.2020
574 Clear -3 1019 80 0 0.45 351 11:22 14.01.2020
575 Clear -3 1019 80 0 0.45 352 10:56 14.01.2020
576 Clear -4 1019 81 0 1.52 258 10:37 14.01.2020
577 Clear -4 1019 84 0 1.52 258 10:19 14.01.2020
578 Clear -5 1019 83 0 1.52 258 09:43 14.01.2020
579 Clear -5 1019 83 0 1.52 258 09:43 14.01.2020
580 Clear -4 1019 80 0 0.45 84 09:24 14.01.2020
581 Clear -4 1019 79 0 1.52 258 08:59 14.01.2020
582 Clear -3 1020 78 0 0.45 84 08:40 14.01.2020
583 Clear -3 1020 76 0 0.45 75 08:21 14.01.2020
584 Clear -3 1020 76 0 1.9 239 07:51 14.01.2020
585 Clear -3 1020 76 0 1.9 239 07:25 14.01.2020
586 Clear -3 1020 78 0 1.9 239 06:44 14.01.2020
587 Clear -3 1020 77 0 1.9 239 05:59 14.01.2020
588 Clear -3 1020 74 0 0.45 87 04:56 14.01.2020
589 Clear -2 1020 68 0 2.05 223 03:48 14.01.2020
590 Clear 1 1020 60 0 2.05 223 02:40 14.01.2020
591 Clear 7 1020 40 0 1.34 74 01:31 14.01.2020
592 Clear 9 1020 37 0 1.79 70 00:48 14.01.2020
593 Clear 8 1017 50 0 2.14 158 00:26 14.01.2020
594 Clear 8 1017 50 0 2.14 158 23:47 13.01.2020
595 Clear 10 1020 36 0 1.79 69 23:19 13.01.2020
596 Clear 10 1020 36 0 1.79 69 22:59 13.01.2020
597 Clear 8 1018 51 0 2.27 154 22:40 13.01.2020
598 Clear 10 1020 34 0 2.24 40 22:20 13.01.2020
599 Clear 10 1020 34 0 2.24 40 21:56 13.01.2020
600 Clear 10 1020 35 0 2.24 27 21:37 13.01.2020
601 Clear 10 1020 35 0 2.68 40 21:18 13.01.2020
602 Clear 10 1021 34 0 2.24 40 20:56 13.01.2020
603 Clear 10 1021 35 0 2.24 40 20:38 13.01.2020
604 Clouds 5 1020 60 0 1.23 111 20:20 13.01.2020
605 Clouds 5 1020 60 0 1.23 111 19:56 13.01.2020
606 Clouds 5 1020 60 0 1.23 111 19:37 13.01.2020
607 Clouds 5 1020 60 0 1.23 111 19:18 13.01.2020
608 Clouds 5 1020 60 0 1.23 111 18:55 13.01.2020
609 Clouds 6 1021 46 0 0.45 259 18:36 13.01.2020
610 Clouds 5 1021 47 0 0.89 259 18:18 13.01.2020
611 Clouds 3 1021 59 0 1.23 111 17:40 13.01.2020
612 Clouds 1 1021 68 0 0.49 41 17:21 13.01.2020
613 Clouds 1 1018 81 0 0.49 41 16:56 13.01.2020
614 Clouds 1 1018 81 0 0.49 41 16:37 13.01.2020
615 Clouds -5 1019 82 0 0.49 41 16:18 13.01.2020
616 Clouds 1 1018 81 0 0.49 41 15:43 13.01.2020
617 Clouds 1 1018 81 0 0.49 41 15:22 13.01.2020
618 Clouds 1 1018 81 0 0.49 41 14:57 13.01.2020
619 Clouds 1 1018 81 0 0.49 41 14:37 13.01.2020
620 Clouds 1 1018 81 0 0.49 41 14:37 13.01.2020
621 Clouds -4 1018 76 0 0.62 6 14:18 13.01.2020
622 Clouds -4 1017 78 0 0.62 6 13:41 13.01.2020
623 Clouds -4 1017 78 0 0.62 6 13:23 13.01.2020
624 Clear -4 1017 75 0 0.68 16 12:58 13.01.2020
625 Clear -4 1017 74 0 0.68 16 12:40 13.01.2020
626 -273 0 0 0 0 0 12:22 13.01.2020
627 Clear -4 1017 76 0 0.68 16 11:56 13.01.2020
628 Clear -4 1017 76 0 0.68 16 11:37 13.01.2020
629 Clear -4 1017 75 0 0.51 281 11:18 13.01.2020
630 Clear -4 1017 76 0 0.51 281 10:55 13.01.2020
631 Clear -4 1017 75 0 0.51 281 10:36 13.01.2020
632 Clear -4 1017 73 0 0.51 281 10:18 13.01.2020
633 Clear -4 1017 73 0 0.51 281 10:18 13.01.2020
634 Clear -2 1017 65 0 0.45 245 09:40 13.01.2020
635 Clear -2 1017 65 0 0.51 281 09:22 13.01.2020
636 Clear -3 1017 68 0 0.51 281 08:44 13.01.2020
637 Clouds -3 1017 68 0 0.63 268 08:21 13.01.2020
638 Clouds -3 1017 68 0 0.45 339 07:59 13.01.2020
639 Clouds -3 1017 68 0 0.45 339 07:59 13.01.2020
640 Clouds -3 1017 66 0 0.63 268 07:40 13.01.2020
641 Clouds -3 1017 65 0 0.63 268 07:18 13.01.2020
642 Clouds -3 1017 67 0 0.63 268 06:37 13.01.2020
643 Clouds -3 1017 67 0 0.63 268 06:37 13.01.2020
644 Clouds -2 1017 58 0 0.63 268 05:36 13.01.2020
645 Clouds -2 1017 59 0 1.11 208 04:25 13.01.2020
646 Clouds 1 1018 50 0 1.11 208 03:35 13.01.2020
647 Clouds 3 1017 43 0 1.34 24 02:49 13.01.2020
648 Clouds 3 1017 43 0 1.34 24 02:30 13.01.2020
649 Clouds 7 1017 34 0 1.34 40 01:33 13.01.2020
650 Clouds 7 1017 34 0 1.34 40 00:44 13.01.2020
651 Clouds 7 1017 34 0 1.34 40 00:25 13.01.2020
652 Clouds 9 1016 30 0 2.24 1 23:57 12.01.2020
653 Clouds 8 1015 45 0 2.15 146 23:38 12.01.2020
654 Clouds 7 1016 45 0 1.59 113 23:20 12.01.2020
655 Clouds 7 1016 45 0 1.59 113 22:43 12.01.2020
656 Clouds 7 1016 45 0 1.59 113 22:25 12.01.2020
657 Clouds 7 1016 45 0 1.59 113 21:59 12.01.2020
658 Clouds 11 1017 28 0 2.24 31 21:40 12.01.2020
659 Clouds 11 1018 29 0 1.34 40 21:20 12.01.2020
660 Clouds 11 1018 29 0 1.34 40 20:58 12.01.2020
661 Clouds 11 1019 29 0 1.34 50 20:39 12.01.2020
662 Clear 7 1020 45 0 1.41 93 20:21 12.01.2020
663 Clear 7 1020 45 0 1.41 93 19:56 12.01.2020
664 Clear 7 1020 45 0 1.41 93 19:56 12.01.2020
665 Clear 7 1020 45 0 1.41 93 19:38 12.01.2020
666 Clear 7 1020 45 0 1.41 93 19:38 12.01.2020
667 Clear 7 1020 45 0 1.41 93 19:19 12.01.2020
668 Clear 7 1020 45 0 1.41 93 18:58 12.01.2020
669 Clear 7 1020 37 0 0.89 32 18:40 12.01.2020
670 Clear 6 1020 41 0 0.89 21 18:21 12.01.2020
671 Clear 6 1020 41 0 0.89 21 17:58 12.01.2020
672 Clear 4 1020 43 0 1.34 97 17:40 12.01.2020
673 Clear 1 1020 55 0 1.02 281 17:19 12.01.2020
674 Clear 1 1020 55 0 1.02 281 16:56 12.01.2020
675 Clear 1 1020 55 0 1.02 281 16:56 12.01.2020
676 Clear -1 1020 58 0 0.45 85 16:37 12.01.2020
677 Clear -2 1020 59 0 1.02 281 16:19 12.01.2020
678 Clear -1 1020 55 0 1.02 281 15:43 12.01.2020
679 Clear 0 1020 54 0 0.89 104 15:24 12.01.2020
680 Clear -2 1020 64 0 0.45 111 14:57 12.01.2020
681 Clear 2 1019 63 0 1.02 281 14:38 12.01.2020
682 Clouds -3 1020 68 0 1.13 287 14:20 12.01.2020
683 Clouds -3 1020 68 0 1.13 287 13:54 12.01.2020
684 Clouds -4 1020 69 0 1.13 287 13:36 12.01.2020
685 Clear -3 1021 63 0 1.5 246 13:18 12.01.2020
686 Clear -3 1021 63 0 1.5 246 13:18 12.01.2020
687 Clear -3 1021 63 0 1.5 246 13:18 12.01.2020
688 Clear -2 1021 60 0 1.5 246 12:43 12.01.2020
689 Clear -1 1020 58 0 1.5 246 12:21 12.01.2020
690 Clear -1 1020 58 0 1.5 246 11:59 12.01.2020
691 Clear -1 1020 56 0 1.5 246 11:39 12.01.2020
692 Clear -2 1020 57 0 0.45 152 11:21 12.01.2020
693 Clear -2 1020 57 0 0.45 152 10:42 12.01.2020
694 Clear -2 1020 57 0 0.45 152 10:22 12.01.2020
695 Clear -2 1020 55 0 0.68 240 09:59 12.01.2020
696 Clear -1 1020 54 0 0.68 240 09:41 12.01.2020
697 Clear -2 1021 55 0 0.45 28 09:21 12.01.2020
698 Clear -1 1021 52 0 0.68 240 08:47 12.01.2020
699 Clear 0 1021 49 0 0.45 8 08:21 12.01.2020
700 Clear 0 1021 48 0 1.45 350 07:45 12.01.2020
701 Clear 1 1021 47 0 0.89 11 07:25 12.01.2020
702 Clear 1 1021 46 0 0.45 360 06:50 12.01.2020
703 Clear 1 1021 45 0 1.45 350 06:32 12.01.2020
704 Clear 1 1020 46 0 1.45 350 05:49 12.01.2020
705 Clear 2 1020 40 0 0.45 88 04:53 12.01.2020
706 Clear 1 1019 47 0 2.02 14 03:33 12.01.2020
707 Clear 3 1018 42 0 2.02 14 02:43 12.01.2020
708 Clear 4 1017 37 0 2.24 57 02:22 12.01.2020
709 Clear 8 1015 36 0 1.64 63 01:30 12.01.2020
710 Clear 8 1015 36 0 1.64 63 00:46 12.01.2020
711 Clear 8 1015 36 0 1.64 63 00:22 12.01.2020
712 Clear 8 1015 36 0 1.64 63 23:56 11.01.2020
713 Clear 8 1015 36 0 1.64 63 23:37 11.01.2020
714 Clear 8 1015 35 0 1.61 122 23:18 11.01.2020
715 Clear 8 1015 35 0 1.61 122 22:56 11.01.2020
716 Clear 8 1015 35 0 1.61 122 22:37 11.01.2020
717 Clear 8 1015 35 0 1.61 122 22:19 11.01.2020
718 Clear 14 1017 22 0 1.79 30 21:44 11.01.2020
719 Clear 13 1017 24 0 0.89 20 21:19 11.01.2020
720 Clear 13 1017 24 0 0.89 20 21:19 11.01.2020
721 Clear 11 1017 28 0 0.89 34 20:56 11.01.2020
722 Clear 7 1019 30 0 1.79 205 20:38 11.01.2020
723 Clear 7 1019 30 0 1.79 205 20:19 11.01.2020
724 Clear 7 1019 30 0 1.79 205 19:56 11.01.2020
725 Clear 8 1020 30 0 1.34 176 19:38 11.01.2020
726 Clear 7 1020 30 0 1.34 81 19:20 11.01.2020
727 Clear 7 1020 30 0 1.34 79 18:55 11.01.2020
728 Clear 6 1020 34 0 2.24 45 18:36 11.01.2020
729 Clear 6 1020 34 0 2.24 45 18:18 11.01.2020
730 Clear 6 1020 34 0 2.24 45 18:18 11.01.2020
731 Clear 6 1020 34 0 2.24 45 18:18 11.01.2020
732 Clear 6 1020 34 0 2.24 45 18:18 11.01.2020
733 Clear 6 1019 37 0 2.68 349 17:57 11.01.2020
734 Clear 5 1019 40 0 1.34 33 17:38 11.01.2020
735 Clear 2 1018 50 0 0.45 230 17:18 11.01.2020
736 Clear -3 1019 63 0 1.34 104 16:43 11.01.2020
737 Clear -4 1019 65 0 0.45 335 16:24 11.01.2020
738 Clear -4 1019 65 0 1.08 355 15:56 11.01.2020
739 Clear -4 1019 62 0 1.08 355 15:38 11.01.2020
740 Clear -3 1020 57 0 1.08 355 15:19 11.01.2020
741 Clear -2 1020 53 0 1.08 355 14:46 11.01.2020
742 Clear 2 1019 53 0 1.08 355 14:25 11.01.2020
743 Clouds -4 1020 61 0 0.45 345 13:57 11.01.2020
744 Clouds -4 1020 63 0 1.66 242 13:38 11.01.2020
745 Clouds -4 1020 62 0 1.44 266 13:19 11.01.2020
746 Clouds -4 1020 64 0 1.44 266 12:55 11.01.2020
747 Clouds -3 1021 58 0 1.44 266 12:36 11.01.2020
748 Clouds -3 1021 58 0 1.44 266 12:18 11.01.2020
749 Clouds 3 1020 47 0 1.44 266 11:42 11.01.2020
750 Clouds -2 1022 53 0 1.44 266 11:23 11.01.2020
751 Clouds -1 1022 49 0 2.04 249 10:46 11.01.2020
752 Clouds -1 1022 47 0 2.04 249 10:25 11.01.2020
753 Clouds -1 1023 47 0 0.45 214 09:43 11.01.2020
754 Clouds 0 1023 46 0 0.45 91 09:21 11.01.2020
755 Clouds 0 1023 44 0 1.79 96 08:57 11.01.2020
756 Clouds 0 1024 45 0 0.45 323 08:38 11.01.2020
757 Clouds 0 1024 44 0 0.45 133 08:19 11.01.2020
758 Clouds 0 1025 45 0 1.51 246 07:42 11.01.2020
759 Clouds -1 1025 48 0 1.51 246 07:24 11.01.2020
760 Clouds 0 1026 47 0 0.45 318 06:43 11.01.2020
761 Clouds -1 1026 53 0 1.51 246 05:30 11.01.2020
762 Clear 5 1024 40 0 1.3 237 04:42 11.01.2020
763 Clear 5 1024 40 0 1.3 237 04:24 11.01.2020
764 Clear 3 1026 35 0 0.89 60 02:48 11.01.2020
765 Clear 6 1026 31 0 0.89 50 01:47 11.01.2020
766 Clear 8 1024 28 0 1.05 180 01:28 11.01.2020
767 Clear 8 1024 26 0 0.91 146 00:54 11.01.2020
768 Clear 8 1024 26 0 0.91 146 00:29 11.01.2020
769 Clear 8 1024 26 0 0.91 146 23:59 10.01.2020
770 Clear 8 1024 26 0 0.91 146 23:39 10.01.2020
771 Clear 8 1024 25 0 2.02 41 23:20 10.01.2020
772 Clear 8 1024 25 0 2.02 41 22:54 10.01.2020
773 Clear 8 1024 25 0 2.02 41 22:36 10.01.2020
774 Clear 8 1024 25 0 2.02 41 22:18 10.01.2020
775 Clear 8 1024 25 0 2.02 41 21:41 10.01.2020
776 Clear 8 1024 25 0 2.02 41 21:21 10.01.2020
777 Clear 8 1024 25 0 2.02 41 21:00 10.01.2020
778 Clear 13 1027 16 0 1.34 50 20:41 10.01.2020
779 Clear 8 1024 26 0 1.73 52 20:23 10.01.2020
780 Clear 7 1026 28 0 2.98 28 19:54 10.01.2020
781 Clear 7 1026 28 0 2.98 28 19:36 10.01.2020
782 Clear 7 1026 28 0 2.98 28 19:18 10.01.2020
783 Clear 7 1028 25 0 0.45 210 18:41 10.01.2020
784 Clear 6 1027 26 0 0.45 229 18:19 10.01.2020
785 Clear 6 1027 26 0 0.45 30 17:57 10.01.2020
786 Clear 6 1027 27 0 2.98 28 17:38 10.01.2020
787 Clear 1 1027 44 0 0.94 13 17:20 10.01.2020
788 Clear 1 1027 44 0 0.94 13 17:20 10.01.2020
789 Clear -2 1026 52 0 0.94 13 16:55 10.01.2020
790 Clear 1 1024 36 0 0.94 13 16:37 10.01.2020
791 Clear 1 1024 36 0 0.94 13 16:19 10.01.2020
792 Clear 1 1024 36 0 0.94 13 15:55 10.01.2020
793 Clear 1 1024 36 0 0.94 13 15:36 10.01.2020
794 Clear 1 1024 36 0 0.94 13 15:18 10.01.2020
795 Clear -4 1024 52 0 0.94 13 14:54 10.01.2020
796 Clear -2 1024 46 0 0.94 13 14:36 10.01.2020
797 Clear -2 1024 46 0 1.17 20 14:18 10.01.2020
798 Clear -1 1023 41 0 0.45 333 13:42 10.01.2020
799 Clear -1 1023 40 0 0.89 331 13:23 10.01.2020
800 Clear -1 1023 42 0 1.34 316 12:58 10.01.2020
801 Clear 1 1023 42 0 1.79 335 12:39 10.01.2020
802 Clear 1 1023 42 0 1.79 335 12:39 10.01.2020
803 Clear 1 1023 42 0 1.79 335 12:39 10.01.2020
804 Clear 1 1023 42 0 1.79 302 12:19 10.01.2020
805 Clear 0 1023 44 0 1.79 268 11:55 10.01.2020
806 Clear 0 1023 45 0 0.89 282 11:37 10.01.2020
807 Clear 0 1023 45 0 0.89 282 11:18 10.01.2020
808 Clear -1 1023 48 0 0.89 345 10:57 10.01.2020
809 Clear -1 1022 51 0 4.47 324 10:36 10.01.2020
810 Clear -1 1022 52 0 4.02 332 10:18 10.01.2020
811 Clear 0 1022 51 0 4.47 355 09:42 10.01.2020
812 Clear 0 1021 53 0 4.47 340 09:23 10.01.2020
813 Clear -1 1022 58 0 1.79 326 08:43 10.01.2020
814 Clear 0 1022 58 0 0.89 310 08:24 10.01.2020
815 Clear 1 1022 54 0 2.68 329 07:47 10.01.2020
816 Clear 1 1021 56 0 1.79 326 07:28 10.01.2020
817 Clear 1 1021 54 0 1.79 348 06:56 10.01.2020
818 Clear 2 1021 49 0 4.02 331 06:27 10.01.2020
819 -273 0 0 0 0 0 05:52 10.01.2020
820 Clear 4 1018 40 0 4.02 341 03:50 10.01.2020
821 Clear 3 1018 41 0 3.13 332 03:31 10.01.2020
822 Clear 6 1016 43 0 2.58 340 02:51 10.01.2020
823 Clouds 5 1017 37 0 3.58 29 01:53 10.01.2020
824 Clouds 8 1012 43 0 1.72 20 01:29 10.01.2020
825 Clouds 8 1013 36 0 2.24 18 00:49 10.01.2020
826 Clouds 8 1013 36 0 2.24 18 00:31 10.01.2020
827 Clouds 8 1013 36 0 2.24 18 23:55 09.01.2020
828 Clouds 8 1013 36 0 2.24 18 23:36 09.01.2020
829 Clouds 7 1011 44 0 1.9 57 23:18 09.01.2020
830 Clouds 7 1011 44 0 1.9 57 22:54 09.01.2020
831 Clouds 7 1011 44 0 1.9 57 22:36 09.01.2020
832 Clouds 7 1011 44 0 1.9 57 22:18 09.01.2020
833 Clouds 7 1011 44 0 1.9 57 21:54 09.01.2020
834 Clouds 7 1011 44 0 1.9 57 21:36 09.01.2020
835 Clouds 7 1011 44 0 1.9 57 21:18 09.01.2020
836 Clouds 7 1011 44 0 1.9 57 20:54 09.01.2020
837 Clouds 7 1011 44 0 1.9 57 20:36 09.01.2020
838 Clouds 6 1012 51 0 0.68 125 20:18 09.01.2020
839 Clouds 6 1012 51 0 0.68 125 19:39 09.01.2020
840 Clouds 6 1012 51 0 0.68 125 19:20 09.01.2020
841 Clouds 6 1012 51 0 0.68 125 18:57 09.01.2020
842 Clouds 8 1014 38 0 0.45 71 18:39 09.01.2020
843 Clouds 7 1014 41 0 0.45 21 18:20 09.01.2020
844 Clouds 4 1013 50 0 0.45 61 17:41 09.01.2020
845 Clouds 4 1013 50 0 0.45 61 17:41 09.01.2020
846 Clouds 0 1014 67 0 0.57 243 17:19 09.01.2020
847 Clouds -2 1013 73 0 0.57 243 16:59 09.01.2020
848 Clouds 3 1012 63 0 0.57 243 16:41 09.01.2020
849 Clouds -4 1013 77 0 0.57 243 16:21 09.01.2020
850 Clouds 3 1012 63 0 0.57 243 15:43 09.01.2020
851 Clouds -3 1013 71 0 0.57 243 15:23 09.01.2020
852 Clouds -3 1013 71 0 0.57 243 14:58 09.01.2020
853 Clouds -4 1012 73 0 0.57 243 14:40 09.01.2020
854 Clouds -4 1012 75 0 2.19 264 14:19 09.01.2020
855 Clouds -4 1013 73 0 2.19 264 13:55 09.01.2020
856 Clouds -3 1013 72 0 2.19 264 13:37 09.01.2020
857 Clouds -3 1013 70 0 1.52 271 13:19 09.01.2020
858 Clouds -3 1013 70 0 1.52 271 12:56 09.01.2020
859 Clouds -3 1013 70 0 1.52 271 12:56 09.01.2020
860 Clouds -3 1013 70 0 1.52 271 12:38 09.01.2020
861 Clouds 3 1013 60 0 1.52 271 12:18 09.01.2020
862 Clouds -2 1013 66 0 0.45 215 11:42 09.01.2020
863 Clouds -2 1013 66 0 1.52 271 11:24 09.01.2020
864 Clouds -2 1013 66 0 1.52 271 11:24 09.01.2020
865 Clouds -1 1013 61 0 0.86 233 10:58 09.01.2020
866 Clouds -1 1013 63 0 0.89 215 10:40 09.01.2020
867 Clouds -1 1013 61 0 0.89 214 10:21 09.01.2020
868 Clouds -1 1013 65 0 0.86 233 09:47 09.01.2020
869 Clouds -2 1013 69 0 0.86 233 09:25 09.01.2020
870 Clouds -3 1013 72 0 0.86 233 08:59 09.01.2020
871 Clouds -3 1013 74 0 0.86 233 08:39 09.01.2020
872 Clouds -3 1013 71 0 1.74 246 08:21 09.01.2020
873 Clouds -2 1014 66 0 1.74 246 07:53 09.01.2020
874 Clouds -2 1014 65 0 1.74 246 07:33 09.01.2020
875 Clouds 6 1014 48 0 1.74 246 06:52 09.01.2020
876 Clouds 6 1014 48 0 1.74 246 06:32 09.01.2020
877 Clouds 6 1014 48 0 1.74 246 05:52 09.01.2020
878 Clouds -2 1014 67 0 1.74 246 05:26 09.01.2020
879 Clouds -2 1014 64 0 0.41 261 04:40 09.01.2020
880 Clouds 2 1014 50 0 0.41 261 03:28 09.01.2020
881 Clouds 4 1014 43 0 0.45 193 02:47 09.01.2020
882 Clouds 6 1014 37 0 1.34 40 01:42 09.01.2020
883 Clouds 10 1013 39 0 1.82 209 01:18 09.01.2020
884 Clouds 10 1013 39 0 1.82 209 00:39 09.01.2020
885 Clouds 8 1013 30 0 1.79 50 00:19 09.01.2020
886 Clouds 10 1013 39 0 1.82 209 23:41 08.01.2020
887 Clouds 10 1013 39 0 1.82 209 23:23 08.01.2020
888 Clear 10 1013 34 0 1.1 128 22:56 08.01.2020
889 Clear 10 1013 34 0 1.1 128 22:38 08.01.2020
890 Clear 10 1013 34 0 1.1 128 22:19 08.01.2020
891 Clear 10 1013 34 0 1.1 128 21:55 08.01.2020
892 Clear 10 1013 34 0 1.1 128 21:37 08.01.2020
893 Clear 10 1013 34 0 1.1 128 21:18 08.01.2020
894 Clear 10 1013 34 0 1.1 128 20:56 08.01.2020
895 Clear 10 1013 34 0 1.1 128 20:37 08.01.2020
896 Clear 9 1016 33 0 0.9 1 20:19 08.01.2020
897 Clear 9 1016 30 0 1.34 29 19:39 08.01.2020
898 Clear 9 1016 30 0 1.34 29 19:20 08.01.2020
899 Clear 9 1016 30 0 1.34 29 18:59 08.01.2020
900 Clear 8 1016 23 0 2.24 268 18:40 08.01.2020
901 Clear 9 1016 27 0 0.45 308 18:19 08.01.2020
902 Clear 9 1016 27 0 0.45 308 18:19 08.01.2020
903 Clear 9 1016 27 0 0.45 308 18:19 08.01.2020
904 Clear 8 1016 29 0 1.34 29 17:59 08.01.2020
905 Clear 7 1015 34 0 1.34 343 17:40 08.01.2020
906 Clear 4 1015 42 0 0.45 171 17:22 08.01.2020
907 Clear 2 1014 50 0 0.45 295 16:57 08.01.2020
908 Clear 0 1014 55 0 2.8 322 16:38 08.01.2020
909 Clear 0 1014 53 0 0.89 151 16:19 08.01.2020
910 Clear 1 1014 51 0 2.8 322 15:56 08.01.2020
911 Clear 3 1013 42 0 1.79 97 15:38 08.01.2020
912 Clear 3 1013 38 0 1.34 356 15:18 08.01.2020
913 Clear 3 1012 41 0 1.34 16 14:41 08.01.2020
914 Clouds 7 1014 38 0 4.35 254 14:21 08.01.2020
915 Clouds 7 1014 38 0 4.35 254 13:56 08.01.2020
916 Clouds 7 1014 38 0 4.35 254 13:37 08.01.2020
917 Clouds 6 1013 38 0 4.15 258 13:18 08.01.2020
918 Clouds 6 1013 38 0 4.15 258 12:40 08.01.2020
919 Clouds 2 1015 47 0 0.89 216 12:18 08.01.2020
920 Clouds 2 1015 48 0 0.45 277 11:49 08.01.2020
921 Clouds 1 1015 49 0 0.45 311 11:20 08.01.2020
922 Clouds 1 1015 51 0 0.89 273 10:59 08.01.2020
923 Clouds 2 1015 48 0 3.31 251 10:41 08.01.2020
924 Clouds 2 1015 47 0 0.45 40 10:22 08.01.2020
925 Clouds 1 1015 48 0 1.34 10 09:58 08.01.2020
926 Clouds 1 1016 52 0 0.45 2 09:38 08.01.2020
927 Clouds 2 1017 49 0 0.45 89 09:18 08.01.2020
928 Clouds 2 1017 46 0 3.31 251 08:42 08.01.2020
929 Clouds 2 1017 46 0 3.66 246 08:24 08.01.2020
930 Clouds 2 1018 48 0 0.89 81 07:59 08.01.2020
931 Clouds 2 1018 46 0 0.45 31 07:41 08.01.2020
932 Clouds 3 1019 44 0 1.34 125 07:23 08.01.2020
933 Clouds 3 1019 44 0 0.89 360 06:44 08.01.2020
934 Clouds 3 1019 40 0 0.45 104 05:57 08.01.2020
935 Clouds 4 1020 39 0 2.8 229 05:27 08.01.2020
936 Clouds 6 1020 34 0 1.34 125 04:46 08.01.2020
937 Clouds 5 1020 35 0 1.34 105 03:32 08.01.2020
938 Clouds 6 1021 32 0 1.79 154 02:44 08.01.2020
939 Clouds 6 1021 35 0 0.89 101 02:19 08.01.2020
940 Clouds 7 1021 34 0 1.79 104 01:39 08.01.2020
941 Clouds 11 1021 27 0 2.24 81 00:54 08.01.2020
942 Clouds 10 1021 28 0 1.34 75 00:26 08.01.2020
943 Clouds 11 1021 28 0 1.79 59 23:47 07.01.2020
944 Clouds 12 1022 26 0 2.24 87 23:22 07.01.2020
945 Clouds 12 1020 25 0 1.3 115 22:58 07.01.2020
946 Clouds 12 1022 24 0 1.79 58 22:39 07.01.2020
947 Clouds 12 1020 25 0 1.3 115 22:19 07.01.2020
948 Clouds 14 1023 21 0 1.79 29 21:55 07.01.2020
949 Clouds 15 1024 21 0 1.79 58 21:37 07.01.2020
950 Clouds 14 1024 21 0 1.79 56 21:19 07.01.2020
951 Clouds 14 1025 21 0 1.79 56 20:42 07.01.2020
952 Clouds 12 1020 25 0 1.3 115 20:24 07.01.2020
953 Clouds 10 1025 25 0 1.82 36 19:59 07.01.2020
954 Clouds 10 1025 25 0 1.82 36 19:38 07.01.2020
955 Clouds 10 1025 25 0 1.82 36 19:19 07.01.2020
956 Clouds 13 1028 23 0 0.45 79 18:58 07.01.2020
957 Clouds 13 1028 23 0 0.45 79 18:39 07.01.2020
958 Clouds 11 1028 28 0 1.82 36 18:18 07.01.2020
959 Clouds 11 1028 28 0 1.82 36 18:18 07.01.2020
960 Clouds 11 1028 28 0 1.82 36 17:58 07.01.2020
961 Clouds 9 1028 32 0 1.82 36 17:38 07.01.2020
962 Clear 3 1028 48 0 2.16 5 17:20 07.01.2020
963 Clear 5 1025 34 0 2.16 5 16:56 07.01.2020
964 Clear 5 1025 34 0 2.16 5 16:37 07.01.2020
965 Clear 5 1025 34 0 2.16 5 16:37 07.01.2020
966 Clear -2 1028 62 0 2.16 5 16:18 07.01.2020
967 Clear -3 1028 65 0 2.16 5 15:55 07.01.2020
968 Clear -3 1028 66 0 2.16 5 15:36 07.01.2020
969 Clear -3 1028 66 0 2.16 5 15:18 07.01.2020
970 Clear 5 1025 34 0 2.16 5 14:42 07.01.2020
971 Clear 5 1025 34 0 2.16 5 14:23 07.01.2020
972 Clouds -2 1028 60 0 1.69 6 13:56 07.01.2020
973 Clouds -1 1028 55 0 1.69 6 13:37 07.01.2020
974 Clouds -1 1028 55 0 1.69 6 13:18 07.01.2020
975 Clouds -2 1029 58 0 0.45 360 12:40 07.01.2020
976 Clouds -2 1029 58 0 0.45 360 12:40 07.01.2020
977 Clouds -2 1029 61 0 0.45 360 12:19 07.01.2020
978 Clouds -3 1029 64 0 1.92 6 11:43 07.01.2020
979 Clouds -3 1029 64 0 1.92 6 11:23 07.01.2020
980 Clear -2 1029 64 0 2.34 9 10:59 07.01.2020
981 Clear -2 1029 62 0 2.34 9 10:40 07.01.2020
982 Clear -2 1029 62 0 2.34 9 10:40 07.01.2020
983 Clear -2 1029 62 0 2.34 9 10:22 07.01.2020
984 Clear -2 1029 60 0 2.34 9 09:56 07.01.2020
985 Clear -1 1030 57 0 2.34 9 09:37 07.01.2020
986 Clear -1 1030 56 0 2.34 9 09:19 07.01.2020
987 Clear -1 1030 54 0 2.34 9 08:41 07.01.2020
988 Clear -1 1030 54 0 2.34 9 08:41 07.01.2020
989 Clear 0 1031 52 0 2.1 14 08:21 07.01.2020
990 Clear 0 1031 52 0 2.1 14 07:51 07.01.2020
991 Clear 0 1031 50 0 0.45 360 07:26 07.01.2020
992 Clear 1 1031 50 0 2.1 14 06:52 07.01.2020
993 Clear 1 1031 47 0 2.1 14 06:32 07.01.2020
994 Clear 1 1031 46 0 0.89 2 05:46 07.01.2020
995 Clear 3 1030 37 0 0.45 8 03:52 07.01.2020
996 Clear 3 1030 37 0 0.45 31 03:25 07.01.2020
997 Clear 8 1030 27 0 0.45 31 02:21 07.01.2020
998 Clear 10 1028 28 0 1.54 60 01:45 07.01.2020
999 Clear 10 1028 27 0 1.56 60 01:21 07.01.2020
1000 Clear 10 1028 27 0 1.56 60 00:22 07.01.2020
1001 Clear 10 1028 27 0 1.56 60 23:59 06.01.2020
1002 Clear 10 1028 27 0 1.56 60 23:39 06.01.2020
1003 Clear 11 1029 24 0 2.6 50 23:21 06.01.2020
1004 Clear 11 1029 24 0 2.6 50 22:56 06.01.2020
1005 Clear 11 1029 24 0 2.6 50 22:37 06.01.2020
1006 Clear 11 1029 24 0 2.6 50 22:19 06.01.2020
1007 Clear 11 1029 24 0 2.6 50 21:55 06.01.2020
1008 Clear 11 1029 24 0 2.6 50 21:37 06.01.2020
1009 Clear 11 1029 24 0 2.6 50 21:18 06.01.2020
1010 Clear 11 1029 24 0 2.6 50 20:55 06.01.2020
1011 Clear 11 1029 24 0 2.6 50 20:37 06.01.2020
1012 Clear 9 1032 26 0 2.94 33 20:19 06.01.2020
1013 Clear 9 1032 26 0 2.94 33 19:55 06.01.2020
1014 Clear 9 1032 26 0 2.94 33 19:37 06.01.2020
1015 Clear 9 1032 26 0 2.94 33 19:18 06.01.2020
1016 Clear 11 1034 17 0 2.94 33 18:44 06.01.2020
1017 Clear 11 1034 17 0 0.45 98 18:21 06.01.2020
1018 Clear 9 1032 26 0 2.94 33 17:40 06.01.2020
1019 Clear 5 1033 35 0 3.42 4 17:20 06.01.2020
1020 Clear 4 1033 23 0 0.89 327 16:58 06.01.2020
1021 Clear 2 1033 30 0 0.89 360 16:40 06.01.2020
1022 Clear 1 1033 31 0 0.89 18 16:22 06.01.2020
1023 Clear 2 1033 30 0 0.45 29 15:59 06.01.2020
1024 Clear 4 1033 24 0 0.89 40 15:37 06.01.2020
1025 Clear 4 1032 20 0 1.34 14 15:18 06.01.2020
1026 Clear 4 1032 20 0 1.34 14 15:18 06.01.2020
1027 Clear 3 1032 23 0 1.34 357 14:42 06.01.2020
1028 Clear 3 1032 26 0 0.45 26 14:22 06.01.2020
1029 Clear 3 1032 26 0 0.45 26 14:22 06.01.2020
1030 Clear 4 1032 26 0 0.45 8 13:59 06.01.2020
1031 Clear 4 1032 21 0 1.34 12 13:39 06.01.2020
1032 Clear 4 1032 24 0 0.45 351 13:21 06.01.2020
1033 Clear 4 1032 24 0 0.45 351 13:21 06.01.2020
1034 Clear 4 1032 27 0 3.43 7 12:58 06.01.2020
1035 Clear 5 1031 37 0 3.43 7 12:39 06.01.2020
1036 Clear 4 1032 26 0 1.79 336 12:19 06.01.2020
1037 Clear 4 1032 26 0 1.79 336 12:19 06.01.2020
1038 Clear 5 1031 37 0 3.43 7 11:43 06.01.2020
1039 Clear 5 1031 37 0 3.43 7 11:43 06.01.2020
1040 Clear 5 1031 37 0 3.43 7 11:24 06.01.2020
1041 Clear 4 1032 31 0 2.68 294 11:00 06.01.2020
1042 Clear 4 1032 38 0 1.34 336 10:41 06.01.2020
1043 Clear 4 1032 38 0 0.89 297 10:21 06.01.2020
1044 Clear 4 1033 38 0 1.79 304 09:42 06.01.2020
1045 Clear 5 1032 34 0 0.45 332 09:24 06.01.2020
1046 Clear 6 1031 36 0 3.23 2 08:57 06.01.2020
1047 Clear 6 1031 36 0 3.23 2 08:38 06.01.2020
1048 Clear 6 1031 36 0 3.23 2 08:38 06.01.2020
1049 Clear 6 1032 29 0 3.58 343 08:19 06.01.2020
1050 Clear 6 1033 32 0 0.89 347 07:44 06.01.2020
1051 Clear 6 1032 33 0 3.13 2 06:53 06.01.2020
1052 Clear 5 1033 35 0 2.24 18 06:35 06.01.2020
1053 Clear 6 1032 32 0 2.68 9 05:48 06.01.2020
1054 Clear 6 1032 32 0 3.58 4 05:24 06.01.2020
1055 Clouds 6 1032 33 0 3.58 7 04:24 06.01.2020
1056 Clouds 4 1032 37 0 0.89 354 03:51 06.01.2020
1057 Clouds 8 1030 36 0 2.29 7 02:28 06.01.2020
1058 Clouds 9 1029 39 0 0.89 35 01:53 06.01.2020
1059 Clouds 11 1027 34 0 2.12 47 01:30 06.01.2020
1060 Clouds 11 1027 34 0 2.12 47 00:46 06.01.2020
1061 Clouds 11 1027 34 0 2.12 47 00:28 06.01.2020
1062 Clouds 11 1027 34 0 2.12 47 23:58 05.01.2020
1063 Clouds 11 1027 34 0 2.12 47 23:39 05.01.2020
1064 Clouds 11 1026 39 0 2.53 32 23:21 05.01.2020
1065 Clouds 11 1026 39 0 2.53 32 22:40 05.01.2020
1066 Clouds 11 1026 39 0 2.53 32 22:21 05.01.2020
1067 Clouds 11 1026 39 0 2.53 32 21:58 05.01.2020
1068 Clouds 11 1026 39 0 2.53 32 21:40 05.01.2020
1069 Clouds 14 1029 25 0 1.34 2 21:20 05.01.2020
1070 Clouds 14 1030 25 0 1.79 339 20:58 05.01.2020
1071 Clouds 14 1030 25 0 1.79 339 20:39 05.01.2020
1072 Clouds 14 1030 25 0 1.79 339 20:39 05.01.2020
1073 Clouds 10 1026 44 0 3.12 11 20:19 05.01.2020
1074 Clouds 10 1026 44 0 3.12 11 19:58 05.01.2020
1075 Clouds 10 1026 44 0 3.12 11 19:39 05.01.2020
1076 Clouds 10 1026 44 0 3.12 11 19:39 05.01.2020
1077 Clouds 10 1030 46 0 1.34 219 19:20 05.01.2020
1078 Clouds 10 1029 48 0 0.89 155 18:56 05.01.2020
1079 Clouds 9 1029 51 0 3.58 19 18:38 05.01.2020
1080 Clouds 8 1028 55 0 1.34 57 18:19 05.01.2020
1081 Clouds 6 1028 61 0 2.68 34 17:58 05.01.2020
1082 Clouds 4 1027 67 0 1.34 50 17:39 05.01.2020
1083 Clouds 3 1027 69 0 1.34 35 17:20 05.01.2020
1084 Clouds -1 1027 77 0 2.77 268 16:57 05.01.2020
1085 Clouds 6 1026 57 0 2.77 268 16:39 05.01.2020
1086 Clouds -1 1027 79 0 2.77 268 16:19 05.01.2020
1087 Clouds -1 1027 80 0 0.45 90 15:40 05.01.2020
1088 Clouds -1 1027 78 0 2.77 268 15:21 05.01.2020
1089 Clouds 1 1027 72 0 2.77 268 14:57 05.01.2020
1090 Clouds 1 1027 76 0 0.89 83 14:38 05.01.2020
1091 Clouds 1 1027 76 0 0.89 83 14:20 05.01.2020
1092 Clouds 0 1027 75 0 0.45 301 13:57 05.01.2020
1093 Clouds 1 1027 74 0 0.45 72 13:38 05.01.2020
1094 Clouds 1 1027 74 0 0.45 128 13:20 05.01.2020
1095 Clouds 1 1027 74 0 0.45 128 13:20 05.01.2020
1096 Clouds 1 1027 73 0 0.45 1 12:56 05.01.2020
1097 Clouds 1 1027 69 0 0.45 12 12:37 05.01.2020
1098 Clouds 2 1027 67 0 1.44 249 12:19 05.01.2020
1099 Clouds 2 1027 67 0 1.44 249 12:19 05.01.2020
1100 Clouds 2 1027 67 0 0.45 63 11:54 05.01.2020
1101 Clouds 2 1028 65 0 0.89 93 11:36 05.01.2020
1102 Clouds 3 1028 63 0 0.45 90 11:18 05.01.2020
1103 Clouds 4 1027 60 0 0.89 45 10:40 05.01.2020
1104 Clouds 3 1027 64 0 0.89 58 10:20 05.01.2020
1105 Clouds 1 1028 74 0 0.3 211 09:43 05.01.2020
1106 Clouds 1 1028 73 0 0.3 211 09:22 05.01.2020
1107 Clouds 1 1028 73 0 0.45 5 08:56 05.01.2020
1108 Clouds 1 1029 75 0 0.3 211 08:38 05.01.2020
1109 Clouds 1 1029 75 0 0.78 357 08:20 05.01.2020
1110 Clouds 1 1029 77 0 0.45 5 07:39 05.01.2020
1111 Clouds 1 1030 77 0 0.78 357 07:21 05.01.2020
1112 Clouds 1 1030 77 0 0.78 357 06:54 05.01.2020
1113 Clouds 2 1029 74 0 0.78 357 05:41 05.01.2020
1114 Clouds 1 1029 74 0 1.8 358 04:56 05.01.2020
1115 Clouds 2 1029 71 0 1.8 358 04:19 05.01.2020
1116 Clouds 2 1029 71 0 1.8 358 04:19 05.01.2020
1117 Clouds 4 1029 65 0 1.8 358 03:31 05.01.2020
1118 Clouds 8 1027 49 0 1.8 358 02:33 05.01.2020
1119 Clouds 10 1028 43 0 0.89 32 01:52 05.01.2020
1120 Clouds 10 1025 45 0 1.66 29 01:20 05.01.2020
1121 Clouds 10 1025 45 0 1.66 29 00:57 05.01.2020
1122 Clouds 10 1025 45 0 1.66 29 00:39 05.01.2020
1123 Clouds 10 1025 45 0 1.66 29 00:20 05.01.2020
1124 Clouds 10 1025 45 0 1.66 29 23:42 04.01.2020
1125 Clouds 10 1025 45 0 1.66 29 23:42 04.01.2020
1126 Clouds 12 1024 38 0 0.67 75 23:21 04.01.2020
1127 Clouds 12 1024 38 0 0.67 75 22:59 04.01.2020
1128 Clouds 12 1024 38 0 0.67 75 22:39 04.01.2020
1129 Clouds 12 1024 38 0 0.67 75 22:20 04.01.2020
1130 Clouds 12 1024 38 0 0.67 75 21:56 04.01.2020
1131 Clouds 15 1025 37 0 1.79 50 21:37 04.01.2020
1132 Clouds 13 1026 40 0 1.34 67 21:19 04.01.2020
1133 Clouds 13 1026 40 0 0.89 50 20:55 04.01.2020
1134 Clouds 14 1026 40 0 1.79 50 20:36 04.01.2020
1135 Clouds 10 1027 36 0 0.3 286 20:18 04.01.2020
1136 Clouds 10 1027 36 0 0.3 286 19:41 04.01.2020
1137 Clouds 10 1027 36 0 0.3 286 19:41 04.01.2020
1138 Clouds 10 1027 36 0 0.3 286 19:41 04.01.2020
1139 Clouds 10 1027 36 0 0.3 286 19:23 04.01.2020
1140 Clouds 10 1027 36 0 0.3 286 18:58 04.01.2020
1141 Clouds 9 1027 52 0 0.89 45 18:39 04.01.2020
1142 Clouds 8 1026 55 0 0.89 89 18:20 04.01.2020
1143 Clouds 7 1026 58 0 0.45 45 17:58 04.01.2020
1144 Clouds 6 1026 63 0 0.3 286 17:40 04.01.2020
1145 Clouds 4 1026 67 0 0.73 271 17:21 04.01.2020
1146 Clouds 1 1025 79 0 0.73 271 16:42 04.01.2020
1147 Clouds 0 1025 77 0 0.45 360 16:24 04.01.2020
1148 Clouds 0 1025 77 0 0.45 360 16:24 04.01.2020
1149 Clouds 1 1025 74 0 0.73 271 15:58 04.01.2020
1150 Clouds 1 1025 73 0 0.73 271 15:39 04.01.2020
1151 Clouds 1 1025 71 0 0.73 271 15:19 04.01.2020
1152 Clouds 2 1025 69 0 0.73 271 14:57 04.01.2020
1153 Clouds 2 1025 69 0 0.73 271 14:57 04.01.2020
1154 Clouds 2 1025 69 0 0.73 271 14:39 04.01.2020
1155 Clouds 2 1024 67 0 1.79 241 14:19 04.01.2020
1156 Clouds 2 1024 68 0 0.89 2 13:56 04.01.2020
1157 Clouds 3 1024 64 0 0.45 259 13:37 04.01.2020
1158 Clouds 3 1024 64 0 0.45 259 13:37 04.01.2020
1159 Clouds 3 1025 64 0 0.45 267 13:18 04.01.2020
1160 Clouds 3 1025 63 0 3.13 91 12:42 04.01.2020
1161 Clouds 5 1025 53 0 1.41 241 12:20 04.01.2020
1162 Clouds 5 1025 53 0 1.41 241 11:59 04.01.2020
1163 Clouds 5 1025 53 0 1.41 241 11:40 04.01.2020
1164 Clouds 7 1025 53 0 0.89 96 11:19 04.01.2020
1165 Clouds 7 1025 53 0 1.79 131 10:58 04.01.2020
1166 Clouds 6 1025 49 0 1.56 240 10:38 04.01.2020
1167 Clouds 6 1026 56 0 2.68 108 10:19 04.01.2020
1168 Clouds 5 1026 56 0 1.79 85 09:42 04.01.2020
1169 Clouds 5 1026 56 0 0.89 104 09:24 04.01.2020
1170 Clouds 6 1027 56 0 1.79 65 08:44 04.01.2020
1171 Clouds 5 1027 57 0 1.79 99 08:25 04.01.2020
1172 Clouds 2 1027 67 0 0.45 230 07:51 04.01.2020
1173 Clouds 2 1027 67 0 0.45 230 07:32 04.01.2020
1174 Clouds 3 1028 61 0 0.94 218 06:39 04.01.2020
1175 Clouds 2 1027 69 0 0.94 218 05:46 04.01.2020
1176 Clouds 2 1027 68 0 0.45 317 04:47 04.01.2020
1177 Clouds 3 1027 67 0 0.26 134 04:27 04.01.2020
1178 Clouds 4 1026 59 0 0.26 134 03:19 04.01.2020
1179 Clouds 6 1026 54 0 0.26 134 02:38 04.01.2020
1180 Clouds 7 1026 48 0 1.34 97 02:18 04.01.2020
1181 Clouds 9 1026 42 0 0.45 64 01:32 04.01.2020
1182 Clouds 9 1026 42 0 0.45 64 01:32 04.01.2020
1183 Clouds 11 1025 38 0 1.34 35 00:58 04.01.2020
1184 Clouds 11 1025 51 0 0.81 172 00:29 04.01.2020
1185 Clouds 11 1025 51 0 0.81 172 23:53 03.01.2020
1186 Clouds 11 1025 51 0 0.81 172 23:28 03.01.2020
1187 Clouds 12 1024 37 0 0.55 81 22:57 03.01.2020
1188 Clouds 12 1024 37 0 0.55 81 22:39 03.01.2020
1189 Clouds 12 1024 37 0 0.55 81 22:18 03.01.2020
1190 Clouds 12 1024 37 0 0.55 81 21:57 03.01.2020
1191 Clouds 17 1026 30 0 1.79 0 21:37 03.01.2020
1192 Clouds 17 1026 32 0 1.34 87 21:18 03.01.2020
1193 Clouds 17 1026 32 0 1.34 87 20:54 03.01.2020
1194 Clouds 14 1026 28 0 0.55 81 20:36 03.01.2020
1195 Clouds 11 1027 39 0 1.06 360 20:18 03.01.2020
1196 Clouds 11 1027 39 0 1.06 360 19:44 03.01.2020
1197 Clouds 11 1027 39 0 1.06 360 19:23 03.01.2020
1198 Clouds 13 1027 28 0 1.34 341 18:57 03.01.2020
1199 Clouds 13 1027 28 0 1.34 341 18:38 03.01.2020
1200 Clouds 13 1027 31 0 1.34 347 18:20 03.01.2020
1201 Clouds 11 1027 34 0 0.45 324 17:42 03.01.2020
1202 Clouds 6 1025 49 0 1.35 348 17:22 03.01.2020
1203 Clouds 4 1027 50 0 0.45 339 16:59 03.01.2020
1204 Clouds 2 1026 62 0 0.45 339 16:40 03.01.2020
1205 Clouds 2 1026 63 0 1.35 348 16:21 03.01.2020
1206 Clouds 3 1025 57 0 1.35 348 15:42 03.01.2020
1207 Clouds 3 1025 56 0 1.35 348 15:19 03.01.2020
1208 Clouds 4 1025 56 0 1.35 348 14:56 03.01.2020
1209 Clouds 4 1025 54 0 1.35 348 14:37 03.01.2020
1210 Clouds 4 1025 52 0 1.34 334 14:19 03.01.2020
1211 Clouds 4 1025 54 0 0.89 336 13:41 03.01.2020
1212 Clouds 3 1024 56 0 2.07 352 13:23 03.01.2020
1213 Clouds 4 1024 55 0 0.89 350 12:56 03.01.2020
1214 Clouds 4 1024 54 0 2.07 352 12:38 03.01.2020
1215 Clouds 6 1024 49 0 2.07 352 12:19 03.01.2020
1216 Clouds 6 1023 49 0 2.24 334 11:42 03.01.2020
1217 Clouds 6 1023 50 0 1.34 330 11:18 03.01.2020
1218 Clouds 4 1023 57 0 0.45 311 10:43 03.01.2020
1219 Clouds 5 1023 54 0 1.79 346 10:24 03.01.2020
1220 Clouds 6 1023 50 0 1.79 346 09:57 03.01.2020
1221 Clouds 7 1022 47 0 1.79 346 09:38 03.01.2020
1222 Clouds 7 1022 47 0 1.79 346 09:20 03.01.2020
1223 Clouds 7 1022 47 0 1.79 346 08:54 03.01.2020
1224 Clouds 7 1022 47 0 1.79 346 08:36 03.01.2020
1225 Clouds 8 1022 43 0 2.19 353 08:18 03.01.2020
1226 Clouds 7 1021 44 0 2.01 346 07:39 03.01.2020
1227 Clouds 7 1021 44 0 2.01 346 07:18 03.01.2020
1228 Clouds 7 1021 44 0 2.01 346 06:43 03.01.2020
1229 Clouds 7 1021 44 0 2.01 346 06:24 03.01.2020
1230 Clouds 7 1021 44 0 2.01 346 05:28 03.01.2020
1231 Clouds 6 1021 44 0 0.89 11 03:55 03.01.2020
1232 Clouds 8 1019 46 0 1.6 343 02:55 03.01.2020
1233 Clouds 8 1019 46 0 1.6 343 02:26 03.01.2020
1234 Clouds 9 1019 37 0 0.89 60 01:39 03.01.2020
1235 Clouds 11 1017 45 0 0.59 84 00:49 03.01.2020
1236 Clouds 11 1017 45 0 0.59 84 00:29 03.01.2020
1237 Clouds 11 1017 45 0 0.59 84 23:55 02.01.2020
1238 Clouds 11 1017 45 0 0.59 84 23:37 02.01.2020
1239 Clear 11 1016 40 0 2.46 36 23:18 02.01.2020
1240 Clear 11 1016 40 0 2.46 36 22:44 02.01.2020
1241 Clear 11 1016 40 0 2.46 36 22:21 02.01.2020
1242 Clear 11 1016 40 0 2.46 36 21:59 02.01.2020
1243 Clear 11 1016 40 0 2.46 36 21:41 02.01.2020
1244 Clear 11 1016 40 0 2.46 36 21:23 02.01.2020
1245 Clear 11 1016 40 0 2.46 36 20:58 02.01.2020
1246 Clear 11 1016 40 0 2.46 36 20:39 02.01.2020
1247 Clear 11 1016 40 0 2.46 36 20:39 02.01.2020
1248 Clear 9 1018 54 0 2.82 23 20:20 02.01.2020
1249 Clear 9 1018 54 0 2.82 23 19:55 02.01.2020
1250 Clear 9 1018 54 0 2.82 23 19:55 02.01.2020
1251 Clear 9 1018 54 0 2.82 23 19:37 02.01.2020
1252 Clear 9 1018 54 0 2.82 23 19:19 02.01.2020
1253 Clear 9 1018 54 0 2.82 23 18:56 02.01.2020
1254 Clear 12 1019 29 0 0.45 314 18:38 02.01.2020
1255 Clear 11 1019 32 0 0.89 50 18:20 02.01.2020
1256 Clear 10 1019 30 0 2.82 23 17:56 02.01.2020
1257 Clear 8 1019 35 0 0.45 40 17:36 02.01.2020
1258 Clear 7 1018 36 0 0.45 271 17:18 02.01.2020
1259 Clear 6 1018 41 0 1.91 353 16:56 02.01.2020
1260 Clear 4 1018 41 0 1.34 346 16:38 02.01.2020
1261 Clear 4 1017 41 0 1.34 317 16:19 02.01.2020
1262 Clear 3 1017 50 0 0.89 330 15:45 02.01.2020
1263 Clear 3 1016 52 0 0.45 306 15:24 02.01.2020
1264 Clear 3 1016 49 0 0.45 331 14:58 02.01.2020
1265 Clear 2 1015 60 0 0.89 335 14:38 02.01.2020
1266 Clear 2 1015 60 0 0.89 335 14:20 02.01.2020
1267 Clear 2 1015 60 0 0.45 177 13:58 02.01.2020
1268 Clear 3 1015 56 0 1.96 4 13:40 02.01.2020
1269 Clear 5 1016 49 0 0.45 181 13:19 02.01.2020
1270 Clear 6 1016 45 0 4.02 346 12:43 02.01.2020
1271 Clear 6 1016 45 0 4.02 346 12:23 02.01.2020
1272 Clear 6 1015 47 0 3.58 349 11:42 02.01.2020
1273 Clear 6 1015 47 0 2.68 332 11:23 02.01.2020
1274 Clear 6 1015 46 0 1.34 333 10:56 02.01.2020
1275 Clear 5 1014 63 0 1.33 20 10:36 02.01.2020
1276 Clear 6 1015 47 0 2.24 345 10:18 02.01.2020
1277 Clear 6 1015 48 0 1.79 352 09:41 02.01.2020
1278 Clear 4 1015 54 0 1.79 25 09:21 02.01.2020
1279 Clear 4 1015 59 0 0.45 21 08:41 02.01.2020
1280 Clear 4 1015 57 0 0.75 310 08:22 02.01.2020
1281 Clouds 5 1015 56 0 0.89 354 07:47 02.01.2020
1282 Clouds 6 1016 54 0 0.89 341 07:27 02.01.2020
1283 Clouds 6 1015 58 0 0.89 291 06:43 02.01.2020
1284 Clouds 6 1015 62 0 0.89 326 05:54 02.01.2020
1285 Clouds 4 1015 64 0 1.31 338 04:37 02.01.2020
1286 Clouds 4 1016 61 0 1.31 338 03:54 02.01.2020
1287 Clouds 7 1015 54 0 0.45 63 02:21 02.01.2020
1288 Clouds 7 1016 52 0 1.05 203 01:57 02.01.2020
1289 Clouds 9 1015 45 0 0.45 50 01:30 02.01.2020
1290 Clouds 10 1013 42 0 0.57 138 00:52 02.01.2020
1291 Clouds 10 1013 42 0 0.57 138 00:28 02.01.2020
1292 Clouds 10 1013 42 0 0.57 138 23:47 01.01.2020
1293 Clouds 10 1013 42 0 0.57 138 23:24 01.01.2020
1294 Clouds 13 1014 40 0 0.45 133 22:54 01.01.2020
1295 Clouds 12 1014 40 0 1.79 220 22:36 01.01.2020
1296 Clouds 12 1015 39 0 0.89 205 22:18 01.01.2020
1297 Clouds 15 1015 31 0 1.34 234 21:42 01.01.2020
1298 Clouds 13 1016 36 0 0.89 22 21:21 01.01.2020
1299 Clouds 12 1017 38 0 2.24 50 20:58 01.01.2020
1300 Clouds 12 1016 40 0 1.34 50 20:39 01.01.2020
1301 Clouds 9 1017 36 0 0.52 180 20:20 01.01.2020
1302 Clouds 9 1018 37 0 1.53 88 19:58 01.01.2020
1303 Clouds 9 1018 37 0 1.53 88 19:39 01.01.2020
1304 Clouds 9 1018 37 0 1.53 88 19:20 01.01.2020
1305 Clouds 9 1018 37 0 1.53 88 18:57 01.01.2020
1306 Clouds 11 1019 42 0 0.89 271 18:39 01.01.2020
1307 Clouds 9 1019 42 0 1.53 88 18:20 01.01.2020
1308 Clouds 9 1020 44 0 0.45 188 17:59 01.01.2020
1309 Clouds 8 1020 45 0 0.89 126 17:40 01.01.2020
1310 Clouds 4 1018 50 0 1.02 317 17:20 01.01.2020
1311 Clouds 2 1020 62 0 1.02 317 16:59 01.01.2020
1312 Clouds 1 1020 63 0 0.89 341 16:38 01.01.2020
1313 Clouds 2 1020 63 0 1.02 317 16:20 01.01.2020
1314 Clouds 3 1020 59 0 1.02 317 15:57 01.01.2020
1315 Clouds 3 1021 55 0 0.45 312 15:38 01.01.2020
1316 Clouds 1 1021 67 0 0.89 319 15:20 01.01.2020
1317 Clouds 1 1020 68 0 1.02 317 14:56 01.01.2020
1318 Clouds -1 1020 72 0 0.45 276 14:38 01.01.2020
1319 Clouds 0 1021 70 0 0.74 7 14:19 01.01.2020
1320 Clouds 0 1021 70 0 0.74 7 14:19 01.01.2020
1321 Clouds 0 1021 72 0 0.74 7 13:55 01.01.2020
1322 Clouds 1 1021 71 0 0.74 7 13:37 01.01.2020
1323 Clouds 1 1021 67 0 0.56 352 13:18 01.01.2020
1324 Clouds 2 1021 65 0 0.56 352 12:55 01.01.2020
1325 Clouds 1 1020 66 0 0.89 61 12:36 01.01.2020
1326 Clouds 1 1020 66 0 0.89 61 12:18 01.01.2020
1327 Clouds 1 1021 69 0 0.56 352 11:42 01.01.2020
1328 Clear 1 1021 69 0 1.58 347 11:21 01.01.2020
1329 Clear 1 1022 70 0 1.58 347 10:57 01.01.2020
1330 Clear 1 1021 70 0 0.89 313 10:38 01.01.2020
1331 Clear 0 1021 72 0 1.58 347 10:19 01.01.2020
1332 Clear 1 1021 69 0 1.58 347 09:42 01.01.2020
1333 Clear 1 1021 73 0 1.58 347 09:22 01.01.2020
1334 Clear 0 1021 74 0 1.58 347 08:57 01.01.2020
1335 Clear 1 1021 72 0 1.58 347 08:39 01.01.2020
1336 Clear 1 1022 72 0 1.37 9 08:20 01.01.2020
1337 Clear 0 1022 71 0 0.45 24 07:59 01.01.2020
1338 Clear 0 1022 73 0 0.84 355 07:41 01.01.2020
1339 Clear 0 1023 73 0 0.84 355 07:20 01.01.2020
1340 Clear 0 1023 72 0 0.45 24 06:40 01.01.2020
1341 Clear 1 1022 71 0 0.45 25 06:19 01.01.2020
1342 Clear 2 1022 66 0 1.61 6 04:36 01.01.2020
1343 Clear 2 1022 65 0 1.61 6 03:41 01.01.2020
1344 Clear 3 1021 60 0 1.61 6 03:22 01.01.2020
1345 Clear 6 1020 50 0 1.61 6 02:54 01.01.2020
1346 Clear 6 1020 50 0 1.61 6 02:30 01.01.2020
1347 Clear 9 1019 43 0 2.34 24 01:45 01.01.2020
1348 Clear 9 1019 43 0 2.34 24 01:24 01.01.2020
1349 Clear 9 1019 41 0 2.56 26 00:56 01.01.2020
1350 Clear 9 1019 41 0 2.56 26 00:37 01.01.2020
1351 Clear 9 1019 41 0 2.56 26 00:18 01.01.2020
1352 Clear 9 1019 41 0 2.56 26 23:39 31.12.2019
1353 Clear 9 1020 43 0 3.93 31 23:19 31.12.2019
1354 Clear 9 1020 43 0 3.93 31 22:57 31.12.2019
1355 Clear 9 1020 43 0 3.93 31 22:38 31.12.2019
1356 Clear 9 1020 43 0 3.93 31 22:18 31.12.2019
1357 Clear 9 1020 43 0 3.93 31 21:54 31.12.2019
1358 Clear 9 1020 43 0 3.93 31 21:36 31.12.2019
1359 Clear 9 1020 43 0 3.93 31 21:18 31.12.2019
1360 Clear 12 1022 37 0 2.68 356 20:40 31.12.2019
1361 Clear 8 1022 49 0 5.56 28 20:21 31.12.2019
1362 Clear 7 1022 51 0 5.22 29 19:59 31.12.2019
1363 Clear 7 1022 51 0 5.22 29 19:40 31.12.2019
1364 Clear 6 1024 53 0 6.26 358 19:22 31.12.2019
1365 Clear 6 1024 53 0 6.26 358 18:57 31.12.2019
1366 Clear 6 1024 53 0 6.26 358 18:39 31.12.2019
1367 Clear 6 1024 53 0 6.26 358 18:19 31.12.2019
1368 Clear 6 1024 55 0 5.81 326 17:56 31.12.2019
1369 Clear 5 1024 56 0 4.47 292 17:37 31.12.2019
1370 Clear 5 1022 66 0 4.65 9 17:19 31.12.2019
1371 Clear 5 1022 66 0 4.65 9 17:19 31.12.2019
1372 Clear 5 1022 66 0 4.65 9 16:56 31.12.2019
1373 Clear 3 1023 63 0 3.13 333 16:38 31.12.2019
1374 Clear 3 1023 63 0 4.92 350 16:19 31.12.2019
1375 Clear 2 1023 64 0 3.13 356 15:56 31.12.2019
1376 Clear 2 1023 66 0 1.79 21 15:38 31.12.2019
1377 Clear 2 1023 68 0 1.79 4 15:20 31.12.2019
1378 Clear 5 1022 66 0 4.65 9 14:57 31.12.2019
1379 Clear 3 1023 66 0 4.47 8 14:38 31.12.2019
1380 Clear 3 1023 66 0 4.47 8 14:38 31.12.2019
1381 Clear 3 1023 66 0 4.92 342 14:19 31.12.2019
1382 Clear 3 1023 66 0 4.47 351 13:57 31.12.2019
1383 Clear 3 1024 68 0 4.02 347 13:39 31.12.2019
1384 Clear 3 1023 67 0 4.02 344 13:20 31.12.2019
1385 Clear 3 1024 67 0 3.58 355 12:56 31.12.2019
1386 Clear 3 1024 67 0 3.13 341 12:38 31.12.2019
1387 Clear 3 1024 67 0 3.13 337 12:19 31.12.2019
1388 Clear 3 1024 67 0 3.13 337 12:19 31.12.2019
1389 Clear 3 1024 66 0 4.02 2 11:56 31.12.2019
1390 Clear 3 1024 66 0 4.02 2 11:56 31.12.2019
1391 Clear 3 1024 66 0 4.02 2 11:56 31.12.2019
1392 Clear 3 1024 68 0 3.58 344 11:38 31.12.2019
1393 Clear 3 1024 69 0 4.92 331 11:19 31.12.2019
1394 Clear 2 1024 73 0 3.58 333 10:57 31.12.2019
1395 Clear 2 1024 73 0 3.58 333 10:57 31.12.2019
1396 Clear 3 1024 71 0 3.13 351 10:38 31.12.2019
1397 Clear 3 1024 72 0 4.02 319 10:20 31.12.2019
1398 Clear 3 1024 71 0 2.24 329 09:58 31.12.2019
1399 Clear 3 1024 71 0 3.13 302 09:39 31.12.2019
1400 Clear 3 1024 71 0 3.13 302 09:39 31.12.2019
1401 Clear 3 1024 71 0 4.02 351 09:20 31.12.2019
1402 Clear 3 1024 70 0 4.02 329 08:57 31.12.2019
1403 Clear 3 1024 70 0 4.02 329 08:57 31.12.2019
1404 Clear 3 1024 71 0 2.24 320 08:37 31.12.2019
1405 Clear 3 1024 71 0 2.24 320 08:37 31.12.2019
1406 Clear 3 1024 71 0 2.24 320 08:18 31.12.2019
1407 Clear 4 1024 68 0 3.58 341 07:41 31.12.2019
1408 Clear 3 1024 69 0 4.02 347 07:19 31.12.2019
1409 Clear 3 1024 68 0 3.58 352 06:49 31.12.2019
1410 Clear 4 1024 66 0 4.47 347 05:57 31.12.2019
1411 Clear 4 1023 67 0 4.92 333 04:28 31.12.2019
1412 Clear 3 1023 70 0 4.47 326 03:27 31.12.2019
1413 Clear 7 1020 55 0 4.07 16 02:54 31.12.2019
1414 Clear 7 1020 55 0 4.07 16 02:54 31.12.2019
1415 Clouds 4 1022 69 0 2.68 333 01:58 31.12.2019
1416 Clouds 4 1022 67 0 3.13 316 01:40 31.12.2019
1417 Clear 7 1022 59 0 3.13 337 01:22 31.12.2019
1418 Clear 8 1018 45 0 3.9 34 00:45 31.12.2019
1419 Clear 8 1018 45 0 3.9 34 00:22 31.12.2019
1420 Clear 8 1018 45 0 3.9 34 23:56 30.12.2019
1421 Clear 8 1018 45 0 3.9 34 23:38 30.12.2019
1422 Clear 8 1019 38 0 3.96 39 23:20 30.12.2019
1423 Clear 8 1019 38 0 3.96 39 22:57 30.12.2019
1424 Clear 8 1019 38 0 3.96 39 22:38 30.12.2019
1425 Clear 8 1019 38 0 3.96 39 22:19 30.12.2019
1426 Clear 8 1019 38 0 3.96 39 21:56 30.12.2019
1427 Clear 8 1019 38 0 3.96 39 21:38 30.12.2019
1428 Clear 8 1019 38 0 3.96 39 21:18 30.12.2019
1429 Clear 8 1019 38 0 3.96 39 20:56 30.12.2019
1430 Clear 8 1019 38 0 3.96 39 20:38 30.12.2019
1431 Clouds 6 1022 45 0 3.2 36 20:20 30.12.2019
1432 Clouds 6 1022 45 0 3.2 36 19:57 30.12.2019
1433 Clouds 6 1022 45 0 3.2 36 19:37 30.12.2019
1434 Clouds 6 1022 45 0 3.2 36 19:19 30.12.2019
1435 Clouds 6 1022 45 0 3.2 36 19:19 30.12.2019
1436 Clouds 6 1024 62 0 3.58 314 18:56 30.12.2019
1437 Clouds 3 1024 66 0 1.34 279 18:38 30.12.2019
1438 Clouds 4 1024 65 0 1.34 317 18:20 30.12.2019
1439 Clouds 3 1024 69 0 1.34 308 17:55 30.12.2019
1440 Clouds 2 1024 72 0 1.79 322 17:37 30.12.2019
1441 Clouds 2 1021 52 0 2.77 11 17:18 30.12.2019
1442 Clouds 1 1023 72 0 0.89 285 16:57 30.12.2019
1443 Clouds 1 1023 75 0 0.89 309 16:36 30.12.2019
1444 Clouds 1 1023 75 0 0.89 309 16:36 30.12.2019
1445 Clouds 1 1023 74 0 1.34 345 16:18 30.12.2019
1446 Clouds 1 1023 73 0 0.45 320 15:55 30.12.2019
1447 Clouds 0 1023 73 0 1.34 343 15:36 30.12.2019
1448 Clouds 1 1023 73 0 1.34 325 15:18 30.12.2019
1449 Clouds 1 1022 73 0 2.24 322 14:42 30.12.2019
1450 Clouds 1 1022 74 0 1.34 329 14:19 30.12.2019
1451 Clouds 1 1022 75 0 0.45 333 13:56 30.12.2019
1452 Clouds 1 1022 74 0 1.99 9 13:37 30.12.2019
1453 Clouds 0 1022 75 0 0.89 333 13:19 30.12.2019
1454 Clouds -1 1022 78 0 0.89 331 12:43 30.12.2019
1455 Clouds -2 1022 87 0 2.3 19 12:22 30.12.2019
1456 Clouds -2 1022 88 0 2.3 19 11:59 30.12.2019
1457 Clouds -2 1022 88 0 2.3 19 11:40 30.12.2019
1458 Clouds -2 1022 89 0 1.8 22 11:19 30.12.2019
1459 Clouds -2 1022 89 0 1.8 22 11:19 30.12.2019
1460 Clouds -2 1022 89 0 1.8 22 10:57 30.12.2019
1461 Clouds -2 1022 87 0 1.8 22 10:38 30.12.2019
1462 Clouds -2 1022 86 0 1.8 22 10:18 30.12.2019
1463 Clouds -2 1022 89 0 1.8 22 09:41 30.12.2019
1464 Clouds -3 1022 90 0 1.8 22 09:20 30.12.2019
1465 Clouds -3 1022 90 0 1.8 22 08:55 30.12.2019
1466 Clouds -3 1022 88 0 1.8 22 08:36 30.12.2019
1467 Clouds -2 1022 87 0 1.26 13 08:18 30.12.2019
1468 Clouds -2 1022 87 0 1.11 16 08:18 30.12.2019
1469 Clouds -2 1022 85 0 1.26 13 07:40 30.12.2019
1470 Clouds -1 1022 82 0 1.26 13 06:55 30.12.2019
1471 Clouds -1 1022 77 0 1.26 13 06:23 30.12.2019
1472 Clouds -1 1022 77 0 1.26 13 06:23 30.12.2019
1473 Clouds -1 1022 74 0 0.44 25 03:58 30.12.2019
1474 Clouds -1 1022 75 0 0.44 25 03:39 30.12.2019
1475 Clouds 1 1022 68 0 0.44 25 02:41 30.12.2019
1476 Clouds 1 1021 66 0 0.45 50 02:20 30.12.2019
1477 Clouds 2 1021 63 0 0.89 29 01:25 30.12.2019
1478 Clouds 4 1021 57 0 1.34 45 00:46 30.12.2019
1479 Clouds 6 1018 39 0 1.36 121 00:26 30.12.2019
1480 Clouds 6 1018 39 0 1.36 121 23:40 29.12.2019
1481 Clear 6 1021 53 0 2.24 89 23:22 29.12.2019
1482 Clear 6 1019 35 0 1.8 110 22:57 29.12.2019
1483 Clear 6 1019 35 0 1.8 110 22:38 29.12.2019
1484 Clear 6 1019 35 0 1.8 110 22:38 29.12.2019
1485 Clear 6 1019 35 0 1.8 110 22:20 29.12.2019
1486 Clear 6 1019 35 0 1.8 110 21:55 29.12.2019
1487 Clear 6 1019 35 0 1.8 110 21:36 29.12.2019
1488 Clear 6 1022 54 0 1.34 66 21:18 29.12.2019
1489 Clear 6 1022 52 0 1.34 50 20:55 29.12.2019
1490 Clear 6 1022 52 0 1.34 50 20:55 29.12.2019
1491 Clear 6 1023 52 0 1.34 68 20:37 29.12.2019
1492 Clouds 5 1022 35 0 1.19 106 20:18 29.12.2019
1493 Clouds 5 1024 54 0 1.79 66 19:55 29.12.2019
1494 Clouds 4 1024 57 0 1.34 36 19:37 29.12.2019
1495 Clouds 4 1025 56 0 1.34 69 19:18 29.12.2019
1496 Clouds 5 1025 54 0 0.45 79 18:54 29.12.2019
1497 Clouds 6 1025 53 0 0.45 75 18:36 29.12.2019
1498 Clouds 4 1025 55 0 1.34 80 18:18 29.12.2019
1499 Clouds 4 1025 57 0 0.45 83 17:54 29.12.2019
1500 Clouds 3 1024 61 0 0.45 83 17:36 29.12.2019
1501 Clouds 2 1024 67 0 0.45 83 17:18 29.12.2019
1502 Clouds -1 1024 75 0 0.25 190 16:54 29.12.2019
1503 Clouds -2 1024 79 0 0.25 190 16:36 29.12.2019
1504 Clouds -3 1024 82 0 0.25 190 16:18 29.12.2019
1505 Clouds -3 1024 84 0 0.25 190 15:55 29.12.2019
1506 Clouds -3 1024 85 0 0.25 190 15:37 29.12.2019
1507 Clouds -3 1024 84 0 0.25 190 15:18 29.12.2019
1508 Clouds -3 1024 84 0 0.25 190 14:55 29.12.2019
1509 Clouds -3 1023 81 0 0.25 190 14:37 29.12.2019
1510 Clouds -3 1023 79 0 0.5 332 14:18 29.12.2019
1511 Clouds -3 1023 78 0 0.45 83 13:40 29.12.2019
1512 Clouds -3 1023 78 0 0.45 83 13:40 29.12.2019
1513 Clear -2 1023 75 0 0.56 323 13:22 29.12.2019
1514 Clear -2 1023 74 0 0.56 323 12:59 29.12.2019
1515 Clear -2 1024 73 0 0.45 83 12:41 29.12.2019
1516 Clear -1 1023 73 0 0.89 82 12:22 29.12.2019
1517 Clear -1 1023 74 0 0.56 323 11:46 29.12.2019
1518 Clear -1 1023 71 0 0.56 323 11:23 29.12.2019
1519 Clear -1 1023 73 0 0.45 113 11:00 29.12.2019
1520 Clear -2 1023 75 0 0.45 121 10:41 29.12.2019
1521 Clear -2 1023 79 0 0.45 157 10:20 29.12.2019
1522 Clear -2 1023 80 0 0.4 357 09:54 29.12.2019
1523 Clear -2 1023 77 0 0.4 357 09:36 29.12.2019
1524 Clear -2 1023 77 0 0.45 157 09:18 29.12.2019
1525 Clear -2 1023 76 0 0.45 157 08:44 29.12.2019
1526 Clear -1 1023 74 0 0.4 357 08:24 29.12.2019
1527 Clear -1 1023 72 0 0.47 296 07:49 29.12.2019
1528 Clear -1 1023 70 0 0.47 296 07:27 29.12.2019
1529 Clear 1 1023 63 0 0.47 296 06:53 29.12.2019
1530 Clear 3 1023 53 0 0.89 139 06:23 29.12.2019
1531 Clear 4 1022 46 0 3.13 35 05:48 29.12.2019
1532 Clouds -1 1023 67 0 0.45 62 04:34 29.12.2019
1533 Clouds -1 1022 67 0 0.95 2 03:40 29.12.2019
1534 Clouds 2 1022 62 0 0.95 2 02:49 29.12.2019
1535 Clear 3 1022 51 0 0.45 21 02:19 29.12.2019
1536 Clear 4 1021 45 0 0.89 33 01:31 29.12.2019
1537 Clouds 7 1018 37 0 1.23 66 00:51 29.12.2019
1538 Clouds 7 1018 37 0 1.23 66 00:27 29.12.2019
1539 Clouds 7 1018 37 0 1.23 66 23:57 28.12.2019
1540 Clouds 7 1018 37 0 1.23 66 23:39 28.12.2019
1541 Clouds 6 1018 35 0 1.18 74 23:18 28.12.2019
1542 Clouds 6 1018 35 0 1.18 74 22:39 28.12.2019
1543 Clouds 6 1018 35 0 1.18 74 22:19 28.12.2019
1544 Clouds 6 1018 35 0 1.18 74 21:57 28.12.2019
1545 Clouds 10 1021 29 0 0.45 154 21:38 28.12.2019
1546 Clouds 9 1022 25 0 0.45 125 21:20 28.12.2019
1547 Clouds 9 1022 23 0 0.45 230 20:56 28.12.2019
1548 Clouds 8 1022 25 0 1.18 74 20:37 28.12.2019
1549 Clouds 8 1022 26 0 0.45 238 20:18 28.12.2019
1550 Clouds 7 1023 27 0 0.89 268 19:55 28.12.2019
1551 Clouds 5 1020 31 0 1.66 55 19:37 28.12.2019
1552 Clouds 5 1020 31 0 1.66 55 19:18 28.12.2019
1553 Clouds 7 1023 28 0 0.45 297 18:56 28.12.2019
1554 Clouds 6 1023 29 0 0.45 220 18:38 28.12.2019
1555 Clouds 6 1023 28 0 0.89 210 18:18 28.12.2019
1556 Clouds 5 1023 29 0 0.89 265 17:42 28.12.2019
1557 Clouds 5 1023 29 0 0.89 265 17:42 28.12.2019
1558 Clouds 3 1023 36 0 0.98 9 17:21 28.12.2019
1559 Clouds 0 1023 44 0 0.98 9 16:59 28.12.2019
1560 Clouds -3 1022 54 0 0.98 9 16:41 28.12.2019
1561 Clouds -3 1022 54 0 0.98 9 16:23 28.12.2019
1562 Clouds 0 1020 43 0 0.98 9 15:43 28.12.2019
1563 Clouds -1 1022 51 0 0.98 9 15:23 28.12.2019
1564 Clouds -1 1021 40 0 0.89 10 14:57 28.12.2019
1565 Clouds 0 1022 37 0 0.89 342 14:38 28.12.2019
1566 Clear 0 1021 41 0 1.34 10 14:20 28.12.2019
1567 Clear -1 1021 46 0 1.34 327 13:43 28.12.2019
1568 Clear -2 1021 49 0 0.45 115 13:22 28.12.2019
1569 Clear -3 1021 56 0 0.95 345 12:59 28.12.2019
1570 Clear -1 1021 44 0 0.95 345 12:41 28.12.2019
1571 Clear 0 1021 42 0 0.45 27 12:22 28.12.2019
1572 Clear 0 1021 37 0 1.34 10 11:55 28.12.2019
1573 Clear 0 1021 41 0 0.89 349 11:37 28.12.2019
1574 Clear -1 1021 43 0 0.89 25 11:18 28.12.2019
1575 Clear 1 1021 44 0 0.89 26 10:43 28.12.2019
1576 Clear 1 1020 40 0 1.34 337 10:20 28.12.2019
1577 Clear 1 1020 41 0 2.68 329 09:57 28.12.2019
1578 Clear -1 1020 48 0 3.13 339 09:39 28.12.2019
1579 Clear -2 1020 55 0 0.89 40 09:19 28.12.2019
1580 Clear -1 1020 55 0 1.34 91 08:44 28.12.2019
1581 Clear -1 1020 54 0 0.89 10 08:26 28.12.2019
1582 Clear -2 1020 56 0 0.89 243 07:49 28.12.2019
1583 Clear -3 1020 61 0 0.45 351 07:27 28.12.2019
1584 Clear -2 1020 64 0 1.8 350 06:21 28.12.2019
1585 Clear 2 1019 43 0 5.81 360 04:36 28.12.2019
1586 Clear 4 1016 42 0 1.73 319 03:39 28.12.2019
1587 Clear 2 1018 44 0 3.58 331 02:48 28.12.2019
1588 Clear 3 1018 45 0 0.45 195 01:59 28.12.2019
1589 Clear 4 1017 36 0 3.13 338 01:30 28.12.2019
1590 Clear 7 1013 39 0 1.9 15 00:55 28.12.2019
1591 Clear 7 1013 39 0 1.9 15 00:37 28.12.2019
1592 Clear 7 1013 39 0 1.9 15 00:19 28.12.2019
1593 Clear 7 1013 39 0 1.9 15 23:43 27.12.2019
1594 Clear 7 1013 37 0 2.58 45 23:19 27.12.2019
1595 Clear 7 1013 37 0 2.58 45 23:19 27.12.2019
1596 Clear 7 1013 37 0 2.58 45 22:57 27.12.2019
1597 Clear 7 1013 37 0 2.58 45 22:38 27.12.2019
1598 Clear 7 1013 37 0 2.58 45 22:20 27.12.2019
1599 Clear 6 1017 50 0 4.47 337 21:55 27.12.2019
1600 Clear 4 1017 52 0 1.34 227 21:36 27.12.2019
1601 Clear 5 1017 55 0 0.45 227 21:18 27.12.2019
1602 Clear 3 1018 61 0 0.89 230 20:41 27.12.2019
1603 Clear 4 1018 57 0 0.89 263 20:22 27.12.2019
1604 Clear 5 1016 49 0 1.53 47 19:42 27.12.2019
1605 Clear 5 1016 49 0 1.53 47 19:21 27.12.2019
1606 Clear 5 1016 49 0 1.53 47 18:59 27.12.2019
1607 Clear 5 1019 52 0 0.89 329 18:39 27.12.2019
1608 Clear 2 1019 60 0 1.79 347 18:21 27.12.2019
1609 Clear 1 1018 63 0 0.45 270 17:58 27.12.2019
1610 Clear 1 1018 64 0 1.79 304 17:39 27.12.2019
1611 Clouds 2 1015 60 0 2.03 347 17:19 27.12.2019
1612 Clouds 1 1018 66 0 3.13 341 16:58 27.12.2019
1613 Clouds -2 1017 73 0 2.68 342 16:38 27.12.2019
1614 Clouds 0 1017 68 0 5.36 354 16:19 27.12.2019
1615 Clouds -1 1017 71 0 6.26 344 15:45 27.12.2019
1616 Clouds -3 1017 78 0 3.58 335 15:22 27.12.2019
1617 Clouds -3 1017 77 0 2.24 326 14:58 27.12.2019
1618 Clouds -2 1017 74 0 1.79 260 14:39 27.12.2019
1619 Clouds -2 1017 72 0 2.24 299 14:20 27.12.2019
1620 Clouds -1 1017 70 0 1.34 297 13:57 27.12.2019
1621 Clouds -3 1017 78 0 1.34 329 13:38 27.12.2019
1622 Clouds -3 1017 78 0 1.34 329 13:38 27.12.2019
1623 Clouds -3 1017 80 0 2.24 341 13:20 27.12.2019
1624 Clouds -2 1017 78 0 1.34 341 12:42 27.12.2019
1625 Clouds -2 1017 79 0 1.79 341 12:23 27.12.2019
1626 Clouds -3 1017 81 0 1.34 316 11:46 27.12.2019
1627 Clouds -3 1017 80 0 0.89 325 11:27 27.12.2019
1628 Clouds -3 1017 78 0 0.89 344 10:59 27.12.2019
1629 Clouds -2 1017 77 0 0.89 354 10:41 27.12.2019
1630 Clouds -1 1017 76 0 1.34 352 10:22 27.12.2019
1631 Clouds -1 1017 75 0 2.68 328 09:49 27.12.2019
1632 Clouds 0 1017 74 0 1.79 348 09:22 27.12.2019
1633 Clouds 1 1017 75 0 3.13 336 08:59 27.12.2019
1634 Clouds 0 1018 77 0 3.13 344 08:38 27.12.2019
1635 Clouds 0 1018 77 0 2.24 343 08:18 27.12.2019
1636 Clouds 0 1018 78 0 3.58 322 07:38 27.12.2019
1637 Clouds 1 1018 78 0 4.92 347 06:43 27.12.2019
1638 Clouds 1 1018 79 0 4.02 337 06:22 27.12.2019
1639 Rain 0 1018 84 0 2.68 337 04:32 27.12.2019
1640 Rain 0 1017 85 0 4.26 10 02:28 27.12.2019
1641 Rain 0 1016 86 0 4.52 38 01:42 27.12.2019
1642 Rain 0 1016 88 0 5.48 20 01:20 27.12.2019
1643 Rain 0 1016 88 0 5.48 20 00:46 27.12.2019
1644 Rain 0 1015 89 0 5.48 20 00:25 27.12.2019
1645 Rain 0 1015 89 0 5.48 20 23:56 26.12.2019
1646 Rain 1 1015 88 0 1.79 349 23:37 26.12.2019
1647 Rain 1 1015 87 0 2.68 358 23:19 26.12.2019
1648 Rain 1 1014 87 0 3.13 318 22:40 26.12.2019
1649 Rain 1 1014 86 0 2.68 345 22:18 26.12.2019
1650 Rain 1 1014 88 0 2.68 333 21:40 26.12.2019
1651 Rain 1 1014 87 0 3.13 347 21:21 26.12.2019
1652 Rain 1 1015 87 0 2.24 356 20:58 26.12.2019
1653 Rain 1 1015 86 0 3.58 348 20:38 26.12.2019
1654 Rain 1 1015 86 0 3.58 348 20:38 26.12.2019
1655 Snow 1 1015 87 0 2.24 27 20:20 26.12.2019
1656 Rain 1 1015 87 0 2.68 325 19:56 26.12.2019
1657 Rain 1 1015 88 0 1.34 319 19:38 26.12.2019
1658 Rain 1 1016 89 0 1.79 351 19:19 26.12.2019
1659 Rain 1 1015 89 0 1.34 356 18:57 26.12.2019
1660 Rain 1 1015 90 0 0.89 347 18:36 26.12.2019
1661 Rain 1 1015 90 0 0.45 332 18:18 26.12.2019
1662 Rain 0 1015 91 0 0.45 16 17:42 26.12.2019
1663 Rain 0 1014 92 0 0.45 345 17:22 26.12.2019
1664 Rain -1 1014 91 0 1.34 344 16:50 26.12.2019
1665 Rain -1 1014 92 0 0.89 350 16:28 26.12.2019
1666 Rain -1 1014 91 0 0.89 2 15:58 26.12.2019
1667 Rain -1 1014 92 0 1.34 351 15:40 26.12.2019
1668 Rain -1 1014 91 0 0.89 359 15:19 26.12.2019
1669 Rain 0 1014 89 0 0.89 354 14:42 26.12.2019
1670 Rain 0 1013 89 0 1.34 5 14:23 26.12.2019
1671 -273 0 0 0 0 0 13:58 26.12.2019
1672 Rain -1 1013 91 0 0.89 343 13:39 26.12.2019
1673 Rain -1 1013 91 0 0.89 349 13:18 26.12.2019
1674 Rain -1 1014 91 0 0.89 87 12:56 26.12.2019
1675 Rain -1 1014 90 0 1.34 358 12:36 26.12.2019
1676 Rain -1 1014 88 0 4.26 26 12:18 26.12.2019
1677 Rain -1 1014 90 0 0.45 5 11:42 26.12.2019
1678 Rain -1 1014 91 0 0.89 29 11:23 26.12.2019
1679 Rain -1 1014 91 0 0.45 31 10:54 26.12.2019
1680 Rain -1 1014 89 0 0.45 40 10:36 26.12.2019
1681 Rain -1 1014 90 0 1.79 45 10:18 26.12.2019
1682 Rain -1 1014 90 0 1.34 23 09:42 26.12.2019
1683 Rain -1 1014 91 0 0.89 19 09:24 26.12.2019
1684 Rain 0 1014 90 0 1.34 359 08:40 26.12.2019
1685 Rain 0 1014 90 0 1.34 359 08:40 26.12.2019
1686 Clouds 0 1014 90 0 1.79 31 08:22 26.12.2019
1687 Clouds 0 1014 89 0 1.79 15 07:50 26.12.2019
1688 Clouds 0 1014 89 0 1.34 11 07:26 26.12.2019
1689 Clouds 0 1014 90 0 0.79 56 06:48 26.12.2019
1690 Clouds 0 1014 91 0 0.45 87 06:30 26.12.2019
1691 Clouds -1 1014 92 0 0.79 56 05:45 26.12.2019
1692 Clouds -1 1014 88 0 0.39 121 04:38 26.12.2019
1693 Clouds 0 1014 87 0 0.45 87 03:47 26.12.2019
1694 Clouds 0 1013 86 0 0.89 32 02:54 26.12.2019
1695 Clouds 1 1013 85 0 1.79 40 02:32 26.12.2019
1696 Clouds 1 1013 82 0 1.79 40 01:46 26.12.2019
1697 Clouds 1 1013 80 0 1.34 40 01:27 26.12.2019
1698 Clouds 3 1013 76 0 1.79 31 00:48 26.12.2019
1699 Clouds 3 1012 75 0 1.79 31 00:24 26.12.2019
1700 Clouds 6 1011 46 0 0.75 303 23:58 25.12.2019
1701 Clouds 6 1011 46 0 0.75 303 23:38 25.12.2019
1702 Clouds 5 1011 50 0 1.72 213 23:20 25.12.2019
1703 Clouds 5 1011 50 0 1.72 213 22:58 25.12.2019
1704 Clouds 5 1011 50 0 1.72 213 22:38 25.12.2019
1705 Clouds 4 1012 73 0 1.34 17 22:20 25.12.2019
1706 Clouds 5 1011 50 0 1.72 213 21:57 25.12.2019
1707 Clouds 5 1011 50 0 1.72 213 21:39 25.12.2019
1708 Clouds 3 1013 79 0 0.45 95 21:19 25.12.2019
1709 Clouds 3 1013 81 0 0.89 113 20:54 25.12.2019
1710 Clouds 3 1013 79 0 0.89 102 20:36 25.12.2019
1711 Clouds 3 1013 81 0 0.45 89 20:18 25.12.2019
1712 Clouds 3 1013 85 0 0.45 73 19:42 25.12.2019
1713 Clouds 2 1013 90 0 0.89 56 19:22 25.12.2019
1714 Clouds 1 1013 92 0 0.89 70 18:56 25.12.2019
1715 Clouds 1 1013 92 0 0.45 62 18:36 25.12.2019
1716 Clouds 0 1013 93 0 1.58 233 18:18 25.12.2019
1717 Clouds 0 1013 95 0 1.58 233 17:40 25.12.2019
1718 Clouds -1 1012 95 0 0.45 64 17:19 25.12.2019
1719 Clouds -1 1012 96 0 0.45 36 16:57 25.12.2019
1720 Clouds -1 1012 96 0 0.45 64 16:37 25.12.2019
1721 Clouds -1 1012 95 0 2.3 258 16:18 25.12.2019
1722 Clouds -1 1012 95 0 2.3 258 16:18 25.12.2019
1723 Clouds -1 1011 95 0 2.3 258 15:56 25.12.2019
1724 Clouds -1 1011 95 0 0.45 67 15:38 25.12.2019
1725 Clouds -1 1011 95 0 0.45 67 15:38 25.12.2019
1726 Clouds -1 1011 95 0 0.45 67 15:19 25.12.2019
1727 Clouds -1 1011 95 0 0.45 67 15:19 25.12.2019
1728 Clouds -1 1011 95 0 0.89 67 14:56 25.12.2019
1729 Clouds -1 1011 95 0 0.45 91 14:37 25.12.2019
1730 Clouds -1 1011 95 0 2.47 258 14:19 25.12.2019
1731 Clouds -1 1011 94 0 2.47 258 13:44 25.12.2019
1732 Clouds -1 1011 94 0 2.43 259 13:21 25.12.2019
1733 Clouds -1 1011 94 0 0.45 50 12:56 25.12.2019
1734 Clouds 0 1011 94 0 2.43 259 12:38 25.12.2019
1735 Clouds 0 1011 94 0 2.43 259 12:19 25.12.2019
1736 Clouds 1 1011 93 0 2.43 259 11:43 25.12.2019
1737 Clouds 1 1011 93 0 1.84 239 11:22 25.12.2019
1738 Clouds 1 1011 93 0 0.45 50 10:59 25.12.2019
1739 Clouds 1 1011 93 0 0.45 67 10:36 25.12.2019
1740 Clouds 1 1011 93 0 0.89 19 10:18 25.12.2019
1741 Clouds 1 1011 92 0 1.84 239 09:43 25.12.2019
1742 Clouds 1 1011 91 0 1.84 239 09:25 25.12.2019
1743 Clouds 1 1011 93 0 0.45 206 08:46 25.12.2019
1744 Clouds 1 1011 93 0 1.84 239 08:26 25.12.2019
1745 Clouds 1 1011 93 0 1.17 220 07:45 25.12.2019
1746 Clouds 1 1011 91 0 1.17 220 07:23 25.12.2019
1747 Clouds 1 1011 91 0 1.17 220 06:49 25.12.2019
1748 Clouds 1 1011 91 0 1.17 220 06:22 25.12.2019
1749 Clouds 2 1011 82 0 0.89 331 04:50 25.12.2019
1750 Clouds 2 1011 81 0 0.89 329 04:26 25.12.2019
1751 Clouds 2 1011 82 0 0.89 358 03:58 25.12.2019
1752 Clouds 2 1011 89 0 0.34 17 03:40 25.12.2019
1753 Clouds 2 1011 79 0 0.34 17 02:39 25.12.2019
1754 Clouds 2 1011 75 0 0.95 200 01:58 25.12.2019
1755 Clouds 3 1011 76 0 1.23 210 01:25 25.12.2019
1756 Clouds 3 1011 74 0 0.89 318 00:50 25.12.2019
1757 Clouds 3 1011 73 0 1.23 210 00:29 25.12.2019
1758 Clouds 3 1011 72 0 0.89 324 23:56 24.12.2019
1759 Clouds 3 1011 73 0 0.89 270 23:37 24.12.2019
1760 Clouds 3 1011 74 0 1.79 268 23:19 24.12.2019
1761 Clouds 4 1011 70 0 0.45 278 22:40 24.12.2019
1762 Clouds 4 1011 74 0 0.45 335 22:21 24.12.2019
1763 Clouds 4 1011 75 0 0.59 139 21:43 24.12.2019
1764 Clouds 3 1012 75 0 0.89 276 21:22 24.12.2019
1765 Clouds 4 1012 74 0 0.89 288 20:54 24.12.2019
1766 Clouds 5 1012 75 0 0.45 322 20:36 24.12.2019
1767 Clouds 5 1011 72 0 0.76 240 20:18 24.12.2019
1768 Clouds 5 1012 74 0 0.64 253 20:18 24.12.2019
1769 Clouds 3 1013 81 0 0.45 312 19:43 24.12.2019
1770 Clouds 3 1013 81 0 0.76 240 19:19 24.12.2019
1771 Clouds 2 1014 85 0 0.45 339 18:43 24.12.2019
1772 Clouds 2 1014 88 0 0.45 344 18:23 24.12.2019
1773 Clouds 2 1014 90 0 0.76 240 17:58 24.12.2019
1774 Clouds 1 1014 94 0 0.76 240 17:37 24.12.2019
1775 Clouds 0 1014 94 0 0.76 277 17:19 24.12.2019
1776 Clouds -1 1013 94 0 0.76 277 16:55 24.12.2019
1777 Clouds -1 1013 94 0 0.76 277 16:36 24.12.2019
1778 Clouds -1 1013 93 0 0.76 277 16:18 24.12.2019
1779 Clouds -1 1013 93 0 0.76 277 15:54 24.12.2019
1780 Clouds -1 1013 94 0 0.76 277 15:36 24.12.2019
1781 Clouds -1 1013 95 0 0.76 277 15:18 24.12.2019
1782 Clouds 0 1013 95 0 0.76 277 14:54 24.12.2019
1783 Clouds 0 1013 96 0 0.76 277 14:36 24.12.2019
1784 Clouds 0 1013 96 0 0.76 277 14:36 24.12.2019
1785 Clouds -1 1013 95 0 1.01 277 14:18 24.12.2019
1786 Clouds -1 1013 95 0 1.01 277 13:54 24.12.2019
1787 Clouds -1 1013 95 0 1.01 277 13:36 24.12.2019
1788 Clouds -1 1013 94 0 0.93 272 13:18 24.12.2019
1789 Clouds -1 1013 94 0 0.93 272 12:54 24.12.2019
1790 Clouds -1 1013 92 0 0.45 107 12:36 24.12.2019
1791 Clouds -1 1013 93 0 0.89 113 12:18 24.12.2019
1792 Clouds 0 1013 94 0 0.89 108 11:54 24.12.2019
1793 Clouds 0 1013 95 0 1.34 67 11:36 24.12.2019
1794 Clouds 0 1013 96 0 0.45 111 11:18 24.12.2019
1795 Clouds 0 1013 94 0 1.34 112 10:54 24.12.2019
1796 Clouds 1 1012 94 0 0.45 112 10:36 24.12.2019
1797 Clouds 1 1013 95 0 0.89 112 10:18 24.12.2019
1798 Clouds 1 1013 95 0 0.45 112 09:54 24.12.2019
1799 Clouds 1 1013 95 0 0.89 112 09:36 24.12.2019
1800 Clouds 1 1013 96 0 1.1 220 09:18 24.12.2019
1801 Clouds 1 1013 96 0 0.45 87 08:42 24.12.2019
1802 Rain 1 1013 96 0 0.64 203 08:19 24.12.2019
1803 Rain 1 1013 96 0 0.52 124 07:44 24.12.2019
1804 Rain 1 1013 96 0 0.52 124 07:22 24.12.2019
1805 Rain 0 1013 96 0 0.52 124 06:41 24.12.2019
1806 Rain 1 1013 96 0 0.89 76 06:22 24.12.2019
1807 Rain 1 1012 96 0 0.45 75 05:56 24.12.2019
1808 Clouds 0 1011 95 0 0.45 73 05:20 24.12.2019
1809 Clouds 1 1011 95 0 0.89 82 04:33 24.12.2019
1810 Clouds 0 1012 95 0 0.45 81 03:50 24.12.2019
1811 Clouds 0 1011 94 0 0.89 73 02:59 24.12.2019
1812 Clouds 1 1011 93 0 0.45 68 02:19 24.12.2019
1813 Clouds 1 1011 92 0 1.46 123 01:42 24.12.2019
1814 Clouds 1 1011 92 0 0.89 40 01:19 24.12.2019
1815 Rain 2 1011 89 0 0.45 324 00:41 24.12.2019
1816 Rain 2 1011 89 0 1.07 107 00:22 24.12.2019
1817 Rain 2 1010 90 0 1.07 107 23:55 23.12.2019
1818 Rain 2 1010 89 0 0.45 324 23:37 23.12.2019
1819 Rain 2 1010 89 0 0.45 324 23:37 23.12.2019
1820 Rain 2 1010 90 0 0.45 324 23:19 23.12.2019
1821 Rain 2 1010 90 0 0.45 319 22:54 23.12.2019
1822 Rain 2 1010 89 0 1.46 74 22:36 23.12.2019
1823 Rain 2 1011 88 0 1.46 74 22:18 23.12.2019
1824 Rain 2 1011 88 0 1.46 74 22:18 23.12.2019
1825 Rain 2 1010 87 0 1.46 74 21:54 23.12.2019
1826 Rain 2 1011 89 0 0.45 350 21:36 23.12.2019
1827 Rain 2 1011 89 0 1.46 74 21:18 23.12.2019
1828 Rain 2 1012 90 0 1.46 74 20:56 23.12.2019
1829 Rain 2 1011 90 0 0.45 350 20:38 23.12.2019
1830 Rain 1 1012 92 0 0.86 329 20:18 23.12.2019
1831 Rain 1 1012 91 0 0.86 329 19:54 23.12.2019
1832 Rain 1 1013 90 0 0.86 329 19:36 23.12.2019
1833 Rain 1 1013 92 0 0.86 329 19:18 23.12.2019
1834 Rain 1 1013 91 0 1.34 57 18:54 23.12.2019
1835 Rain 1 1013 90 0 1.34 50 18:36 23.12.2019
1836 Rain 1 1014 90 0 0.45 67 18:18 23.12.2019
1837 Rain 1 1013 91 0 0.45 62 17:55 23.12.2019
1838 Rain 0 1013 93 0 0.45 65 17:37 23.12.2019
1839 Rain 0 1013 93 0 0.45 65 17:37 23.12.2019
1840 Rain 0 1014 93 0 1.67 358 17:18 23.12.2019
1841 Rain 0 1013 93 0 0.89 89 16:42 23.12.2019
1842 Rain 0 1013 93 0 0.45 55 16:19 23.12.2019
1843 Rain 0 1013 93 0 0.45 55 16:19 23.12.2019
1844 Rain 0 1013 93 0 0.45 55 16:19 23.12.2019
1845 Rain 0 1013 93 0 0.45 10 15:58 23.12.2019
1846 Rain 5 1013 81 0 1.67 358 15:38 23.12.2019
1847 Rain 0 1013 91 0 1.67 358 15:19 23.12.2019
1848 Rain 0 1013 91 0 1.67 358 14:58 23.12.2019
1849 Rain 0 1013 91 0 1.67 358 14:39 23.12.2019
1850 Clouds 0 1013 91 0 1.66 335 14:21 23.12.2019
1851 Clouds 1 1012 90 0 0.45 123 13:58 23.12.2019
1852 Clouds 1 1012 88 0 0.89 214 13:40 23.12.2019
1853 Rain 1 1012 86 0 1.72 329 13:22 23.12.2019
1854 Rain 1 1012 87 0 0.45 40 12:56 23.12.2019
1855 Rain 1 1012 86 0 1.72 329 12:37 23.12.2019
1856 Rain 1 1012 84 0 0.45 243 12:19 23.12.2019
1857 Rain 2 1012 79 0 0.45 243 11:44 23.12.2019
1858 Rain 2 1012 79 0 1.72 329 11:25 23.12.2019
1859 Clouds 2 1013 77 0 2.68 236 10:57 23.12.2019
1860 Clouds 2 1013 77 0 2.68 236 10:57 23.12.2019
1861 Clouds 3 1013 73 0 3.13 219 10:39 23.12.2019
1862 Clouds 3 1012 63 0 0.45 270 10:20 23.12.2019
1863 Clouds 3 1012 66 0 1.13 225 09:59 23.12.2019
1864 Clouds 3 1012 65 0 1.34 241 09:39 23.12.2019
1865 Clouds 8 1011 45 0 1.13 225 09:20 23.12.2019
1866 Clouds 8 1011 45 0 1.13 225 08:56 23.12.2019
1867 Clouds 8 1011 45 0 1.13 225 08:38 23.12.2019
1868 Clouds 7 1012 39 0 1.29 182 08:19 23.12.2019
1869 Clouds 7 1012 39 0 1.29 182 07:43 23.12.2019
1870 Clouds 7 1012 39 0 1.29 182 07:20 23.12.2019
1871 Clouds 7 1012 39 0 1.29 182 06:52 23.12.2019
1872 Clouds 7 1012 39 0 1.29 182 06:25 23.12.2019
1873 Clouds 7 1012 39 0 1.29 182 05:50 23.12.2019
1874 Clouds 7 1012 39 0 1.29 182 05:27 23.12.2019
1875 Clouds 7 1013 34 0 1.79 152 04:31 23.12.2019
1876 Clouds 7 1013 31 0 1.34 152 02:58 23.12.2019
1877 Clouds 7 1012 31 0 1.34 87 02:40 23.12.2019
1878 Clouds 7 1012 31 0 1.79 90 02:18 23.12.2019
1879 Clouds 7 1012 31 0 1.79 90 02:18 23.12.2019
1880 Clouds 8 1012 31 0 1.34 86 01:41 23.12.2019
1881 Clouds 8 1013 28 0 1.34 147 01:19 23.12.2019
1882 Clouds 11 1011 28 0 2.93 168 00:43 23.12.2019
1883 Clouds 11 1011 28 0 2.93 168 00:21 23.12.2019
1884 Clouds 11 1011 28 0 2.93 168 23:39 22.12.2019
1885 Clouds 11 1011 28 0 2.93 168 23:39 22.12.2019
1886 Clouds 12 1013 20 0 2.68 186 23:21 22.12.2019
1887 Clouds 13 1011 21 0 3.53 163 22:58 22.12.2019
1888 Clouds 13 1011 21 0 3.53 163 22:39 22.12.2019
1889 Clouds 12 1013 21 0 3.58 157 22:19 22.12.2019
1890 Clouds 12 1013 22 0 2.24 73 21:57 22.12.2019
1891 Clouds 13 1013 23 0 1.79 31 21:39 22.12.2019
1892 Clouds 12 1014 25 0 2.24 81 21:21 22.12.2019
1893 Clouds 12 1014 25 0 3.13 358 20:57 22.12.2019
1894 Clouds 9 1015 31 0 2.24 73 20:38 22.12.2019
1895 Clouds 7 1015 33 0 1.34 55 20:18 22.12.2019
1896 Clouds 8 1016 31 0 1.79 71 19:55 22.12.2019
1897 Clouds 7 1016 32 0 2.24 26 19:37 22.12.2019
1898 Clouds 8 1017 31 0 2.24 59 19:19 22.12.2019
1899 Clouds 7 1017 33 0 1.34 40 18:40 22.12.2019
1900 Clouds 6 1017 32 0 3.13 77 18:22 22.12.2019
1901 Clouds 6 1017 33 0 1.34 95 17:55 22.12.2019
1902 Clouds 5 1017 36 0 1.79 87 17:37 22.12.2019
1903 Clouds 4 1017 36 0 2.24 91 17:18 22.12.2019
1904 Clouds 4 1017 37 0 0.45 89 16:56 22.12.2019
1905 Clouds 4 1017 37 0 0.45 89 16:56 22.12.2019
1906 Clouds 4 1017 38 0 0.89 80 16:38 22.12.2019
1907 Clouds 4 1017 39 0 0.89 96 16:19 22.12.2019
1908 Clouds 4 1017 38 0 0.89 76 15:56 22.12.2019
1909 Clouds 4 1017 37 0 1.79 33 15:37 22.12.2019
1910 Clouds 4 1017 38 0 1.34 81 15:19 22.12.2019
1911 Clouds 4 1017 38 0 0.45 90 14:54 22.12.2019
1912 Clouds 4 1017 40 0 1.34 73 14:36 22.12.2019
1913 Clouds 3 1017 42 0 1.79 81 14:18 22.12.2019
1914 Clouds 2 1017 44 0 1.11 127 13:55 22.12.2019
1915 Clouds 3 1018 45 0 1.11 127 13:36 22.12.2019
1916 Clouds 3 1018 45 0 0.45 64 13:18 22.12.2019
1917 Clouds 3 1018 44 0 1.34 87 12:55 22.12.2019
1918 Clouds 1 1018 52 0 0.45 213 12:37 22.12.2019
1919 Clouds 1 1018 51 0 1.1 124 12:18 22.12.2019
1920 Clouds 2 1019 49 0 1.1 124 11:54 22.12.2019
1921 Clouds 2 1019 48 0 0.45 85 11:36 22.12.2019
1922 Clouds 2 1019 48 0 0.45 85 11:18 22.12.2019
1923 Clouds 2 1019 46 0 0.63 118 10:54 22.12.2019
1924 Clouds 2 1019 49 0 0.63 118 10:36 22.12.2019
1925 Clouds 2 1019 49 0 0.63 118 10:18 22.12.2019
1926 Clouds 2 1019 48 0 0.45 322 09:40 22.12.2019
1927 Clouds 3 1020 45 0 0.63 118 09:22 22.12.2019
1928 Clouds 3 1020 43 0 0.63 118 08:59 22.12.2019
1929 Clouds 4 1020 41 0 0.89 245 08:38 22.12.2019
1930 Clouds 3 1021 43 0 0.45 171 08:18 22.12.2019
1931 Clouds 3 1021 43 0 0.45 171 08:18 22.12.2019
1932 Clouds 3 1021 44 0 0.89 36 07:38 22.12.2019
1933 Clouds 2 1021 48 0 1.27 125 07:20 22.12.2019
1934 Clouds 3 1021 45 0 1.27 125 06:40 22.12.2019
1935 Clouds 3 1021 44 0 0.89 62 05:54 22.12.2019
1936 Clouds 3 1022 45 0 0.89 96 05:21 22.12.2019
1937 Clouds 3 1022 47 0 1.15 151 04:29 22.12.2019
1938 Clouds 3 1022 47 0 0.89 45 03:53 22.12.2019
1939 Clouds 3 1022 47 0 1.15 151 02:42 22.12.2019
1940 Clouds 4 1022 43 0 0.84 109 01:51 22.12.2019
1941 Clouds 6 1022 42 0 0.45 155 01:30 22.12.2019
1942 Clouds 7 1022 34 0 1.34 24 00:47 22.12.2019
1943 Clouds 8 1022 33 0 1.34 50 00:24 22.12.2019
1944 Clouds 8 1022 31 0 1.34 40 23:57 21.12.2019
1945 Clouds 9 1022 29 0 1.79 40 23:38 21.12.2019
1946 Clouds 9 1022 29 0 1.79 2 23:19 21.12.2019
1947 Clouds 10 1022 30 0 2.24 64 22:41 21.12.2019
1948 Clouds 10 1022 29 0 2.24 99 22:20 21.12.2019
1949 Clouds 12 1022 27 0 2.68 33 21:57 21.12.2019
1950 Clouds 12 1023 28 0 1.79 35 21:38 21.12.2019
1951 Clouds 12 1023 28 0 1.34 9 21:20 21.12.2019
1952 Clouds 11 1024 30 0 1.34 62 20:59 21.12.2019
1953 Clouds 11 1024 33 0 1.34 57 20:40 21.12.2019
1954 Clouds 10 1025 33 0 1.34 360 20:22 21.12.2019
1955 Clouds 9 1025 35 0 1.34 50 19:58 21.12.2019
1956 Clouds 9 1026 36 0 1.79 70 19:40 21.12.2019
1957 Clouds 8 1026 38 0 1.34 91 19:19 21.12.2019
1958 Clouds 8 1026 38 0 2.24 100 18:56 21.12.2019
1959 Clouds 8 1026 38 0 1.34 40 18:37 21.12.2019
1960 Clouds 7 1026 40 0 2.68 103 18:19 21.12.2019
1961 Clouds 6 1026 42 0 1.79 89 17:55 21.12.2019
1962 Clouds 6 1026 42 0 1.79 89 17:55 21.12.2019
1963 Clouds 6 1026 42 0 1.79 89 17:55 21.12.2019
1964 Clouds 5 1026 44 0 2.24 89 17:37 21.12.2019
1965 Clouds 4 1026 45 0 1.79 58 17:18 21.12.2019
1966 Clouds 3 1026 49 0 2.24 108 16:41 21.12.2019
1967 Clouds 3 1026 50 0 0.45 151 16:19 21.12.2019
1968 Clouds 3 1026 50 0 0.45 151 16:19 21.12.2019
1969 Clouds 1 1026 55 0 2.24 75 15:58 21.12.2019
1970 Clouds -1 1026 60 0 0.89 77 15:39 21.12.2019
1971 Clouds 5 1023 46 0 1.06 20 15:20 21.12.2019
1972 Clouds 0 1026 60 0 1.06 20 14:59 21.12.2019
1973 Clouds 0 1026 59 0 0.89 334 14:40 21.12.2019
1974 Clouds 1 1026 58 0 1.19 20 14:22 21.12.2019
1975 Clouds 1 1026 56 0 1.19 20 13:57 21.12.2019
1976 Clouds 2 1026 54 0 1.19 20 13:38 21.12.2019
1977 Clouds 1 1026 56 0 0.95 35 13:18 21.12.2019
1978 Clouds 1 1027 60 0 0.95 35 12:56 21.12.2019
1979 Clouds 1 1027 58 0 0.45 23 12:37 21.12.2019
1980 Clouds 1 1027 58 0 0.95 35 12:19 21.12.2019
1981 Clouds 1 1027 58 0 0.95 35 11:45 21.12.2019
1982 Clouds 1 1027 57 0 0.95 35 11:26 21.12.2019
1983 Clouds 2 1027 53 0 0.94 47 10:57 21.12.2019
1984 Clouds 2 1028 52 0 0.45 271 10:39 21.12.2019
1985 Clouds 2 1028 52 0 0.94 47 10:21 21.12.2019
1986 Clouds 2 1028 52 0 0.94 47 09:56 21.12.2019
1987 Clouds 2 1028 55 0 0.45 27 09:38 21.12.2019
1988 Clouds 1 1028 60 0 0.94 47 09:19 21.12.2019
1989 Clouds 1 1028 57 0 0.94 47 08:46 21.12.2019
1990 Clouds 1 1029 55 0 0.94 47 08:26 21.12.2019
1991 Clouds 1 1029 57 0 1.05 37 07:47 21.12.2019
1992 Clouds 1 1030 59 0 1.05 37 07:23 21.12.2019
1993 Clouds 1 1030 59 0 1.05 37 07:23 21.12.2019
1994 Clouds 1 1029 57 0 1.05 37 06:46 21.12.2019
1995 Clouds 1 1029 58 0 1.05 37 06:28 21.12.2019
1996 Clouds 1 1030 57 0 1.05 37 05:55 21.12.2019
1997 Clouds 1 1029 59 0 1.65 10 04:58 21.12.2019
1998 Clouds 1 1030 57 0 1.65 10 04:19 21.12.2019
1999 Clouds 1 1030 58 0 1.65 10 03:56 21.12.2019
2000 Clouds 5 1029 43 0 0.82 4 02:19 21.12.2019
2001 Clouds 7 1029 36 0 0.82 4 01:41 21.12.2019
2002 Clouds 9 1029 30 0 0.89 160 01:23 21.12.2019
2003 Clouds 9 1025 35 0 0.77 9 00:39 21.12.2019
2004 Clouds 9 1025 35 0 0.77 9 00:19 21.12.2019
2005 Clouds 9 1025 35 0 0.77 9 23:38 20.12.2019
2006 Clouds 11 1025 25 0 1.47 97 23:20 20.12.2019
2007 Clouds 11 1025 25 0 1.47 97 22:57 20.12.2019
2008 Clouds 11 1025 25 0 1.47 97 22:36 20.12.2019
2009 Clouds 11 1025 25 0 1.47 97 22:18 20.12.2019
2010 Clouds 14 1028 23 0 1.79 71 21:41 20.12.2019
2011 Clouds 13 1029 24 0 1.79 30 21:21 20.12.2019
2012 Clouds 13 1029 24 0 1.79 30 21:21 20.12.2019
2013 Clouds 13 1029 24 0 1.34 45 20:57 20.12.2019
2014 Clouds 13 1030 24 0 0.89 69 20:38 20.12.2019
2015 Clouds 9 1027 25 0 1.23 52 20:18 20.12.2019
2016 Clouds 9 1027 25 0 1.23 52 19:42 20.12.2019
2017 Clouds 9 1027 25 0 1.23 52 19:21 20.12.2019
2018 Clouds 9 1027 25 0 1.23 52 18:58 20.12.2019
2019 Clouds 12 1031 28 0 0.45 66 18:39 20.12.2019
2020 Clouds 11 1030 32 0 1.23 52 18:21 20.12.2019
2021 Clouds 9 1031 37 0 1.23 52 17:56 20.12.2019
2022 Clouds 9 1031 37 0 1.23 52 17:56 20.12.2019
2023 Clouds 4 1031 52 0 1.23 52 17:38 20.12.2019
2024 Clouds 2 1031 61 0 1.45 14 17:20 20.12.2019
2025 Clouds 0 1031 66 0 1.45 14 16:56 20.12.2019
2026 Clouds -2 1030 67 0 1.45 14 16:37 20.12.2019
2027 Clouds -3 1030 71 0 1.45 14 16:19 20.12.2019
2028 Clouds -3 1030 70 0 1.45 14 15:54 20.12.2019
2029 Clouds -3 1029 68 0 1.45 14 15:36 20.12.2019
2030 Clouds -2 1029 67 0 0.45 333 15:18 20.12.2019
2031 Clouds -2 1030 66 0 1.45 14 14:41 20.12.2019
2032 Clouds -2 1030 66 0 1.45 14 14:41 20.12.2019
2033 Clouds -2 1029 64 0 1.45 14 14:23 20.12.2019
2034 Clouds -2 1029 65 0 0.45 333 13:56 20.12.2019
2035 Clouds -2 1029 66 0 1.31 21 13:37 20.12.2019
2036 Clouds -2 1029 65 0 1.22 37 13:18 20.12.2019
2037 Clouds -2 1029 64 0 1.22 37 12:55 20.12.2019
2038 Clouds -1 1029 62 0 1.22 37 12:36 20.12.2019
2039 Clouds -1 1029 61 0 1.22 37 12:18 20.12.2019
2040 Clouds -1 1029 60 0 1.22 37 11:57 20.12.2019
2041 Clouds 0 1029 57 0 1.22 37 11:38 20.12.2019
2042 Clouds 1 1030 56 0 1.26 28 11:18 20.12.2019
2043 Clouds -1 1029 58 0 1.26 28 10:55 20.12.2019
2044 Clouds 4 1026 35 0 1.26 28 10:37 20.12.2019
2045 Clouds -2 1029 61 0 1.26 28 10:18 20.12.2019
2046 Clouds 4 1026 35 0 1.26 28 09:42 20.12.2019
2047 Clouds -1 1029 56 0 1.26 28 09:21 20.12.2019
2048 Clouds 4 1026 35 0 1.26 28 08:54 20.12.2019
2049 Clouds -1 1030 55 0 1.26 28 08:36 20.12.2019
2050 Clear -1 1030 54 0 0.91 9 08:18 20.12.2019
2051 Clear -1 1030 54 0 0.91 9 07:41 20.12.2019
2052 Clear -1 1030 54 0 0.91 9 07:23 20.12.2019
2053 Clear -1 1029 52 0 0.91 9 06:55 20.12.2019
2054 Clear -1 1029 51 0 0.91 9 06:36 20.12.2019
2055 Clear -1 1029 53 0 0.45 18 06:18 20.12.2019
2056 Clear -1 1028 55 0 0.91 9 05:45 20.12.2019
2057 Clear -1 1028 51 0 0.74 15 04:46 20.12.2019
2058 Clear 1 1027 49 0 0.74 15 03:33 20.12.2019
2059 Clear 2 1027 43 0 0.74 15 02:45 20.12.2019
2060 Clear 6 1026 32 0 0.7 104 01:55 20.12.2019
2061 Clear 8 1022 29 0 0.7 104 01:35 20.12.2019
2062 Clouds 8 1022 29 0 0.61 117 00:54 20.12.2019
2063 Clouds 8 1022 29 0 0.61 117 00:35 20.12.2019
2064 Clouds 8 1022 29 0 0.61 117 23:57 19.12.2019
2065 Clouds 8 1022 29 0 0.61 117 23:39 19.12.2019
2066 Clouds 9 1021 20 0 1.02 105 23:19 19.12.2019
2067 Clouds 9 1021 20 0 1.02 105 22:39 19.12.2019
2068 Clouds 9 1021 20 0 1.02 105 22:21 19.12.2019
2069 Clouds 9 1021 20 0 1.02 105 21:56 19.12.2019
2070 Clouds 14 1025 18 0 1.34 64 21:38 19.12.2019
2071 Clouds 13 1025 18 0 1.79 91 21:19 19.12.2019
2072 Clouds 13 1025 17 0 1.34 94 20:56 19.12.2019
2073 Clouds 9 1021 20 0 1.02 105 20:37 19.12.2019
2074 Clouds 7 1023 19 0 0.96 64 20:19 19.12.2019
2075 Clouds 7 1023 19 0 0.96 64 19:58 19.12.2019
2076 Clouds 7 1023 19 0 0.96 64 19:58 19.12.2019
2077 Clouds 7 1023 19 0 0.96 64 19:39 19.12.2019
2078 Clouds 7 1023 19 0 0.96 64 19:19 19.12.2019
2079 Clouds 7 1023 19 0 0.96 64 19:19 19.12.2019
2080 Clouds 7 1023 19 0 0.96 64 19:19 19.12.2019
2081 Clouds 7 1023 19 0 0.96 64 18:57 19.12.2019
2082 Clouds 9 1026 20 0 0.89 326 18:39 19.12.2019
2083 Clouds 8 1026 21 0 1.34 338 18:19 19.12.2019
2084 Clouds 7 1026 23 0 1.34 341 17:55 19.12.2019
2085 Clouds 4 1026 25 0 1.79 342 17:37 19.12.2019
2086 Clear 1 1021 34 0 0.91 3 17:18 19.12.2019
2087 Clear 2 1026 30 0 0.45 339 16:55 19.12.2019
2088 Clear 0 1025 32 0 0.89 322 16:37 19.12.2019
2089 Clear 0 1025 33 0 1.34 323 16:19 19.12.2019
2090 Clear 0 1025 32 0 0.89 329 15:56 19.12.2019
2091 Clear 0 1025 31 0 1.79 333 15:37 19.12.2019
2092 Clear -1 1025 33 0 1.34 322 15:19 19.12.2019
2093 Clear -1 1025 33 0 1.34 322 15:19 19.12.2019
2094 Clear 0 1024 32 0 0.89 320 14:43 19.12.2019
2095 Clear -1 1024 36 0 1.79 335 14:20 19.12.2019
2096 Clear -4 1024 45 0 1.79 339 13:59 19.12.2019
2097 Clear 1 1020 37 0 0.73 276 13:38 19.12.2019
2098 Clear 1 1020 37 0 0.54 289 13:19 19.12.2019
2099 Clear 1 1020 37 0 0.54 289 12:57 19.12.2019
2100 Clear 1 1020 37 0 0.54 289 12:39 19.12.2019
2101 Clear 1 1020 37 0 0.54 289 12:19 19.12.2019
2102 Clear 1 1020 37 0 0.54 289 11:58 19.12.2019
2103 Clear 1 1020 37 0 0.54 289 11:40 19.12.2019
2104 Clear 1 1020 39 0 0.39 23 11:18 19.12.2019
2105 Clear 1 1020 39 0 0.39 23 11:18 19.12.2019
2106 Clear 1 1020 39 0 0.39 23 10:58 19.12.2019
2107 Clear 1 1020 39 0 0.39 23 10:38 19.12.2019
2108 Clear 1 1020 39 0 0.39 23 10:20 19.12.2019
2109 Clear 1 1020 39 0 0.39 23 09:56 19.12.2019
2110 Clear 1 1020 39 0 0.39 23 09:37 19.12.2019
2111 Clear 1 1020 39 0 0.39 23 09:18 19.12.2019
2112 Clear -4 1023 47 0 0.45 343 08:55 19.12.2019
2113 Clear -3 1023 43 0 0.39 23 08:36 19.12.2019
2114 Clouds -2 1023 42 0 1.08 342 08:18 19.12.2019
2115 Clouds -3 1024 43 0 0.45 273 07:40 19.12.2019
2116 Clouds -3 1023 46 0 0.45 359 07:22 19.12.2019
2117 Clouds -3 1023 43 0 1.08 342 06:58 19.12.2019
2118 Clouds -3 1023 43 0 1.34 314 06:39 19.12.2019
2119 Clouds -4 1023 47 0 1.08 342 06:21 19.12.2019
2120 Clouds 2 1020 38 0 1.08 342 05:42 19.12.2019
2121 Clouds -4 1023 49 0 1.59 8 05:19 19.12.2019
2122 Clouds -1 1021 39 0 1.59 8 03:51 19.12.2019
2123 Clouds 1 1021 33 0 1.79 35 02:28 19.12.2019
2124 Clouds 2 1020 29 0 1.34 32 01:25 19.12.2019
2125 Clouds 4 1020 26 0 1.34 16 00:57 19.12.2019
2126 Clouds 6 1018 28 0 0.99 77 00:38 19.12.2019
2127 Clouds 4 1020 26 0 1.79 69 00:19 19.12.2019
2128 Clouds 6 1020 24 0 1.79 32 23:44 18.12.2019
2129 Clouds 7 1020 24 0 1.79 31 23:19 18.12.2019
2130 Clouds 5 1020 25 0 0.89 56 22:58 18.12.2019
2131 Clouds 5 1020 25 0 1.34 62 22:39 18.12.2019
2132 Clouds 5 1020 25 0 1.34 62 22:39 18.12.2019
2133 Clouds 6 1020 25 0 1.79 79 22:21 18.12.2019
2134 Clouds 6 1021 24 0 1.79 50 21:59 18.12.2019
2135 Clouds 6 1021 25 0 0.45 88 21:40 18.12.2019
2136 Clouds 4 1021 25 0 1.34 6 21:20 18.12.2019
2137 Clouds 4 1021 26 0 1.34 40 20:57 18.12.2019
2138 Clouds 4 1022 26 0 1.34 50 20:38 18.12.2019
2139 Clouds 3 1022 25 0 2.24 64 20:20 18.12.2019
2140 Clouds 5 1022 24 0 1.79 54 19:57 18.12.2019
2141 Clouds 5 1021 22 0 1.17 90 19:39 18.12.2019
2142 Clouds 5 1021 22 0 1.17 90 19:19 18.12.2019
2143 Clouds 4 1023 23 0 1.79 158 18:56 18.12.2019
2144 Clouds 3 1024 24 0 1.34 133 18:37 18.12.2019
2145 Clouds 3 1024 25 0 0.89 141 18:18 18.12.2019
2146 Clouds 2 1024 27 0 1.17 90 17:55 18.12.2019
2147 Clouds 1 1024 29 0 1.17 90 17:37 18.12.2019
2148 Clouds 1 1024 29 0 0.45 62 17:18 18.12.2019
2149 Clouds 0 1024 31 0 0.69 98 16:42 18.12.2019
2150 Clouds 0 1024 29 0 1.79 173 16:24 18.12.2019
2151 Clouds -2 1024 30 0 0.69 98 15:57 18.12.2019
2152 Clouds -2 1024 37 0 0.89 87 15:39 18.12.2019
2153 Clouds -3 1025 38 0 0.69 98 15:21 18.12.2019
2154 Clouds -4 1025 42 0 0.45 154 14:56 18.12.2019
2155 Clouds -4 1025 42 0 0.45 154 14:56 18.12.2019
2156 Clouds -4 1025 43 0 0.69 98 14:38 18.12.2019
2157 Clouds 1 1022 28 0 1.75 358 14:19 18.12.2019
2158 Clouds 1 1022 28 0 1.75 358 13:55 18.12.2019
2159 Clouds -3 1025 34 0 1.75 358 13:36 18.12.2019
2160 Clouds -3 1025 34 0 1.53 357 13:18 18.12.2019
2161 Clouds -3 1025 34 0 1.53 357 13:18 18.12.2019
2162 Clouds -2 1025 33 0 0.45 310 12:40 18.12.2019
2163 Clouds -2 1025 33 0 0.45 212 12:22 18.12.2019
2164 Clouds -3 1024 34 0 0.89 80 11:57 18.12.2019
2165 Clouds -2 1025 34 0 0.45 223 11:39 18.12.2019
2166 Clouds -2 1025 32 0 0.89 85 11:20 18.12.2019
2167 Clouds -2 1025 33 0 0.45 60 10:59 18.12.2019
2168 Clouds -2 1025 35 0 1.6 26 10:40 18.12.2019
2169 Clouds -2 1026 36 0 0.45 7 10:21 18.12.2019
2170 Clouds -2 1026 36 0 0.45 50 09:59 18.12.2019
2171 Clouds -3 1027 39 0 1.6 26 09:21 18.12.2019
2172 Clouds -4 1027 42 0 1.6 26 08:57 18.12.2019
2173 Clouds -4 1027 42 0 1.6 26 08:57 18.12.2019
2174 Clouds 2 1023 32 0 1.6 26 08:39 18.12.2019
2175 Clouds -4 1028 47 0 2.32 33 08:20 18.12.2019
2176 Clouds -2 1028 39 0 2.32 33 07:42 18.12.2019
2177 Clouds -1 1028 37 0 2.32 33 07:21 18.12.2019
2178 Clouds -2 1028 42 0 2.32 33 06:53 18.12.2019
2179 Clouds -2 1029 44 0 2.32 33 06:26 18.12.2019
2180 Clouds -2 1029 44 0 2.32 33 05:39 18.12.2019
2181 Clouds -2 1029 47 0 2.24 22 04:35 18.12.2019
2182 Clouds -1 1030 38 0 2.24 22 02:50 18.12.2019
2183 Clouds 0 1030 38 0 2.24 22 02:30 18.12.2019
2184 Clouds 2 1030 25 0 0.89 85 01:47 18.12.2019
2185 Clouds 2 1030 23 0 0.89 77 01:28 18.12.2019
2186 Clouds 3 1030 22 0 1.34 45 00:59 18.12.2019
2187 Clouds 4 1030 22 0 1.34 45 00:40 18.12.2019
2188 Clouds 4 1030 22 0 1.34 58 00:21 18.12.2019
2189 Clouds 5 1030 21 0 1.79 45 23:54 17.12.2019
2190 Clouds 5 1030 19 0 2.24 29 23:36 17.12.2019
2191 Clouds 6 1030 20 0 1.79 19 23:18 17.12.2019
2192 Clouds 6 1030 20 0 1.79 65 22:54 17.12.2019
2193 Clouds 6 1031 19 0 1.34 78 22:36 17.12.2019
2194 Clouds 7 1031 19 0 1.34 31 22:18 17.12.2019
2195 Clouds 7 1031 19 0 1.34 83 21:55 17.12.2019
2196 Clouds 9 1032 18 0 0.89 67 21:36 17.12.2019
2197 Clouds 9 1032 18 0 0.89 67 21:18 17.12.2019
2198 Clouds 8 1033 16 0 0.89 94 20:55 17.12.2019
2199 Clouds 7 1033 17 0 0.45 108 20:36 17.12.2019
2200 Clouds 4 1032 23 0 3.44 27 20:18 17.12.2019
2201 Clouds 4 1032 23 0 3.44 27 19:41 17.12.2019
2202 Clouds 4 1035 22 0 3.44 27 19:20 17.12.2019
2203 Clouds 3 1035 23 0 3.44 27 18:58 17.12.2019
2204 Clouds 3 1035 23 0 0.45 221 18:40 17.12.2019
2205 Clouds 3 1035 25 0 0.45 194 18:21 17.12.2019
2206 Clouds 3 1035 28 0 0.45 299 17:58 17.12.2019
2207 Clouds 2 1035 32 0 0.45 19 17:40 17.12.2019
2208 Clouds 0 1035 36 0 3.23 10 17:19 17.12.2019
2209 Clouds -2 1035 42 0 3.23 10 16:56 17.12.2019
2210 Clouds 1 1033 29 0 3.23 10 16:37 17.12.2019
2211 Clouds 1 1033 29 0 3.23 10 16:37 17.12.2019
2212 Clouds 1 1033 29 0 3.23 10 16:19 17.12.2019
2213 Clouds 1 1033 29 0 3.23 10 15:55 17.12.2019
2214 Clouds -4 1035 44 0 3.23 10 15:37 17.12.2019
2215 Clouds -4 1035 41 0 3.23 10 15:18 17.12.2019
2216 Clouds -4 1035 40 0 3.23 10 14:55 17.12.2019
2217 Clouds -3 1035 40 0 3.23 10 14:36 17.12.2019
2218 Clouds -3 1035 40 0 3.23 10 14:36 17.12.2019
2219 Clear -3 1035 36 0 0.89 341 14:18 17.12.2019
2220 Clear -2 1034 36 0 0.89 267 13:55 17.12.2019
2221 Clear -3 1034 37 0 0.45 329 13:37 17.12.2019
2222 Clear -2 1034 35 0 3.75 17 13:18 17.12.2019
2223 Clear -1 1034 26 0 0.45 352 12:40 17.12.2019
2224 Clear -2 1034 30 0 3.58 349 12:19 17.12.2019
2225 Clear -4 1034 40 0 1.79 345 11:59 17.12.2019
2226 Clear -3 1034 42 0 0.89 302 11:37 17.12.2019
2227 Clear -3 1034 38 0 0.89 351 11:19 17.12.2019
2228 Clear -3 1034 44 0 0.45 358 10:59 17.12.2019
2229 Clear -3 1034 44 0 0.45 107 10:40 17.12.2019
2230 Clear -1 1034 39 0 0.45 7 10:21 17.12.2019
2231 Clear -1 1034 38 0 0.89 33 09:59 17.12.2019
2232 Clear 0 1034 36 0 0.89 318 09:41 17.12.2019
2233 Clear 0 1034 36 0 0.89 318 09:41 17.12.2019
2234 Clear 1 1034 33 0 2.68 350 09:20 17.12.2019
2235 Clear 1 1034 32 0 2.68 309 08:56 17.12.2019
2236 Clear 0 1034 35 0 2.24 325 08:38 17.12.2019
2237 Clear 0 1035 39 0 0.89 334 08:19 17.12.2019
2238 Clear 1 1035 37 0 1.79 349 07:46 17.12.2019
2239 Clear 1 1035 37 0 2.68 346 07:26 17.12.2019
2240 Clear 1 1035 37 0 4.02 360 06:56 17.12.2019
2241 Clear 1 1034 35 0 3.58 353 06:35 17.12.2019
2242 Clear 1 1034 37 0 3.58 5 05:53 17.12.2019
2243 Clear 1 1034 37 0 2.24 6 05:35 17.12.2019
2244 Clear 1 1033 36 0 3.58 6 04:30 17.12.2019
2245 Clear 2 1033 35 0 4.02 348 02:34 17.12.2019
2246 Clear 2 1032 34 0 2.24 348 01:55 17.12.2019
2247 Clear 5 1028 25 0 3.74 21 00:59 17.12.2019
2248 Clear 5 1028 25 0 3.74 21 00:38 17.12.2019
2249 Clear 5 1028 25 0 3.74 21 00:19 17.12.2019
2250 Clear 5 1028 25 0 3.74 21 23:41 16.12.2019
2251 Clear 6 1028 24 0 5.1 28 23:19 16.12.2019
2252 Clear 6 1028 24 0 5.1 28 23:19 16.12.2019
2253 Clear 6 1028 24 0 5.1 28 22:56 16.12.2019
2254 Clear 6 1028 24 0 5.1 28 22:37 16.12.2019
2255 Clear 6 1028 24 0 5.1 28 22:19 16.12.2019
2256 Clear 6 1028 24 0 5.1 28 22:19 16.12.2019
2257 Clear 6 1028 24 0 5.1 28 21:55 16.12.2019
2258 Clear 6 1028 24 0 5.1 28 21:55 16.12.2019
2259 Clear 6 1028 24 0 5.1 28 21:37 16.12.2019
2260 Clear 6 1028 24 0 5.1 28 21:19 16.12.2019
2261 Clear 6 1028 24 0 5.1 28 20:57 16.12.2019
2262 Clear 6 1028 24 0 5.1 28 20:37 16.12.2019
2263 Clouds 5 1030 30 0 5.1 25 20:19 16.12.2019
2264 Clouds 5 1030 28 0 4.85 28 19:56 16.12.2019
2265 Clouds 5 1030 28 0 4.85 28 19:37 16.12.2019
2266 Clouds 5 1030 28 0 4.85 28 19:19 16.12.2019
2267 Clouds 5 1030 28 0 4.85 28 18:56 16.12.2019
2268 Clouds 5 1030 28 0 4.85 28 18:56 16.12.2019
2269 Clouds 6 1032 34 0 2.24 360 18:38 16.12.2019
2270 Clouds 6 1032 34 0 2.24 360 18:38 16.12.2019
2271 Clouds 5 1032 36 0 0.89 60 18:19 16.12.2019
2272 Clouds 3 1032 40 0 1.79 360 17:57 16.12.2019
2273 Clouds 3 1031 40 0 0.45 155 17:38 16.12.2019
2274 Clouds 2 1028 46 0 3.84 7 17:20 16.12.2019
2275 Clouds 1 1031 42 0 3.58 353 16:56 16.12.2019
2276 Clouds -1 1030 51 0 3.13 17 16:38 16.12.2019
2277 Clouds 2 1028 46 0 3.84 7 16:19 16.12.2019
2278 Clouds 2 1028 46 0 3.84 7 15:57 16.12.2019
2279 Clouds 2 1028 46 0 3.84 7 15:38 16.12.2019
2280 Clouds -4 1029 65 0 3.84 7 15:20 16.12.2019
2281 Clouds -3 1029 63 0 3.84 7 14:55 16.12.2019
2282 Clouds -3 1028 61 0 3.84 7 14:37 16.12.2019
2283 Clouds -3 1028 61 0 3.84 7 14:37 16.12.2019
2284 Clouds -2 1028 59 0 3.38 10 14:18 16.12.2019
2285 Clouds -2 1028 59 0 3.38 10 14:18 16.12.2019
2286 Clouds -1 1028 56 0 0.89 183 13:56 16.12.2019
2287 Clouds -1 1027 54 0 0.45 152 13:37 16.12.2019
2288 Clouds 0 1027 50 0 3.27 8 13:19 16.12.2019
2289 Clouds 0 1027 50 0 2.24 360 12:56 16.12.2019
2290 Clouds -1 1027 52 0 4.47 352 12:38 16.12.2019
2291 Clouds -1 1027 54 0 3.13 347 12:18 16.12.2019
2292 Clouds -1 1027 56 0 0.89 304 11:57 16.12.2019
2293 Clouds -1 1027 57 0 1.34 338 11:39 16.12.2019
2294 Clouds -2 1026 58 0 2.88 6 11:19 16.12.2019
2295 Clouds -1 1026 56 0 0.89 333 10:54 16.12.2019
2296 Clouds -1 1026 55 0 0.89 336 10:36 16.12.2019
2297 Clouds -1 1025 56 0 0.89 328 10:18 16.12.2019
2298 Clouds -1 1025 56 0 0.45 312 09:44 16.12.2019
2299 Clouds -2 1025 59 0 2.88 6 09:26 16.12.2019
2300 Clouds -2 1024 57 0 1.34 320 08:41 16.12.2019
2301 Clear -3 1024 67 0 0.89 329 08:20 16.12.2019
2302 Clear -3 1024 64 0 1.33 21 07:53 16.12.2019
2303 Clear -3 1024 67 0 1.33 21 07:31 16.12.2019
2304 Clear -3 1024 66 0 1.33 21 06:59 16.12.2019
2305 Clear -3 1023 65 0 1.33 21 06:40 16.12.2019
2306 Clear -2 1023 62 0 1.33 21 06:21 16.12.2019
2307 Clear 0 1022 50 0 0.45 268 05:41 16.12.2019
2308 Clear 2 1022 46 0 1.79 333 05:23 16.12.2019
2309 Clear 1 1021 45 0 0.62 98 03:29 16.12.2019
2310 Clouds 4 1019 33 0 2.68 360 01:52 16.12.2019
2311 Clouds 6 1019 31 0 3.58 339 01:33 16.12.2019
2312 Clear 9 1017 32 0 1.78 79 00:41 16.12.2019
2313 Clear 9 1017 32 0 1.78 79 00:21 16.12.2019
2314 Clear 9 1017 32 0 1.78 79 23:57 15.12.2019
2315 Clear 9 1017 32 0 1.78 79 23:37 15.12.2019
2316 Clear 9 1016 38 0 0.94 55 23:19 15.12.2019
2317 Clear 9 1016 38 0 0.94 55 22:54 15.12.2019
2318 Clear 9 1016 38 0 0.94 55 22:36 15.12.2019
2319 Clear 9 1016 38 0 0.94 55 22:18 15.12.2019
2320 Clear 9 1016 38 0 0.94 55 21:55 15.12.2019
2321 Clear 10 1017 27 0 2.24 339 21:36 15.12.2019
2322 Clear 10 1017 26 0 1.34 227 21:18 15.12.2019
2323 Clear 8 1017 32 0 0.45 349 20:54 15.12.2019
2324 Clear 7 1017 34 0 0.89 270 20:36 15.12.2019
2325 Clouds 8 1016 46 0 1.38 269 20:18 15.12.2019
2326 Clouds 7 1017 36 0 1.79 241 19:54 15.12.2019
2327 Clouds 6 1017 37 0 2.68 261 19:36 15.12.2019
2328 Clouds 6 1017 41 0 1.79 244 19:18 15.12.2019
2329 Clouds 5 1017 42 0 1.34 309 18:54 15.12.2019
2330 Clouds 6 1016 38 0 1.79 250 18:36 15.12.2019
2331 Clouds 6 1016 41 0 1.79 6 18:18 15.12.2019
2332 Clouds 4 1016 45 0 2.24 339 17:55 15.12.2019
2333 Clouds 4 1016 46 0 0.89 331 17:36 15.12.2019
2334 Clouds 5 1015 65 0 2.8 284 17:18 15.12.2019
2335 Clouds 2 1014 47 0 1.79 307 16:42 15.12.2019
2336 Clouds 1 1013 52 0 2.24 331 16:22 15.12.2019
2337 Clouds 1 1013 56 0 1.34 320 15:57 15.12.2019
2338 Clouds 1 1013 55 0 2.68 323 15:39 15.12.2019
2339 Clouds 1 1012 58 0 2.68 339 15:19 15.12.2019
2340 Clouds 1 1012 59 0 2.68 351 14:56 15.12.2019
2341 Clouds 0 1011 62 0 1.79 341 14:37 15.12.2019
2342 Clouds 0 1011 62 0 2.24 337 14:19 15.12.2019
2343 Clouds 1 1010 61 0 1.34 313 13:58 15.12.2019
2344 Clouds 2 1010 56 0 2.24 272 13:39 15.12.2019
2345 Clouds 2 1010 58 0 3.13 287 13:20 15.12.2019
2346 Clouds 1 1009 76 0 0.89 345 12:57 15.12.2019
2347 Clouds 1 1009 76 0 0.89 345 12:57 15.12.2019
2348 Clouds 1 1009 90 0 0.45 57 12:39 15.12.2019
2349 Clouds 1 1009 88 0 0.89 313 12:21 15.12.2019
2350 Clouds 1 1009 90 0 0.45 344 11:59 15.12.2019
2351 Clouds 1 1009 90 0 3.27 272 11:37 15.12.2019
2352 Clouds 1 1009 90 0 3.24 264 11:19 15.12.2019
2353 Clouds 1 1009 91 0 3.24 264 10:55 15.12.2019
2354 Clouds 1 1008 92 0 3.24 264 10:37 15.12.2019
2355 Clouds 1 1008 92 0 3.24 264 10:19 15.12.2019
2356 Clouds 1 1008 91 0 0.45 286 09:56 15.12.2019
2357 Clouds 1 1008 88 0 3.24 264 09:37 15.12.2019
2358 Clouds 2 1008 88 0 3.24 264 09:18 15.12.2019
2359 Clouds 3 1008 88 0 3.24 264 08:41 15.12.2019
2360 Clouds 3 1008 88 0 0.31 229 08:22 15.12.2019
2361 Clouds 3 1008 89 0 0.45 78 07:57 15.12.2019
2362 Clouds 3 1008 88 0 0.45 30 07:37 15.12.2019
2363 Clouds 3 1008 86 0 0.31 229 06:57 15.12.2019
2364 Clouds 4 1008 81 0 0.31 229 06:23 15.12.2019
2365 Clouds 3 1008 89 0 0.31 229 05:42 15.12.2019
2366 Rain 3 1009 78 0 0.5 311 05:20 15.12.2019
2367 Rain 6 1008 71 0 0.89 17 04:18 15.12.2019
2368 Rain 7 1008 65 0 1.34 11 02:35 15.12.2019
2369 Clouds 8 1008 62 0 1.34 16 01:57 15.12.2019
2370 Clouds 9 1008 56 0 1.79 45 01:39 15.12.2019
2371 Clouds 11 1009 51 0 1.34 33 01:18 15.12.2019
2372 Clouds 11 1007 67 0 0.98 88 00:47 15.12.2019
2373 Clouds 11 1007 67 0 0.98 88 00:29 15.12.2019
2374 Clouds 12 1009 47 0 1.79 26 23:41 14.12.2019
2375 Clouds 12 1009 62 0 1.44 98 23:22 14.12.2019
2376 Clouds 12 1009 62 0 1.44 98 22:59 14.12.2019
2377 Clouds 12 1009 62 0 1.44 98 22:41 14.12.2019
2378 Clouds 12 1009 62 0 1.44 98 22:22 14.12.2019
2379 Clouds 12 1009 62 0 1.44 98 21:57 14.12.2019
2380 Clouds 13 1010 58 0 1.34 50 21:38 14.12.2019
2381 Clouds 13 1010 60 0 1.34 50 21:19 14.12.2019
2382 Clouds 13 1010 60 0 1.34 50 21:19 14.12.2019
2383 Clouds 13 1010 60 0 1.34 55 20:59 14.12.2019
2384 Clouds 12 1010 64 0 0.89 72 20:40 14.12.2019
2385 Clear 11 1010 65 0 1.43 273 20:20 14.12.2019
2386 Clear 11 1010 65 0 1.43 273 19:57 14.12.2019
2387 Clear 11 1010 65 0 1.43 273 19:39 14.12.2019
2388 Clear 11 1010 65 0 1.43 273 19:20 14.12.2019
2389 Clear 11 1012 68 0 0.89 74 18:56 14.12.2019
2390 Clear 11 1012 71 0 0.89 79 18:38 14.12.2019
2391 Clear 11 1011 69 0 1.34 40 18:19 14.12.2019
2392 Clear 8 1011 78 0 1.34 34 17:44 14.12.2019
2393 Clear 7 1011 83 0 0.89 62 17:24 14.12.2019
2394 Clear 6 1011 88 0 0.89 87 16:59 14.12.2019
2395 Clear 3 1011 86 0 0.89 95 16:40 14.12.2019
2396 Clear 2 1011 93 0 0.45 266 16:19 14.12.2019
2397 Clear 2 1011 89 0 0.45 50 15:54 14.12.2019
2398 Clear 3 1011 87 0 0.45 50 15:36 14.12.2019
2399 Clear 3 1011 87 0 0.45 50 15:36 14.12.2019
2400 Clear 3 1011 87 0 0.45 50 15:36 14.12.2019
2401 Clear 3 1011 87 0 2.81 268 15:18 14.12.2019
2402 Clear 3 1011 85 0 2.81 268 14:40 14.12.2019
2403 Clouds 3 1011 87 0 0.45 54 14:21 14.12.2019
2404 Clouds 3 1011 92 0 0.89 218 13:59 14.12.2019
2405 Clouds 2 1010 90 0 0.89 31 13:41 14.12.2019
2406 Clouds 2 1010 90 0 0.89 31 13:41 14.12.2019
2407 Clouds 3 1011 88 0 2.98 268 13:19 14.12.2019
2408 Clouds 3 1011 85 0 0.45 8 12:57 14.12.2019
2409 Clouds 4 1011 82 0 3.21 269 12:38 14.12.2019
2410 Clouds 4 1012 85 0 0.89 240 12:20 14.12.2019
2411 Clouds 4 1012 83 0 0.45 262 11:56 14.12.2019
2412 Clouds 4 1012 83 0 0.45 244 11:38 14.12.2019
2413 Clouds 4 1012 83 0 0.45 17 11:19 14.12.2019
2414 Clouds 4 1012 84 0 2.73 262 10:56 14.12.2019
2415 Clouds 4 1012 83 0 0.45 231 10:38 14.12.2019
2416 Clouds 4 1012 82 0 2.73 262 10:19 14.12.2019
2417 Clouds 4 1013 83 0 2.73 262 09:43 14.12.2019
2418 Clouds 4 1013 85 0 2.73 262 09:23 14.12.2019
2419 Clouds 4 1013 85 0 0.45 349 08:57 14.12.2019
2420 Clouds 3 1014 86 0 0.45 50 08:38 14.12.2019
2421 Clouds 3 1014 84 0 1.61 223 08:19 14.12.2019
2422 Clouds 4 1015 82 0 1.61 223 07:40 14.12.2019
2423 Clouds 5 1015 80 0 1.61 223 07:21 14.12.2019
2424 Clouds 5 1015 82 0 1.34 92 06:48 14.12.2019
2425 Clouds 5 1015 79 0 1.61 223 06:30 14.12.2019
2426 Clouds 6 1015 76 0 0.45 337 05:50 14.12.2019
2427 Clouds 8 1015 68 0 2.24 80 03:44 14.12.2019
2428 Clouds 8 1015 63 0 0.45 62 02:24 14.12.2019
2429 Clear 8 1016 62 0 0.45 90 01:44 14.12.2019
2430 Clear 10 1016 54 0 0.94 181 01:20 14.12.2019
2431 Clear 12 1016 49 0 0.89 100 00:43 14.12.2019
2432 Clear 11 1017 55 0 0.45 239 00:22 14.12.2019
2433 Clear 12 1016 48 0 1.34 25 23:41 13.12.2019
2434 Clear 14 1017 43 0 0.89 59 23:20 13.12.2019
2435 Clear 14 1017 43 0 1.34 50 22:59 13.12.2019
2436 Clear 15 1017 42 0 1.34 82 22:40 13.12.2019
2437 Clear 16 1018 40 0 1.34 67 22:19 13.12.2019
2438 Clear 16 1019 41 0 1.34 79 21:55 13.12.2019
2439 Clear 15 1019 42 0 1.79 40 21:36 13.12.2019
2440 Clear 14 1019 44 0 1.34 80 21:18 13.12.2019
2441 Clear 14 1020 44 0 1.34 63 20:40 13.12.2019
2442 Clear 13 1021 46 0 1.79 33 20:21 13.12.2019
2443 Clear 13 1021 48 0 2.24 93 19:58 13.12.2019
2444 Clear 13 1021 46 0 2.68 94 19:40 13.12.2019
2445 Clear 12 1021 48 0 2.24 56 19:20 13.12.2019
2446 Clear 12 1022 50 0 3.13 4 18:57 13.12.2019
2447 Clear 12 1022 48 0 3.13 45 18:39 13.12.2019
2448 Clear 12 1022 53 0 1.34 45 18:18 13.12.2019
2449 Clear 10 1023 57 0 1.34 87 17:41 13.12.2019
2450 Clear 8 1023 63 0 0.17 29 17:19 13.12.2019
2451 Clear 8 1023 63 0 0.17 29 17:19 13.12.2019
2452 Clear 6 1023 71 0 0.17 29 16:59 13.12.2019
2453 Clear 2 1023 82 0 0.45 84 16:39 13.12.2019
2454 Clear 2 1023 81 0 0.17 29 16:20 13.12.2019
2455 Clear 1 1023 83 0 0.45 123 15:43 13.12.2019
2456 Clear 2 1023 80 0 0.45 225 15:23 13.12.2019
2457 Clear 2 1023 80 0 0.17 29 14:58 13.12.2019
2458 Clear 2 1023 81 0 0.45 326 14:40 13.12.2019
2459 Clouds 2 1023 80 0 0.45 326 14:20 13.12.2019
2460 Clouds 2 1023 79 0 0.38 2 13:57 13.12.2019
2461 Clouds 3 1024 77 0 0.38 2 13:37 13.12.2019
2462 Clouds 3 1024 75 0 0.19 243 13:19 13.12.2019
2463 Clouds 3 1024 76 0 0.45 223 12:42 13.12.2019
2464 Clouds 2 1024 80 0 0.45 285 12:20 13.12.2019
2465 Clouds 2 1024 79 0 0.19 243 11:57 13.12.2019
2466 Clouds 2 1024 79 0 0.19 243 11:57 13.12.2019
2467 Clouds 2 1024 78 0 0.89 285 11:39 13.12.2019
2468 Clouds 3 1025 77 0 0.45 25 11:21 13.12.2019
2469 Clouds 2 1024 79 0 0.45 1 10:42 13.12.2019
2470 Clouds 2 1024 79 0 0.45 1 10:42 13.12.2019
2471 Clouds 3 1024 77 0 0.11 214 10:23 13.12.2019
2472 Clouds 3 1024 77 0 0.11 214 09:56 13.12.2019
2473 Clouds 2 1024 79 0 0.89 11 09:38 13.12.2019
2474 Clouds 3 1024 75 0 0.11 214 09:18 13.12.2019
2475 Clouds 3 1024 75 0 0.11 214 09:18 13.12.2019
2476 Clouds 7 1022 69 0 0.11 214 08:41 13.12.2019
2477 Clouds 3 1024 75 0 0.27 327 08:23 13.12.2019
2478 Clouds 4 1024 73 0 0.02 225 07:46 13.12.2019
2479 Clouds 4 1024 73 0 0.02 225 07:21 13.12.2019
2480 Clouds 4 1024 73 0 0.02 225 06:55 13.12.2019
2481 Clouds 4 1024 72 0 0.02 225 06:29 13.12.2019
2482 Clouds 5 1024 71 0 0.45 250 05:46 13.12.2019
2483 Clouds 5 1024 71 0 0.89 72 05:27 13.12.2019
2484 Clouds 4 1025 75 0 0.25 277 04:46 13.12.2019
2485 Clouds 6 1024 69 0 0.25 277 03:47 13.12.2019
2486 Clouds 6 1024 67 0 0.25 277 02:34 13.12.2019
2487 Clouds 9 1024 57 0 0.68 106 01:48 13.12.2019
2488 Clouds 13 1024 46 0 0.45 96 00:57 13.12.2019
2489 Clouds 13 1024 46 0 0.68 104 00:37 13.12.2019
2490 Clouds 11 1022 54 0 0.68 104 23:59 12.12.2019
2491 Clouds 11 1022 54 0 0.68 104 23:41 12.12.2019
2492 Clouds 12 1022 48 0 1.26 142 23:22 12.12.2019
2493 Clouds 12 1022 48 0 1.26 142 22:56 12.12.2019
2494 Clouds 12 1022 48 0 1.26 142 22:38 12.12.2019
2495 Clouds 12 1022 48 0 1.26 142 22:19 12.12.2019
2496 Clouds 12 1022 48 0 1.26 142 21:55 12.12.2019
2497 Clouds 16 1025 41 0 1.34 54 21:37 12.12.2019
2498 Clouds 16 1025 41 0 0.89 33 21:19 12.12.2019
2499 Clouds 16 1025 42 0 0.45 40 20:57 12.12.2019
2500 Clouds 14 1025 47 0 1.34 17 20:38 12.12.2019
2501 Clouds 12 1025 47 0 0.89 57 20:20 12.12.2019
2502 Clouds 13 1026 46 0 0.89 58 19:55 12.12.2019
2503 Clouds 12 1026 50 0 0.89 63 19:37 12.12.2019
2504 Clouds 12 1026 49 0 0.89 81 19:18 12.12.2019
2505 Clouds 12 1026 46 0 0.45 108 18:55 12.12.2019
2506 Clouds 11 1026 49 0 0.45 162 18:36 12.12.2019
2507 Clouds 9 1026 57 0 0.41 119 18:18 12.12.2019
2508 Clouds 7 1026 68 0 0.41 119 17:55 12.12.2019
2509 Clouds 5 1026 70 0 0.41 119 17:37 12.12.2019
2510 Clouds 4 1026 76 0 0.45 343 17:18 12.12.2019
2511 Clouds 3 1026 78 0 0.28 351 16:42 12.12.2019
2512 Clouds 2 1026 79 0 0.28 351 16:21 12.12.2019
2513 Clouds 3 1026 78 0 0.45 40 15:59 12.12.2019
2514 Clouds 3 1025 76 0 0.28 351 15:41 12.12.2019
2515 Clouds 3 1025 76 0 0.28 351 15:19 12.12.2019
2516 Clouds 3 1025 73 0 0.28 351 14:57 12.12.2019
2517 Clouds 5 1025 67 0 0.45 326 14:36 12.12.2019
2518 Clouds 6 1025 67 0 0.89 340 14:18 12.12.2019
2519 Clouds 5 1025 68 0 1.34 333 13:54 12.12.2019
2520 Clouds 3 1024 73 0 0.89 326 13:36 12.12.2019
2521 Clouds 3 1024 75 0 0.45 323 13:18 12.12.2019
2522 Clouds 3 1024 75 0 0.45 323 13:18 12.12.2019
2523 Clouds 4 1024 73 0 0.41 24 12:42 12.12.2019
2524 Clouds 5 1024 69 0 0.41 24 12:23 12.12.2019
2525 Clouds 4 1024 70 0 0.89 343 11:59 12.12.2019
2526 Clouds 4 1024 73 0 0.45 303 11:40 12.12.2019
2527 Clouds 3 1025 75 0 0.72 1 11:22 12.12.2019
2528 Clouds 3 1025 73 0 0.45 138 10:59 12.12.2019
2529 Clouds 4 1025 69 0 0.72 1 10:40 12.12.2019
2530 Clouds 5 1024 65 0 0.45 288 10:22 12.12.2019
2531 Clouds 5 1025 65 0 0.89 281 09:56 12.12.2019
2532 Clouds 5 1025 65 0 0.89 281 09:56 12.12.2019
2533 Clouds 5 1025 66 0 0.89 295 09:38 12.12.2019
2534 Clouds 4 1026 68 0 0.45 337 09:20 12.12.2019
2535 Clouds 3 1025 73 0 0.45 342 08:48 12.12.2019
2536 Clouds 3 1025 76 0 0.72 1 08:29 12.12.2019
2537 Clouds 3 1025 76 0 1.05 250 07:59 12.12.2019
2538 Clouds 4 1025 73 0 1.05 250 07:39 12.12.2019
2539 Clouds 4 1025 72 0 0.45 319 07:20 12.12.2019
2540 Clouds 4 1026 74 0 1.34 316 06:42 12.12.2019
2541 Clouds 4 1025 78 0 0.89 82 06:23 12.12.2019
2542 Clouds 3 1025 80 0 1.05 250 05:34 12.12.2019
2543 Clouds 3 1025 81 0 0.45 335 04:48 12.12.2019
2544 Clouds 4 1024 72 0 0.5 259 02:44 12.12.2019
2545 Clouds 5 1024 71 0 0.5 259 02:25 12.12.2019
2546 Clouds 6 1024 68 0 0.93 153 01:59 12.12.2019
2547 Clouds 8 1024 61 0 0.45 138 01:36 12.12.2019
2548 Clouds 11 1024 52 0 1.34 62 00:58 12.12.2019
2549 Clouds 10 1021 52 0 0.97 60 00:38 12.12.2019
2550 Clouds 10 1021 52 0 0.97 60 00:18 12.12.2019
2551 Clouds 10 1021 52 0 0.97 60 23:40 11.12.2019
2552 Clouds 11 1021 49 0 1.74 92 23:20 11.12.2019
2553 Clouds 11 1021 49 0 1.74 92 22:57 11.12.2019
2554 Clouds 11 1021 49 0 1.74 92 22:38 11.12.2019
2555 Clouds 11 1021 49 0 1.74 92 22:38 11.12.2019
2556 Clouds 11 1021 49 0 1.74 92 22:19 11.12.2019
2557 Clouds 11 1021 49 0 1.74 92 21:55 11.12.2019
2558 Clouds 11 1021 49 0 1.74 92 21:55 11.12.2019
2559 Clouds 11 1021 49 0 1.74 92 21:37 11.12.2019
2560 Clouds 11 1021 49 0 1.74 92 21:19 11.12.2019
2561 Clouds 11 1021 49 0 1.74 92 20:55 11.12.2019
2562 Clouds 13 1025 40 0 0.45 212 20:37 11.12.2019
2563 Clouds 9 1024 54 0 1.87 56 20:18 11.12.2019
2564 Clouds 10 1024 45 0 1.37 56 19:55 11.12.2019
2565 Clouds 10 1024 45 0 1.37 56 19:36 11.12.2019
2566 Clouds 10 1024 45 0 1.37 56 19:18 11.12.2019
2567 Clouds 10 1026 50 0 1.37 56 18:40 11.12.2019
2568 Clouds 8 1026 57 0 0.45 166 18:21 11.12.2019
2569 Clouds 8 1026 57 0 0.45 166 18:21 11.12.2019
2570 Clouds 8 1026 59 0 0.45 164 17:57 11.12.2019
2571 Clouds 7 1026 61 0 0.45 213 17:38 11.12.2019
2572 Clear 6 1026 67 0 1.18 11 17:18 11.12.2019
2573 Clear 4 1026 72 0 1.18 11 16:56 11.12.2019
2574 Clear 4 1026 72 0 1.18 11 16:56 11.12.2019
2575 Clear 2 1025 75 0 1.18 11 16:38 11.12.2019
2576 Clear 2 1025 75 0 0.89 320 16:19 11.12.2019
2577 Clear 2 1025 75 0 0.89 326 15:58 11.12.2019
2578 Clear 2 1025 77 0 1.79 322 15:39 11.12.2019
2579 Clear 2 1025 78 0 0.45 333 15:20 11.12.2019
2580 Clear 1 1025 78 0 0.89 330 14:56 11.12.2019
2581 Clear 1 1025 79 0 1.18 11 14:37 11.12.2019
2582 Clear 1 1025 79 0 1.18 11 14:37 11.12.2019
2583 Clouds 1 1025 78 0 0.78 287 14:19 11.12.2019
2584 Clouds 2 1025 78 0 0.45 259 13:54 11.12.2019
2585 Clouds 1 1025 79 0 0.45 294 13:36 11.12.2019
2586 Clouds 2 1025 78 0 1.34 330 13:18 11.12.2019
2587 Clouds 2 1025 76 0 0.45 347 12:54 11.12.2019
2588 Clouds 2 1025 76 0 0.89 344 12:36 11.12.2019
2589 Clouds 3 1024 74 0 1.28 9 12:18 11.12.2019
2590 Clouds 3 1024 75 0 0.45 90 11:55 11.12.2019
2591 Clouds 2 1024 78 0 0.89 30 11:37 11.12.2019
2592 Clouds 2 1024 81 0 0.45 68 11:18 11.12.2019
2593 Clouds 2 1025 82 0 0.83 258 10:44 11.12.2019
2594 Clouds 2 1025 81 0 0.45 66 10:25 11.12.2019
2595 Clouds 2 1025 82 0 0.83 258 09:58 11.12.2019
2596 Clouds 2 1025 82 0 0.83 258 09:38 11.12.2019
2597 Clouds 2 1026 78 0 0.83 258 09:20 11.12.2019
2598 Clouds 2 1026 80 0 0.83 258 08:57 11.12.2019
2599 Clouds 1 1026 83 0 0.45 273 08:37 11.12.2019
2600 Clouds 1 1026 85 0 0.42 201 08:19 11.12.2019
2601 Clouds -1 1026 88 0 0.42 201 07:45 11.12.2019
2602 Clouds -1 1027 86 0 0.42 201 07:26 11.12.2019
2603 Clouds -1 1027 85 0 0.42 201 06:57 11.12.2019
2604 Clouds 6 1023 64 0 0.42 201 06:37 11.12.2019
2605 Clouds 6 1023 64 0 0.42 201 06:18 11.12.2019
2606 Clouds 6 1023 64 0 0.42 201 05:37 11.12.2019
2607 Clouds 1 1026 83 0 0.21 329 05:18 11.12.2019
2608 Clouds 2 1027 75 0 0.21 329 03:50 11.12.2019
2609 Clouds 4 1026 70 0 0.21 329 02:49 11.12.2019
2610 Clouds 7 1025 59 0 0.89 89 01:23 11.12.2019
2611 Clouds 8 1025 55 0 1.34 65 00:46 11.12.2019
2612 Clouds 9 1025 52 0 0.89 45 00:21 11.12.2019
2613 Clouds 10 1025 47 0 1.34 25 23:47 10.12.2019
2614 Clouds 10 1025 45 0 1.34 12 23:28 10.12.2019
2615 Clouds 11 1023 43 0 1.12 133 22:58 10.12.2019
2616 Clouds 11 1023 43 0 1.12 133 22:40 10.12.2019
2617 Clouds 11 1023 43 0 1.12 133 22:40 10.12.2019
2618 Clouds 11 1023 43 0 1.12 133 22:22 10.12.2019
2619 Clouds 11 1023 43 0 1.12 133 21:56 10.12.2019
2620 Clouds 12 1025 44 0 1.34 55 21:38 10.12.2019
2621 Clouds 12 1025 44 0 1.34 55 21:38 10.12.2019
2622 Clouds 11 1026 45 0 0.89 45 21:19 10.12.2019
2623 Clouds 11 1026 45 0 0.89 28 20:57 10.12.2019
2624 Clouds 11 1026 40 0 0.45 229 20:37 10.12.2019
2625 Clouds 11 1026 40 0 0.45 229 20:37 10.12.2019
2626 Clouds 11 1026 38 0 0.45 229 20:19 10.12.2019
2627 Clouds 11 1026 39 0 1.19 56 19:55 10.12.2019
2628 Clouds 10 1027 42 0 0.45 212 19:37 10.12.2019
2629 Clouds 9 1027 50 0 1.19 56 19:18 10.12.2019
2630 Clouds 7 1028 51 0 1.19 56 18:40 10.12.2019
2631 Clouds 7 1027 61 0 1.19 56 18:20 10.12.2019
2632 Clouds 6 1027 60 0 1.19 56 17:58 10.12.2019
2633 Clouds 5 1027 68 0 1.19 56 17:40 10.12.2019
2634 Clouds 4 1027 70 0 1.58 2 17:20 10.12.2019
2635 Clouds 1 1027 81 0 1.58 2 16:54 10.12.2019
2636 Clouds -1 1026 83 0 1.58 2 16:36 10.12.2019
2637 Clouds -1 1026 81 0 1.58 2 16:18 10.12.2019
2638 Clouds -1 1026 80 0 1.58 2 15:38 10.12.2019
2639 Clouds -1 1026 81 0 1.58 2 15:18 10.12.2019
2640 Clouds -1 1025 82 0 1.58 2 14:56 10.12.2019
2641 Clouds -2 1025 82 0 1.58 2 14:37 10.12.2019
2642 Clear -1 1025 81 0 0.89 331 14:19 10.12.2019
2643 Clear -1 1025 80 0 0.45 140 13:57 10.12.2019
2644 Clear -1 1025 80 0 0.45 140 13:57 10.12.2019
2645 Clear -1 1024 81 0 0.89 331 13:38 10.12.2019
2646 Clear -2 1024 84 0 0.89 331 13:19 10.12.2019
2647 Clear -1 1024 81 0 1.07 316 12:47 10.12.2019
2648 Clear -1 1024 80 0 1.07 316 12:27 10.12.2019
2649 Clear 1 1024 77 0 1.07 316 11:55 10.12.2019
2650 Clear 0 1024 78 0 0.45 324 11:37 10.12.2019
2651 Clear 0 1024 79 0 0.45 345 11:18 10.12.2019
2652 Clear 1 1024 77 0 1.52 325 10:42 10.12.2019
2653 Clear 2 1024 74 0 1.52 325 10:24 10.12.2019
2654 Clear 2 1024 74 0 0.45 158 09:57 10.12.2019
2655 Clear 1 1024 76 0 1.52 325 09:38 10.12.2019
2656 Clear 1 1024 76 0 1.52 325 09:20 10.12.2019
2657 Clear 2 1024 75 0 1.52 325 08:58 10.12.2019
2658 Clear 2 1024 74 0 1.52 325 08:39 10.12.2019
2659 Clear 2 1024 75 0 0.89 349 08:19 10.12.2019
2660 Clear 3 1024 71 0 0.89 322 07:44 10.12.2019
2661 Clear 3 1024 71 0 0.45 310 07:26 10.12.2019
2662 Clear 2 1023 74 0 2.47 2 06:50 10.12.2019
2663 Clear 2 1023 73 0 0.45 340 06:25 10.12.2019
2664 Clear 2 1023 74 0 2.47 2 05:57 10.12.2019
2665 Clear 2 1023 75 0 0.45 355 05:38 10.12.2019
2666 Clear 4 1022 67 0 0.45 187 03:55 10.12.2019
2667 Clear 4 1022 67 0 0.45 187 03:55 10.12.2019
2668 Clear 5 1021 64 0 1.85 355 02:57 10.12.2019
2669 Clouds 7 1021 51 0 0.45 19 01:55 10.12.2019
2670 Clouds 11 1018 43 0 1.69 49 01:28 10.12.2019
2671 Clouds 11 1018 40 0 1.68 42 00:58 10.12.2019
2672 Clouds 11 1018 40 0 1.68 42 00:25 10.12.2019
2673 Clouds 11 1018 40 0 1.68 42 23:57 09.12.2019
2674 Clouds 11 1018 40 0 1.68 42 23:37 09.12.2019
2675 Clouds 11 1018 38 0 2.37 40 23:18 09.12.2019
2676 Clouds 11 1018 38 0 2.37 40 22:55 09.12.2019
2677 Clouds 11 1018 38 0 2.37 40 22:37 09.12.2019
2678 Clouds 11 1018 38 0 2.37 40 22:18 09.12.2019
2679 Clouds 11 1018 38 0 2.37 40 21:55 09.12.2019
2680 Clouds 11 1018 38 0 2.37 40 21:37 09.12.2019
2681 Clouds 11 1018 38 0 2.37 40 21:18 09.12.2019
2682 Clouds 11 1018 38 0 2.37 40 20:55 09.12.2019
2683 Clouds 11 1018 38 0 2.37 40 20:37 09.12.2019
2684 Clouds 11 1018 38 0 2.37 40 20:37 09.12.2019
2685 Clear 10 1019 39 0 2.63 32 20:18 09.12.2019
2686 Clear 11 1019 39 0 2.36 28 19:55 09.12.2019
2687 Clear 11 1019 39 0 2.36 28 19:37 09.12.2019
2688 Clear 11 1019 39 0 2.36 28 19:37 09.12.2019
2689 Clear 11 1019 39 0 2.36 28 19:18 09.12.2019
2690 Clear 11 1019 39 0 2.36 28 18:54 09.12.2019
2691 Clear 8 1021 54 0 0.89 243 18:36 09.12.2019
2692 Clear 8 1021 52 0 1.79 243 18:18 09.12.2019
2693 Clear 8 1021 54 0 1.34 347 17:55 09.12.2019
2694 Clear 8 1020 53 0 3.13 337 17:37 09.12.2019
2695 Clear 6 1018 53 0 1.48 8 17:18 09.12.2019
2696 Clear 6 1018 53 0 1.48 8 16:54 09.12.2019
2697 Clear 2 1020 74 0 0.89 337 16:36 09.12.2019
2698 Clear 2 1020 73 0 1.34 335 16:18 09.12.2019
2699 Clear 3 1020 71 0 0.45 299 15:54 09.12.2019
2700 Clear 3 1019 69 0 1.79 345 15:36 09.12.2019
2701 Clear 2 1019 73 0 4.02 322 15:18 09.12.2019
2702 Clear 2 1019 75 0 0.45 279 14:41 09.12.2019
2703 Clouds 3 1019 72 0 0.89 336 14:18 09.12.2019
2704 Clouds 3 1019 72 0 0.89 336 14:18 09.12.2019
2705 Clouds 3 1019 71 0 0.89 341 13:56 09.12.2019
2706 Clouds 3 1019 69 0 2.24 341 13:38 09.12.2019
2707 Clouds 4 1019 65 0 2.68 332 13:19 09.12.2019
2708 Clouds 4 1019 63 0 4.47 357 12:56 09.12.2019
2709 Clouds 3 1019 70 0 0.89 352 12:37 09.12.2019
2710 Clouds 4 1018 66 0 1.34 326 12:19 09.12.2019
2711 Clouds 6 1018 62 0 3.13 306 11:55 09.12.2019
2712 Clouds 6 1018 63 0 4.92 337 11:36 09.12.2019
2713 Clouds 6 1018 65 0 5.36 335 11:18 09.12.2019
2714 Clouds 6 1018 66 0 5.81 353 10:40 09.12.2019
2715 Clouds 6 1018 66 0 4.92 314 10:20 09.12.2019
2716 Clouds 6 1017 67 0 3.13 343 09:58 09.12.2019
2717 Clouds 6 1017 66 0 5.81 336 09:40 09.12.2019
2718 Clouds 6 1017 72 0 5.36 341 09:21 09.12.2019
2719 Clouds 6 1017 76 0 3.13 320 08:43 09.12.2019
2720 Clouds 6 1017 76 0 2.24 335 08:25 09.12.2019
2721 Rain 6 1017 77 0 4.02 332 07:56 09.12.2019
2722 Rain 5 1016 81 0 3.58 351 07:38 09.12.2019
2723 Rain 3 1016 88 0 2.24 325 07:20 09.12.2019
2724 Rain 3 1016 90 0 2.01 341 06:43 09.12.2019
2725 Rain 3 1016 91 0 2.01 341 06:24 09.12.2019
2726 Rain 3 1016 91 0 2.01 341 06:24 09.12.2019
2727 Rain 3 1016 88 0 2.01 341 05:26 09.12.2019
2728 Rain 5 1015 86 0 1.34 359 04:33 09.12.2019
2729 Rain 6 1014 82 0 0.89 351 03:19 09.12.2019
2730 Rain 7 1013 79 0 0.45 13 02:24 09.12.2019
2731 Clouds 7 1013 79 0 1.79 354 01:42 09.12.2019
2732 Clouds 12 1013 52 0 0.95 284 00:46 09.12.2019
2733 Clouds 12 1013 52 0 0.95 284 00:26 09.12.2019
2734 Clouds 11 1012 66 0 0.45 50 23:41 08.12.2019
2735 Clouds 12 1013 52 0 0.95 284 23:23 08.12.2019
2736 Clouds 12 1012 57 0 2.37 277 22:57 08.12.2019
2737 Clouds 12 1012 57 0 2.37 277 22:57 08.12.2019
2738 Clouds 12 1012 57 0 2.37 277 22:38 08.12.2019
2739 Clouds 12 1012 57 0 2.37 277 22:19 08.12.2019
2740 Clouds 12 1012 57 0 2.37 277 21:58 08.12.2019
2741 Clouds 12 1012 57 0 2.37 277 21:40 08.12.2019
2742 Clouds 12 1012 57 0 2.37 277 21:20 08.12.2019
2743 Clouds 12 1012 57 0 2.37 277 21:20 08.12.2019
2744 Clouds 12 1012 57 0 2.37 277 20:57 08.12.2019
2745 Clouds 12 1012 57 0 2.37 277 20:38 08.12.2019
2746 Clouds 11 1015 67 0 2.13 263 20:20 08.12.2019
2747 Clouds 11 1015 67 0 2.13 263 19:59 08.12.2019
2748 Clouds 11 1015 67 0 2.13 263 19:41 08.12.2019
2749 Clouds 11 1015 67 0 2.13 263 19:22 08.12.2019
2750 Clouds 11 1015 67 0 2.13 263 18:55 08.12.2019
2751 Clouds 9 1015 67 0 0.89 331 18:37 08.12.2019
2752 Clouds 9 1015 68 0 0.89 279 18:19 08.12.2019
2753 Clouds 9 1015 68 0 0.89 279 18:19 08.12.2019
2754 Clouds 9 1015 70 0 0.45 291 17:56 08.12.2019
2755 Clouds 9 1015 73 0 2.13 263 17:38 08.12.2019
2756 Clouds 9 1015 73 0 2.13 263 17:38 08.12.2019
2757 Clouds 8 1014 87 0 4.51 274 17:20 08.12.2019
2758 Clouds 8 1014 87 0 4.51 274 17:20 08.12.2019
2759 Clouds 8 1014 87 0 4.51 274 17:20 08.12.2019
2760 Clouds 6 1015 79 0 0.89 260 16:57 08.12.2019
2761 Clouds 4 1015 85 0 4.51 274 16:39 08.12.2019
2762 Clouds 4 1014 84 0 4.51 274 16:20 08.12.2019
2763 Clouds 4 1014 83 0 4.51 274 15:55 08.12.2019
2764 Clouds 6 1014 81 0 1.34 360 15:36 08.12.2019
2765 Clouds 6 1014 78 0 0.45 350 15:18 08.12.2019
2766 Clouds 6 1014 76 0 0.89 281 14:43 08.12.2019
2767 Clouds 8 1014 87 0 4.51 274 14:24 08.12.2019
2768 Clouds 9 1013 86 0 5.08 252 13:59 08.12.2019
2769 Clouds 9 1013 86 0 5.08 252 13:40 08.12.2019
2770 Clouds 9 1013 86 0 5.08 252 13:21 08.12.2019
2771 Clouds 9 1013 86 0 5.08 252 13:21 08.12.2019
2772 Clouds 9 1014 82 0 5.08 255 12:57 08.12.2019
2773 Clouds 9 1014 82 0 5.08 255 12:38 08.12.2019
2774 Clouds 7 1014 70 0 2.24 256 12:18 08.12.2019
2775 Clouds 7 1014 79 0 2.24 177 11:57 08.12.2019
2776 Clouds 7 1015 83 0 1.34 153 11:37 08.12.2019
2777 Clouds 7 1015 84 0 1.34 169 11:19 08.12.2019
2778 Clouds 10 1014 84 0 4.53 238 10:40 08.12.2019
2779 Clouds 10 1014 84 0 4.53 238 10:22 08.12.2019
2780 Clouds 10 1014 84 0 4.53 238 09:58 08.12.2019
2781 Clouds 10 1014 84 0 4.53 238 09:39 08.12.2019
2782 Clouds 10 1014 84 0 4.53 238 09:21 08.12.2019
2783 Clouds 10 1014 84 0 4.53 238 08:59 08.12.2019
2784 Clouds 8 1015 80 0 2.68 215 08:41 08.12.2019
2785 Clouds 8 1015 81 0 3.58 227 08:22 08.12.2019
2786 Clouds 8 1016 82 0 2.68 262 07:49 08.12.2019
2787 Clouds 8 1016 79 0 1.79 176 07:21 08.12.2019
2788 Clouds 8 1016 81 0 3.13 239 06:59 08.12.2019
2789 Clouds 10 1016 85 0 4.29 237 06:39 08.12.2019
2790 Clouds 10 1016 85 0 4.29 237 06:19 08.12.2019
2791 Clouds 10 1016 85 0 4.29 237 05:23 08.12.2019
2792 Clouds 11 1016 77 0 3.47 228 04:46 08.12.2019
2793 Clouds 11 1016 77 0 3.47 228 03:39 08.12.2019
2794 Clouds 9 1017 83 0 3.58 188 02:42 08.12.2019
2795 Clouds 9 1017 83 0 3.13 211 02:20 08.12.2019
2796 Clouds 9 1017 82 0 2.24 167 01:40 08.12.2019
2797 Clouds 9 1017 81 0 3.58 182 00:53 08.12.2019
2798 Clouds 9 1017 80 0 4.47 262 00:24 08.12.2019
2799 Clouds 9 1018 80 0 1.79 245 23:59 07.12.2019
2800 Clouds 9 1018 79 0 2.24 219 23:38 07.12.2019
2801 Clouds 9 1017 79 0 2.24 171 23:20 07.12.2019
2802 Clouds 10 1018 78 0 3.58 212 22:55 07.12.2019
2803 Clouds 10 1018 78 0 2.68 131 22:37 07.12.2019
2804 Clouds 10 1018 78 0 2.68 131 22:37 07.12.2019
2805 Clouds 10 1018 77 0 3.13 256 22:19 07.12.2019
2806 Clouds 10 1018 77 0 3.13 247 21:55 07.12.2019
2807 Clouds 11 1018 75 0 2.24 147 21:37 07.12.2019
2808 Clouds 11 1018 72 0 3.58 187 21:18 07.12.2019
2809 Clouds 11 1019 73 0 2.68 126 20:38 07.12.2019
2810 Clouds 11 1019 73 0 3.58 165 20:20 07.12.2019
2811 Clouds 11 1020 76 0 2.68 172 19:58 07.12.2019
2812 Clouds 11 1020 76 0 2.68 172 19:58 07.12.2019
2813 Clouds 10 1020 77 0 3.58 159 19:39 07.12.2019
2814 Clouds 12 1020 73 0 3.44 208 19:21 07.12.2019
2815 Clouds 12 1020 73 0 3.44 208 18:59 07.12.2019
2816 Clouds 9 1020 86 0 2.24 100 18:40 07.12.2019
2817 Clouds 8 1020 90 0 1.34 107 18:18 07.12.2019
2818 Clouds 9 1020 88 0 2.24 159 17:56 07.12.2019
2819 Clouds 7 1020 94 0 0.45 3 17:37 07.12.2019
2820 Clouds 8 1020 84 0 3.18 233 17:19 07.12.2019
2821 Clouds 8 1020 84 0 3.18 233 16:56 07.12.2019
2822 Clouds 7 1020 92 0 1.79 118 16:36 07.12.2019
2823 Clouds 6 1020 94 0 1.34 187 16:18 07.12.2019
2824 Clouds 6 1020 92 0 0.45 316 15:41 07.12.2019
2825 Clouds 6 1020 92 0 0.45 342 15:23 07.12.2019
2826 Clouds 8 1020 84 0 3.18 233 14:57 07.12.2019
2827 Clouds 8 1020 84 0 3.18 233 14:38 07.12.2019
2828 Clouds 6 1020 90 0 0.45 254 14:18 07.12.2019
2829 Clouds 6 1021 92 0 1.79 243 13:40 07.12.2019
2830 Clear 6 1021 88 0 0.45 258 13:20 07.12.2019
2831 Clear 6 1020 89 0 1.34 208 12:56 07.12.2019
2832 Clear 6 1021 92 0 1.79 173 12:37 07.12.2019
2833 Clear 6 1021 92 0 2.68 221 12:19 07.12.2019
2834 Clear 6 1021 93 0 2.24 154 11:56 07.12.2019
2835 Clear 6 1021 94 0 2.68 139 11:37 07.12.2019
2836 Clear 6 1021 94 0 2.68 117 11:19 07.12.2019
2837 Clear 6 1022 92 0 3.58 204 10:37 07.12.2019
2838 Clear 6 1022 91 0 4.02 152 10:19 07.12.2019
2839 Clear 6 1022 89 0 0.89 139 09:41 07.12.2019
2840 Clear 6 1023 90 0 2.68 122 09:22 07.12.2019
2841 Clear 6 1023 88 0 0.45 177 08:47 07.12.2019
2842 Clear 6 1023 87 0 1.34 242 08:27 07.12.2019
2843 Clouds 6 1023 86 0 1.79 222 07:59 07.12.2019
2844 Clouds 6 1023 86 0 2.24 209 07:39 07.12.2019
2845 Clouds 6 1023 88 0 1.34 181 07:21 07.12.2019
2846 Clouds 6 1023 87 0 0.45 167 06:45 07.12.2019
2847 Clouds 6 1023 87 0 1.34 183 06:24 07.12.2019
2848 Clouds 5 1023 88 0 0.89 212 05:19 07.12.2019
2849 Clouds 4 1023 90 0 0.45 217 03:55 07.12.2019
2850 Clouds 4 1023 90 0 0.89 57 02:59 07.12.2019
2851 Clouds 5 1023 90 0 1.79 102 02:21 07.12.2019
2852 Clouds 6 1023 88 0 1.34 61 01:34 07.12.2019
2853 Clouds 6 1023 86 0 1.79 50 00:52 07.12.2019
2854 Clouds 7 1023 84 0 1.79 40 00:19 07.12.2019
2855 Clouds 11 1020 64 0 2.29 164 23:55 06.12.2019
2856 Clouds 11 1020 64 0 2.29 164 23:36 06.12.2019
2857 Clouds 8 1024 72 0 0.45 177 23:18 06.12.2019
2858 Clouds 11 1020 65 0 2.05 128 22:37 06.12.2019
2859 Clouds 11 1020 65 0 2.05 128 22:19 06.12.2019
2860 Clouds 11 1020 65 0 2.05 128 21:57 06.12.2019
2861 Clouds 11 1020 65 0 2.05 128 21:38 06.12.2019
2862 Clouds 11 1020 65 0 2.05 128 21:19 06.12.2019
2863 Clouds 11 1020 65 0 2.05 128 20:42 06.12.2019
2864 Clouds 11 1020 65 0 2.05 128 20:42 06.12.2019
2865 Clouds 11 1020 65 0 2.05 128 20:42 06.12.2019
2866 Clouds 11 1020 62 0 2.16 121 20:23 06.12.2019
2867 Clouds 10 1023 66 0 1.57 90 19:59 06.12.2019
2868 Clouds 10 1023 66 0 1.57 90 19:40 06.12.2019
2869 Clouds 10 1023 66 0 1.57 90 19:21 06.12.2019
2870 Clouds 10 1023 66 0 1.57 90 18:56 06.12.2019
2871 Clouds 10 1023 66 0 1.57 90 18:38 06.12.2019
2872 Clouds 8 1026 79 0 0.45 77 18:19 06.12.2019
2873 Clouds 7 1026 80 0 0.89 202 17:55 06.12.2019
2874 Clouds 6 1026 86 0 0.45 132 17:37 06.12.2019
2875 Clouds 6 1022 79 0 1.23 34 17:19 06.12.2019
2876 Clouds 2 1025 96 0 0.45 29 16:43 06.12.2019
2877 Clouds 0 1025 95 0 1.23 34 16:25 06.12.2019
2878 Clouds 1 1025 95 0 1.23 34 15:59 06.12.2019
2879 Clouds 1 1026 96 0 1.23 34 15:40 06.12.2019
2880 Clouds 1 1025 95 0 1.23 34 15:18 06.12.2019
2881 Clouds 1 1025 96 0 0.45 6 14:56 06.12.2019
2882 Clouds 1 1025 97 0 0.45 6 14:38 06.12.2019
2883 Clouds 0 1025 96 0 1.42 38 14:18 06.12.2019
2884 Clouds 0 1025 95 0 1.42 38 13:43 06.12.2019
2885 Clouds 0 1025 95 0 0.42 73 13:25 06.12.2019
2886 Clouds 1 1025 96 0 0.42 73 12:43 06.12.2019
2887 Clouds 0 1025 95 0 0.42 73 12:23 06.12.2019
2888 Clouds 0 1024 95 0 0.42 73 11:58 06.12.2019
2889 Clouds 1 1025 96 0 0.42 73 11:39 06.12.2019
2890 Clouds 1 1025 95 0 0.45 6 11:21 06.12.2019
2891 Clouds 1 1025 95 0 1.26 17 10:44 06.12.2019
2892 Clouds 1 1025 95 0 1.26 17 10:22 06.12.2019
2893 Clouds 1 1024 95 0 0.45 6 09:58 06.12.2019
2894 Clouds 1 1025 95 0 1.26 17 09:38 06.12.2019
2895 Clouds 2 1025 96 0 1.26 17 09:20 06.12.2019
2896 Clouds 2 1025 96 0 1.26 17 08:55 06.12.2019
2897 Clouds 2 1025 94 0 1.26 17 08:36 06.12.2019
2898 Clouds 2 1025 94 0 0.92 27 08:18 06.12.2019
2899 Clouds 2 1025 94 0 0.84 349 07:36 06.12.2019
2900 Clouds 2 1025 93 0 0.84 349 07:18 06.12.2019
2901 Clouds 2 1025 94 0 0.84 349 06:30 06.12.2019
2902 Clouds 3 1025 92 0 0.84 349 05:54 06.12.2019
2903 Clouds 3 1025 92 0 0.84 349 05:54 06.12.2019
2904 Clouds 3 1025 92 0 0.84 349 05:35 06.12.2019
2905 Clouds 5 1023 87 0 0.45 77 02:19 06.12.2019
2906 Clouds 6 1023 84 0 0.89 36 01:34 06.12.2019
2907 Clouds 9 1020 73 0 1.48 110 00:48 06.12.2019
2908 Clouds 9 1020 73 0 1.48 110 00:22 06.12.2019
2909 Clouds 9 1020 73 0 1.48 110 23:49 05.12.2019
2910 Clouds 10 1019 72 0 1.4 106 23:19 05.12.2019
2911 Clouds 10 1019 72 0 1.4 106 22:58 05.12.2019
2912 Clouds 10 1019 72 0 1.4 106 22:38 05.12.2019
2913 Clouds 10 1019 72 0 1.4 106 22:18 05.12.2019
2914 Clouds 10 1019 72 0 1.4 106 22:18 05.12.2019
2915 Clouds 10 1019 72 0 1.4 106 21:55 05.12.2019
2916 Clouds 10 1019 72 0 1.4 106 21:37 05.12.2019
2917 Clouds 10 1019 72 0 1.4 106 21:18 05.12.2019
2918 Clouds 10 1019 72 0 1.4 106 20:54 05.12.2019
2919 Clouds 10 1019 72 0 1.4 106 20:36 05.12.2019
2920 Clouds 9 1021 79 0 1.3 87 20:18 05.12.2019
2921 Clouds 8 1021 80 0 1.27 85 19:40 05.12.2019
2922 Clouds 8 1021 80 0 1.27 85 19:21 05.12.2019
2923 Clouds 8 1021 80 0 1.27 85 18:58 05.12.2019
2924 Clouds 6 1025 78 0 0.89 314 18:38 05.12.2019
2925 Clouds 6 1025 78 0 0.89 314 18:38 05.12.2019
2926 Clouds 6 1025 81 0 0.45 308 18:20 05.12.2019
2927 Clouds 4 1025 83 0 0.89 312 17:40 05.12.2019
2928 Clouds 3 1025 88 0 0.89 319 17:20 05.12.2019
2929 Clouds 2 1024 91 0 0.45 314 16:58 05.12.2019
2930 Clouds 2 1024 91 0 0.45 314 16:39 05.12.2019
2931 Clouds 2 1024 91 0 0.45 314 16:39 05.12.2019
2932 Clouds 1 1023 96 0 0.89 320 16:21 05.12.2019
2933 Clouds 1 1023 96 0 0.45 333 15:58 05.12.2019
2934 Clouds -1 1023 96 0 0.89 17 15:39 05.12.2019
2935 Clouds -1 1022 94 0 0.45 333 15:20 05.12.2019
2936 Clouds -1 1022 93 0 0.45 333 14:56 05.12.2019
2937 Clouds -1 1021 92 0 0.45 333 14:38 05.12.2019
2938 Clouds 0 1021 93 0 0.62 20 14:19 05.12.2019
2939 Clouds 0 1021 90 0 0.62 20 13:57 05.12.2019
2940 Clouds 1 1021 91 0 0.62 20 13:39 05.12.2019
2941 Clouds 2 1021 91 0 0.89 342 13:20 05.12.2019
2942 Clouds 2 1020 94 0 0.53 72 12:57 05.12.2019
2943 Clouds 1 1020 96 0 0.53 72 12:38 05.12.2019
2944 Clouds 1 1020 96 0 0.53 72 12:20 05.12.2019
2945 Clouds 0 1020 96 0 0.53 72 11:40 05.12.2019
2946 Clouds -1 1019 95 0 0.49 294 11:22 05.12.2019
2947 Clouds -1 1019 94 0 0.49 294 10:58 05.12.2019
2948 Clouds 0 1019 94 0 0.49 294 10:40 05.12.2019
2949 Clouds 1 1018 95 0 0.49 294 10:19 05.12.2019
2950 Clouds 1 1018 94 0 0.49 294 09:56 05.12.2019
2951 Clouds 2 1017 95 0 0.49 294 09:38 05.12.2019
2952 Clouds 2 1017 95 0 0.49 294 09:19 05.12.2019
2953 Clouds 2 1017 96 0 0.45 16 08:54 05.12.2019
2954 Clouds 2 1017 95 0 0.49 294 08:36 05.12.2019
2955 Clouds 2 1017 95 0 2.22 233 08:18 05.12.2019
2956 Clouds 1 1017 93 0 0.45 64 07:41 05.12.2019
2957 Clouds 2 1016 93 0 1.66 214 07:21 05.12.2019
2958 Clouds 2 1016 95 0 1.66 214 06:47 05.12.2019
2959 Clouds 2 1016 95 0 1.66 214 06:23 05.12.2019
2960 Clouds 3 1016 94 0 1.66 214 05:54 05.12.2019
2961 Clouds 3 1015 94 0 1.66 214 05:24 05.12.2019
2962 Clouds 3 1014 91 0 1.34 110 04:37 05.12.2019
2963 Clouds 3 1013 91 0 1.34 107 03:35 05.12.2019
2964 Clouds 3 1013 90 0 2.24 261 02:42 05.12.2019
2965 Rain 4 1012 88 0 3.58 147 02:22 05.12.2019
2966 Rain 4 1012 88 0 3.13 181 01:51 05.12.2019
2967 Rain 5 1012 84 0 2.24 175 01:23 05.12.2019
2968 Rain 7 1012 93 0 2.83 187 00:44 05.12.2019
2969 Rain 7 1012 93 0 2.83 187 00:21 05.12.2019
2970 Rain 7 1012 93 0 2.83 187 23:55 04.12.2019
2971 Rain 7 1012 93 0 2.83 187 23:37 04.12.2019
2972 Rain 7 1012 96 0 1.42 189 23:18 04.12.2019
2973 Rain 4 1012 95 0 1.42 189 22:38 04.12.2019
2974 Rain 4 1012 93 0 1.34 22 22:20 04.12.2019
2975 Rain 4 1012 91 0 1.34 73 21:58 04.12.2019
2976 Rain 3 1014 92 0 0.89 131 21:39 04.12.2019
2977 Rain 3 1014 93 0 1.42 189 21:20 04.12.2019
2978 Rain 3 1014 92 0 1.34 142 20:58 04.12.2019
2979 Rain 3 1014 92 0 0.89 123 20:40 04.12.2019
2980 Rain 3 1014 92 0 0.45 168 20:21 04.12.2019
2981 Rain 3 1014 91 0 0.89 215 19:57 04.12.2019
2982 Rain 3 1015 93 0 0.89 75 19:38 04.12.2019
2983 Rain 4 1015 93 0 0.45 56 19:20 04.12.2019
2984 Rain 3 1015 93 0 0.45 29 18:42 04.12.2019
2985 Rain 3 1015 92 0 1.76 35 18:24 04.12.2019
2986 Rain 4 1015 89 0 0.45 110 18:00 04.12.2019
2987 Rain 4 1015 90 0 0.89 104 17:40 04.12.2019
2988 Rain 3 1015 93 0 0.45 98 17:21 04.12.2019
2989 Rain 3 1016 91 0 1.72 11 16:57 04.12.2019
2990 Rain 3 1016 91 0 1.72 11 16:39 04.12.2019
2991 Rain 3 1016 90 0 0.45 241 16:19 04.12.2019
2992 Rain 3 1016 88 0 1.72 11 15:55 04.12.2019
2993 Rain 3 1016 89 0 1.72 11 15:37 04.12.2019
2994 Rain 4 1016 86 0 1.72 11 15:19 04.12.2019
2995 Rain 4 1015 86 0 0.45 29 14:44 04.12.2019
2996 Rain 7 1013 87 0 1.72 11 14:23 04.12.2019
2997 Rain 8 1015 72 0 1.52 356 13:58 04.12.2019
2998 Rain 8 1015 72 0 1.52 356 13:38 04.12.2019
2999 Rain 8 1015 72 0 1.52 356 13:38 04.12.2019
3000 Rain 7 1015 75 0 2.28 344 13:20 04.12.2019
3001 Rain 7 1015 75 0 2.28 344 12:45 04.12.2019
3002 Rain 7 1015 75 0 2.28 344 12:25 04.12.2019
3003 Rain 7 1015 75 0 2.28 344 11:56 04.12.2019
3004 Rain 7 1015 75 0 2.28 344 11:38 04.12.2019
3005 Clouds 8 1016 65 0 1 347 11:20 04.12.2019
3006 Clouds 8 1016 65 0 1 347 10:44 04.12.2019
3007 Clouds 8 1016 65 0 1 347 10:24 04.12.2019
3008 Clouds 8 1016 65 0 1 347 09:57 04.12.2019
3009 Clouds 8 1016 65 0 1 347 09:38 04.12.2019
3010 Clouds 8 1016 65 0 1 347 09:19 04.12.2019
3011 Clouds 8 1016 65 0 1 347 08:41 04.12.2019
3012 Clouds 7 1015 59 0 1.58 12 08:23 04.12.2019
3013 Clouds 8 1017 56 0 1.77 16 07:50 04.12.2019
3014 Clouds 8 1017 56 0 1.77 16 07:30 04.12.2019
3015 Clouds 8 1017 56 0 1.77 16 06:47 04.12.2019
3016 Clouds 8 1017 56 0 1.77 16 06:25 04.12.2019
3017 Clouds 8 1017 56 0 1.77 16 05:42 04.12.2019
3018 Clouds 10 1017 53 0 2.16 38 04:31 04.12.2019
3019 Clouds 10 1017 53 0 2.16 38 03:20 04.12.2019
3020 Clouds 10 1018 53 0 1.03 37 01:21 04.12.2019
3021 Clouds 10 1018 52 0 0.89 40 00:40 04.12.2019
3022 Clouds 10 1018 52 0 0.89 40 00:18 04.12.2019
3023 Clouds 10 1018 52 0 0.89 40 23:41 03.12.2019
3024 Clouds 11 1019 45 0 2.29 33 23:19 03.12.2019
3025 Clouds 11 1019 45 0 2.29 33 22:56 03.12.2019
3026 Clouds 11 1019 45 0 2.29 33 22:36 03.12.2019
3027 Clouds 11 1019 45 0 2.29 33 22:18 03.12.2019
3028 Clouds 11 1019 45 0 2.29 33 21:54 03.12.2019
3029 Clouds 11 1019 45 0 2.29 33 21:36 03.12.2019
3030 Clouds 11 1019 45 0 2.29 33 21:18 03.12.2019
3031 Clouds 11 1019 45 0 2.29 33 20:41 03.12.2019
3032 Clouds 10 1022 45 0 2.59 35 20:19 03.12.2019
3033 Clouds 10 1022 45 0 2.59 35 19:56 03.12.2019
3034 Clouds 10 1022 45 0 2.59 35 19:38 03.12.2019
3035 Clouds 10 1022 45 0 2.59 35 19:20 03.12.2019
3036 Clouds 10 1022 45 0 2.59 35 18:58 03.12.2019
3037 Clouds 10 1022 45 0 2.59 35 18:40 03.12.2019
3038 Clouds 7 1026 59 0 0.89 301 18:21 03.12.2019
3039 Clouds 7 1025 61 0 0.89 299 17:57 03.12.2019
3040 Clouds 7 1025 61 0 0.89 299 17:57 03.12.2019
3041 Clouds 6 1025 65 0 1.34 335 17:38 03.12.2019
3042 Clouds 6 1025 65 0 1.34 335 17:38 03.12.2019
3043 Clouds 6 1025 65 0 1.34 335 17:38 03.12.2019
3044 Clouds 3 1025 72 0 0.89 251 17:18 03.12.2019
3045 Clouds 3 1025 74 0 2.44 10 16:57 03.12.2019
3046 Clouds 3 1025 74 0 2.44 10 16:57 03.12.2019
3047 Clouds 2 1025 76 0 2.44 10 16:39 03.12.2019
3048 Clouds 2 1025 74 0 2.44 10 16:20 03.12.2019
3049 Clouds 2 1025 76 0 2.44 10 15:56 03.12.2019
3050 Clouds 2 1025 74 0 2.44 10 15:38 03.12.2019
3051 Clouds 3 1025 71 0 2.44 10 15:19 03.12.2019
3052 Clouds 4 1025 66 0 0.89 334 14:42 03.12.2019
3053 Clouds 4 1024 67 0 1.34 329 14:20 03.12.2019
3054 Clouds 4 1025 67 0 1.79 316 13:57 03.12.2019
3055 Clouds 4 1025 67 0 1.34 319 13:37 03.12.2019
3056 Clouds 4 1024 67 0 1.79 345 13:19 03.12.2019
3057 Clouds 4 1025 69 0 1.34 317 12:42 03.12.2019
3058 Clouds 3 1025 71 0 2.68 329 12:19 03.12.2019
3059 Clouds 2 1025 72 0 0.45 317 11:59 03.12.2019
3060 Clouds 3 1025 70 0 1.67 12 11:39 03.12.2019
3061 Clouds 4 1025 67 0 1.34 346 11:21 03.12.2019
3062 Clouds 4 1025 69 0 2.68 325 10:59 03.12.2019
3063 Clouds 4 1025 69 0 2.68 325 10:41 03.12.2019
3064 Clouds 4 1025 67 0 0.89 298 10:21 03.12.2019
3065 Clouds 3 1025 69 0 0.89 297 09:57 03.12.2019
3066 Clouds 2 1026 77 0 2.68 304 09:38 03.12.2019
3067 Clouds 0 1026 82 0 1.66 15 09:20 03.12.2019
3068 Clouds 0 1026 80 0 0.45 286 08:41 03.12.2019
3069 Clouds 2 1026 74 0 1.42 9 08:22 03.12.2019
3070 Clouds 2 1026 71 0 1.34 264 07:57 03.12.2019
3071 Clouds 1 1026 75 0 1.34 339 07:39 03.12.2019
3072 Clouds 0 1027 80 0 1.42 9 07:20 03.12.2019
3073 Clouds 1 1026 76 0 1.42 9 06:23 03.12.2019
3074 Clouds 2 1026 74 0 1.42 9 05:58 03.12.2019
3075 Clear 1 1026 77 0 1.44 0 04:49 03.12.2019
3076 Clear 2 1026 71 0 1.44 0 03:40 03.12.2019
3077 Clear 2 1026 67 0 0.45 87 03:19 03.12.2019
3078 Clear 2 1026 67 0 0.45 87 03:19 03.12.2019
3079 Clear 3 1026 69 0 1.44 0 02:48 03.12.2019
3080 Clear 4 1026 67 0 1.44 0 02:27 03.12.2019
3081 Clouds 5 1025 60 0 0.45 73 01:43 03.12.2019
3082 Clouds 10 1020 47 0 1.35 51 01:24 03.12.2019
3083 Clouds 10 1020 47 0 1.35 51 00:56 03.12.2019
3084 Clouds 10 1020 47 0 1.35 51 00:38 03.12.2019
3085 Clouds 10 1020 47 0 1.35 51 00:20 03.12.2019
3086 Clouds 10 1020 47 0 1.35 51 23:43 02.12.2019
3087 Clouds 10 1020 43 0 1.42 66 23:20 02.12.2019
3088 Clouds 10 1020 43 0 1.42 66 22:42 02.12.2019
3089 Clouds 10 1020 43 0 1.42 66 22:23 02.12.2019
3090 Clouds 10 1020 43 0 1.42 66 21:59 02.12.2019
3091 Clouds 10 1020 43 0 1.42 66 21:37 02.12.2019
3092 Clouds 10 1020 43 0 1.42 66 21:19 02.12.2019
3093 Clouds 10 1020 43 0 1.42 66 20:56 02.12.2019
3094 Clouds 10 1020 43 0 1.42 66 20:38 02.12.2019
3095 Clouds 8 1023 50 0 1.47 60 20:20 02.12.2019
3096 Clouds 8 1023 50 0 1.47 60 19:55 02.12.2019
3097 Clouds 8 1023 50 0 1.47 60 19:37 02.12.2019
3098 Clouds 8 1023 50 0 1.47 60 19:19 02.12.2019
3099 Clouds 8 1023 50 0 1.47 60 18:44 02.12.2019
3100 Clouds 6 1028 54 0 0.45 220 18:20 02.12.2019
3101 Clouds 4 1028 58 0 1.47 60 17:58 02.12.2019
3102 Clouds 4 1028 59 0 0.89 210 17:40 02.12.2019
3103 Clouds 4 1028 59 0 0.89 210 17:40 02.12.2019
3104 Clouds 1 1028 75 0 0.71 344 17:20 02.12.2019
3105 Clouds 0 1027 79 0 0.71 344 16:54 02.12.2019
3106 Clouds -1 1027 78 0 0.71 344 16:36 02.12.2019
3107 Clouds -1 1027 78 0 0.71 344 16:18 02.12.2019
3108 -273 0 0 0 0 0 15:55 02.12.2019
3109 Clouds -1 1026 80 0 0.71 344 15:37 02.12.2019
3110 Clouds -1 1026 78 0 0.71 344 15:18 02.12.2019
3111 Clouds 0 1026 77 0 0.45 331 14:39 02.12.2019
3112 Clouds 0 1026 78 0 0.45 71 14:20 02.12.2019
3113 Clouds 0 1026 78 0 0.89 99 13:58 02.12.2019
3114 Clouds 0 1026 78 0 0.92 13 13:39 02.12.2019
3115 Clouds 1 1026 76 0 0.92 13 13:20 02.12.2019
3116 Clouds 1 1026 78 0 1.25 39 12:58 02.12.2019
3117 Clouds 1 1026 75 0 0.45 283 12:40 02.12.2019
3118 Clouds 0 1026 79 0 0.89 78 12:20 02.12.2019
3119 Clouds 0 1026 81 0 1.25 39 11:56 02.12.2019
3120 Clouds 1 1027 77 0 1.25 39 11:37 02.12.2019
3121 Clouds 0 1027 81 0 0.89 70 11:18 02.12.2019
3122 Clouds -1 1027 83 0 0.85 19 10:55 02.12.2019
3123 Clouds -1 1026 84 0 0.85 19 10:37 02.12.2019
3124 Clouds -1 1026 85 0 0.45 96 10:18 02.12.2019
3125 Clouds -1 1026 84 0 0.85 19 09:41 02.12.2019
3126 Clouds -1 1026 83 0 0.85 19 09:19 02.12.2019
3127 Clouds -1 1026 83 0 0.85 19 08:57 02.12.2019
3128 Clouds -1 1026 83 0 0.85 19 08:38 02.12.2019
3129 Clouds -1 1027 82 0 0.68 39 08:20 02.12.2019
3130 Clouds -2 1026 85 0 0.68 39 07:44 02.12.2019
3131 Clouds -2 1027 84 0 0.68 39 07:21 02.12.2019
3132 Clouds -2 1027 82 0 0.68 39 06:56 02.12.2019
3133 Clouds -2 1026 83 0 0.68 39 06:38 02.12.2019
3134 Clouds -2 1026 86 0 0.45 230 05:34 02.12.2019
3135 Clouds -3 1026 88 0 0.83 25 04:27 02.12.2019
3136 Clouds -1 1025 81 0 0.83 25 02:54 02.12.2019
3137 Clouds -1 1025 80 0 0.83 25 02:31 02.12.2019
3138 Clouds 1 1025 69 0 0.45 27 01:27 02.12.2019
3139 Clouds 3 1025 66 0 1.79 17 00:58 02.12.2019
3140 Clouds 6 1021 52 0 1.35 79 00:25 02.12.2019
3141 Clouds 6 1021 52 0 1.35 79 23:56 01.12.2019
3142 Clouds 6 1021 52 0 1.35 79 23:38 01.12.2019
3143 Clouds 6 1021 50 0 1.63 104 23:19 01.12.2019
3144 Clouds 6 1021 50 0 1.63 104 22:55 01.12.2019
3145 Clouds 6 1021 50 0 1.63 104 22:37 01.12.2019
3146 Clouds 6 1021 50 0 1.63 104 22:18 01.12.2019
3147 Clouds 6 1021 50 0 1.63 104 21:55 01.12.2019
3148 Clouds 4 1025 67 0 1.34 75 21:37 01.12.2019
3149 Clouds 3 1025 68 0 1.34 73 21:18 01.12.2019
3150 Clouds 3 1025 67 0 1.34 78 20:56 01.12.2019
3151 Clouds 4 1026 65 0 1.34 40 20:37 01.12.2019
3152 Clouds 5 1023 57 0 1.07 50 20:19 01.12.2019
3153 Clouds 5 1023 57 0 1.07 50 19:55 01.12.2019
3154 Clouds 5 1023 57 0 1.07 50 19:36 01.12.2019
3155 Clouds 5 1023 57 0 1.07 50 19:18 01.12.2019
3156 Clouds 5 1023 57 0 1.07 50 18:55 01.12.2019
3157 Clouds 5 1023 57 0 1.07 50 18:55 01.12.2019
3158 Clouds 3 1026 66 0 1.79 16 18:36 01.12.2019
3159 Clouds 3 1026 67 0 1.79 35 18:18 01.12.2019
3160 Clouds 3 1026 68 0 0.89 64 17:55 01.12.2019
3161 Clouds 1 1026 77 0 0.45 58 17:37 01.12.2019
3162 Clouds 1 1026 77 0 0.45 58 17:19 01.12.2019
3163 Clouds 0 1026 76 0 0.45 90 16:43 01.12.2019
3164 Clouds -1 1026 78 0 0.45 83 16:23 01.12.2019
3165 Clouds -1 1026 77 0 1.34 21 15:53 01.12.2019
3166 Clouds -1 1026 78 0 0.45 183 15:33 01.12.2019
3167 Clouds 0 1026 77 0 1.34 95 14:58 01.12.2019
3168 Clouds 0 1026 77 0 1.34 95 14:58 01.12.2019
3169 Clouds -1 1025 79 0 0.89 20 14:37 01.12.2019
3170 Clouds -1 1025 80 0 0.8 47 14:19 01.12.2019
3171 Clouds -1 1025 80 0 1.34 45 13:40 01.12.2019
3172 Clouds -1 1025 81 0 0.45 197 13:21 01.12.2019
3173 Clouds -1 1025 80 0 0.45 239 12:47 01.12.2019
3174 Clouds -1 1025 80 0 0.89 85 12:19 01.12.2019
3175 Clouds -1 1026 79 0 1.6 3 11:44 01.12.2019
3176 Clouds -1 1026 78 0 0.45 40 11:24 01.12.2019
3177 Clouds -1 1026 78 0 1.96 358 10:55 01.12.2019
3178 Clouds -1 1026 78 0 1.96 358 10:55 01.12.2019
3179 Clouds -1 1026 77 0 0.45 60 10:37 01.12.2019
3180 Clouds -1 1026 76 0 1.34 354 10:18 01.12.2019
3181 Clouds -1 1026 77 0 1.79 69 09:41 01.12.2019
3182 Clouds -1 1027 75 0 2.24 91 09:21 01.12.2019
3183 Clouds -1 1027 75 0 0.89 56 08:49 01.12.2019
3184 Clouds -1 1027 76 0 1.79 77 08:23 01.12.2019
3185 Clouds -1 1027 77 0 0.89 82 07:53 01.12.2019
3186 Clouds -1 1027 76 0 0.89 94 07:32 01.12.2019
3187 Clouds -2 1027 78 0 0.89 60 06:58 01.12.2019
3188 Clouds -2 1027 78 0 1.47 267 06:40 01.12.2019
3189 Clouds -2 1027 81 0 1.47 267 05:55 01.12.2019
3190 Clouds -2 1028 79 0 0.43 146 04:54 01.12.2019
3191 Clouds -2 1029 80 0 0.45 247 04:22 01.12.2019
3192 Clouds -1 1029 76 0 0.45 342 02:43 01.12.2019
3193 Clouds -1 1029 76 0 0.89 327 02:24 01.12.2019
3194 Clouds -1 1029 71 0 0.45 299 01:53 01.12.2019
3195 Clouds -1 1028 69 0 0.89 36 01:29 01.12.2019
3196 Clouds 0 1028 67 0 1.79 16 00:44 01.12.2019
3197 Clouds 0 1027 66 0 1.79 31 00:26 01.12.2019
3198 Clouds 1 1027 62 0 0.89 40 23:45 30.11.2019
3199 Clouds 2 1027 58 0 2.24 23 23:25 30.11.2019
3200 Clouds 2 1026 59 0 0.89 21 22:59 30.11.2019
3201 Clouds 3 1026 57 0 1.34 50 22:39 30.11.2019
3202 Clouds 4 1021 46 0 1.56 90 22:20 30.11.2019
3203 Clouds 4 1021 46 0 1.56 90 21:47 30.11.2019
3204 Clouds 4 1021 46 0 1.56 90 21:28 30.11.2019
3205 Clouds 4 1021 46 0 1.56 90 20:58 30.11.2019
3206 Clouds 4 1021 46 0 1.56 90 20:40 30.11.2019
3207 Clouds 3 1024 54 0 1.51 56 20:20 30.11.2019
3208 Clouds 3 1024 54 0 1.51 56 19:57 30.11.2019
3209 Clouds 3 1024 54 0 1.51 56 19:39 30.11.2019
3210 Clouds 3 1024 54 0 1.51 56 19:39 30.11.2019
3211 Clouds 3 1024 54 0 1.51 56 19:39 30.11.2019
3212 Clouds 3 1024 54 0 1.51 56 19:20 30.11.2019
3213 Clouds 3 1024 54 0 1.51 56 18:59 30.11.2019
3214 Clouds 3 1029 48 0 1.51 56 18:39 30.11.2019
3215 Clouds 1 1028 53 0 0.89 258 18:21 30.11.2019
3216 Clouds 1 1027 57 0 0.45 290 17:58 30.11.2019
3217 Clouds 0 1027 61 0 1.51 56 17:40 30.11.2019
3218 Clouds -2 1027 66 0 1.54 1 17:22 30.11.2019
3219 Clouds -4 1027 73 0 1.54 1 16:58 30.11.2019
3220 Clouds -4 1027 73 0 1.54 1 16:58 30.11.2019
3221 Clouds -8 1026 82 0 1.54 1 16:40 30.11.2019
3222 Clouds -9 1026 82 0 1.54 1 16:21 30.11.2019
3223 Clouds -9 1026 82 0 1.54 1 16:21 30.11.2019
3224 Clouds -8 1027 76 0 1.54 1 15:54 30.11.2019
3225 Clouds -8 1026 76 0 1.54 1 15:36 30.11.2019
3226 Clouds -8 1025 78 0 0.89 329 15:18 30.11.2019
3227 Clouds -8 1025 81 0 0.89 329 14:54 30.11.2019
3228 Clouds -10 1025 84 0 1.54 1 14:36 30.11.2019
3229 Clear -9 1025 82 0 1.7 327 14:18 30.11.2019
3230 Clear -9 1025 81 0 1.7 327 13:42 30.11.2019
3231 Clear -9 1024 84 0 1.7 327 13:24 30.11.2019
3232 Clear -9 1024 81 0 1.31 22 12:57 30.11.2019
3233 Clear -9 1023 79 0 1.31 22 12:39 30.11.2019
3234 Clear -8 1023 82 0 1.31 22 12:18 30.11.2019
3235 Clear -8 1023 73 0 1.31 22 11:41 30.11.2019
3236 Clear -7 1023 82 0 0.89 322 11:19 30.11.2019
3237 Clear -8 1023 82 0 2.15 284 10:55 30.11.2019
3238 Clear -9 1022 91 0 0.89 322 10:37 30.11.2019
3239 Clear -10 1021 85 0 2.15 284 10:18 30.11.2019
3240 Clear -9 1021 84 0 2.15 284 09:43 30.11.2019
3241 Clear -9 1021 79 0 2.15 284 09:21 30.11.2019
3242 Clear -8 1021 79 0 2.15 284 08:43 30.11.2019
3243 Clear -7 1021 76 0 2.58 263 08:20 30.11.2019
3244 Clear -6 1020 77 0 2.58 263 07:54 30.11.2019
3245 Clear -7 1020 79 0 0.89 321 07:36 30.11.2019
3246 Clear -9 1019 77 0 2.58 263 06:55 30.11.2019
3247 Clear -7 1019 71 0 2.58 263 06:29 30.11.2019
3248 Clear -7 1018 73 0 0.45 325 05:40 30.11.2019
3249 Clear -4 1016 72 0 0.89 31 03:44 30.11.2019
3250 Clear -4 1015 84 0 2.8 257 02:39 30.11.2019
3251 Clouds -3 1014 82 0 2.68 265 02:20 30.11.2019
3252 Clouds -1 1013 77 0 2.68 265 01:25 30.11.2019
3253 Clouds 0 1013 82 0 2.57 260 00:49 30.11.2019
3254 Clouds 0 1013 83 0 0.45 139 00:30 30.11.2019
3255 Clouds 0 1012 84 0 1.34 117 23:58 29.11.2019
3256 Clouds 0 1012 84 0 0.89 164 23:40 29.11.2019
3257 Clouds 1 1011 84 0 0.89 106 23:20 29.11.2019
3258 Clouds 0 1011 85 0 1.34 124 22:42 29.11.2019
3259 Clouds 0 1011 83 0 0.89 111 22:23 29.11.2019
3260 Clouds 0 1010 84 0 0.89 144 21:44 29.11.2019
3261 Clouds 0 1010 83 0 0.89 104 21:24 29.11.2019
3262 Clouds 0 1010 84 0 0.89 114 20:58 29.11.2019
3263 Clouds -1 1010 85 0 1.79 121 20:38 29.11.2019
3264 Clouds -1 1010 85 0 1.34 108 20:19 29.11.2019
3265 Clouds -1 1010 83 0 1.34 110 19:57 29.11.2019
3266 Clouds -1 1010 84 0 0.89 112 19:39 29.11.2019
3267 Clouds -2 1009 83 0 1.79 141 19:19 29.11.2019
3268 Clouds -1 1009 76 0 1.34 121 18:57 29.11.2019
3269 Clouds 1 1009 73 0 2.83 249 18:38 29.11.2019
3270 Clouds -1 1008 79 0 2.83 249 18:19 29.11.2019
3271 Clouds -2 1007 83 0 2.83 249 17:43 29.11.2019
3272 Clouds -2 1007 85 0 2.83 249 17:24 29.11.2019
3273 Clouds -3 1007 87 0 1.34 22 16:57 29.11.2019
3274 Clouds -4 1007 90 0 0.45 5 16:38 29.11.2019
3275 Clouds -3 1007 90 0 0.45 343 16:18 29.11.2019
3276 Clouds -4 1007 89 0 0.89 18 15:41 29.11.2019
3277 Clouds -4 1006 91 0 0.45 31 15:23 29.11.2019
3278 Clouds -5 1006 92 0 0.45 56 14:56 29.11.2019
3279 Clouds -6 1005 91 0 0.45 65 14:38 29.11.2019
3280 Clouds -6 1005 89 0 2.35 250 14:19 29.11.2019
3281 Clouds -4 1005 93 0 2.35 250 13:41 29.11.2019
3282 Clouds -4 1005 93 0 2.12 255 13:21 29.11.2019
3283 Clouds -5 1005 93 0 2.12 255 12:57 29.11.2019
3284 -273 0 0 0 0 0 12:39 29.11.2019
3285 Clouds -4 1004 93 0 0.45 16 12:21 29.11.2019
3286 Clouds -4 1004 93 0 0.45 20 11:55 29.11.2019
3287 Clouds -4 1004 93 0 0.45 31 11:36 29.11.2019
3288 Clouds -4 1005 93 0 1.34 9 11:18 29.11.2019
3289 Clouds -5 1005 93 0 0.45 28 10:55 29.11.2019
3290 Clouds -6 1004 91 0 1.97 257 10:37 29.11.2019
3291 Clouds -5 1004 93 0 1.97 257 10:18 29.11.2019
3292 Clouds -4 1004 94 0 1.97 257 09:55 29.11.2019
3293 Clouds -4 1004 93 0 1.34 12 09:36 29.11.2019
3294 Clouds -4 1004 94 0 0.45 18 09:18 29.11.2019
3295 Clouds -3 1004 94 0 0.45 173 08:39 29.11.2019
3296 Rain -3 1004 94 0 0.45 173 08:21 29.11.2019
3297 Rain -3 1004 94 0 2.73 205 07:58 29.11.2019
3298 Rain -3 1004 94 0 0.89 135 07:39 29.11.2019
3299 Rain -4 1004 94 0 2.73 205 07:21 29.11.2019
3300 Rain -4 1004 94 0 2.73 205 06:42 29.11.2019
3301 Rain -4 1004 94 0 0.89 128 05:48 29.11.2019
3302 Rain -3 1003 94 0 0.45 137 05:24 29.11.2019
3303 Rain -3 1003 94 0 1.13 208 04:32 29.11.2019
3304 Rain -3 1003 94 0 1.13 208 03:22 29.11.2019
3305 Rain -3 1003 93 0 1.13 208 02:30 29.11.2019
3306 Rain -2 1003 93 0 1.68 300 01:53 29.11.2019
3307 Snow -2 1004 93 0 0.77 97 01:26 29.11.2019
3308 Snow -2 1004 92 0 0.45 129 00:44 29.11.2019
3309 Snow -2 1003 92 0 0.89 112 00:21 29.11.2019
3310 Snow -2 1004 93 0 0.77 97 23:56 28.11.2019
3311 Snow -1 1004 92 0 0.77 97 23:38 28.11.2019
3312 Snow -1 1004 92 0 1.2 13 23:19 28.11.2019
3313 Snow -1 1004 92 0 1.2 13 22:38 28.11.2019
3314 Snow -1 1004 92 0 1.2 13 22:20 28.11.2019
3315 Snow -1 1003 91 0 0.45 247 21:59 28.11.2019
3316 Snow -1 1003 92 0 1.2 13 21:40 28.11.2019
3317 Snow -1 1004 91 0 1.2 13 21:20 28.11.2019
3318 Snow -1 1004 92 0 1.2 13 20:57 28.11.2019
3319 Snow -1 1005 93 0 1.2 13 20:39 28.11.2019
3320 Rain -2 1006 93 0 1.48 74 20:20 28.11.2019
3321 Snow -2 1006 92 0 0.89 329 19:56 28.11.2019
3322 Snow -2 1005 92 0 0.45 353 19:36 28.11.2019
3323 Snow -2 1006 92 0 0.45 360 19:18 28.11.2019
3324 Snow -2 1006 91 0 1.79 9 18:56 28.11.2019
3325 Snow -2 1005 91 0 1.79 356 18:38 28.11.2019
3326 Snow -2 1006 91 0 0.89 40 18:18 28.11.2019
3327 -273 0 0 0 0 0 17:43 28.11.2019
3328 Snow -2 1005 91 0 0.47 344 17:25 28.11.2019
3329 -273 0 0 0 0 0 17:25 28.11.2019
3330 Snow -2 1005 91 0 0.47 344 17:25 28.11.2019
3331 Clouds -2 1005 90 0 0.45 106 16:59 28.11.2019
3332 Clouds -2 1005 91 0 1.34 104 16:40 28.11.2019
3333 Clouds -2 1005 90 0 1.34 103 16:19 28.11.2019
3334 Clouds -3 1005 89 0 0.59 102 15:57 28.11.2019
3335 Clouds -3 1006 87 0 0.59 102 15:38 28.11.2019
3336 Clouds -3 1006 87 0 0.59 102 15:19 28.11.2019
3337 Clouds -3 1006 86 0 0.59 102 14:57 28.11.2019
3338 Clouds -3 1005 90 0 0.89 128 14:38 28.11.2019
3339 Clear -3 1005 89 0 0.89 129 14:19 28.11.2019
3340 Clear -4 1005 85 0 3.17 239 13:42 28.11.2019
3341 Clear -3 1006 88 0 0.89 121 13:23 28.11.2019
3342 Clear -3 1006 87 0 1.34 129 12:56 28.11.2019
3343 Clear -3 1005 80 0 2.89 234 12:37 28.11.2019
3344 Clear -3 1005 81 0 2.89 234 12:19 28.11.2019
3345 Clear -3 1005 80 0 0.89 144 11:54 28.11.2019
3346 Clear -3 1005 81 0 1.34 160 11:36 28.11.2019
3347 Clear -3 1005 81 0 1.34 160 11:36 28.11.2019
3348 Clear -3 1005 81 0 1.79 127 11:18 28.11.2019
3349 Clear -2 1004 71 0 3.56 229 10:42 28.11.2019
3350 Clear -2 1004 69 0 2.24 176 10:21 28.11.2019
3351 Clear -2 1004 72 0 3.13 198 09:56 28.11.2019
3352 Clear -2 1004 72 0 3.13 198 09:56 28.11.2019
3353 Clear -2 1004 74 0 3.56 229 09:38 28.11.2019
3354 Clear -2 1004 75 0 3.56 229 09:18 28.11.2019
3355 Clear -2 1003 76 0 0.89 299 08:40 28.11.2019
3356 Clouds -2 1003 76 0 3.58 179 08:21 28.11.2019
3357 Clouds -2 1003 77 0 4.02 199 07:56 28.11.2019
3358 Clouds -2 1002 75 0 3.13 212 07:38 28.11.2019
3359 Clouds -1 1002 73 0 4.47 223 07:18 28.11.2019
3360 Clouds -1 1002 76 0 2.24 175 06:40 28.11.2019
3361 Clouds -1 1002 75 0 2.24 185 05:53 28.11.2019
3362 Clouds -1 1002 75 0 3.13 184 05:34 28.11.2019
3363 Clouds -1 1000 72 0 0.89 242 03:52 28.11.2019
3364 Clouds 0 1000 73 0 2.68 244 02:32 28.11.2019
3365 Rain 1 999 68 0 4.92 254 01:25 28.11.2019
3366 Rain 2 998 62 0 2.68 232 00:39 28.11.2019
3367 Rain 3 998 57 0 5.36 233 00:18 28.11.2019
3368 Rain 3 998 65 0 4.92 248 23:39 27.11.2019
3369 Rain 3 998 68 0 4.02 265 23:20 27.11.2019
3370 Rain 3 998 71 0 3.58 255 22:56 27.11.2019
3371 Rain 3 998 78 0 4.02 253 22:38 27.11.2019
3372 Rain 2 998 76 0 4.47 237 22:18 27.11.2019
3373 Rain 3 998 78 0 5.36 250 21:55 27.11.2019
3374 Rain 2 999 83 0 4.02 226 21:37 27.11.2019
3375 Rain 2 999 83 0 4.92 248 21:18 27.11.2019
3376 Rain 2 999 80 0 4.02 254 20:56 27.11.2019
3377 Rain 2 999 80 0 4.02 254 20:56 27.11.2019
3378 Rain 2 999 82 0 4.02 212 20:37 27.11.2019
3379 Snow 2 1000 83 0 3.13 238 20:19 27.11.2019
3380 Snow 1 1000 85 0 3.13 225 19:55 27.11.2019
3381 Snow 1 1000 85 0 3.58 256 19:37 27.11.2019
3382 Snow 1 1001 85 0 3.58 250 19:18 27.11.2019
3383 Snow 1 1000 87 0 3.13 270 18:55 27.11.2019
3384 Snow 1 1001 92 0 2.24 229 18:36 27.11.2019
3385 Snow 1 1001 92 0 2.68 262 18:18 27.11.2019
3386 Snow 1 1001 92 0 2.68 262 18:18 27.11.2019
3387 Snow 1 1001 93 0 2.68 278 17:55 27.11.2019
3388 Snow 1 1001 93 0 4.47 254 17:36 27.11.2019
3389 Snow 1 1001 93 0 3.13 248 17:18 27.11.2019
3390 Snow 1 1001 92 0 3.58 256 16:55 27.11.2019
3391 Snow 1 1000 93 0 2.68 235 16:36 27.11.2019
3392 Snow 1 1001 93 0 4.02 271 16:18 27.11.2019
3393 Snow 0 1001 93 0 3.58 243 15:55 27.11.2019
3394 Snow 0 1001 93 0 4.47 263 15:37 27.11.2019
3395 Snow -1 1000 93 0 4.02 266 15:18 27.11.2019
3396 Snow -1 1000 92 0 3.58 233 14:55 27.11.2019
3397 Snow -1 1000 92 0 5.81 260 14:36 27.11.2019
3398 Clouds -1 1000 92 0 4.47 258 14:18 27.11.2019
3399 Clouds -2 1000 91 0 5.81 257 13:55 27.11.2019
3400 Clouds -1 1001 85 0 5.81 246 13:36 27.11.2019
3401 Clouds -1 1001 82 0 7.15 242 13:18 27.11.2019
3402 Clouds -1 1001 74 0 9.83 268 12:41 27.11.2019
3403 Clouds -1 1002 74 0 6.26 260 12:21 27.11.2019
3404 Clouds -1 1003 70 0 5.81 245 11:55 27.11.2019
3405 Clouds 1 1003 63 0 4.92 256 11:36 27.11.2019
3406 Clouds -1 1003 76 0 6.26 236 11:18 27.11.2019
3407 Clouds 1 1003 74 0 4.47 250 10:42 27.11.2019
3408 Clouds 1 1003 74 0 4.47 250 10:42 27.11.2019
3409 Clouds 2 1004 46 0 3.13 208 10:24 27.11.2019
3410 Clouds 2 1004 36 0 3.58 180 09:50 27.11.2019
3411 Clouds 3 1005 34 0 1.79 166 09:27 27.11.2019
3412 Clouds 3 1006 32 0 0.45 45 08:59 27.11.2019
3413 Clouds 3 1006 32 0 2.24 190 08:41 27.11.2019
3414 Clouds 3 1006 30 0 5.81 123 08:22 27.11.2019
3415 Clouds 2 1007 31 0 0.89 181 07:47 27.11.2019
3416 Clouds 2 1007 32 0 2.68 187 07:29 27.11.2019
3417 Clouds 2 1008 31 0 4.47 255 06:54 27.11.2019
3418 Clouds 2 1008 31 0 4.92 247 06:35 27.11.2019
3419 Clouds 2 1009 33 0 5.81 262 05:47 27.11.2019
3420 Clouds 2 1009 36 0 3.13 255 05:21 27.11.2019
3421 Clouds 2 1009 35 0 3.58 263 04:49 27.11.2019
3422 Clouds 2 1010 34 0 4.92 263 04:30 27.11.2019
3423 Clouds 2 1010 34 0 4.47 219 03:40 27.11.2019
3424 Clouds 2 1011 34 0 0.45 185 03:20 27.11.2019
3425 Clouds 3 1011 34 0 2.68 213 02:28 27.11.2019
3426 Clouds 4 1012 31 0 4.02 223 00:50 27.11.2019
3427 Clouds 4 1012 31 0 3.13 256 00:30 27.11.2019
3428 Clouds 7 1010 18 0 3.91 191 23:56 26.11.2019
3429 Clouds 5 1013 29 0 4.02 261 23:38 26.11.2019
3430 Clouds 6 1013 28 0 3.58 241 23:19 26.11.2019
3431 Clouds 6 1013 28 0 3.58 266 22:40 26.11.2019
3432 Clouds 6 1013 28 0 3.58 266 22:40 26.11.2019
3433 Clouds 4 1014 30 0 2.68 118 22:20 26.11.2019
3434 Clouds 4 1014 30 0 2.68 118 21:59 26.11.2019
3435 Clouds 4 1014 32 0 2.68 111 21:39 26.11.2019
3436 Clouds 4 1014 32 0 2.68 111 21:39 26.11.2019
3437 Clouds 4 1015 32 0 2.24 137 21:21 26.11.2019
3438 Clouds 4 1015 32 0 2.24 137 21:21 26.11.2019
3439 Clouds 4 1015 30 0 2.24 136 20:57 26.11.2019
3440 Clouds 4 1016 31 0 1.34 169 20:37 26.11.2019
3441 Clouds 4 1016 31 0 1.34 169 20:37 26.11.2019
3442 Clear 4 1016 33 0 2.12 62 20:19 26.11.2019
3443 Clear 4 1016 33 0 2.12 62 20:19 26.11.2019
3444 Clear 4 1016 30 0 0.89 246 19:56 26.11.2019
3445 Clear 4 1016 30 0 0.89 246 19:56 26.11.2019
3446 Clear 3 1016 35 0 0.45 203 19:38 26.11.2019
3447 Clear 3 1016 37 0 0.89 213 19:19 26.11.2019
3448 Clear 3 1017 38 0 1.34 237 18:58 26.11.2019
3449 Clear 3 1017 38 0 0.89 245 18:39 26.11.2019
3450 Clear 2 1017 39 0 0.45 128 18:21 26.11.2019
3451 Clear 2 1017 40 0 1.34 50 17:58 26.11.2019
3452 Clear 2 1017 41 0 2.24 56 17:40 26.11.2019
3453 Clear 1 1017 47 0 2.24 357 17:21 26.11.2019
3454 Clear -1 1017 49 0 0.45 274 16:57 26.11.2019
3455 Clear -1 1017 52 0 1.17 26 16:38 26.11.2019
3456 Clear -2 1017 52 0 0.45 58 16:19 26.11.2019
3457 -273 0 0 0 0 0 15:59 26.11.2019
3458 Clear -2 1017 52 0 1.17 26 15:59 26.11.2019
3459 Clear -2 1016 53 0 0.45 322 15:38 26.11.2019
3460 Clear -2 1016 50 0 0.89 343 15:20 26.11.2019
3461 Clear -2 1016 52 0 2.24 358 14:51 26.11.2019
3462 Clear 1 1016 38 0 1.17 26 14:26 26.11.2019
3463 Clear -2 1016 52 0 4.47 21 13:59 26.11.2019
3464 Clear -2 1015 52 0 4.92 2 13:40 26.11.2019
3465 Clear 2 1016 37 0 1.83 351 13:22 26.11.2019
3466 Clear -2 1015 56 0 1.83 351 12:40 26.11.2019
3467 Clear 2 1016 37 0 1.83 351 12:22 26.11.2019
3468 Clear -2 1015 56 0 1.83 351 11:59 26.11.2019
3469 Clear -2 1015 55 0 1.83 351 11:40 26.11.2019
3470 Clear -1 1015 53 0 2.24 348 11:20 26.11.2019
3471 Clear -1 1015 53 0 1.79 7 10:59 26.11.2019
3472 Clear -1 1015 53 0 2.24 16 10:41 26.11.2019
3473 Clear -1 1014 53 0 2.24 17 10:21 26.11.2019
3474 Clear -1 1015 52 0 1.79 12 09:58 26.11.2019
3475 Clear 1 1014 47 0 3.58 2 09:38 26.11.2019
3476 Clear 1 1014 45 0 4.92 18 09:20 26.11.2019
3477 Clear 1 1014 44 0 4.02 27 08:44 26.11.2019
3478 Clear 1 1014 44 0 1.34 8 08:25 26.11.2019
3479 Clouds 1 1014 44 0 0.89 45 07:47 26.11.2019
3480 Clouds 1 1014 43 0 0.89 31 07:29 26.11.2019
3481 Clouds 1 1014 43 0 0.89 31 07:29 26.11.2019
3482 Clouds 1 1014 42 0 1.81 329 06:59 26.11.2019
3483 Clouds 2 1014 41 0 0.45 40 06:40 26.11.2019
3484 Clouds 2 1013 40 0 0.45 24 05:54 26.11.2019
3485 Clouds 3 1013 35 0 1.79 72 04:47 26.11.2019
3486 Clouds 4 1012 29 0 3.13 72 02:53 26.11.2019
3487 Clear 7 1010 23 0 3.13 67 01:35 26.11.2019
3488 Clear 8 1009 25 0 3.13 45 00:53 26.11.2019
3489 Clear 8 1009 26 0 4.02 57 00:33 26.11.2019
3490 Clear 9 1008 27 0 5.81 34 23:56 25.11.2019
3491 Clear 9 1008 27 0 6.26 45 23:37 25.11.2019
3492 Clear 9 1008 26 0 3.13 50 23:18 25.11.2019
3493 Clear 9 1007 33 0 3.58 21 22:39 25.11.2019
3494 Clear 9 1007 35 0 4.92 18 22:19 25.11.2019
3495 Clear 9 1007 37 0 5.81 33 21:59 25.11.2019
3496 Clear 13 1005 23 0 5.98 31 21:40 25.11.2019
3497 Clear 13 1005 23 0 5.98 31 21:22 25.11.2019
3498 Clear 13 1005 23 0 5.98 31 20:58 25.11.2019
3499 Clear 11 1006 34 0 4.02 45 20:40 25.11.2019
3500 Clear 11 1006 33 0 3.13 67 20:20 25.11.2019
3501 Clear 13 1006 28 0 4.57 227 19:57 25.11.2019
3502 Clear 8 1005 37 0 4.47 96 19:38 25.11.2019
3503 Clear 12 1005 27 0 5.36 83 19:20 25.11.2019
3504 Clear 16 1005 14 0 2.68 45 18:58 25.11.2019
3505 Clear 17 1005 7 0 4.47 333 18:40 25.11.2019
3506 Clear 17 1005 8 0 7.15 324 18:21 25.11.2019
3507 Clear 16 1006 16 0 2.68 315 17:58 25.11.2019
3508 Clear 15 1007 20 0 6.26 304 17:40 25.11.2019
3509 Clear 15 1007 20 0 6.26 304 17:40 25.11.2019
3510 Clear 6 1009 42 0 0.93 275 17:21 25.11.2019
3511 Clear 10 1008 28 0 3.13 315 16:59 25.11.2019
3512 Clear 6 1008 40 0 0.93 275 16:41 25.11.2019
3513 Clear 6 1009 38 0 2.24 355 16:22 25.11.2019
3514 Clear 4 1009 44 0 1.34 107 15:56 25.11.2019
3515 Clear 3 1010 45 0 0.93 275 15:37 25.11.2019
3516 Clear 4 1010 43 0 0.89 121 15:19 25.11.2019
3517 Clear 6 1010 38 0 1.34 25 14:44 25.11.2019
3518 Clear 6 1011 42 0 0.89 25 14:26 25.11.2019
3519 Clear 4 1011 40 0 0.89 135 13:58 25.11.2019
3520 Clear 4 1011 45 0 0.45 58 13:38 25.11.2019
3521 Clear 4 1011 45 0 0.45 58 13:38 25.11.2019
3522 Clear 5 1011 42 0 0.89 78 13:20 25.11.2019
3523 Clear 5 1011 42 0 0.89 78 13:20 25.11.2019
3524 Clear 4 1012 47 0 1.46 256 12:59 25.11.2019
3525 Clear 4 1012 47 0 1.46 256 12:59 25.11.2019
3526 Clear 5 1012 44 0 0.45 7 12:39 25.11.2019
3527 Clear 7 1013 42 0 1.34 18 12:19 25.11.2019
3528 Clear 6 1014 43 0 2.24 11 11:40 25.11.2019
3529 Clear 4 1014 47 0 1.22 320 11:22 25.11.2019
3530 Clear 4 1014 47 0 1.22 320 11:22 25.11.2019
3531 Clear 3 1014 44 0 0.89 35 10:59 25.11.2019
3532 Clear 6 1014 39 0 1.22 320 10:41 25.11.2019
3533 Clear 4 1014 36 0 0.45 102 10:20 25.11.2019
3534 Clear 6 1015 35 0 1.22 320 09:45 25.11.2019
3535 Clear 6 1015 33 0 0.45 152 09:26 25.11.2019
3536 Clear 6 1016 36 0 1.22 320 08:59 25.11.2019
3537 Clear 5 1017 35 0 1.22 320 08:39 25.11.2019
3538 Clear 4 1017 41 0 1.72 254 08:20 25.11.2019
3539 Clear 4 1017 39 0 1.72 254 07:41 25.11.2019
3540 Clear 6 1017 30 0 1.72 254 07:20 25.11.2019
3541 Clear 7 1017 26 0 1.72 254 06:45 25.11.2019
3542 Clear 7 1017 29 0 1.72 254 06:21 25.11.2019
3543 Clear 7 1018 29 0 1.72 254 05:38 25.11.2019
3544 Clear 7 1018 30 0 1.03 295 04:52 25.11.2019
3545 Clear 8 1019 36 0 1.03 295 02:51 25.11.2019
3546 Clear 9 1019 34 0 0.45 154 02:19 25.11.2019
3547 Clear 11 1018 34 0 1.03 131 01:39 25.11.2019
3548 Clear 13 1019 27 0 1.13 131 01:20 25.11.2019
3549 Clear 14 1019 15 0 1.79 357 00:23 25.11.2019
3550 Clear 14 1020 16 0 1.34 1 23:58 24.11.2019
3551 Clear 13 1020 31 0 3.13 108 23:38 24.11.2019
3552 Clear 13 1020 30 0 2.68 113 23:19 24.11.2019
3553 Clear 13 1020 28 0 3.13 117 22:54 24.11.2019
3554 Clear 14 1020 28 0 1.79 146 22:36 24.11.2019
3555 Clear 14 1020 26 0 1.79 92 22:18 24.11.2019
3556 Clear 15 1021 9 0 1.55 100 21:42 24.11.2019
3557 Clear 14 1022 15 0 3.58 351 21:21 24.11.2019
3558 Clear 14 1022 16 0 1.79 27 20:59 24.11.2019
3559 Clear 14 1022 16 0 1.79 27 20:59 24.11.2019
3560 Clear 13 1022 19 0 0.45 58 20:39 24.11.2019
3561 Clear 13 1023 23 0 2.68 358 20:19 24.11.2019
3562 Clear 13 1023 25 0 2.24 347 19:57 24.11.2019
3563 Clear 12 1024 30 0 3.58 7 19:39 24.11.2019
3564 Clear 11 1024 32 0 2.68 40 19:21 24.11.2019
3565 Clear 10 1024 35 0 2.68 29 18:59 24.11.2019
3566 Clear 10 1024 35 0 2.68 29 18:59 24.11.2019
3567 Clear 9 1024 39 0 4.47 25 18:38 24.11.2019
3568 Clear 9 1024 37 0 4.47 8 18:20 24.11.2019
3569 Clear 9 1024 38 0 3.58 13 17:58 24.11.2019
3570 Clear 8 1024 40 0 3.13 22 17:40 24.11.2019
3571 Clear 8 1024 44 0 3.58 19 17:22 24.11.2019
3572 Clear 8 1024 40 0 3.13 8 16:58 24.11.2019
3573 Clear 6 1024 51 0 1.97 9 16:39 24.11.2019
3574 Clear 6 1024 46 0 1.79 356 16:21 24.11.2019
3575 Clear 6 1024 46 0 1.79 356 16:21 24.11.2019
3576 Clear 6 1024 49 0 2.68 14 15:55 24.11.2019
3577 Clear 6 1024 48 0 2.68 13 15:37 24.11.2019
3578 Clear 6 1024 49 0 3.13 20 15:18 24.11.2019
3579 Clear 5 1024 51 0 1.79 14 14:39 24.11.2019
3580 Clear 3 1024 60 0 1.34 339 14:19 24.11.2019
3581 Clear 5 1024 57 0 1.34 357 13:58 24.11.2019
3582 Clear 4 1024 58 0 1.79 6 13:37 24.11.2019
3583 Clear 3 1024 65 0 0.89 10 13:19 24.11.2019
3584 Clear 2 1024 69 0 2.26 9 12:56 24.11.2019
3585 Clear 2 1024 65 0 2.26 9 12:37 24.11.2019
3586 Clear 3 1024 65 0 2.26 9 12:18 24.11.2019
3587 Clear 3 1024 65 0 0.45 161 11:38 24.11.2019
3588 Clear 3 1024 65 0 2.58 7 11:19 24.11.2019
3589 Clear 3 1024 65 0 2.58 7 10:57 24.11.2019
3590 Clear 8 1024 48 0 0.89 141 10:38 24.11.2019
3591 Clear 8 1024 46 0 4.02 28 10:20 24.11.2019
3592 Clear 8 1024 45 0 4.47 27 09:39 24.11.2019
3593 Clear 8 1024 50 0 4.47 20 09:20 24.11.2019
3594 Clear 8 1024 51 0 3.58 16 08:57 24.11.2019
3595 Clear 8 1024 50 0 4.02 27 08:39 24.11.2019
3596 Clear 8 1025 47 0 4.02 45 08:20 24.11.2019
3597 Clear 8 1025 50 0 4.02 45 07:47 24.11.2019
3598 Clear 8 1025 53 0 4.92 14 07:22 24.11.2019
3599 Clear 8 1025 52 0 3.13 25 06:51 24.11.2019
3600 Clear 9 1025 50 0 4.92 40 05:39 24.11.2019
3601 Clear 9 1025 52 0 4.02 40 04:41 24.11.2019
3602 Clear 9 1024 47 0 4.02 23 02:42 24.11.2019
3603 Clear 9 1024 45 0 5.36 16 01:56 24.11.2019
3604 Clear 9 1024 45 0 5.36 67 01:34 24.11.2019
3605 Clear 11 1024 40 0 1.79 90 00:53 24.11.2019
3606 Clear 11 1024 38 0 2.24 34 00:25 24.11.2019
3607 Clear 11 1024 38 0 2.24 34 00:25 24.11.2019
3608 Clear 11 1024 36 0 3.13 40 23:57 23.11.2019
3609 Clear 11 1024 38 0 1.79 109 23:39 23.11.2019
3610 Clear 11 1024 37 0 2.24 99 23:20 23.11.2019
3611 Clear 11 1024 37 0 2.24 99 23:20 23.11.2019
3612 Clear 11 1024 38 0 1.79 74 22:57 23.11.2019
3613 Clear 11 1024 45 0 2.24 114 22:37 23.11.2019
3614 Clear 11 1024 41 0 3.13 110 22:19 23.11.2019
3615 Clear 12 1024 40 0 2.24 60 21:55 23.11.2019
3616 Clear 11 1024 42 0 2.68 45 21:36 23.11.2019
3617 Clear 11 1025 43 0 0.89 74 21:18 23.11.2019
3618 Clear 11 1026 48 0 1.34 26 20:38 23.11.2019
3619 Clear 11 1026 48 0 1.34 26 20:38 23.11.2019
3620 Clouds 11 1026 48 0 1.34 126 20:20 23.11.2019
3621 Clouds 11 1026 49 0 2.24 45 19:57 23.11.2019
3622 Clouds 10 1026 53 0 3.58 23 19:38 23.11.2019
3623 Clouds 9 1027 54 0 3.58 17 19:19 23.11.2019
3624 Clouds 9 1027 57 0 2.68 31 18:57 23.11.2019
3625 Clouds 9 1027 59 0 4.02 28 18:38 23.11.2019
3626 Clouds 8 1027 61 0 4.02 18 18:19 23.11.2019
3627 Clouds 8 1027 65 0 4.02 23 17:44 23.11.2019
3628 Clouds 7 1027 67 0 4.02 30 17:22 23.11.2019
3629 Clouds 7 1026 69 0 4.02 65 16:57 23.11.2019
3630 Clouds 6 1026 72 0 4.47 24 16:38 23.11.2019
3631 Clouds 6 1026 73 0 3.58 45 16:20 23.11.2019
3632 Clouds 6 1026 73 0 3.13 22 15:59 23.11.2019
3633 Clouds 6 1026 70 0 1.34 18 15:39 23.11.2019
3634 Clouds 6 1026 70 0 1.79 40 15:19 23.11.2019
3635 Clouds 6 1026 69 0 1.79 45 14:57 23.11.2019
3636 Clouds 7 1025 65 0 2.68 50 14:39 23.11.2019
3637 Clear 7 1025 67 0 3.13 50 14:20 23.11.2019
3638 Clear 7 1025 67 0 2.68 40 13:54 23.11.2019
3639 Clear 7 1025 67 0 2.68 40 13:54 23.11.2019
3640 Clear 7 1025 68 0 3.13 40 13:36 23.11.2019
3641 Clear 7 1025 68 0 2.24 56 13:18 23.11.2019
3642 Clear 7 1025 68 0 2.24 56 13:18 23.11.2019
3643 Clear 7 1023 60 0 2.66 10 12:41 23.11.2019
3644 Clear 7 1023 60 0 2.66 10 12:22 23.11.2019
3645 Clear 7 1023 60 0 2.66 10 11:44 23.11.2019
3646 Clear 7 1025 64 0 1.34 40 11:22 23.11.2019
3647 Clear 7 1026 64 0 1.79 50 10:45 23.11.2019
3648 Clear 7 1025 65 0 1.34 33 10:23 23.11.2019
3649 Clear 6 1025 67 0 0.89 45 09:59 23.11.2019
3650 Clear 8 1022 59 0 2.75 6 09:40 23.11.2019
3651 Clear 8 1022 59 0 2.75 6 09:18 23.11.2019
3652 Clear 8 1022 59 0 2.75 6 08:41 23.11.2019
3653 Clouds 7 1025 66 0 1.34 31 08:19 23.11.2019
3654 Clear 7 1025 67 0 0.89 50 07:42 23.11.2019
3655 Clear 4 1025 78 0 1.98 7 06:58 23.11.2019
3656 Clear 4 1025 83 0 1.98 7 06:38 23.11.2019
3657 Clear 4 1025 81 0 1.98 7 06:19 23.11.2019
3658 Clear 5 1025 77 0 1.98 7 05:41 23.11.2019
3659 Clouds 6 1025 74 0 1.47 26 05:22 23.11.2019
3660 Clouds 7 1025 65 0 1.47 26 04:34 23.11.2019
3661 Clouds 7 1024 74 0 1.47 26 03:32 23.11.2019
3662 Clouds 7 1024 74 0 1.34 87 02:39 23.11.2019
3663 Clouds 7 1024 74 0 1.34 87 02:39 23.11.2019
3664 Clouds 8 1024 71 0 0.89 94 01:41 23.11.2019
3665 Clouds 8 1023 67 0 2.24 119 00:49 23.11.2019
3666 Clouds 9 1023 62 0 1.79 99 00:21 23.11.2019
3667 Clouds 10 1023 58 0 0.89 127 23:56 22.11.2019
3668 Clouds 10 1023 58 0 1.34 114 23:37 22.11.2019
3669 Clouds 10 1023 58 0 0.89 131 23:18 22.11.2019
3670 Clouds 10 1023 59 0 1.34 116 22:56 22.11.2019
3671 Clouds 10 1023 62 0 1.34 137 22:37 22.11.2019
3672 Clouds 10 1023 59 0 1.34 117 22:18 22.11.2019
3673 Clouds 10 1023 62 0 0.45 114 21:55 22.11.2019
3674 Clouds 9 1024 64 0 1.34 106 21:36 22.11.2019
3675 Clouds 9 1024 65 0 0.45 139 21:18 22.11.2019
3676 Clouds 9 1024 66 0 0.89 132 20:40 22.11.2019
3677 Clear 9 1024 67 0 1.34 102 20:22 22.11.2019
3678 Clear 9 1025 68 0 0.45 104 19:54 22.11.2019
3679 Clear 8 1025 70 0 0.89 125 19:36 22.11.2019
3680 Clear 8 1025 71 0 1.51 86 19:18 22.11.2019
3681 Clear 7 1025 80 0 0.45 249 18:39 22.11.2019
3682 Clear 6 1025 83 0 0.45 249 18:21 22.11.2019
3683 Clear 6 1025 86 0 1.51 86 17:43 22.11.2019
3684 Clear 6 1025 85 0 0.45 7 17:24 22.11.2019
3685 Clear 4 1025 89 0 0.7 24 16:59 22.11.2019
3686 Clear 4 1025 90 0 0.7 24 16:40 22.11.2019
3687 Clear 4 1025 90 0 0.7 24 16:22 22.11.2019
3688 Clear 3 1024 90 0 0.7 24 15:41 22.11.2019
3689 Clear 3 1024 91 0 0.7 24 15:23 22.11.2019
3690 Clear 3 1024 91 0 0.7 24 14:56 22.11.2019
3691 Clear 3 1023 92 0 0.7 24 14:37 22.11.2019
3692 Clear 3 1023 92 0 0.7 24 14:37 22.11.2019
3693 Clouds 2 1023 91 0 0.32 179 14:19 22.11.2019
3694 Clouds 2 1023 91 0 0.32 179 13:55 22.11.2019
3695 Clouds 2 1022 90 0 0.32 179 13:36 22.11.2019
3696 Clouds 2 1022 90 0 0.17 169 13:18 22.11.2019
3697 Clouds 2 1022 89 0 0.17 169 12:40 22.11.2019
3698 Clouds 3 1022 90 0 0.17 169 12:20 22.11.2019
3699 Clouds 3 1022 89 0 0.17 169 11:59 22.11.2019
3700 Clouds 3 1022 89 0 0.17 169 11:38 22.11.2019
3701 Clouds 3 1022 89 0 0.06 330 11:20 22.11.2019
3702 Clouds 3 1022 86 0 0.06 330 10:58 22.11.2019
3703 Clouds 4 1022 86 0 0.06 330 10:39 22.11.2019
3704 Clouds 4 1022 88 0 0.06 330 10:21 22.11.2019
3705 Clouds 4 1022 88 0 0.06 330 09:55 22.11.2019
3706 Clouds 4 1021 88 0 0.06 330 09:37 22.11.2019
3707 Clouds 4 1021 88 0 0.06 330 09:18 22.11.2019
3708 Clouds 4 1021 90 0 0.06 330 08:44 22.11.2019
3709 Clouds 4 1021 90 0 0.06 330 08:25 22.11.2019
3710 Clouds 4 1020 90 0 0.22 72 07:45 22.11.2019
3711 Clouds 4 1020 91 0 0.22 72 07:23 22.11.2019
3712 Clouds 3 1020 92 0 0.22 72 06:49 22.11.2019
3713 Clouds 3 1020 92 0 0.22 72 06:30 22.11.2019
3714 Clouds 3 1020 91 0 0.22 72 05:49 22.11.2019
3715 Clouds 4 1019 89 0 0.92 122 04:50 22.11.2019
3716 Clouds 4 1017 89 0 1.79 104 02:53 22.11.2019
3717 Clouds 4 1017 90 0 1.79 106 02:31 22.11.2019
3718 Clouds 6 1017 86 0 1.79 130 01:45 22.11.2019
3719 Clouds 6 1016 82 0 0.45 143 01:20 22.11.2019
3720 Clouds 7 1016 78 0 0.45 137 00:53 22.11.2019
3721 Clouds 7 1016 76 0 1.31 107 00:24 22.11.2019
3722 Clouds 6 1016 76 0 0.45 222 23:49 21.11.2019
3723 Clouds 6 1016 77 0 0.45 206 23:31 21.11.2019
3724 Clouds 7 1015 79 0 0.89 121 22:59 21.11.2019
3725 Clouds 6 1015 81 0 0.89 142 22:40 21.11.2019
3726 Clouds 6 1015 81 0 1.34 112 22:22 21.11.2019
3727 Clouds 6 1015 81 0 1.34 112 22:22 21.11.2019
3728 Clouds 6 1015 84 0 1.34 114 21:57 21.11.2019
3729 Clouds 5 1015 84 0 1.79 114 21:38 21.11.2019
3730 Clouds 6 1015 83 0 2.24 125 21:19 21.11.2019
3731 Clouds 6 1015 83 0 0.89 119 20:59 21.11.2019
3732 Clouds 6 1015 80 0 1.34 124 20:39 21.11.2019
3733 Clouds 6 1015 78 0 0.45 146 20:19 21.11.2019
3734 Clouds 6 1015 78 0 0.45 146 20:19 21.11.2019
3735 Clouds 6 1015 78 0 0.45 146 20:19 21.11.2019
3736 Clouds 6 1015 77 0 0.45 158 19:59 21.11.2019
3737 Clouds 6 1015 77 0 1.54 101 19:41 21.11.2019
3738 Clouds 6 1015 77 0 0.89 15 19:23 21.11.2019
3739 Clouds 6 1015 77 0 0.45 50 18:58 21.11.2019
3740 Clouds 5 1015 81 0 1.34 23 18:40 21.11.2019
3741 Clouds 4 1015 88 0 1.54 101 18:20 21.11.2019
3742 Clouds 4 1014 89 0 1.54 101 17:58 21.11.2019
3743 Clouds 3 1014 89 0 1.54 101 17:39 21.11.2019
3744 Clouds 3 1014 89 0 1.54 101 17:39 21.11.2019
3745 Clouds 3 1014 90 0 0.54 340 17:19 21.11.2019
3746 Clouds 2 1013 91 0 0.54 340 16:55 21.11.2019
3747 Clouds 2 1013 91 0 0.54 340 16:37 21.11.2019
3748 Clouds 1 1013 90 0 0.54 340 16:18 21.11.2019
3749 Clouds 1 1012 89 0 0.54 340 15:42 21.11.2019
3750 Clouds 1 1012 87 0 0.54 340 15:20 21.11.2019
3751 Clouds 1 1012 87 0 0.54 340 14:57 21.11.2019
3752 Clouds 1 1011 90 0 0.54 340 14:37 21.11.2019
3753 Clouds 1 1011 91 0 1.18 280 14:19 21.11.2019
3754 Clouds 1 1011 91 0 1.18 280 13:56 21.11.2019
3755 Clouds 1 1010 88 0 1.18 280 13:36 21.11.2019
3756 Clouds 2 1010 88 0 0.82 261 13:18 21.11.2019
3757 Clouds 2 1010 90 0 1.79 3 12:40 21.11.2019
3758 Clouds 2 1010 92 0 0.89 25 12:22 21.11.2019
3759 Clouds 1 1010 92 0 1.34 14 11:55 21.11.2019
3760 Clouds 1 1009 92 0 1.34 16 11:36 21.11.2019
3761 Rain 1 1009 91 0 1.79 357 11:18 21.11.2019
3762 Rain 2 1009 91 0 1.79 18 10:42 21.11.2019
3763 Rain 2 1009 91 0 2.24 33 10:24 21.11.2019
3764 Rain 2 1008 91 0 0.45 10 09:57 21.11.2019
3765 Rain 2 1008 91 0 0.45 11 09:39 21.11.2019
3766 Rain 2 1008 90 0 0.45 349 09:20 21.11.2019
3767 Rain 1 1008 90 0 0.45 348 08:44 21.11.2019
3768 Clouds 2 1007 89 0 1.34 3 08:23 21.11.2019
3769 Clouds 2 1007 89 0 1.79 8 07:45 21.11.2019
3770 Clouds 1 1007 91 0 1.79 10 07:20 21.11.2019
3771 Clouds 1 1007 92 0 0.89 15 06:58 21.11.2019
3772 Clouds 1 1006 93 0 1.25 355 06:37 21.11.2019
3773 Clouds 1 1006 93 0 1.25 355 06:19 21.11.2019
3774 Clear 1 1003 92 0 0.89 354 03:42 21.11.2019
3775 Clear 1 1002 92 0 1.34 4 02:42 21.11.2019
3776 Clear 1 1002 92 0 1.79 4 02:24 21.11.2019
3777 Rain 2 1001 92 0 2.74 259 01:49 21.11.2019
3778 Rain 2 1001 91 0 3.03 265 01:20 21.11.2019
3779 Rain 2 1000 91 0 0.45 359 00:38 21.11.2019
3780 Rain 2 1000 91 0 0.45 150 00:20 21.11.2019
3781 Rain 2 1000 91 0 0.89 121 23:48 20.11.2019
3782 Rain 1 999 91 0 4.56 216 23:22 20.11.2019
3783 Rain 9 998 66 0 4.56 216 22:58 20.11.2019
3784 Rain 9 998 66 0 4.56 216 22:40 20.11.2019
3785 Rain 9 998 66 0 4.56 216 22:19 20.11.2019
3786 Rain 9 998 66 0 4.56 216 21:58 20.11.2019
3787 Rain 9 998 66 0 4.56 216 21:39 20.11.2019
3788 Rain 2 998 87 0 3.13 254 21:20 20.11.2019
3789 Rain 3 997 87 0 2.68 256 20:57 20.11.2019
3790 Rain 4 996 80 0 4.92 227 20:39 20.11.2019
3791 Rain 7 996 72 0 3.58 358 20:21 20.11.2019
3792 Rain 7 995 73 0 3.13 353 19:56 20.11.2019
3793 Rain 6 996 74 0 4.92 355 19:37 20.11.2019
3794 Rain 7 996 72 0 5.36 344 19:19 20.11.2019
3795 Rain 7 996 71 0 4.47 355 18:58 20.11.2019
3796 Rain 7 996 72 0 3.13 332 18:39 20.11.2019
3797 Rain 7 996 72 0 3.13 332 18:39 20.11.2019
3798 Rain 7 996 71 0 2.24 349 18:21 20.11.2019
3799 Rain 7 996 70 0 0.89 25 17:56 20.11.2019
3800 Rain 8 996 71 0 1.93 347 17:38 20.11.2019
3801 Rain 8 996 71 0 1.93 347 17:38 20.11.2019
3802 Rain 7 998 74 0 2.5 283 17:20 20.11.2019
3803 Rain 7 998 74 0 2.5 283 16:57 20.11.2019
3804 Rain 7 998 74 0 2.5 283 16:38 20.11.2019
3805 Rain 7 998 74 0 2.5 283 16:18 20.11.2019
3806 Rain 7 998 74 0 2.5 283 15:55 20.11.2019
3807 Rain 7 998 74 0 2.5 283 15:36 20.11.2019
3808 Rain 7 998 74 0 2.5 283 15:18 20.11.2019
3809 Rain 7 998 74 0 2.5 283 14:40 20.11.2019
3810 Clouds 7 994 57 0 1.79 10 14:22 20.11.2019
3811 Clouds 7 994 57 0 1.79 10 14:22 20.11.2019
3812 Clouds 7 994 57 0 1.79 10 14:22 20.11.2019
3813 Clouds 7 994 57 0 1.79 10 14:22 20.11.2019
3814 Clouds 7 994 57 0 1.79 10 14:22 20.11.2019
3815 Clouds 7 994 59 0 1.79 22 13:58 20.11.2019
3816 Clouds 7 994 64 0 1.34 27 13:39 20.11.2019
3817 Clouds 6 994 73 0 3.37 238 13:20 20.11.2019
3818 Clouds 5 994 72 0 2.71 259 12:57 20.11.2019
3819 Clouds 6 994 68 0 2.71 259 12:37 20.11.2019
3820 Clouds 6 994 69 0 2.71 259 12:19 20.11.2019
3821 Clouds 6 994 70 0 1.34 6 11:45 20.11.2019
3822 Clouds 9 997 67 0 4.21 247 11:22 20.11.2019
3823 Clouds 9 997 67 0 4.21 247 10:56 20.11.2019
3824 Clouds 7 994 56 0 0.45 111 10:38 20.11.2019
3825 Clouds 7 993 56 0 4.21 247 10:20 20.11.2019
3826 Clouds 9 997 67 0 4.21 247 09:55 20.11.2019
3827 Clouds 9 997 67 0 4.21 247 09:37 20.11.2019
3828 Clouds 9 997 67 0 4.21 247 09:18 20.11.2019
3829 Clouds 9 997 67 0 4.21 247 08:39 20.11.2019
3830 Clouds 9 994 56 0 1.34 202 08:21 20.11.2019
3831 Clouds 9 994 55 0 0.89 216 07:48 20.11.2019
3832 Clouds 10 994 56 0 0.89 262 07:28 20.11.2019
3833 Clouds 12 998 47 0 4.37 208 06:50 20.11.2019
3834 Clouds 12 998 47 0 4.37 208 06:22 20.11.2019
3835 Clouds 12 998 47 0 4.37 208 05:52 20.11.2019
3836 Clouds 13 997 36 0 3.58 273 03:55 20.11.2019
3837 Clouds 16 998 27 0 2.24 258 02:23 20.11.2019
3838 Clouds 17 998 23 0 4.02 281 01:35 20.11.2019
3839 Clouds 20 999 16 0 10.74 222 00:44 20.11.2019
3840 Clouds 19 998 15 0 4.47 255 00:18 20.11.2019
3841 Clouds 20 999 13 0 3.13 220 23:40 19.11.2019
3842 Clouds 20 999 12 0 4.02 239 23:22 19.11.2019
3843 Clouds 20 1000 12 0 4.47 269 22:54 19.11.2019
3844 Clouds 20 1000 12 0 4.02 229 22:36 19.11.2019
3845 Clouds 19 1000 12 0 3.58 237 22:18 19.11.2019
3846 Clouds 20 1001 12 0 4.92 243 21:54 19.11.2019
3847 Clouds 20 1001 12 0 4.47 230 21:36 19.11.2019
3848 Clouds 19 1001 13 0 4.47 246 21:18 19.11.2019
3849 Clouds 19 1002 14 0 4.02 258 20:54 19.11.2019
3850 Clouds 19 1002 14 0 4.92 265 20:36 19.11.2019
3851 Clouds 18 1003 14 0 4.47 225 20:18 19.11.2019
3852 Clouds 18 1004 14 0 4.47 267 19:41 19.11.2019
3853 Clouds 18 1004 14 0 4.47 232 19:20 19.11.2019
3854 Clouds 18 1004 14 0 3.58 225 18:57 19.11.2019
3855 Clouds 17 1005 16 0 4.02 202 18:39 19.11.2019
3856 Clouds 17 1005 16 0 4.92 225 18:18 19.11.2019
3857 Clouds 17 1005 16 0 3.58 239 17:57 19.11.2019
3858 Clouds 16 1005 18 0 2.68 213 17:37 19.11.2019
3859 Clouds 13 1007 27 0 2.75 240 17:19 19.11.2019
3860 Clouds 14 1005 20 0 2.75 240 16:57 19.11.2019
3861 Clouds 14 1006 20 0 0.89 112 16:38 19.11.2019
3862 Clouds 13 1007 27 0 2.75 240 16:18 19.11.2019
3863 Clouds 9 1006 26 0 2.75 240 15:44 19.11.2019
3864 Clouds 8 1006 27 0 2.75 240 15:25 19.11.2019
3865 Clouds 9 1006 26 0 2.75 240 14:57 19.11.2019
3866 Clouds 8 1005 28 0 0.45 116 14:39 19.11.2019
3867 Clouds 8 1005 27 0 2.76 241 14:20 19.11.2019
3868 Clouds 9 1006 26 0 2.76 241 13:42 19.11.2019
3869 Clouds 9 1006 26 0 2.76 241 13:42 19.11.2019
3870 Clear 9 1006 27 0 2.82 237 13:20 19.11.2019
3871 Clear 9 1006 26 0 2.82 237 12:54 19.11.2019
3872 Clear 9 1007 25 0 0.89 4 12:36 19.11.2019
3873 Clear 12 1008 31 0 2.82 237 12:18 19.11.2019
3874 Clear 12 1008 31 0 2.82 237 11:54 19.11.2019
3875 Clear 12 1008 31 0 2.82 237 11:36 19.11.2019
3876 Clear 12 1009 45 0 2.35 244 11:18 19.11.2019
3877 Clear 12 1009 45 0 2.35 244 10:42 19.11.2019
3878 Clear 12 1009 45 0 2.35 244 10:20 19.11.2019
3879 Clear 12 1009 45 0 2.35 244 10:20 19.11.2019
3880 Clear 12 1009 45 0 2.35 244 09:43 19.11.2019
3881 Clear 12 1009 45 0 2.35 244 09:21 19.11.2019
3882 Clear 12 1009 45 0 2.35 244 08:57 19.11.2019
3883 Clear 12 1009 45 0 2.35 244 08:39 19.11.2019
3884 Clear 14 1009 21 0 1.34 153 08:20 19.11.2019
3885 Clear 12 1011 53 0 1.89 234 07:42 19.11.2019
3886 Clear 12 1011 53 0 1.89 234 07:24 19.11.2019
3887 Clear 13 1010 21 0 1.79 183 06:58 19.11.2019
3888 Clear 12 1011 53 0 1.89 234 06:37 19.11.2019
3889 Clear 12 1011 53 0 1.89 234 05:52 19.11.2019
3890 Clear 12 1011 21 0 0.78 245 05:18 19.11.2019
3891 Clear 12 1012 21 0 0.78 245 03:39 19.11.2019
3892 Clear 12 1012 58 0 0.78 245 03:19 19.11.2019
3893 Clear 12 1012 58 0 0.78 245 02:45 19.11.2019
3894 Clear 16 1012 17 0 0.89 139 01:48 19.11.2019
3895 Clear 18 1012 15 0 2.24 151 00:48 19.11.2019
3896 Clear 18 1012 15 0 2.24 119 00:19 19.11.2019
3897 Clear 19 1012 14 0 3.13 154 23:40 18.11.2019
3898 Clear 19 1012 14 0 1.79 125 23:19 18.11.2019
3899 Clear 20 1013 14 0 3.13 114 22:46 18.11.2019
3900 Clear 20 1013 14 0 2.68 113 22:24 18.11.2019
3901 Clear 20 1013 14 0 2.24 129 21:59 18.11.2019
3902 Clear 21 1013 14 0 3.13 123 21:40 18.11.2019
3903 Clear 20 1013 14 0 2.68 117 21:21 18.11.2019
3904 Clear 20 1014 14 0 2.68 126 20:59 18.11.2019
3905 Clear 20 1014 14 0 2.68 136 20:41 18.11.2019
3906 Clear 20 1014 14 0 2.68 136 20:41 18.11.2019
3907 Clear 20 1014 14 0 2.24 105 20:19 18.11.2019
3908 Clear 21 1014 14 0 1.79 116 19:57 18.11.2019
3909 Clear 21 1015 14 0 1.34 162 19:38 18.11.2019
3910 Clear 21 1015 14 0 1.34 162 19:38 18.11.2019
3911 Clear 21 1015 14 0 1.34 162 19:38 18.11.2019
3912 Clear 21 1015 14 0 1.34 146 19:20 18.11.2019
3913 Clear 21 1015 14 0 0.89 148 18:56 18.11.2019
3914 Clear 21 1016 14 0 1.66 76 18:38 18.11.2019
3915 Clear 20 1016 14 0 0.45 183 18:19 18.11.2019
3916 Clear 19 1016 15 0 0.45 112 17:56 18.11.2019
3917 Clear 18 1016 16 0 0.45 55 17:37 18.11.2019
3918 Clear 18 1016 17 0 0.45 45 17:19 18.11.2019
3919 Clear 18 1016 17 0 0.45 45 17:19 18.11.2019
3920 Clear 17 1016 17 0 2.24 50 16:43 18.11.2019
3921 Clear 17 1016 17 0 2.24 50 16:43 18.11.2019
3922 Clear 16 1016 19 0 0.45 27 16:24 18.11.2019
3923 Clear 10 1016 27 0 1.79 9 15:59 18.11.2019
3924 Clear 9 1016 27 0 0.92 4 15:40 18.11.2019
3925 Clear 11 1016 24 0 0.92 4 15:21 18.11.2019
3926 Clear 11 1017 30 0 0.92 4 14:58 18.11.2019
3927 Clear 11 1017 30 0 0.92 4 14:39 18.11.2019
3928 Clear 12 1016 40 0 2.23 360 14:20 18.11.2019
3929 Clear 12 1016 40 0 2.23 360 13:43 18.11.2019
3930 Clear 10 1017 51 0 1.61 1 13:25 18.11.2019
3931 Clear 10 1017 51 0 1.61 1 12:45 18.11.2019
3932 Clear 10 1017 51 0 1.61 1 12:20 18.11.2019
3933 Clear 10 1017 51 0 1.61 1 11:58 18.11.2019
3934 Clear 10 1017 51 0 1.61 1 11:40 18.11.2019
3935 Clear 12 1017 23 0 0.89 13 11:22 18.11.2019
3936 Clear 11 1017 24 0 0.89 13 10:44 18.11.2019
3937 Clear 11 1017 24 0 0.89 13 10:26 18.11.2019
3938 Clear 12 1017 23 0 0.89 13 09:59 18.11.2019
3939 Clear 10 1017 54 0 0.89 13 09:39 18.11.2019
3940 Clear 11 1017 24 0 0.89 13 09:20 18.11.2019
3941 Clear 10 1017 54 0 0.89 13 08:58 18.11.2019
3942 Clear 10 1017 54 0 0.89 13 08:40 18.11.2019
3943 Clouds 12 1017 23 0 1.77 4 08:19 18.11.2019
3944 Clouds 12 1018 23 0 1.76 357 07:45 18.11.2019
3945 Clouds 13 1018 21 0 1.76 357 07:26 18.11.2019
3946 Clouds 13 1019 22 0 1.76 357 06:49 18.11.2019
3947 Clouds 12 1019 23 0 1.76 357 06:28 18.11.2019
3948 Clouds 13 1018 22 0 1.76 357 05:45 18.11.2019
3949 Clouds 13 1018 18 0 0.96 344 04:28 18.11.2019
3950 Clear 19 1017 13 0 1.98 56 01:49 18.11.2019
3951 Clear 19 1017 12 0 0.45 116 01:30 18.11.2019
3952 Clear 21 1016 12 0 1.79 129 00:21 18.11.2019
3953 Clear 21 1016 13 0 0.89 113 23:43 17.11.2019
3954 Clear 22 1016 12 0 1.79 109 23:24 17.11.2019
3955 Clear 22 1016 12 0 0.89 173 22:58 17.11.2019
3956 Clear 21 1016 13 0 0.89 129 22:40 17.11.2019
3957 Clear 21 1016 13 0 1.79 108 22:21 17.11.2019
3958 Clear 21 1016 14 0 1.79 119 21:57 17.11.2019
3959 Clear 21 1017 13 0 2.24 101 21:39 17.11.2019
3960 Clear 21 1017 13 0 2.24 108 21:19 17.11.2019
3961 Clear 21 1018 14 0 2.24 90 20:56 17.11.2019
3962 Clear 21 1018 13 0 1.79 69 20:37 17.11.2019
3963 Clear 21 1019 14 0 2.24 135 20:19 17.11.2019
3964 Clear 21 1019 14 0 1.79 105 19:56 17.11.2019
3965 Clear 20 1020 14 0 1.34 147 19:37 17.11.2019
3966 Clear 19 1020 15 0 0.45 127 19:19 17.11.2019
3967 Clear 19 1020 15 0 0.45 108 18:55 17.11.2019
3968 Clear 19 1020 15 0 0.89 111 18:36 17.11.2019
3969 Clear 19 1020 15 0 4.43 39 18:18 17.11.2019
3970 Clear 19 1020 15 0 4.43 39 18:18 17.11.2019
3971 Clear 18 1020 16 0 3.58 16 17:57 17.11.2019
3972 Clear 17 1020 17 0 4.43 39 17:38 17.11.2019
3973 Clear 13 1021 21 0 3.61 16 17:19 17.11.2019
3974 Clear 13 1021 21 0 3.61 16 16:57 17.11.2019
3975 Clear 13 1021 21 0 3.61 16 16:38 17.11.2019
3976 Clear 13 1021 21 0 3.61 16 16:20 17.11.2019
3977 Clear 13 1021 21 0 3.61 16 15:55 17.11.2019
3978 Clear 13 1021 21 0 3.61 16 15:36 17.11.2019
3979 Clear 13 1021 21 0 3.61 16 15:36 17.11.2019
3980 Clear 13 1021 21 0 3.61 16 15:18 17.11.2019
3981 Clear 13 1021 21 0 3.61 16 14:55 17.11.2019
3982 Clear 13 1021 21 0 3.61 16 14:37 17.11.2019
3983 Clear 13 1020 30 0 3.8 2 14:18 17.11.2019
3984 Clear 13 1020 30 0 3.8 2 13:54 17.11.2019
3985 Clear 13 1020 30 0 3.8 2 13:36 17.11.2019
3986 Clear 13 1020 31 0 3.86 2 13:18 17.11.2019
3987 Clear 13 1020 20 0 4.02 14 12:39 17.11.2019
3988 Clear 13 1020 31 0 3.86 2 12:21 17.11.2019
3989 Clear 13 1020 31 0 3.86 2 12:21 17.11.2019
3990 Clear 13 1020 31 0 3.86 2 11:56 17.11.2019
3991 Clear 13 1020 31 0 3.86 2 11:38 17.11.2019
3992 Clear 13 1020 33 0 3.38 358 11:19 17.11.2019
3993 Clear 13 1020 33 0 3.38 358 10:43 17.11.2019
3994 Clear 13 1020 33 0 3.38 358 10:23 17.11.2019
3995 Clear 13 1020 33 0 3.38 358 09:57 17.11.2019
3996 Clear 13 1020 33 0 3.38 358 09:39 17.11.2019
3997 Clear 13 1020 33 0 3.38 358 09:20 17.11.2019
3998 Clear 13 1020 33 0 3.38 358 08:39 17.11.2019
3999 Clear 14 1019 31 0 3.15 360 08:20 17.11.2019
4000 Clear 14 1019 31 0 3.15 360 07:46 17.11.2019
4001 Clear 14 1019 31 0 3.15 360 07:24 17.11.2019
4002 Clear 14 1019 31 0 3.15 360 06:57 17.11.2019
4003 Clear 14 1019 31 0 3.15 360 06:32 17.11.2019
4004 Clear 14 1019 31 0 3.15 360 05:40 17.11.2019
4005 Clear 14 1018 30 0 2.51 333 04:23 17.11.2019
4006 Clear 14 1018 30 0 2.51 333 03:47 17.11.2019
4007 Clear 14 1018 30 0 2.51 333 03:29 17.11.2019
4008 Clear 14 1018 30 0 2.51 333 02:28 17.11.2019
4009 Clouds 18 1018 16 0 4.47 45 01:37 17.11.2019
4010 Clear 19 1018 15 0 3.58 45 00:54 17.11.2019
4011 Clear 19 1018 16 0 4.02 40 00:22 17.11.2019
4012 Clear 20 1018 15 0 3.58 50 23:47 16.11.2019
4013 Clear 20 1018 14 0 0.89 79 23:20 16.11.2019
4014 Clear 20 1018 15 0 4.02 40 22:59 16.11.2019
4015 Clear 20 1018 15 0 4.02 40 22:59 16.11.2019
4016 Clear 20 1018 14 0 2.68 74 22:40 16.11.2019
4017 Clear 20 1018 15 0 3.13 16 22:19 16.11.2019
4018 Clear 20 1018 14 0 3.58 69 21:56 16.11.2019
4019 Clear 19 1019 15 0 5.81 19 21:37 16.11.2019
4020 Clear 20 1019 15 0 4.47 33 21:19 16.11.2019
4021 Clear 19 1019 16 0 3.58 21 20:42 16.11.2019
4022 Clear 19 1020 16 0 3.58 14 20:21 16.11.2019
4023 Clear 19 1020 17 0 3.58 45 19:59 16.11.2019
4024 Clear 19 1020 17 0 4.02 11 19:40 16.11.2019
4025 Clear 17 1020 20 0 2.68 11 19:21 16.11.2019
4026 Clear 17 1020 21 0 3.58 18 18:47 16.11.2019
4027 Clear 16 1020 22 0 4.02 23 18:29 16.11.2019
4028 Clear 15 1020 24 0 3.58 349 17:57 16.11.2019
4029 Clear 14 1020 26 0 2.68 35 17:39 16.11.2019
4030 Clear 13 1020 27 0 4.02 18 17:20 16.11.2019
4031 Clear 13 1020 28 0 3.58 11 16:55 16.11.2019
4032 Clear 11 1020 31 0 3.58 8 16:37 16.11.2019
4033 Clear 11 1020 32 0 4.47 32 16:18 16.11.2019
4034 Clear 10 1020 32 0 5.36 17 15:41 16.11.2019
4035 Clear 10 1019 32 0 4.47 25 15:22 16.11.2019
4036 Clear 10 1019 33 0 4.47 12 14:58 16.11.2019
4037 Clear 11 1019 33 0 4.92 12 14:40 16.11.2019
4038 Clouds 11 1019 32 0 3.13 338 14:21 16.11.2019
4039 Clouds 11 1019 32 0 3.13 338 13:56 16.11.2019
4040 Clouds 10 1019 32 0 2.24 341 13:38 16.11.2019
4041 Clear 11 1019 32 0 2.68 333 13:18 16.11.2019
4042 Clear 11 1019 32 0 2.24 322 12:55 16.11.2019
4043 Clear 11 1019 32 0 1.34 339 12:36 16.11.2019
4044 Clear 11 1019 31 0 1.79 345 12:18 16.11.2019
4045 Clear 11 1019 30 0 3.58 304 11:42 16.11.2019
4046 Clear 12 1019 30 0 4.02 349 11:23 16.11.2019
4047 Clouds 11 1019 31 0 2.24 335 10:56 16.11.2019
4048 Clouds 11 1019 31 0 1.34 335 10:37 16.11.2019
4049 Clouds 11 1019 31 0 2.24 279 10:19 16.11.2019
4050 Clouds 10 1018 55 0 1.79 355 09:42 16.11.2019
4051 Clouds 10 1018 55 0 1.79 355 09:20 16.11.2019
4052 Clouds 10 1018 55 0 1.79 355 08:58 16.11.2019
4053 Clouds 10 1018 55 0 1.79 355 08:37 16.11.2019
4054 Clouds 11 1018 34 0 1.22 359 08:18 16.11.2019
4055 Clouds 13 1019 28 0 1.79 349 07:41 16.11.2019
4056 Clouds 13 1019 28 0 1.79 349 07:41 16.11.2019
4057 Clouds 11 1018 32 0 0.45 211 07:20 16.11.2019
4058 Clouds 12 1018 31 0 0.89 308 06:45 16.11.2019
4059 Clouds 12 1018 31 0 1.34 349 06:26 16.11.2019
4060 Clouds 9 1018 39 0 0.89 320 04:50 16.11.2019
4061 Clouds 11 1017 30 0 0.88 288 03:42 16.11.2019
4062 Clouds 11 1017 30 0 0.88 288 03:23 16.11.2019
4063 Clouds 15 1016 29 0 0.89 27 01:47 16.11.2019
4064 Clouds 18 1016 24 0 1.34 24 01:19 16.11.2019
4065 Clouds 18 1016 21 0 0.44 20 00:42 16.11.2019
4066 Clouds 18 1016 21 0 0.44 20 00:22 16.11.2019
4067 Clouds 18 1016 21 0 0.44 20 23:40 15.11.2019
4068 Clouds 20 1016 18 0 1.57 103 23:21 15.11.2019
4069 Clouds 19 1016 25 0 1.34 27 22:55 15.11.2019
4070 Clouds 19 1016 25 0 1.34 27 22:55 15.11.2019
4071 Clouds 19 1016 26 0 0.89 73 22:37 15.11.2019
4072 Clouds 19 1016 26 0 1.79 56 22:18 15.11.2019
4073 Clouds 19 1016 26 0 1.79 56 22:18 15.11.2019
4074 Clouds 21 1016 24 0 1.34 83 21:42 15.11.2019
4075 Clouds 20 1017 24 0 1.34 33 21:21 15.11.2019
4076 Clouds 20 1017 25 0 1.34 50 20:59 15.11.2019
4077 Clouds 19 1017 25 0 1.79 40 20:40 15.11.2019
4078 Clouds 18 1019 21 0 0.89 121 20:22 15.11.2019
4079 Clouds 18 1019 21 0 0.89 121 19:59 15.11.2019
4080 Clouds 18 1019 21 0 0.89 121 19:41 15.11.2019
4081 Clouds 18 1019 21 0 0.89 121 19:21 15.11.2019
4082 Clouds 18 1019 21 0 0.89 121 18:59 15.11.2019
4083 Clouds 17 1018 29 0 0.45 68 18:41 15.11.2019
4084 Clouds 16 1018 32 0 0.89 87 18:22 15.11.2019
4085 Clouds 16 1018 32 0 0.89 121 17:54 15.11.2019
4086 Clouds 15 1018 33 0 0.45 294 17:36 15.11.2019
4087 Clouds 14 1018 37 0 0.45 295 17:18 15.11.2019
4088 Clouds 11 1018 44 0 1.77 277 16:40 15.11.2019
4089 Clouds 6 1017 53 0 1.77 277 16:22 15.11.2019
4090 Clouds 6 1017 52 0 1.77 277 15:57 15.11.2019
4091 Clouds 6 1017 51 0 1.77 277 15:36 15.11.2019
4092 Clouds 7 1017 48 0 1.77 277 15:18 15.11.2019
4093 Clouds 7 1017 50 0 0.45 313 14:55 15.11.2019
4094 Clouds 7 1017 52 0 0.45 69 14:36 15.11.2019
4095 Clouds 6 1017 51 0 0.45 69 14:18 15.11.2019
4096 Clouds 6 1017 51 0 2.18 260 13:54 15.11.2019
4097 Clouds 6 1016 50 0 0.45 71 13:36 15.11.2019
4098 Clouds 7 1016 48 0 0.89 6 13:18 15.11.2019
4099 Clouds 7 1016 46 0 2.3 254 12:55 15.11.2019
4100 Clouds 9 1016 43 0 2.3 254 12:36 15.11.2019
4101 Clouds 10 1018 47 0 2.3 254 12:18 15.11.2019
4102 Clouds 10 1018 47 0 2.3 254 11:39 15.11.2019
4103 Clouds 10 1017 39 0 0.45 27 11:21 15.11.2019
4104 Clouds 10 1017 39 0 1.79 81 10:57 15.11.2019
4105 Clouds 14 1017 33 0 2.8 252 10:39 15.11.2019
4106 Clouds 11 1017 35 0 2.8 252 10:20 15.11.2019
4107 Clouds 14 1017 33 0 2.8 252 09:41 15.11.2019
4108 Clouds 14 1017 33 0 2.8 252 09:20 15.11.2019
4109 Clouds 14 1017 33 0 2.8 252 08:57 15.11.2019
4110 Clouds 14 1017 33 0 2.8 252 08:57 15.11.2019
4111 Clouds 14 1017 33 0 2.8 252 08:39 15.11.2019
4112 Clouds 13 1018 28 0 0.89 85 08:20 15.11.2019
4113 Clouds 13 1018 32 0 1.34 119 07:42 15.11.2019
4114 Clouds 14 1018 33 0 2.53 222 07:23 15.11.2019
4115 Clouds 14 1018 33 0 2.53 222 06:36 15.11.2019
4116 Clouds 14 1018 33 0 2.53 222 05:52 15.11.2019
4117 Clouds 14 1018 33 0 2.53 222 05:31 15.11.2019
4118 Clouds 13 1017 31 0 0.89 64 04:45 15.11.2019
4119 Clouds 14 1017 26 0 2.3 219 03:39 15.11.2019
4120 Clouds 14 1017 26 0 2.3 219 02:34 15.11.2019
4121 Clouds 15 1017 22 0 1.34 81 01:51 15.11.2019
4122 Clouds 16 1017 21 0 1.34 87 01:32 15.11.2019
4123 Clouds 16 1017 21 0 1.34 87 01:32 15.11.2019
4124 Clouds 20 1015 16 0 2.89 213 00:40 15.11.2019
4125 Clouds 20 1015 16 0 2.89 213 00:21 15.11.2019
4126 Clouds 20 1015 16 0 2.89 213 23:46 14.11.2019
4127 Clouds 19 1016 17 0 3.58 21 23:26 14.11.2019
4128 Clouds 20 1016 17 0 2.68 69 22:42 14.11.2019
4129 Clouds 22 1016 15 0 1.79 35 22:23 14.11.2019
4130 Clouds 22 1016 15 0 1.79 35 21:58 14.11.2019
4131 Clouds 22 1016 14 0 2.24 58 21:40 14.11.2019
4132 Clouds 22 1016 14 0 2.24 58 21:40 14.11.2019
4133 Clouds 22 1016 14 0 2.24 58 21:40 14.11.2019
4134 Clouds 23 1017 14 0 2.68 9 21:22 14.11.2019
4135 Clouds 23 1017 14 0 1.79 36 20:55 14.11.2019
4136 Clouds 22 1017 15 0 1.79 50 20:37 14.11.2019
4137 Clouds 20 1018 19 0 2.01 151 20:19 14.11.2019
4138 Clouds 20 1018 19 0 2.01 151 19:56 14.11.2019
4139 Clouds 21 1018 17 0 1.79 56 19:37 14.11.2019
4140 Clouds 20 1018 17 0 1.34 50 19:18 14.11.2019
4141 Clouds 19 1018 19 0 0.89 40 18:42 14.11.2019
4142 Clouds 17 1018 21 0 1.34 62 18:24 14.11.2019
4143 Clouds 16 1018 22 0 1.34 354 17:58 14.11.2019
4144 Clouds 17 1018 21 0 0.89 63 17:38 14.11.2019
4145 Clouds 16 1018 23 0 0.89 26 17:20 14.11.2019
4146 Clouds 13 1018 28 0 0.45 40 16:58 14.11.2019
4147 Clouds 13 1018 28 0 0.45 40 16:58 14.11.2019
4148 Clouds 13 1018 28 0 0.45 40 16:58 14.11.2019
4149 Clouds 13 1018 28 0 0.45 40 16:58 14.11.2019
4150 Clouds 8 1018 35 0 0.31 207 16:37 14.11.2019
4151 Clouds 8 1018 35 0 0.31 207 16:19 14.11.2019
4152 Clouds 7 1018 36 0 0.31 207 15:58 14.11.2019
4153 Clouds 8 1017 34 0 0.31 207 15:38 14.11.2019
4154 Clouds 8 1017 35 0 0.31 207 15:20 14.11.2019
4155 Clouds 8 1017 35 0 0.31 207 14:57 14.11.2019
4156 Clouds 8 1017 35 0 0.31 207 14:38 14.11.2019
4157 Clouds 7 1016 35 0 0.34 265 14:20 14.11.2019
4158 Clouds 7 1016 35 0 0.34 265 13:42 14.11.2019
4159 Clouds 7 1016 35 0 0.27 283 13:23 14.11.2019
4160 Clouds 8 1016 35 0 0.27 283 12:57 14.11.2019
4161 Clouds 8 1016 33 0 0.27 283 12:39 14.11.2019
4162 Clouds 8 1016 34 0 0.27 283 12:21 14.11.2019
4163 Clouds 8 1016 34 0 0.27 283 11:55 14.11.2019
4164 Clouds 7 1016 35 0 0.27 283 11:37 14.11.2019
4165 Clouds 7 1016 35 0 0.48 277 11:18 14.11.2019
4166 Clouds 7 1016 35 0 0.48 277 10:56 14.11.2019
4167 Clouds 7 1016 37 0 0.48 277 10:37 14.11.2019
4168 Clouds 7 1016 36 0 0.48 277 10:19 14.11.2019
4169 Clouds 7 1016 36 0 0.48 277 09:42 14.11.2019
4170 Clouds 11 1015 32 0 0.48 277 09:24 14.11.2019
4171 Clouds 11 1015 32 0 0.48 277 08:59 14.11.2019
4172 Clouds 11 1015 32 0 0.48 277 08:40 14.11.2019
4173 Clouds 11 1015 33 0 0.74 269 08:22 14.11.2019
4174 Clouds 11 1015 33 0 0.74 269 07:42 14.11.2019
4175 Clouds 11 1015 33 0 0.74 269 07:24 14.11.2019
4176 Clouds 11 1015 33 0 0.74 269 06:46 14.11.2019
4177 Clouds 11 1015 33 0 0.74 269 06:21 14.11.2019
4178 Clouds 11 1015 33 0 0.74 269 05:40 14.11.2019
4179 Clouds 13 1014 29 0 0.7 232 04:38 14.11.2019
4180 Clouds 13 1014 29 0 0.7 232 03:47 14.11.2019
4181 Clouds 13 1014 29 0 0.7 232 02:39 14.11.2019
4182 Clouds 19 1013 19 0 1 157 01:41 14.11.2019
4183 Clouds 19 1013 18 0 0.99 162 00:58 14.11.2019
4184 Clouds 19 1013 18 0 0.99 162 00:39 14.11.2019
4185 Clouds 19 1013 18 0 0.99 162 00:20 14.11.2019
4186 Clouds 19 1013 18 0 0.99 162 23:39 13.11.2019
4187 Clouds 22 1013 15 0 1.8 133 23:20 13.11.2019
4188 Clouds 22 1013 15 0 1.8 133 22:55 13.11.2019
4189 Clouds 22 1013 15 0 1.8 133 22:37 13.11.2019
4190 Clouds 22 1013 15 0 1.8 133 22:19 13.11.2019
4191 Clouds 24 1015 13 0 0.89 58 21:55 13.11.2019
4192 Clouds 24 1015 13 0 0.89 58 21:36 13.11.2019
4193 Clouds 24 1015 13 0 0.89 58 21:18 13.11.2019
4194 Clouds 24 1015 13 0 0.45 45 20:55 13.11.2019
4195 Clouds 24 1015 13 0 0.45 45 20:37 13.11.2019
4196 Clouds 24 1015 13 0 0.45 45 20:37 13.11.2019
4197 Clouds 20 1016 18 0 1.17 124 20:18 13.11.2019
4198 Clouds 20 1016 18 0 1.17 124 19:42 13.11.2019
4199 Clouds 20 1016 18 0 1.17 124 19:19 13.11.2019
4200 Clouds 20 1017 18 0 0.45 216 18:56 13.11.2019
4201 Clouds 20 1017 18 0 1.34 340 18:38 13.11.2019
4202 Clouds 19 1017 19 0 0.89 322 18:19 13.11.2019
4203 Clouds 19 1017 19 0 0.89 322 18:19 13.11.2019
4204 Clouds 17 1017 21 0 1.34 324 17:57 13.11.2019
4205 Clouds 16 1017 22 0 2.24 316 17:38 13.11.2019
4206 Clear 16 1017 23 0 1.34 316 17:19 13.11.2019
4207 Clouds 16 1017 22 0 2.24 333 16:58 13.11.2019
4208 Clear 16 1017 22 0 2.24 319 16:39 13.11.2019
4209 Clear 16 1017 22 0 2.24 319 16:39 13.11.2019
4210 Clear 11 1015 34 0 0.61 31 16:21 13.11.2019
4211 Clear 11 1015 34 0 0.61 31 15:57 13.11.2019
4212 Clear 12 1016 27 0 0.89 300 15:38 13.11.2019
4213 Clouds 12 1016 27 0 0.89 285 15:20 13.11.2019
4214 Clear 12 1016 27 0 1.34 347 14:42 13.11.2019
4215 Clouds 9 1016 60 0 0.59 350 14:22 13.11.2019
4216 Clouds 9 1016 60 0 0.59 350 13:57 13.11.2019
4217 Clouds 9 1016 59 0 0.4 315 13:36 13.11.2019
4218 Clouds 9 1016 60 0 0.59 350 13:18 13.11.2019
4219 Clouds 9 1016 60 0 0.59 350 12:54 13.11.2019
4220 Clouds 9 1016 60 0 0.59 350 12:36 13.11.2019
4221 Clouds 9 1016 60 0 0.59 350 12:18 13.11.2019
4222 Clouds 7 1017 36 0 0.89 337 11:40 13.11.2019
4223 Clouds 6 1017 38 0 0.98 314 11:19 13.11.2019
4224 Clouds 6 1017 37 0 0.98 314 10:58 13.11.2019
4225 Clouds 6 1017 39 0 0.98 314 10:39 13.11.2019
4226 Clouds 6 1017 38 0 0.98 314 10:19 13.11.2019
4227 Clouds 6 1017 37 0 0.98 314 09:45 13.11.2019
4228 Clouds 7 1017 34 0 0.98 314 09:24 13.11.2019
4229 Clouds 7 1017 36 0 0.98 314 08:59 13.11.2019
4230 Clouds 7 1018 36 0 0.98 314 08:37 13.11.2019
4231 Clouds 6 1018 36 0 0.57 319 08:19 13.11.2019
4232 Clouds 7 1018 34 0 0.57 319 07:42 13.11.2019
4233 Clouds 7 1018 34 0 0.57 319 07:42 13.11.2019
4234 Clouds 7 1018 34 0 0.57 319 07:20 13.11.2019
4235 Clouds 8 1018 32 0 0.57 319 06:46 13.11.2019
4236 Clouds 8 1018 31 0 0.57 319 06:19 13.11.2019
4237 Clouds 8 1018 31 0 0.57 319 06:19 13.11.2019
4238 Clouds 8 1018 31 0 0.57 319 06:19 13.11.2019
4239 Clouds 9 1018 31 0 0.57 319 05:53 13.11.2019
4240 Clouds 9 1018 30 0 0.57 319 05:34 13.11.2019
4241 Clouds 10 1018 27 0 0.74 266 04:43 13.11.2019
4242 Clouds 15 1017 20 0 1.34 121 02:19 13.11.2019
4243 Clouds 17 1017 19 0 1.34 121 01:44 13.11.2019
4244 Clear 21 1016 19 0 1.52 127 00:44 13.11.2019
4245 Clear 21 1016 19 0 1.52 127 00:26 13.11.2019
4246 Clear 21 1016 19 0 1.52 127 23:42 12.11.2019
4247 Clear 21 1016 19 0 1.52 127 23:42 12.11.2019
4248 Clear 22 1017 18 0 1.86 117 23:21 12.11.2019
4249 Clear 22 1017 18 0 1.86 117 22:55 12.11.2019
4250 Clear 22 1017 18 0 1.86 117 22:37 12.11.2019
4251 Clear 22 1017 18 0 1.86 117 22:18 12.11.2019
4252 Clear 25 1017 12 0 1.79 79 21:44 12.11.2019
4253 Clear 25 1017 13 0 1.79 54 21:25 12.11.2019
4254 Clear 25 1018 12 0 1.34 40 20:58 12.11.2019
4255 Clear 25 1018 13 0 1.34 50 20:37 12.11.2019
4256 Clear 20 1020 19 0 1.97 74 20:19 12.11.2019
4257 Clear 20 1020 19 0 1.97 74 19:57 12.11.2019
4258 Clear 20 1020 19 0 1.97 74 19:39 12.11.2019
4259 Clear 20 1020 19 0 1.97 74 19:19 12.11.2019
4260 Clear 20 1020 19 0 1.97 74 18:59 12.11.2019
4261 Clear 23 1020 15 0 0.89 90 18:40 12.11.2019
4262 Clear 21 1020 16 0 0.45 103 18:22 12.11.2019
4263 Clear 21 1020 17 0 0.45 216 17:57 12.11.2019
4264 Clear 18 1020 19 0 1.97 74 17:39 12.11.2019
4265 Clear 17 1020 21 0 1.93 5 17:21 12.11.2019
4266 Clear 15 1020 24 0 1.93 5 16:57 12.11.2019
4267 Clear 9 1020 34 0 1.93 5 16:39 12.11.2019
4268 Clear 8 1020 36 0 1.93 5 16:20 12.11.2019
4269 Clear 7 1019 36 0 1.93 5 15:41 12.11.2019
4270 Clear 8 1019 33 0 1.93 5 15:21 12.11.2019
4271 Clear 8 1019 34 0 1.93 5 14:56 12.11.2019
4272 Clear 7 1019 36 0 0.45 2 14:37 12.11.2019
4273 Clear 7 1019 38 0 2.4 3 14:19 12.11.2019
4274 Clear 6 1019 38 0 2.4 3 13:56 12.11.2019
4275 Clear 6 1019 36 0 2.4 3 13:37 12.11.2019
4276 Clear 7 1018 35 0 2.45 360 13:18 12.11.2019
4277 Clear 7 1018 33 0 2.39 359 12:42 12.11.2019
4278 Clear 8 1018 31 0 2.39 359 12:20 12.11.2019
4279 Clear 7 1019 33 0 2.39 359 11:59 12.11.2019
4280 Clear 8 1018 32 0 2.39 359 11:40 12.11.2019
4281 Clear 8 1018 32 0 2.39 359 11:40 12.11.2019
4282 Clouds 7 1019 32 0 0.45 343 11:22 12.11.2019
4283 Clouds 8 1019 32 0 2.41 2 10:56 12.11.2019
4284 Clouds 8 1019 30 0 2.41 2 10:37 12.11.2019
4285 Clear 13 1019 28 0 2.75 356 10:19 12.11.2019
4286 Clouds 13 1019 28 0 2.41 2 09:42 12.11.2019
4287 Clear 13 1019 28 0 2.75 356 09:23 12.11.2019
4288 Clouds 13 1019 28 0 2.41 2 08:57 12.11.2019
4289 Clear 9 1019 29 0 2.75 356 08:39 12.11.2019
4290 Clouds 9 1019 28 0 2.51 357 08:19 12.11.2019
4291 Clouds 10 1018 27 0 2.11 354 07:40 12.11.2019
4292 Clouds 10 1018 27 0 2.11 354 07:40 12.11.2019
4293 Clouds 10 1018 27 0 2.11 354 07:22 12.11.2019
4294 Clouds 11 1018 26 0 2.11 354 06:45 12.11.2019
4295 Clouds 12 1018 23 0 2.11 354 06:23 12.11.2019
4296 Clouds 13 1020 28 0 2.11 354 05:46 12.11.2019
4297 Clouds 16 1018 24 0 2.91 352 04:50 12.11.2019
4298 Clouds 16 1018 24 0 2.91 352 04:50 12.11.2019
4299 Clouds 16 1018 24 0 2.91 352 03:48 12.11.2019
4300 Clouds 20 1016 14 0 1.79 353 01:49 12.11.2019
4301 Clouds 22 1018 16 0 2.63 42 01:22 12.11.2019
4302 Clouds 22 1018 16 0 2.63 42 01:22 12.11.2019
4303 Clouds 22 1018 16 0 2.55 42 00:48 12.11.2019
4304 Clouds 22 1018 16 0 2.55 42 00:29 12.11.2019
4305 Clouds 22 1018 16 0 2.55 42 23:47 11.11.2019
4306 Clouds 22 1018 16 0 2.55 42 23:24 11.11.2019
4307 Clouds 23 1017 14 0 3.97 53 22:58 11.11.2019
4308 Clouds 23 1017 14 0 3.97 53 22:37 11.11.2019
4309 Clouds 23 1017 14 0 3.97 53 22:18 11.11.2019
4310 Clouds 23 1017 14 0 3.97 53 21:57 11.11.2019
4311 Clouds 23 1017 14 0 3.97 53 21:38 11.11.2019
4312 Clouds 23 1017 14 0 3.97 53 21:19 11.11.2019
4313 Clouds 23 1017 14 0 3.97 53 20:44 11.11.2019
4314 Clear 21 1019 15 0 3.65 48 20:21 11.11.2019
4315 Clear 21 1019 15 0 3.65 48 19:59 11.11.2019
4316 Clear 21 1019 15 0 3.65 48 19:41 11.11.2019
4317 Clear 21 1019 15 0 3.65 48 19:19 11.11.2019
4318 Clear 21 1019 15 0 3.65 48 18:57 11.11.2019
4319 Clear 21 1018 10 0 4.02 356 18:38 11.11.2019
4320 Clear 21 1018 10 0 2.68 320 18:19 11.11.2019
4321 Clear 19 1018 13 0 1.34 250 17:42 11.11.2019
4322 Clear 21 1019 15 0 3.65 48 17:24 11.11.2019
4323 Clear 14 1018 17 0 0.45 304 16:45 11.11.2019
4324 Clear 14 1017 18 0 0.45 187 16:24 11.11.2019
4325 Clear 12 1017 19 0 0.89 299 15:59 11.11.2019
4326 Clear 14 1016 17 0 1.34 313 15:41 11.11.2019
4327 Clear 13 1016 18 0 1.79 347 15:20 11.11.2019
4328 Clear 13 1016 18 0 2.24 328 14:54 11.11.2019
4329 Clear 12 1016 19 0 2.24 294 14:36 11.11.2019
4330 Clear 12 1016 19 0 1.79 320 14:18 11.11.2019
4331 Clear 12 1016 18 0 1.79 319 13:39 11.11.2019
4332 Clear 12 1016 19 0 1.79 306 13:21 11.11.2019
4333 Clear 12 1016 18 0 2.24 305 12:58 11.11.2019
4334 Clear 13 1016 16 0 1.79 327 12:40 11.11.2019
4335 Clear 14 1015 16 0 2.24 345 12:22 11.11.2019
4336 Clear 14 1015 16 0 2.24 307 11:55 11.11.2019
4337 Clear 14 1015 16 0 2.68 337 11:37 11.11.2019
4338 Clear 14 1015 16 0 3.13 324 11:19 11.11.2019
4339 Clear 13 1015 16 0 2.68 288 10:42 11.11.2019
4340 Clear 14 1015 14 0 1.79 330 10:18 11.11.2019
4341 Clear 14 1015 14 0 1.79 331 09:56 11.11.2019
4342 Clear 15 1016 15 0 1.79 332 09:37 11.11.2019
4343 Clear 15 1015 14 0 2.24 1 09:18 11.11.2019
4344 Clear 15 1015 13 0 1.79 342 08:40 11.11.2019
4345 Clear 15 1015 13 0 1.79 342 08:40 11.11.2019
4346 Clouds 11 1017 45 0 1.68 331 08:21 11.11.2019
4347 Clouds 11 1016 45 0 1.56 318 07:56 11.11.2019
4348 Clouds 11 1016 45 0 1.56 318 07:37 11.11.2019
4349 Clouds 11 1016 45 0 1.56 318 07:18 11.11.2019
4350 Clouds 11 1016 45 0 1.56 318 06:46 11.11.2019
4351 Clouds 11 1016 45 0 1.56 318 06:22 11.11.2019
4352 Clouds 11 1016 45 0 1.56 318 05:51 11.11.2019
4353 Clouds 11 1015 34 0 1.34 265 04:30 11.11.2019
4354 Clouds 11 1015 34 0 1.34 265 03:23 11.11.2019
4355 Clouds 17 1015 9 0 0.45 342 02:24 11.11.2019
4356 Clouds 17 1015 9 0 0.45 342 02:24 11.11.2019
4357 Clouds 18 1014 8 0 0.89 349 01:55 11.11.2019
4358 Clouds 19 1014 9 0 0.81 151 01:34 11.11.2019
4359 Clouds 19 1014 9 0 0.81 151 00:48 11.11.2019
4360 Clouds 19 1014 9 0 0.81 151 00:21 11.11.2019
4361 Clouds 19 1014 9 0 0.81 151 23:40 10.11.2019
4362 Clouds 19 1014 9 0 0.81 151 23:40 10.11.2019
4363 Clouds 19 1014 9 0 0.81 151 23:40 10.11.2019
4364 Clear 23 1014 7 0 1.87 89 23:20 10.11.2019
4365 Clear 23 1014 7 0 1.87 89 22:58 10.11.2019
4366 Clear 23 1014 7 0 1.87 89 22:39 10.11.2019
4367 Clear 23 1014 7 0 1.87 89 22:20 10.11.2019
4368 Clear 23 1014 7 0 1.87 89 21:59 10.11.2019
4369 Clear 23 1014 7 0 1.87 89 21:40 10.11.2019
4370 Clear 26 1015 5 0 1.34 7 21:21 10.11.2019
4371 Clear 24 1015 6 0 0.89 223 20:58 10.11.2019
4372 Clear 23 1016 6 0 0.45 264 20:39 10.11.2019
4373 Clear 21 1017 7 0 1.34 86 20:21 10.11.2019
4374 Clear 21 1017 7 0 1.34 86 19:55 10.11.2019
4375 Clear 21 1017 7 0 1.34 86 19:37 10.11.2019
4376 Clear 21 1017 7 0 1.34 86 19:18 10.11.2019
4377 Clear 21 1017 7 0 1.34 86 19:18 10.11.2019
4378 Clear 21 1017 7 0 1.34 86 18:55 10.11.2019
4379 Clear 21 1017 7 0 1.79 321 18:37 10.11.2019
4380 Clear 19 1017 8 0 2.24 348 18:19 10.11.2019
4381 Clear 19 1017 8 0 2.24 348 18:19 10.11.2019
4382 Clear 19 1017 9 0 2.24 329 17:55 10.11.2019
4383 Clear 21 1017 7 0 1.34 86 17:37 10.11.2019
4384 Clear 10 1017 15 0 1.06 339 17:19 10.11.2019
4385 Clear 14 1017 12 0 1.34 225 16:44 10.11.2019
4386 Clear 12 1017 16 0 1.06 339 16:26 10.11.2019
4387 Clear 11 1017 15 0 1.06 339 15:57 10.11.2019
4388 Clear 12 1017 14 0 2.24 316 15:38 10.11.2019
4389 Clear 11 1017 15 0 2.68 313 15:19 10.11.2019
4390 Clear 11 1017 15 0 2.68 313 15:19 10.11.2019
4391 Clear 11 1017 15 0 1.34 309 14:59 10.11.2019
4392 Clear 12 1017 14 0 0.45 302 14:39 10.11.2019
4393 Clear 8 1017 48 0 0.74 293 14:21 10.11.2019
4394 Clear 8 1017 48 0 0.74 293 13:56 10.11.2019
4395 Clear 8 1017 48 0 0.74 293 13:38 10.11.2019
4396 Clear 8 1017 49 0 0.78 289 13:19 10.11.2019
4397 Clear 8 1017 49 0 0.78 289 12:42 10.11.2019
4398 Clear 8 1017 49 0 0.78 289 12:20 10.11.2019
4399 Clear 8 1017 49 0 0.78 289 12:20 10.11.2019
4400 Clear 8 1017 49 0 0.78 289 11:57 10.11.2019
4401 Clear 8 1017 49 0 0.78 289 11:38 10.11.2019
4402 Clear 9 1017 49 0 1.19 323 11:20 10.11.2019
4403 Clear 9 1017 49 0 1.19 323 10:56 10.11.2019
4404 Clear 9 1017 49 0 1.19 323 10:38 10.11.2019
4405 Clear 9 1017 49 0 1.19 323 10:38 10.11.2019
4406 Clear 8 1017 17 0 1.34 338 10:19 10.11.2019
4407 Clear 5 1017 20 0 0.45 40 09:42 10.11.2019
4408 Clear 6 1017 19 0 1.19 323 09:22 10.11.2019
4409 Clear 6 1017 19 0 1.19 323 08:40 10.11.2019
4410 Clear 6 1017 19 0 1.6 302 08:21 10.11.2019
4411 Clear 6 1017 19 0 1.38 300 07:58 10.11.2019
4412 Clear 6 1018 19 0 1.38 300 07:38 10.11.2019
4413 Clear 6 1018 18 0 1.38 300 07:18 10.11.2019
4414 Clear 8 1017 17 0 1.38 300 06:25 10.11.2019
4415 Clear 10 1017 16 0 1.57 276 04:46 10.11.2019
4416 Clear 12 1017 34 0 1.57 276 03:19 10.11.2019
4417 Clear 20 1016 10 0 0.62 103 01:44 10.11.2019
4418 Clear 20 1016 9 0 0.91 114 01:19 10.11.2019
4419 Clear 20 1016 9 0 0.91 114 00:40 10.11.2019
4420 Clear 20 1016 9 0 0.91 114 23:43 09.11.2019
4421 Clear 23 1016 7 0 1.75 97 23:21 09.11.2019
4422 Clear 23 1016 7 0 1.75 97 22:59 09.11.2019
4423 Clear 23 1016 7 0 1.75 97 22:40 09.11.2019
4424 Clear 23 1016 7 0 1.75 97 22:20 09.11.2019
4425 Clear 23 1016 7 0 1.75 97 21:55 09.11.2019
4426 Clear 23 1016 7 0 1.75 97 21:37 09.11.2019
4427 Clear 23 1016 7 0 1.75 97 21:19 09.11.2019
4428 Clear 23 1016 7 0 1.75 97 20:41 09.11.2019
4429 Clear 22 1021 7 0 1.57 74 20:22 09.11.2019
4430 Clear 22 1021 7 0 1.57 74 19:57 09.11.2019
4431 Clear 22 1021 7 0 1.57 74 19:38 09.11.2019
4432 Clear 22 1021 7 0 1.57 74 19:20 09.11.2019
4433 Clear 22 1020 8 0 1.34 331 18:41 09.11.2019
4434 Clear 21 1020 9 0 1.34 320 18:19 09.11.2019
4435 Clear 19 1021 9 0 2.24 329 17:59 09.11.2019
4436 Clear 22 1021 7 0 1.57 74 17:40 09.11.2019
4437 Clear 11 1020 14 0 1.46 359 17:22 09.11.2019
4438 Clear 11 1020 14 0 1.46 359 16:43 09.11.2019
4439 Clear 11 1020 14 0 1.46 359 16:22 09.11.2019
4440 Clear 11 1020 14 0 1.46 359 15:58 09.11.2019
4441 Clear 11 1020 14 0 1.46 359 15:40 09.11.2019
4442 Clear 11 1020 14 0 1.46 359 15:21 09.11.2019
4443 Clear 12 1020 15 0 2.24 342 14:43 09.11.2019
4444 Clear 9 1020 46 0 1.42 10 14:22 09.11.2019
4445 Clear 9 1020 46 0 1.42 10 13:57 09.11.2019
4446 Clear 9 1020 46 0 1.42 10 13:39 09.11.2019
4447 Clear 8 1020 47 0 1.38 11 13:19 09.11.2019
4448 Clear 8 1020 47 0 1.38 11 12:56 09.11.2019
4449 Clear 8 1020 47 0 1.38 11 12:38 09.11.2019
4450 Clear 8 1020 47 0 1.38 11 12:19 09.11.2019
4451 Clear 8 1020 47 0 1.38 11 11:47 09.11.2019
4452 Clear 8 1021 19 0 0.89 331 11:21 09.11.2019
4453 Clear 8 1021 20 0 1.23 351 10:56 09.11.2019
4454 Clear 7 1021 20 0 1.23 351 10:38 09.11.2019
4455 Clear 7 1021 20 0 1.23 351 10:18 09.11.2019
4456 Clear 7 1021 20 0 1.23 351 09:43 09.11.2019
4457 Clear 6 1022 21 0 1.23 351 09:21 09.11.2019
4458 Clear 6 1022 21 0 1.23 351 08:53 09.11.2019
4459 Clear 7 1022 21 0 1.23 351 08:26 09.11.2019
4460 Clear 6 1022 21 0 1.55 339 07:57 09.11.2019
4461 Clear 6 1022 21 0 1.55 339 07:57 09.11.2019
4462 Clear 7 1023 20 0 1.55 339 07:39 09.11.2019
4463 Clear 7 1023 20 0 1.55 339 07:20 09.11.2019
4464 Clear 8 1023 19 0 1.55 339 06:46 09.11.2019
4465 Clear 9 1023 18 0 1.55 339 06:28 09.11.2019
4466 Clear 11 1022 45 0 1.55 339 05:40 09.11.2019
4467 Clear 13 1023 14 0 0.89 355 04:30 09.11.2019
4468 Clear 12 1020 41 0 1.6 347 02:57 09.11.2019
4469 Clear 12 1020 41 0 1.6 347 02:38 09.11.2019
4470 Clear 20 1022 8 0 0.45 13 01:40 09.11.2019
4471 Clear 21 1020 9 0 1.31 38 00:46 09.11.2019
4472 Clear 21 1020 9 0 1.31 38 00:27 09.11.2019
4473 Clear 21 1020 9 0 1.31 38 23:42 08.11.2019
4474 Clear 23 1020 7 0 2.55 66 23:23 08.11.2019
4475 Clear 23 1020 7 0 2.55 66 22:59 08.11.2019
4476 Clear 23 1020 7 0 2.55 66 22:40 08.11.2019
4477 Clear 23 1020 7 0 2.55 66 22:21 08.11.2019
4478 Clear 23 1020 7 0 2.55 66 21:43 08.11.2019
4479 Clear 23 1020 7 0 2.55 66 21:24 08.11.2019
4480 Clear 23 1020 7 0 2.55 66 20:59 08.11.2019
4481 Clear 23 1020 7 0 2.55 66 20:41 08.11.2019
4482 Clear 22 1024 9 0 2.6 59 20:20 08.11.2019
4483 Clear 22 1024 8 0 2.52 55 19:56 08.11.2019
4484 Clear 22 1024 8 0 2.52 55 19:37 08.11.2019
4485 Clear 22 1024 8 0 2.52 55 19:18 08.11.2019
4486 Clear 22 1024 8 0 2.52 55 18:55 08.11.2019
4487 Clear 22 1024 8 0 2.52 55 18:55 08.11.2019
4488 Clear 21 1025 11 0 0.89 257 18:37 08.11.2019
4489 Clear 19 1025 12 0 1.34 334 18:18 08.11.2019
4490 Clear 22 1024 8 0 2.52 55 17:55 08.11.2019
4491 Clear 18 1025 13 0 2.24 333 17:36 08.11.2019
4492 Clear 12 1023 16 0 1.69 5 17:18 08.11.2019
4493 Clear 12 1023 16 0 1.69 5 16:57 08.11.2019
4494 Clear 12 1023 16 0 1.69 5 16:57 08.11.2019
4495 Clear 15 1025 15 0 2.24 356 16:38 08.11.2019
4496 Clear 12 1023 16 0 1.69 5 16:19 08.11.2019
4497 Clear 12 1023 16 0 1.69 5 15:56 08.11.2019
4498 Clear 12 1023 16 0 1.69 5 15:38 08.11.2019
4499 Clear 10 1024 19 0 1.34 314 15:19 08.11.2019
4500 Clear 7 1023 23 0 0.89 316 14:55 08.11.2019
4501 Clear 4 1023 26 0 0.45 3 14:36 08.11.2019
4502 Clear 4 1023 26 0 0.45 3 14:36 08.11.2019
4503 Clear 5 1023 25 0 1.1 5 14:18 08.11.2019
4504 Clear 7 1023 22 0 1.1 5 13:42 08.11.2019
4505 Clear 7 1023 22 0 1.16 1 13:22 08.11.2019
4506 Clear 7 1023 22 0 1.16 1 13:22 08.11.2019
4507 Clear 7 1023 22 0 1.16 1 13:22 08.11.2019
4508 Clear 6 1023 25 0 0.89 343 12:58 08.11.2019
4509 Clear 5 1023 26 0 1.16 1 12:39 08.11.2019
4510 Clear 6 1023 26 0 1.16 1 12:21 08.11.2019
4511 Clear 6 1022 25 0 1.16 1 11:55 08.11.2019
4512 Clear 7 1022 25 0 1.16 1 11:37 08.11.2019
4513 Clear 7 1023 25 0 1.43 354 11:19 08.11.2019
4514 Clear 6 1023 27 0 1.43 354 10:43 08.11.2019
4515 Clear 10 1022 49 0 1.43 354 10:22 08.11.2019
4516 Clear 10 1022 49 0 1.43 354 09:59 08.11.2019
4517 Clear 10 1022 49 0 1.43 354 09:40 08.11.2019
4518 Clear 10 1022 49 0 1.43 354 09:20 08.11.2019
4519 Clear 10 1022 49 0 1.43 354 08:46 08.11.2019
4520 Clear 10 1022 49 0 1.43 354 08:25 08.11.2019
4521 Clear 10 1022 51 0 1.2 335 07:57 08.11.2019
4522 Clear 10 1022 51 0 1.2 335 07:39 08.11.2019
4523 Clear 10 1022 51 0 1.2 335 07:20 08.11.2019
4524 Clear 10 1022 51 0 1.2 335 06:40 08.11.2019
4525 Clear 10 1022 51 0 1.2 335 06:20 08.11.2019
4526 Clear 10 1022 51 0 1.2 335 05:40 08.11.2019
4527 Clear 11 1021 37 0 1.1 325 04:43 08.11.2019
4528 Clear 11 1021 37 0 1.1 325 03:44 08.11.2019
4529 Clear 11 1021 37 0 1.1 325 03:21 08.11.2019
4530 Clear 11 1021 37 0 1.1 325 02:41 08.11.2019
4531 Clear 21 1019 11 0 0.95 102 01:46 08.11.2019
4532 Clear 21 1019 11 0 0.95 102 01:22 08.11.2019
4533 Clear 21 1019 11 0 1.14 104 00:24 08.11.2019
4534 Clear 21 1019 11 0 1.14 104 00:24 08.11.2019
4535 Clear 21 1019 11 0 1.14 104 23:58 07.11.2019
4536 Clear 21 1019 11 0 1.14 104 23:40 07.11.2019
4537 Clear 23 1018 9 0 2.16 96 23:21 07.11.2019
4538 Clear 23 1018 9 0 2.16 96 22:42 07.11.2019
4539 Clear 23 1018 9 0 2.16 96 22:22 07.11.2019
4540 Clear 23 1018 9 0 2.16 96 22:22 07.11.2019
4541 Clear 23 1018 9 0 2.16 96 21:56 07.11.2019
4542 Clear 23 1018 9 0 2.16 96 21:37 07.11.2019
4543 Clear 23 1018 9 0 2.16 96 21:19 07.11.2019
4544 Clear 23 1018 9 0 2.16 96 20:58 07.11.2019
4545 Clear 23 1018 9 0 2.16 96 20:39 07.11.2019
4546 Clear 21 1021 11 0 2.57 61 20:21 07.11.2019
4547 Clear 22 1021 12 0 2.44 62 19:56 07.11.2019
4548 Clear 22 1021 12 0 2.44 62 19:37 07.11.2019
4549 Clear 22 1021 12 0 2.44 62 19:18 07.11.2019
4550 Clear 22 1021 12 0 2.44 62 18:55 07.11.2019
4551 Clear 21 1021 12 0 0.89 82 18:37 07.11.2019
4552 Clear 21 1021 13 0 0.89 245 18:19 07.11.2019
4553 Clear 20 1021 13 0 0.89 322 17:40 07.11.2019
4554 Clouds 13 1020 23 0 1.95 357 17:22 07.11.2019
4555 Clouds 17 1021 17 0 1.34 301 16:58 07.11.2019
4556 Clouds 16 1021 17 0 1.34 293 16:40 07.11.2019
4557 Clouds 12 1020 22 0 0.45 327 16:20 07.11.2019
4558 Clouds 11 1020 22 0 0.45 345 15:58 07.11.2019
4559 Clouds 12 1020 20 0 0.89 333 15:39 07.11.2019
4560 Clouds 13 1020 23 0 1.95 357 15:19 07.11.2019
4561 Clouds 12 1019 21 0 1.34 339 14:45 07.11.2019
4562 Clouds 11 1019 22 0 1.34 318 14:27 07.11.2019
4563 Clouds 9 1019 22 0 1.18 7 13:57 07.11.2019
4564 Clouds 10 1018 54 0 1.18 7 13:39 07.11.2019
4565 Clouds 10 1018 54 0 1.18 7 13:21 07.11.2019
4566 Clouds 10 1018 52 0 1.31 5 12:58 07.11.2019
4567 Clouds 10 1018 52 0 1.31 5 12:40 07.11.2019
4568 Clouds 7 1018 28 0 1.31 5 12:22 07.11.2019
4569 Clouds 6 1018 29 0 1.31 5 11:59 07.11.2019
4570 Clouds 6 1018 29 0 1.31 5 11:40 07.11.2019
4571 Clear 7 1019 28 0 1.16 6 11:21 07.11.2019
4572 Clear 8 1019 26 0 1.16 6 10:41 07.11.2019
4573 Clear 9 1018 25 0 0.45 147 10:19 07.11.2019
4574 Clear 7 1018 30 0 0.89 1 09:44 07.11.2019
4575 Clear 6 1018 30 0 1.16 6 09:23 07.11.2019
4576 Clear 6 1018 30 0 1.16 6 08:57 07.11.2019
4577 Clear 6 1018 30 0 1.16 6 08:56 07.11.2019
4578 Clear 7 1018 30 0 1.16 6 08:38 07.11.2019
4579 Clear 7 1018 29 0 0.45 175 08:19 07.11.2019
4580 Clear 6 1017 32 0 1.23 310 07:42 07.11.2019
4581 Clear 7 1018 31 0 1.23 310 07:22 07.11.2019
4582 Clear 7 1018 30 0 1.23 310 07:00 07.11.2019
4583 Clear 7 1017 29 0 1.23 310 06:41 07.11.2019
4584 Clear 7 1017 29 0 1.23 310 06:41 07.11.2019
4585 Clear 8 1017 29 0 1.23 310 06:22 07.11.2019
4586 Clear 8 1017 27 0 1.23 310 05:47 07.11.2019
4587 Clear 8 1017 29 0 1.23 310 05:29 07.11.2019
4588 Clear 8 1016 27 0 1.31 264 04:49 07.11.2019
4589 Clear 9 1016 26 0 1.31 264 04:27 07.11.2019
4590 Clouds 22 1013 15 0 1.14 100 01:18 07.11.2019
4591 Clouds 22 1013 15 0 1.14 100 00:26 07.11.2019
4592 Clouds 22 1013 15 0 1.14 100 23:50 06.11.2019
4593 Clouds 23 1013 14 0 1.91 95 23:23 06.11.2019
4594 Clouds 23 1013 14 0 1.91 95 22:59 06.11.2019
4595 Clouds 23 1013 14 0 1.91 95 22:39 06.11.2019
4596 Clouds 23 1013 14 0 1.91 95 22:20 06.11.2019
4597 Clouds 23 1013 14 0 1.91 95 21:57 06.11.2019
4598 Clouds 23 1013 14 0 1.91 95 21:39 06.11.2019
4599 Clouds 23 1013 14 0 1.91 95 21:19 06.11.2019
4600 Clouds 23 1013 14 0 1.91 95 20:56 06.11.2019
4601 Clouds 23 1013 14 0 1.91 95 20:38 06.11.2019
4602 Clear 21 1016 16 0 1.45 98 20:19 06.11.2019
4603 Clear 21 1016 16 0 1.45 98 19:56 06.11.2019
4604 Clear 21 1016 16 0 1.45 98 19:36 06.11.2019
4605 Clear 21 1016 16 0 1.45 98 19:18 06.11.2019
4606 Clear 21 1016 16 0 1.45 98 18:54 06.11.2019
4607 Clear 21 1017 14 0 1.45 98 18:36 06.11.2019
4608 Clear 20 1017 15 0 1.45 98 18:18 06.11.2019
4609 Clear 18 1017 16 0 0.45 223 17:41 06.11.2019
4610 Clear 12 1017 30 0 0.41 8 17:23 06.11.2019
4611 Clear 16 1018 19 0 0.45 312 16:57 06.11.2019
4612 Clear 14 1017 21 0 0.89 314 16:39 06.11.2019
4613 Clear 12 1017 30 0 0.41 8 16:20 06.11.2019
4614 Clear 12 1017 30 0 0.41 8 15:57 06.11.2019
4615 Clear 12 1017 30 0 0.41 8 15:37 06.11.2019
4616 Clear 12 1017 30 0 0.41 8 15:19 06.11.2019
4617 Clear 12 1017 30 0 0.41 8 15:19 06.11.2019
4618 Clear 12 1017 30 0 0.41 8 14:57 06.11.2019
4619 Clear 11 1017 25 0 2.24 331 14:39 06.11.2019
4620 Clear 6 1017 36 0 1.34 343 14:20 06.11.2019
4621 Clear 4 1017 36 0 1.13 349 13:58 06.11.2019
4622 Clear 4 1017 37 0 1.13 349 13:37 06.11.2019
4623 Clear 4 1017 36 0 1.22 352 13:18 06.11.2019
4624 Clear 5 1016 35 0 1.22 352 12:55 06.11.2019
4625 Clear 5 1017 34 0 1.22 352 12:37 06.11.2019
4626 Clear 5 1017 35 0 1.22 352 12:18 06.11.2019
4627 Clear 5 1017 35 0 1.22 352 11:55 06.11.2019
4628 Clear 5 1017 33 0 1.22 352 11:36 06.11.2019
4629 Clear 6 1017 33 0 1.15 346 11:18 06.11.2019
4630 Clear 6 1017 32 0 1.15 346 10:42 06.11.2019
4631 Clear 6 1017 32 0 1.15 346 10:24 06.11.2019
4632 Clear 6 1017 32 0 1.15 346 09:58 06.11.2019
4633 Clear 6 1017 32 0 1.15 346 09:58 06.11.2019
4634 Clear 6 1017 32 0 1.15 346 09:58 06.11.2019
4635 Clear 4 1017 33 0 1.15 346 09:40 06.11.2019
4636 Clear 6 1017 31 0 1.15 346 09:20 06.11.2019
4637 Clear 6 1017 31 0 1.15 346 08:56 06.11.2019
4638 Clear 6 1017 30 0 1.15 346 08:37 06.11.2019
4639 Clear 6 1017 31 0 1.13 304 08:18 06.11.2019
4640 Clear 7 1017 29 0 1.13 304 07:45 06.11.2019
4641 Clear 7 1017 28 0 1.13 304 07:27 06.11.2019
4642 Clear 7 1017 28 0 1.13 304 06:53 06.11.2019
4643 Clear 7 1017 27 0 1.13 304 06:34 06.11.2019
4644 Clear 8 1017 26 0 1.13 304 05:51 06.11.2019
4645 Clear 12 1016 31 0 0.92 308 03:38 06.11.2019
4646 Clear 19 1016 14 0 1.79 28 01:42 06.11.2019
4647 Clear 21 1015 14 0 1.39 92 00:48 06.11.2019
4648 Clear 21 1015 14 0 1.39 92 00:48 06.11.2019
4649 Clear 21 1015 14 0 1.39 92 00:25 06.11.2019
4650 Clear 21 1015 14 0 1.39 92 23:41 05.11.2019
4651 Clear 21 1016 12 0 2.24 59 23:22 05.11.2019
4652 Clear 21 1016 13 0 3.13 107 22:59 05.11.2019
4653 Clear 21 1016 13 0 3.13 107 22:41 05.11.2019
4654 Clear 21 1016 12 0 2.68 106 22:19 05.11.2019
4655 Clear 21 1016 13 0 2.24 129 21:55 05.11.2019
4656 Clear 21 1017 13 0 2.24 110 21:37 05.11.2019
4657 Clear 21 1017 13 0 1.79 134 21:19 05.11.2019
4658 Clear 21 1017 13 0 1.34 141 20:56 05.11.2019
4659 Clear 21 1018 13 0 0.89 92 20:38 05.11.2019
4660 Clear 21 1018 13 0 0.45 58 20:19 05.11.2019
4661 Clear 20 1018 14 0 1.79 18 19:42 05.11.2019
4662 Clear 19 1018 14 0 2.24 14 19:23 05.11.2019
4663 Clear 19 1018 15 0 1.79 4 18:59 05.11.2019
4664 Clear 18 1019 15 0 2.68 14 18:40 05.11.2019
4665 Clear 18 1019 16 0 3.13 353 18:22 05.11.2019
4666 Clear 17 1019 16 0 2.24 351 17:59 05.11.2019
4667 Clear 17 1019 17 0 2.68 355 17:39 05.11.2019
4668 Clear 13 1019 16 0 1.97 0 17:20 05.11.2019
4669 Clear 13 1019 16 0 1.97 0 16:58 05.11.2019
4670 Clear 14 1018 20 0 1.97 0 16:40 05.11.2019
4671 Clear 13 1018 21 0 1.97 0 16:20 05.11.2019
4672 Clear 12 1018 22 0 1.79 6 15:41 05.11.2019
4673 Clear 13 1018 21 0 2.24 16 15:20 05.11.2019
4674 Clear 13 1018 21 0 1.34 16 14:59 05.11.2019
4675 Clear 13 1018 20 0 1.79 10 14:41 05.11.2019
4676 Clear 13 1018 20 0 2.24 25 14:22 05.11.2019
4677 Clear 13 1018 20 0 3.13 45 13:58 05.11.2019
4678 Clear 13 1018 19 0 2.24 20 13:40 05.11.2019
4679 Clear 13 1018 18 0 3.13 12 13:22 05.11.2019
4680 Clear 13 1018 17 0 2.68 8 12:40 05.11.2019
4681 Clear 10 1018 35 0 1.88 357 12:22 05.11.2019
4682 Clear 10 1018 35 0 1.88 357 11:57 05.11.2019
4683 Clear 10 1018 35 0 1.88 357 11:38 05.11.2019
4684 Clear 13 1017 20 0 1.79 40 11:19 05.11.2019
4685 Clear 9 1017 24 0 1.09 355 10:48 05.11.2019
4686 Clear 10 1017 23 0 1.09 355 10:27 05.11.2019
4687 Clear 11 1017 22 0 1.09 355 09:59 05.11.2019
4688 Clear 10 1017 24 0 1.09 355 09:41 05.11.2019
4689 Clear 12 1017 20 0 1.09 355 09:21 05.11.2019
4690 Clear 12 1017 20 0 1.09 355 08:59 05.11.2019
4691 Clear 12 1017 20 0 1.09 355 08:59 05.11.2019
4692 Clear 13 1017 18 0 1.09 355 08:37 05.11.2019
4693 Clear 11 1017 35 0 1.16 348 08:19 05.11.2019
4694 Clear 11 1017 36 0 1.1 346 07:55 05.11.2019
4695 Clear 11 1017 20 0 1.1 346 07:36 05.11.2019
4696 Clear 11 1018 19 0 1.1 346 07:18 05.11.2019
4697 Clear 12 1017 18 0 1.1 346 06:40 05.11.2019
4698 Clear 11 1017 36 0 1.1 346 05:51 05.11.2019
4699 Clear 12 1016 12 0 1.36 269 05:21 05.11.2019
4700 Clear 13 1016 15 0 0.89 31 04:24 05.11.2019
4701 Clear 12 1016 12 0 1.36 269 03:33 05.11.2019
4702 Clear 12 1016 12 0 1.36 269 02:43 05.11.2019
4703 Clear 18 1015 10 0 1.32 122 01:57 05.11.2019
4704 Clear 21 1015 8 0 0.89 114 00:49 05.11.2019
4705 Clear 21 1015 8 0 1.34 115 00:27 05.11.2019
4706 Clear 21 1015 8 0 1.79 134 23:43 04.11.2019
4707 Clear 21 1015 8 0 1.79 107 23:20 04.11.2019
4708 Clear 21 1015 8 0 1.34 138 22:59 04.11.2019
4709 Clear 21 1015 8 0 2.24 102 22:40 04.11.2019
4710 Clear 21 1015 8 0 2.24 102 22:40 04.11.2019
4711 Clear 21 1015 8 0 1.34 100 22:22 04.11.2019
4712 Clear 21 1015 8 0 1.79 86 21:56 04.11.2019
4713 Clear 21 1015 9 0 2.68 100 21:37 04.11.2019
4714 Clear 21 1015 9 0 2.68 126 21:19 04.11.2019
4715 Clear 21 1015 9 0 1.79 85 20:58 04.11.2019
4716 Clear 21 1016 9 0 1.34 140 20:39 04.11.2019
4717 Clear 21 1016 9 0 1.79 129 20:21 04.11.2019
4718 Clear 21 1016 9 0 1.79 171 19:58 04.11.2019
4719 Clear 20 1016 9 0 1.79 345 19:40 04.11.2019
4720 Clear 19 1016 9 0 0.89 352 19:21 04.11.2019
4721 Clear 19 1016 10 0 2.68 355 18:56 04.11.2019
4722 Clear 18 1016 10 0 1.79 5 18:38 04.11.2019
4723 Clear 18 1017 10 0 2.24 19 18:19 04.11.2019
4724 Clear 16 1017 11 0 2.68 28 17:39 04.11.2019
4725 Clear 16 1017 11 0 2.68 28 17:39 04.11.2019
4726 Clear 16 1017 11 0 2.24 4 17:21 04.11.2019
4727 Clear 15 1017 11 0 2.24 6 16:57 04.11.2019
4728 Clear 14 1017 13 0 1.79 18 16:39 04.11.2019
4729 Clear 13 1016 13 0 2.24 16 16:20 04.11.2019
4730 Clear 13 1016 12 0 2.68 7 15:55 04.11.2019
4731 Clear 13 1016 12 0 1.79 30 15:36 04.11.2019
4732 Clear 12 1016 12 0 2.24 36 15:18 04.11.2019
4733 Clear 13 1016 11 0 2.24 23 14:41 04.11.2019
4734 Clear 8 1015 49 0 1.08 354 14:21 04.11.2019
4735 Clear 8 1015 49 0 1.08 354 13:59 04.11.2019
4736 Clear 8 1015 49 0 1.08 354 13:41 04.11.2019
4737 Clear 8 1015 49 0 1.1 358 13:22 04.11.2019
4738 Clear 8 1015 49 0 1.1 358 12:59 04.11.2019
4739 Clear 8 1015 49 0 1.1 358 12:41 04.11.2019
4740 Clear 8 1015 49 0 1.1 358 12:22 04.11.2019
4741 Clear 8 1015 49 0 1.1 358 11:57 04.11.2019
4742 Clear 8 1015 49 0 1.1 358 11:38 04.11.2019
4743 Clear 9 1014 48 0 0.83 359 11:20 04.11.2019
4744 Clear 9 1014 48 0 0.83 359 10:44 04.11.2019
4745 Clear 9 1014 48 0 0.83 359 10:25 04.11.2019
4746 Clear 9 1014 48 0 0.83 359 09:54 04.11.2019
4747 Clear 9 1014 48 0 0.83 359 09:36 04.11.2019
4748 Clear 9 1015 14 0 0.83 359 09:18 04.11.2019
4749 Clear 9 1015 13 0 0.83 359 08:41 04.11.2019
4750 Clear 11 1015 12 0 1.12 284 08:21 04.11.2019
4751 Clear 10 1015 12 0 1.12 284 07:45 04.11.2019
4752 Clear 9 1015 13 0 1.12 284 07:25 04.11.2019
4753 Clear 10 1015 12 0 1.12 284 06:59 04.11.2019
4754 Clear 9 1015 13 0 1.12 284 06:36 04.11.2019
4755 Clear 10 1015 12 0 1.12 284 05:59 04.11.2019
4756 Clear 12 1015 10 0 1.32 253 04:50 04.11.2019
4757 Clear 12 1015 10 0 1.32 253 04:25 04.11.2019
4758 Clear 12 1013 13 0 1.32 253 02:59 04.11.2019
4759 Clear 18 1014 6 0 2.24 102 01:22 04.11.2019
4760 Clear 19 1014 5 0 2.24 115 00:52 04.11.2019
4761 Clear 20 1014 5 0 2.24 93 00:21 04.11.2019
4762 Clear 21 1014 6 0 2.24 114 23:58 03.11.2019
4763 Clear 21 1014 5 0 2.68 134 23:37 03.11.2019
4764 Clear 21 1014 5 0 2.68 113 23:18 03.11.2019
4765 Clear 21 1014 5 0 2.68 113 23:18 03.11.2019
4766 Clear 21 1014 5 0 2.68 113 23:18 03.11.2019
4767 Clear 21 1014 5 0 2.68 100 22:56 03.11.2019
4768 Clear 22 1014 5 0 2.24 94 22:38 03.11.2019
4769 Clear 22 1014 6 0 2.24 122 22:18 03.11.2019
4770 Clear 21 1015 6 0 1.79 90 21:42 03.11.2019
4771 Clear 21 1015 6 0 1.79 112 21:21 03.11.2019
4772 Clear 21 1016 6 0 0.89 147 20:57 03.11.2019
4773 Clear 21 1016 6 0 0.89 120 20:37 03.11.2019
4774 Clear 21 1016 6 0 1.7 54 20:19 03.11.2019
4775 Clear 21 1017 6 0 0.89 176 19:57 03.11.2019
4776 Clear 20 1017 6 0 1.7 54 19:38 03.11.2019
4777 Clear 19 1017 7 0 1.7 54 19:20 03.11.2019
4778 Clear 19 1017 7 0 1.7 54 18:54 03.11.2019
4779 Clear 18 1018 7 0 0.45 136 18:36 03.11.2019
4780 Clear 18 1018 7 0 0.45 136 18:36 03.11.2019
4781 Clear 18 1018 7 0 0.45 12 18:18 03.11.2019
4782 Clear 17 1018 8 0 1.34 351 17:42 03.11.2019
4783 Clear 16 1018 8 0 2.24 18 17:20 03.11.2019
4784 Clear 16 1018 8 0 2.24 16 16:57 03.11.2019
4785 Clear 14 1018 9 0 1.79 18 16:39 03.11.2019
4786 Clear 11 1017 13 0 1.22 354 16:21 03.11.2019
4787 Clear 11 1017 13 0 1.22 354 15:57 03.11.2019
4788 Clear 12 1017 10 0 2.24 26 15:39 03.11.2019
4789 Clear 12 1017 10 0 2.24 26 15:39 03.11.2019
4790 Clear 12 1017 10 0 2.24 26 15:21 03.11.2019
4791 Clear 11 1017 13 0 1.22 354 14:42 03.11.2019
4792 Clear 8 1016 47 0 1.33 12 14:20 03.11.2019
4793 Clear 8 1016 47 0 1.33 12 13:59 03.11.2019
4794 Clear 8 1016 47 0 1.33 12 13:40 03.11.2019
4795 Clear 8 1017 47 0 1.19 9 13:18 03.11.2019
4796 Clear 8 1017 47 0 1.19 9 12:54 03.11.2019
4797 Clear 8 1017 47 0 1.19 9 12:36 03.11.2019
4798 Clear 8 1017 47 0 1.19 9 12:18 03.11.2019
4799 Clear 8 1017 47 0 1.19 9 11:42 03.11.2019
4800 Clear 9 1017 37 0 1.27 12 11:21 03.11.2019
4801 Clear 9 1017 37 0 1.27 12 10:55 03.11.2019
4802 Clear 7 1019 15 0 1.27 12 10:37 03.11.2019
4803 Clear 7 1019 15 0 1.27 12 10:18 03.11.2019
4804 Clear 8 1019 14 0 1.27 12 09:43 03.11.2019
4805 Clear 8 1019 14 0 1.27 12 09:43 03.11.2019
4806 Clear 9 1019 13 0 1.27 12 09:24 03.11.2019
4807 Clear 8 1019 14 0 1.27 12 08:56 03.11.2019
4808 Clear 10 1019 12 0 1.27 12 08:37 03.11.2019
4809 Clear 10 1019 12 0 0.81 326 08:19 03.11.2019
4810 Clear 9 1019 13 0 0.81 326 07:45 03.11.2019
4811 Clear 9 1019 12 0 0.81 326 07:22 03.11.2019
4812 Clear 9 1018 37 0 0.81 326 06:39 03.11.2019
4813 Clear 9 1018 37 0 0.81 326 05:54 03.11.2019
4814 Clear 9 1018 37 0 0.81 326 05:34 03.11.2019
4815 Clear 11 1019 10 0 0.79 338 04:53 03.11.2019
4816 Clear 12 1019 10 0 0.79 338 04:26 03.11.2019
4817 Clear 10 1018 19 0 0.79 338 03:23 03.11.2019
4818 Clear 16 1019 7 0 0.89 94 02:23 03.11.2019
4819 Clear 16 1019 7 0 1.34 100 01:55 03.11.2019
4820 Clear 17 1019 6 0 1.79 104 01:36 03.11.2019
4821 Clear 17 1019 6 0 2.24 94 01:18 03.11.2019
4822 Clear 18 1019 6 0 2.68 98 00:38 03.11.2019
4823 Clear 18 1019 5 0 2.24 103 00:20 03.11.2019
4824 Clear 18 1019 6 0 3.13 85 23:56 02.11.2019
4825 Clear 19 1019 5 0 3.58 117 23:36 02.11.2019
4826 Clear 19 1020 5 0 3.13 96 23:18 02.11.2019
4827 Clear 19 1020 5 0 2.24 106 22:54 02.11.2019
4828 Clear 19 1020 5 0 2.68 141 22:36 02.11.2019
4829 Clear 19 1020 5 0 3.13 102 22:18 02.11.2019
4830 Clear 19 1020 5 0 3.13 102 22:18 02.11.2019
4831 Clear 19 1020 5 0 2.24 124 21:55 02.11.2019
4832 Clear 18 1021 5 0 2.24 114 21:36 02.11.2019
4833 Clear 18 1021 5 0 2.24 114 21:18 02.11.2019
4834 Clear 18 1021 5 0 2.24 114 21:18 02.11.2019
4835 Clear 18 1021 5 0 2.24 114 21:18 02.11.2019
4836 Clear 18 1021 5 0 2.24 114 21:18 02.11.2019
4837 Clear 18 1021 5 0 1.79 130 20:55 02.11.2019
4838 Clear 18 1022 6 0 2.24 129 20:37 02.11.2019
4839 Clear 18 1022 5 0 1.34 128 20:18 02.11.2019
4840 Clear 18 1023 6 0 0.45 147 19:39 02.11.2019
4841 Clear 18 1023 6 0 0.45 145 19:20 02.11.2019
4842 Clear 18 1023 6 0 0.89 165 18:56 02.11.2019
4843 Clear 17 1024 6 0 2.8 55 18:37 02.11.2019
4844 Clear 17 1024 6 0 0.45 174 18:19 02.11.2019
4845 Clear 17 1024 6 0 2.8 55 17:56 02.11.2019
4846 Clear 17 1024 6 0 2.8 55 17:56 02.11.2019
4847 Clear 17 1024 7 0 2.8 55 17:37 02.11.2019
4848 Clear 16 1024 8 0 2.45 12 17:18 02.11.2019
4849 Clear 14 1024 9 0 2.45 12 16:56 02.11.2019
4850 Clear 11 1024 12 0 2.45 12 16:36 02.11.2019
4851 Clear 9 1024 12 0 2.45 12 16:18 02.11.2019
4852 Clear 9 1024 12 0 2.45 12 16:18 02.11.2019
4853 Clear 8 1023 13 0 2.45 12 15:41 02.11.2019
4854 Clear 6 1023 14 0 2.45 12 15:19 02.11.2019
4855 Clear 6 1023 13 0 2.45 12 14:42 02.11.2019
4856 Clear 7 1023 13 0 2.1 18 14:23 02.11.2019
4857 Clear 7 1024 12 0 2.1 18 13:57 02.11.2019
4858 Clear 7 1024 12 0 2.1 18 13:57 02.11.2019
4859 Clear 8 1024 11 0 2.1 18 13:38 02.11.2019
4860 Clear 8 1024 11 0 2.11 13 13:18 02.11.2019
4861 Clear 8 1023 11 0 2.11 13 12:41 02.11.2019
4862 Clear 8 1024 10 0 2.11 13 12:22 02.11.2019
4863 Clear 8 1024 10 0 2.11 13 12:22 02.11.2019
4864 Clear 9 1024 10 0 2.11 13 11:57 02.11.2019
4865 Clear 8 1024 10 0 2.11 13 11:39 02.11.2019
4866 Clear 7 1024 10 0 1.65 22 11:20 02.11.2019
4867 Clear 7 1024 9 0 1.65 22 10:48 02.11.2019
4868 Clear 7 1024 9 0 1.65 22 10:28 02.11.2019
4869 Clear 8 1024 8 0 1.65 22 09:58 02.11.2019
4870 Clear 8 1024 8 0 1.65 22 09:39 02.11.2019
4871 Clear 8 1024 8 0 1.65 22 09:19 02.11.2019
4872 Clear 8 1024 8 0 1.65 22 09:19 02.11.2019
4873 Clear 9 1024 7 0 1.65 22 08:45 02.11.2019
4874 Clear 9 1024 7 0 1.65 22 08:45 02.11.2019
4875 Clear 9 1024 7 0 1 18 08:22 02.11.2019
4876 Clear 9 1025 6 0 1 18 07:48 02.11.2019
4877 Clear 9 1025 6 0 1 18 07:29 02.11.2019
4878 Clear 9 1025 6 0 1 18 06:55 02.11.2019
4879 Clear 10 1025 6 0 1 18 06:37 02.11.2019
4880 Clear 9 1025 5 0 0.89 50 05:56 02.11.2019
4881 Clear 9 1024 5 0 1 18 05:25 02.11.2019
4882 Clear 9 1024 5 0 1.55 12 04:21 02.11.2019
4883 Clear 8 1021 11 0 1.55 12 03:50 02.11.2019
4884 Clear 8 1021 11 0 1.55 12 02:44 02.11.2019
4885 Clear 16 1023 1 0 0.89 27 01:55 02.11.2019
4886 Clear 18 1023 1 0 1.08 70 01:24 02.11.2019
4887 Clear 18 1023 1 0 0.45 124 00:51 02.11.2019
4888 Clear 18 1023 1 0 0.45 103 00:26 02.11.2019
4889 Clear 18 1024 1 0 1.34 119 23:48 01.11.2019
4890 Clear 18 1024 1 0 1.79 137 23:23 01.11.2019
4891 Clear 18 1024 1 0 1.34 108 22:58 01.11.2019
4892 Clear 17 1024 1 0 1.34 104 22:40 01.11.2019
4893 Clear 17 1024 1 0 1.79 108 22:20 01.11.2019
4894 Clear 17 1024 1 0 1.79 116 21:42 01.11.2019
4895 Clear 17 1024 1 0 2.24 122 21:23 01.11.2019
4896 Clear 17 1024 1 0 2.24 119 20:58 01.11.2019
4897 Clear 17 1025 1 0 1.79 105 20:40 01.11.2019
4898 Clear 17 1025 1 0 2.24 118 20:20 01.11.2019
4899 Clear 17 1025 1 0 1.34 83 19:56 01.11.2019
4900 Clear 16 1025 1 0 2.82 59 19:38 01.11.2019
4901 Clear 16 1026 1 0 2.82 59 19:20 01.11.2019
4902 Clear 15 1026 1 0 2.82 59 18:40 01.11.2019
4903 Clear 14 1026 1 0 2.82 59 18:21 01.11.2019
4904 Clear 15 1026 2 0 2.82 59 17:56 01.11.2019
4905 Clear 13 1026 3 0 2.82 59 17:37 01.11.2019
4906 Clear 12 1026 4 0 1.67 20 17:19 01.11.2019
4907 Clear 9 1026 6 0 1.67 20 16:38 01.11.2019
4908 Clear 7 1025 6 0 1.67 20 16:20 01.11.2019
4909 Clear 5 1025 7 0 1.67 20 15:55 01.11.2019
4910 Clear 4 1025 7 0 1.67 20 15:37 01.11.2019
4911 Clear 6 1022 5 0 1.67 20 15:19 01.11.2019
4912 Clear 6 1022 5 0 1.67 20 14:42 01.11.2019
4913 Clear 4 1024 7 0 1.67 20 14:24 01.11.2019
4914 Clear 3 1025 7 0 1.93 15 13:57 01.11.2019
4915 Clear 3 1025 7 0 1.93 15 13:57 01.11.2019
4916 Clear 7 1025 4 0 1.93 15 13:38 01.11.2019
4917 Clear 9 1025 3 0 1.93 15 13:20 01.11.2019
4918 Clear 9 1025 4 0 1.79 40 12:43 01.11.2019
4919 Clear 9 1025 4 0 1.79 50 12:25 01.11.2019
4920 Clear 9 1025 4 0 1.34 45 11:59 01.11.2019
4921 Clear 8 1025 4 0 0.89 55 11:40 01.11.2019
4922 Clear 2 1022 45 0 1.26 4 11:22 01.11.2019
4923 Clear 2 1022 45 0 1.26 4 11:22 01.11.2019
4924 Clear 2 1022 45 0 1.26 4 10:42 01.11.2019
4925 Clear 2 1022 45 0 1.26 4 10:22 01.11.2019
4926 Clear 2 1022 45 0 1.26 4 09:57 01.11.2019
4927 Clear 2 1022 45 0 1.26 4 09:39 01.11.2019
4928 Clear 2 1022 45 0 1.26 4 09:19 01.11.2019
4929 Clear 6 1026 6 0 1.26 4 08:44 01.11.2019
4930 Clear 4 1026 7 0 0.86 352 08:22 01.11.2019
4931 Clear 4 1026 6 0 0.86 352 07:56 01.11.2019
4932 Clear 4 1026 7 0 0.86 352 07:37 01.11.2019
4933 Clear 3 1026 6 0 0.86 352 07:19 01.11.2019
4934 Clear 5 1026 5 0 0.86 352 06:41 01.11.2019
4935 Clear 4 1027 5 0 0.86 352 06:22 01.11.2019
4936 Clear 5 1027 5 0 0.86 352 05:43 01.11.2019
4937 Clear 6 1026 4 0 0.87 338 03:57 01.11.2019
4938 Clear 3 1022 14 0 0.87 338 02:49 01.11.2019
4939 Clear 3 1022 14 0 0.87 338 02:49 01.11.2019
4940 Clear 11 1025 3 0 1.34 112 01:34 01.11.2019
4941 Clear 12 1026 3 0 1.79 129 00:42 01.11.2019
4942 Clear 12 1026 3 0 2.24 112 00:18 01.11.2019
4943 Clear 12 1026 2 0 1.79 110 23:43 31.10.2019
4944 Clear 12 1026 2 0 2.68 110 23:23 31.10.2019
4945 Clear 12 1026 2 0 3.58 135 22:56 31.10.2019
4946 Clear 12 1027 3 0 3.13 123 22:38 31.10.2019
4947 Clear 12 1027 3 0 3.58 122 22:19 31.10.2019
4948 Clear 12 1027 3 0 3.13 113 21:43 31.10.2019
4949 Clear 11 1028 3 0 2.24 112 21:21 31.10.2019
4950 Clear 11 1028 3 0 2.24 102 20:57 31.10.2019
4951 Clear 11 1029 4 0 1.34 120 20:39 31.10.2019
4952 Clear 11 1029 3 0 1.34 112 20:20 31.10.2019
4953 Clear 11 1030 3 0 1.34 166 19:42 31.10.2019
4954 Clear 11 1030 3 0 0.45 91 19:22 31.10.2019
4955 Clear 11 1030 4 0 3.19 49 18:57 31.10.2019
4956 Clear 11 1030 4 0 3.19 49 18:57 31.10.2019
4957 Clear 9 1031 4 0 3.19 49 18:39 31.10.2019
4958 Clear 8 1031 4 0 3.19 49 18:20 31.10.2019
4959 Clear 8 1031 5 0 0.45 212 17:42 31.10.2019
4960 Clear 8 1031 5 0 0.45 212 17:42 31.10.2019
4961 Clear 4 1028 10 0 3.53 7 17:22 31.10.2019
4962 Clear 7 1031 6 0 3.53 7 16:59 31.10.2019
4963 Clear 5 1031 7 0 3.53 7 16:40 31.10.2019
4964 Clear 3 1031 8 0 0.45 70 16:20 31.10.2019
4965 Clear 1 1031 10 0 3.53 7 15:56 31.10.2019
4966 Clear -1 1031 10 0 3.53 7 15:38 31.10.2019
4967 Clear 0 1031 10 0 3.53 7 15:19 31.10.2019
4968 Clear 0 1031 10 0 3.53 7 14:56 31.10.2019
4969 Clear 4 1028 10 0 3.53 7 14:38 31.10.2019
4970 Clear -1 1031 10 0 3.58 3 14:20 31.10.2019
4971 Clear 1 1031 10 0 0.45 76 13:55 31.10.2019
4972 Clear 0 1031 10 0 3.6 5 13:37 31.10.2019
4973 Clear 0 1031 10 0 3.6 5 13:19 31.10.2019
4974 Clear 0 1031 9 0 3.6 5 12:43 31.10.2019
4975 Clear 0 1031 9 0 3.6 5 12:24 31.10.2019
4976 Clear -1 1031 9 0 3.6 5 11:58 31.10.2019
4977 Clear 0 1031 9 0 3.6 5 11:40 31.10.2019
4978 Clear 1 1031 8 0 2.9 3 11:18 31.10.2019
4979 Clear 2 1031 8 0 0.45 25 10:57 31.10.2019
4980 Clear 2 1031 8 0 0.45 25 10:57 31.10.2019
4981 Clear 2 1032 8 0 0.89 50 10:38 31.10.2019
4982 Clear 1 1032 9 0 0.89 67 10:19 31.10.2019
4983 Clear 2 1028 11 0 2.9 3 09:43 31.10.2019
4984 Clear 2 1028 11 0 2.9 3 09:19 31.10.2019
4985 Clear 2 1028 11 0 2.9 3 08:54 31.10.2019
4986 Clear -1 1032 9 0 2.24 21 08:34 31.10.2019
4987 Clear 1 1032 9 0 3.29 4 07:58 31.10.2019
4988 Clear 2 1032 8 0 0.45 31 07:39 31.10.2019
4989 Clear 2 1032 8 0 1.34 33 07:21 31.10.2019
4990 Clear 2 1032 7 0 3.29 4 06:38 31.10.2019
4991 Clear 2 1032 7 0 1.34 35 06:19 31.10.2019
4992 Clear 1 1031 8 0 4.05 359 04:35 31.10.2019
4993 Clear 3 1028 8 0 4.05 359 02:45 31.10.2019
4994 Clear 5 1029 6 0 1.79 119 01:53 31.10.2019
4995 Clear 5 1029 6 0 1.79 119 01:53 31.10.2019
4996 Clear 7 1029 5 0 1.34 129 00:42 31.10.2019
4997 Clear 7 1029 5 0 1.34 122 00:23 31.10.2019
4998 Clear 7 1029 5 0 1.79 68 23:34 30.10.2019
4999 Clear 6 1029 5 0 1.79 137 22:56 30.10.2019
5000 Clear 6 1028 6 0 0.89 79 22:38 30.10.2019
5001 Clear 6 1029 6 0 1.34 116 22:18 30.10.2019
5002 Clear 6 1028 7 0 2.24 133 21:54 30.10.2019
5003 Clear 6 1028 7 0 1.79 78 21:36 30.10.2019
5004 Clear 5 1028 8 0 0.45 127 21:18 30.10.2019
5005 Clear 5 1028 8 0 1.79 108 20:56 30.10.2019
5006 Clear 5 1028 8 0 1.79 108 20:56 30.10.2019
5007 Clear 5 1029 8 0 1.34 91 20:36 30.10.2019
5008 Clear 5 1029 8 0 1.34 91 20:36 30.10.2019
5009 Clear 4 1029 8 0 2.24 85 20:18 30.10.2019
5010 Clear 4 1029 8 0 2.24 85 20:18 30.10.2019
5011 Clear 4 1029 9 0 2.24 58 19:42 30.10.2019
5012 Clear 4 1029 10 0 1.34 137 19:23 30.10.2019
5013 Clear 3 1029 10 0 0.89 136 18:59 30.10.2019
5014 Clear 3 1028 10 0 0.89 131 18:38 30.10.2019
5015 Clear 2 1028 11 0 1.34 115 18:19 30.10.2019
5016 Clear 2 1028 11 0 1.34 115 18:19 30.10.2019
5017 Clear 2 1028 10 0 1.34 108 17:55 30.10.2019
5018 Clear 2 1028 12 0 0.89 144 17:37 30.10.2019
5019 Clear 2 1027 13 0 2.24 125 17:18 30.10.2019
5020 Clear 2 1027 14 0 2.24 40 16:42 30.10.2019
5021 Clear 1 1027 14 0 4.02 27 16:24 30.10.2019
5022 Clear 1 1027 14 0 4.02 27 16:24 30.10.2019
5023 Clear 1 1027 15 0 4.47 64 16:00 30.10.2019
5024 Clear 1 1026 14 0 2.68 40 15:40 30.10.2019
5025 Clear 0 1026 16 0 4.47 15 15:21 30.10.2019
5026 Clear 1 1025 16 0 3.58 30 14:59 30.10.2019
5027 Clear 1 1025 17 0 4.02 29 14:41 30.10.2019
5028 Clear 1 1025 18 0 4.02 30 14:22 30.10.2019
5029 Clear 1 1025 16 0 4.92 16 13:57 30.10.2019
5030 Clear 1 1025 17 0 4.92 25 13:39 30.10.2019
5031 Clear 1 1025 18 0 5.36 28 13:19 30.10.2019
5032 Clear 0 1029 13 0 5.98 16 12:46 30.10.2019
5033 Clear 0 1029 13 0 5.98 16 12:28 30.10.2019
5034 Clear 0 1029 13 0 5.98 16 12:28 30.10.2019
5035 Clear 0 1029 13 0 5.98 16 11:59 30.10.2019
5036 Clear 0 1029 13 0 5.98 16 11:41 30.10.2019
5037 Clear 1 1024 19 0 2.68 40 11:21 30.10.2019
5038 Clear 1 1023 15 0 7.09 5 10:43 30.10.2019
5039 Clear 2 1023 15 0 7.09 5 10:23 30.10.2019
5040 Clear 2 1022 15 0 5.36 23 09:43 30.10.2019
5041 Clear 2 1022 16 0 2.68 82 09:24 30.10.2019
5042 Clear 1 1026 17 0 7.09 5 08:58 30.10.2019
5043 Clear 1 1026 17 0 7.09 5 08:40 30.10.2019
5044 Clear 3 1022 17 0 1.79 62 08:21 30.10.2019
5045 Clear 4 1021 15 0 1.34 13 07:46 30.10.2019
5046 Clear 4 1021 15 0 3.13 349 07:28 30.10.2019
5047 Clear 4 1021 17 0 1.34 341 06:43 30.10.2019
5048 Clear 5 1020 16 0 2.24 351 06:22 30.10.2019
5049 Clear 6 1020 16 0 4.92 342 05:46 30.10.2019
5050 Clear 6 1019 15 0 2.24 316 05:24 30.10.2019
5051 Clear 8 1018 9 0 4.59 16 03:46 30.10.2019
5052 Clear 8 1018 9 0 4.59 16 03:18 30.10.2019
5053 Clear 9 1016 15 0 2.68 346 02:19 30.10.2019
5054 Clear 13 1015 13 0 3.13 306 01:34 30.10.2019
5055 Clear 14 1011 10 0 4.33 41 00:31 30.10.2019
5056 Clear 14 1011 10 0 4.33 41 23:46 29.10.2019
5057 Clear 14 1011 10 0 4.33 41 23:27 29.10.2019
5058 Clear 14 1009 8 0 2.77 95 22:55 29.10.2019
5059 Clear 14 1009 8 0 2.77 95 22:37 29.10.2019
5060 Clear 14 1009 8 0 2.77 95 22:37 29.10.2019
5061 Clear 14 1009 8 0 2.77 95 22:18 29.10.2019
5062 Clear 18 1012 7 0 2.68 25 21:54 29.10.2019
5063 Clear 18 1012 7 0 2.68 32 21:36 29.10.2019
5064 Clear 17 1012 8 0 2.24 13 21:18 29.10.2019
5065 Clear 17 1012 8 0 2.24 40 20:41 29.10.2019
5066 Clouds 12 1011 10 0 2.18 78 20:21 29.10.2019
5067 Clouds 12 1011 10 0 2.18 78 20:21 29.10.2019
5068 Clouds 12 1011 10 0 2.18 78 19:57 29.10.2019
5069 Clouds 12 1011 10 0 2.18 78 19:38 29.10.2019
5070 Clouds 12 1011 10 0 2.18 78 19:20 29.10.2019
5071 Clouds 16 1013 7 0 0.45 146 18:57 29.10.2019
5072 Clouds 15 1013 7 0 1.34 100 18:37 29.10.2019
5073 Clouds 14 1013 8 0 0.89 67 18:19 29.10.2019
5074 Clouds 14 1013 9 0 0.89 50 17:56 29.10.2019
5075 Clouds 12 1013 10 0 0.45 54 17:37 29.10.2019
5076 Clear 6 1012 17 0 1.25 359 17:18 29.10.2019
5077 Clear 4 1013 20 0 1.25 359 16:40 29.10.2019
5078 Clear 2 1012 23 0 1.25 359 16:21 29.10.2019
5079 Clear 1 1012 24 0 1.25 359 15:57 29.10.2019
5080 Clear -1 1012 25 0 0.89 337 15:39 29.10.2019
5081 Clear -1 1012 25 0 1.25 359 15:20 29.10.2019
5082 Clear -1 1012 24 0 1.25 359 14:56 29.10.2019
5083 Clear -1 1012 24 0 0.45 322 14:37 29.10.2019
5084 Clear -1 1012 23 0 0.45 145 14:19 29.10.2019
5085 Clear -1 1013 23 0 0.75 347 13:40 29.10.2019
5086 Clear -1 1013 23 0 0.75 347 13:40 29.10.2019
5087 Clear 1 1012 20 0 1.25 0 13:22 29.10.2019
5088 Clear 1 1012 20 0 1.25 0 13:22 29.10.2019
5089 Clear 2 1012 20 0 0.89 329 12:55 29.10.2019
5090 Clear 2 1012 20 0 0.89 343 12:37 29.10.2019
5091 Clear 1 1012 21 0 1.34 335 12:19 29.10.2019
5092 Clear -1 1013 24 0 0.45 306 11:42 29.10.2019
5093 Clear -1 1013 24 0 0.45 306 11:42 29.10.2019
5094 Clear 0 1013 21 0 1.44 247 11:22 29.10.2019
5095 Clear 1 1013 20 0 1.44 247 10:59 29.10.2019
5096 Clear 1 1013 21 0 0.45 150 10:40 29.10.2019
5097 Clear -1 1014 23 0 1.44 247 10:20 29.10.2019
5098 Clear -1 1014 22 0 1.44 247 09:59 29.10.2019
5099 Clear -1 1014 21 0 1.44 247 09:41 29.10.2019
5100 Clear -1 1014 21 0 1.44 247 09:41 29.10.2019
5101 Clear 1 1014 20 0 1.44 247 09:22 29.10.2019
5102 Clear 2 1015 18 0 1.44 247 08:54 29.10.2019
5103 Clear 3 1015 17 0 1.44 247 08:36 29.10.2019
5104 Clear 3 1015 16 0 1.11 302 08:18 29.10.2019
5105 Clear 3 1015 16 0 1.11 302 08:18 29.10.2019
5106 Clear 4 1015 16 0 0.45 13 07:44 29.10.2019
5107 Clear 3 1015 17 0 0.45 35 07:19 29.10.2019
5108 Clear 3 1016 18 0 0.45 58 06:46 29.10.2019
5109 Clear 3 1015 18 0 0.45 85 06:26 29.10.2019
5110 Clear 3 1016 18 0 0.89 89 05:52 29.10.2019
5111 Clear 1 1016 21 0 0.45 55 05:34 29.10.2019
5112 Clouds 1 1016 18 0 0.45 245 04:32 29.10.2019
5113 Clouds 4 1016 20 0 0.96 250 02:34 29.10.2019
5114 Clouds 10 1017 10 0 2.68 35 01:54 29.10.2019
5115 Clouds 13 1016 8 0 2.24 45 01:23 29.10.2019
5116 Clouds 11 1015 13 0 1.83 131 00:50 29.10.2019
5117 Clouds 11 1015 13 0 1.83 131 23:58 28.10.2019
5118 Clouds 11 1015 13 0 1.83 131 23:36 28.10.2019
5119 Clouds 11 1017 13 0 2.1 92 23:18 28.10.2019
5120 Clouds 11 1017 13 0 2.1 92 22:39 28.10.2019
5121 Clouds 11 1017 13 0 2.1 92 22:19 28.10.2019
5122 Clouds 11 1017 13 0 2.1 92 21:56 28.10.2019
5123 Clouds 17 1020 6 0 1.34 50 21:38 28.10.2019
5124 Clouds 17 1020 6 0 1.34 56 21:20 28.10.2019
5125 Clouds 17 1021 6 0 0.89 63 20:57 28.10.2019
5126 Clouds 16 1021 8 0 1.34 28 20:38 28.10.2019
5127 Clouds 9 1021 17 0 3.48 45 20:20 28.10.2019
5128 Clouds 9 1021 17 0 3.48 45 19:54 28.10.2019
5129 Clouds 9 1021 17 0 3.48 45 19:54 28.10.2019
5130 Clouds 9 1021 17 0 3.48 45 19:36 28.10.2019
5131 Clouds 9 1021 17 0 3.48 45 19:18 28.10.2019
5132 Clouds 9 1021 17 0 3.48 45 19:18 28.10.2019
5133 Clouds 11 1023 15 0 0.89 91 18:54 28.10.2019
5134 Clouds 9 1023 15 0 0.89 122 18:36 28.10.2019
5135 Clouds 9 1023 15 0 0.45 175 18:18 28.10.2019
5136 Clouds 8 1023 17 0 0.45 160 17:54 28.10.2019
5137 Clouds 7 1023 19 0 3.48 45 17:36 28.10.2019
5138 Clouds 5 1023 23 0 4.3 7 17:18 28.10.2019
5139 Clouds 5 1023 22 0 0.45 160 16:43 28.10.2019
5140 Clouds 5 1023 23 0 4.3 7 16:24 28.10.2019
5141 Clouds 1 1023 26 0 0.45 77 15:59 28.10.2019
5142 Clouds 2 1023 24 0 4.3 7 15:40 28.10.2019
5143 Clouds 1 1022 23 0 1.79 13 15:21 28.10.2019
5144 Clouds 1 1022 24 0 4.3 7 14:58 28.10.2019
5145 Clouds 1 1022 27 0 0.89 351 14:40 28.10.2019
5146 Clear 2 1022 24 0 0.89 104 14:19 28.10.2019
5147 Clear 1 1021 27 0 3.13 327 13:58 28.10.2019
5148 Clear 0 1021 29 0 0.89 324 13:40 28.10.2019
5149 Clear 0 1021 31 0 3.79 2 13:18 28.10.2019
5150 Clear 1 1021 29 0 0.45 356 12:43 28.10.2019
5151 Clear 1 1020 31 0 2.24 336 12:21 28.10.2019
5152 Clear 1 1020 31 0 2.68 254 11:58 28.10.2019
5153 Clear 2 1021 30 0 1.79 341 11:37 28.10.2019
5154 Clear 2 1020 30 0 0.45 343 11:19 28.10.2019
5155 Clear 2 1020 30 0 0.89 340 10:41 28.10.2019
5156 Clear 2 1020 29 0 2.68 340 10:22 28.10.2019
5157 Clear 3 1019 29 0 4.02 352 09:58 28.10.2019
5158 Clear 3 1019 29 0 1.79 23 09:39 28.10.2019
5159 Clear 3 1019 29 0 1.79 23 09:39 28.10.2019
5160 Clear 2 1019 30 0 3.13 337 09:19 28.10.2019
5161 Clear 2 1019 31 0 2.24 40 08:57 28.10.2019
5162 Clear 3 1019 30 0 2.24 344 08:38 28.10.2019
5163 Clear 2 1019 32 0 3.58 326 08:19 28.10.2019
5164 Clear 2 1019 32 0 5.82 0 07:56 28.10.2019
5165 Clear 3 1018 29 0 2.68 335 07:38 28.10.2019
5166 Clear 3 1018 29 0 3.58 340 07:19 28.10.2019
5167 Clear 3 1018 31 0 2.24 349 06:40 28.10.2019
5168 Clear 3 1019 30 0 0.89 296 05:47 28.10.2019
5169 Clear 5 1016 26 0 2.68 313 03:49 28.10.2019
5170 Clear 5 1015 26 0 3.13 258 02:54 28.10.2019
5171 Clear 6 1015 27 0 1.79 262 02:34 28.10.2019
5172 Clear 7 1013 21 0 4.92 329 00:57 28.10.2019
5173 Clear 8 1013 19 0 7.15 326 00:38 28.10.2019
5174 Clear 8 1012 19 0 5.81 338 00:19 28.10.2019
5175 Clear 8 1012 19 0 5.81 353 23:42 27.10.2019
5176 Clear 9 1011 20 0 5.36 329 23:18 27.10.2019
5177 Clear 9 1010 19 0 4.92 351 22:42 27.10.2019
5178 Clear 10 1010 17 0 4.02 358 22:22 27.10.2019
5179 Clear 10 1009 18 0 4.02 322 21:58 27.10.2019
5180 Clear 10 1009 18 0 3.58 309 21:39 27.10.2019
5181 Clear 11 1009 18 0 4.92 345 21:21 27.10.2019
5182 Clear 14 1010 13 0 7.82 7 20:58 27.10.2019
5183 Clear 12 1010 18 0 5.36 343 20:39 27.10.2019
5184 Clear 12 1011 15 0 7.01 22 20:21 27.10.2019
5185 Clear 12 1011 15 0 7.01 22 19:56 27.10.2019
5186 Clear 12 1011 15 0 7.01 22 19:37 27.10.2019
5187 Clear 12 1011 15 0 7.01 22 19:18 27.10.2019
5188 Clear 11 1009 21 0 4.47 338 18:55 27.10.2019
5189 Clear 10 1009 24 0 3.58 322 18:37 27.10.2019
5190 Clear 8 1009 27 0 1.79 294 18:19 27.10.2019
5191 Clear 8 1009 27 0 1.79 294 18:19 27.10.2019
5192 Clear 7 1009 29 0 2.24 248 17:41 27.10.2019
5193 Clear 6 1008 32 0 2.24 331 17:21 27.10.2019
5194 Clear 6 1007 33 0 2.68 273 16:59 27.10.2019
5195 Clear 5 1007 33 0 2.24 284 16:40 27.10.2019
5196 Clear 4 1006 35 0 2.68 223 16:22 27.10.2019
5197 Clear 4 1005 36 0 4.47 331 15:57 27.10.2019
5198 Clear 4 1005 35 0 2.68 341 15:39 27.10.2019
5199 Clear 4 1005 35 0 2.68 341 15:39 27.10.2019
5200 Clear 4 1004 33 0 3.13 295 15:20 27.10.2019
5201 Clear 5 1004 31 0 4.47 349 14:44 27.10.2019
5202 Clear 6 1003 28 0 4.47 326 14:24 27.10.2019
5203 Clouds 7 1003 27 0 4.02 340 13:59 27.10.2019
5204 Clouds 7 1002 26 0 4.47 306 13:40 27.10.2019
5205 Clouds 10 1001 27 0 3.13 329 13:22 27.10.2019
5206 Clouds 12 1001 25 0 1.79 333 12:59 27.10.2019
5207 Clouds 12 1000 29 0 0.45 84 12:41 27.10.2019
5208 Clouds 10 1000 35 0 0.89 31 12:23 27.10.2019
5209 Clouds 8 1000 32 0 3.07 339 11:43 27.10.2019
5210 Clouds 8 1000 33 0 3.07 339 11:25 27.10.2019
5211 Clouds 8 1000 29 0 4.57 263 10:57 27.10.2019
5212 Clouds 11 1000 27 0 0.45 129 10:38 27.10.2019
5213 Clouds 11 1000 27 0 0.45 129 10:38 27.10.2019
5214 Clouds 10 1000 29 0 0.45 21 10:20 27.10.2019
5215 Clouds 9 1001 30 0 0.89 4 09:43 27.10.2019
5216 Clouds 11 1001 27 0 4.57 263 09:19 27.10.2019
5217 Clouds 11 1001 27 0 4.57 263 09:19 27.10.2019
5218 Clouds 11 1001 27 0 4.57 263 08:57 27.10.2019
5219 Clouds 11 1001 27 0 5.06 256 08:37 27.10.2019
5220 Clouds 12 1001 25 0 2.18 253 08:19 27.10.2019
5221 Clouds 11 1001 26 0 0.45 99 07:47 27.10.2019
5222 Clouds 11 1002 28 0 2.18 253 07:27 27.10.2019
5223 Clouds 10 1002 27 0 2.18 253 06:55 27.10.2019
5224 Clouds 11 1002 26 0 2.18 253 06:29 27.10.2019
5225 Clouds 9 1003 28 0 2.18 253 05:58 27.10.2019
5226 Clouds 9 1003 24 0 2.18 253 05:36 27.10.2019
5227 Clear 11 1003 21 0 0.8 213 04:25 27.10.2019
5228 Clouds 21 1004 11 0 1.34 34 02:41 27.10.2019
5229 Clouds 24 1005 9 0 3.13 35 01:28 27.10.2019
5230 Clouds 24 1005 9 0 3.13 16 00:55 27.10.2019
5231 Clouds 24 1005 10 0 3.08 186 00:36 27.10.2019
5232 Clear 25 1008 8 0 2.43 133 23:58 26.10.2019
5233 Clear 25 1008 8 0 2.43 133 23:40 26.10.2019
5234 Clear 25 1008 8 0 2.43 133 23:21 26.10.2019
5235 Clear 25 1008 8 0 2.43 133 22:58 26.10.2019
5236 Clear 25 1008 8 0 2.43 133 22:58 26.10.2019
5237 Clear 28 1007 8 0 2.24 35 22:39 26.10.2019
5238 Clear 28 1008 8 0 1.79 77 22:19 26.10.2019
5239 Clear 27 1008 8 0 1.79 58 21:58 26.10.2019
5240 Clear 27 1009 8 0 1.79 50 21:40 26.10.2019
5241 Clear 23 1012 8 0 2.04 142 21:19 26.10.2019
5242 Clear 23 1012 8 0 2.04 142 20:45 26.10.2019
5243 Clear 23 1012 8 0 2.04 142 20:20 26.10.2019
5244 Clear 23 1012 8 0 2.04 142 19:56 26.10.2019
5245 Clear 23 1011 10 0 0.89 72 19:38 26.10.2019
5246 Clear 23 1010 11 0 0.89 75 19:19 26.10.2019
5247 Clear 23 1010 11 0 0.89 75 19:19 26.10.2019
5248 Clear 22 1011 11 0 0.45 94 18:55 26.10.2019
5249 Clear 21 1011 12 0 0.45 299 18:36 26.10.2019
5250 Clear 14 1013 14 0 0.68 250 18:18 26.10.2019
5251 Clear 17 1012 15 0 1.34 334 17:39 26.10.2019
5252 Clear 15 1012 17 0 1.34 316 17:21 26.10.2019
5253 Clear 12 1012 21 0 0.89 332 16:58 26.10.2019
5254 Clear 8 1011 27 0 0.68 250 16:40 26.10.2019
5255 Clear 9 1012 25 0 0.68 250 16:21 26.10.2019
5256 Clear 12 1012 21 0 0.68 250 15:41 26.10.2019
5257 Clear 10 1013 21 0 0.93 356 15:19 26.10.2019
5258 Clear 10 1013 21 0 0.93 356 14:41 26.10.2019
5259 Clear 13 1013 19 0 0.89 323 14:22 26.10.2019
5260 Clear 10 1013 21 0 0.89 353 13:59 26.10.2019
5261 Clear 10 1013 21 0 0.89 353 13:40 26.10.2019
5262 Clear 10 1013 21 0 0.89 353 13:21 26.10.2019
5263 Clear 9 1014 28 0 0.89 353 12:46 26.10.2019
5264 Clear 8 1014 30 0 0.89 343 12:23 26.10.2019
5265 Clear 9 1014 28 0 1.05 287 11:50 26.10.2019
5266 Clear 8 1014 30 0 0.89 343 11:29 26.10.2019
5267 Clear 8 1014 30 0 0.89 343 11:29 26.10.2019
5268 Clear 8 1014 30 0 0.89 343 11:29 26.10.2019
5269 Clear 11 1014 19 0 1.05 287 10:55 26.10.2019
5270 Clear 11 1014 19 0 1.05 287 10:36 26.10.2019
5271 Clear 11 1014 19 0 1.05 287 10:18 26.10.2019
5272 Clear 11 1014 19 0 1.05 287 09:43 26.10.2019
5273 Clear 11 1014 20 0 0.9 305 09:25 26.10.2019
5274 Clear 13 1017 15 0 0.76 298 08:43 26.10.2019
5275 Clear 13 1017 15 0 0.76 298 08:25 26.10.2019
5276 Clear 13 1017 15 0 0.76 298 07:54 26.10.2019
5277 Clear 13 1017 15 0 0.76 298 07:28 26.10.2019
5278 Clear 13 1017 15 0 0.76 298 06:45 26.10.2019
5279 Clear 13 1017 15 0 0.76 298 06:26 26.10.2019
5280 Clear 14 1017 14 0 1.1 268 05:21 26.10.2019
5281 Clear 14 1017 14 0 1.1 268 04:24 26.10.2019
5282 Clear 23 1015 10 0 1.34 35 02:47 26.10.2019
5283 Clear 23 1016 8 0 1.79 133 01:55 26.10.2019
5284 Clear 23 1016 8 0 1.79 133 01:22 26.10.2019
5285 Clear 23 1016 8 0 1.79 133 00:25 26.10.2019
5286 Clear 23 1019 8 0 2.38 89 23:44 25.10.2019
5287 Clear 23 1019 8 0 2.38 89 23:44 25.10.2019
5288 Clear 23 1019 8 0 2.38 89 23:20 25.10.2019
5289 Clear 28 1018 7 0 2.24 59 22:41 25.10.2019
5290 Clear 27 1018 7 0 1.79 28 22:23 25.10.2019
5291 Clear 27 1019 7 0 1.79 62 21:58 25.10.2019
5292 Clear 27 1019 7 0 1.79 56 21:40 25.10.2019
5293 Clear 21 1022 7 0 2.88 60 21:21 25.10.2019
5294 Clear 21 1022 7 0 2.88 60 20:56 25.10.2019
5295 Clear 21 1022 7 0 2.88 60 20:38 25.10.2019
5296 Clear 21 1022 7 0 2.88 60 20:19 25.10.2019
5297 Clear 24 1021 7 0 1.34 45 19:44 25.10.2019
5298 Clear 24 1021 7 0 0.89 29 19:25 25.10.2019
5299 Clear 22 1021 7 0 0.89 82 18:46 25.10.2019
5300 Clear 21 1022 7 0 2.88 60 18:24 25.10.2019
5301 Clear 16 1022 11 0 3.21 10 17:42 25.10.2019
5302 Clear 12 1021 15 0 3.21 10 17:22 25.10.2019
5303 Clear 10 1022 16 0 3.21 10 16:59 25.10.2019
5304 Clear 9 1022 16 0 3.21 10 16:41 25.10.2019
5305 Clear 9 1022 15 0 3.21 10 16:19 25.10.2019
5306 Clear 9 1021 15 0 3.21 10 15:41 25.10.2019
5307 Clear 10 1021 14 0 0.89 329 15:23 25.10.2019
5308 Clear 9 1021 15 0 3.64 7 14:59 25.10.2019
5309 Clear 9 1022 16 0 3.64 7 14:41 25.10.2019
5310 Clear 11 1021 14 0 3.27 12 14:22 25.10.2019
5311 Clear 13 1021 12 0 3.27 12 13:44 25.10.2019
5312 Clear 13 1024 10 0 3.27 12 13:25 25.10.2019
5313 Clear 13 1024 10 0 3.27 12 13:25 25.10.2019
5314 Clear 13 1024 10 0 3.27 12 12:58 25.10.2019
5315 Clear 13 1024 10 0 3.27 12 12:40 25.10.2019
5316 Clear 13 1024 10 0 3.27 12 12:40 25.10.2019
5317 Clear 14 1024 10 0 3.46 6 12:20 25.10.2019
5318 Clear 14 1024 10 0 3.46 6 11:56 25.10.2019
5319 Clear 15 1022 10 0 2.68 350 11:37 25.10.2019
5320 Clear 14 1022 11 0 2.24 354 11:18 25.10.2019
5321 Clear 14 1024 10 0 3.46 6 10:40 25.10.2019
5322 Clear 14 1024 10 0 3.46 6 10:21 25.10.2019
5323 Clear 14 1024 10 0 3.46 6 09:57 25.10.2019
5324 Clear 14 1024 10 0 3.46 6 09:38 25.10.2019
5325 Clouds 17 1022 10 0 3.58 324 09:19 25.10.2019
5326 Clouds 16 1022 11 0 2.24 340 08:45 25.10.2019
5327 Clouds 16 1022 12 0 3.13 349 08:27 25.10.2019
5328 Clouds 16 1022 11 0 0.89 345 07:53 25.10.2019
5329 Clouds 17 1022 10 0 0.89 320 07:34 25.10.2019
5330 Clouds 15 1024 9 0 3.74 357 06:42 25.10.2019
5331 Clouds 17 1021 10 0 2.68 340 05:51 25.10.2019
5332 Clouds 16 1023 8 0 3.94 360 05:33 25.10.2019
5333 Clouds 16 1023 8 0 3.94 360 04:52 25.10.2019
5334 Clouds 16 1023 8 0 3.94 360 03:36 25.10.2019
5335 Clouds 20 1021 7 0 4.54 31 01:54 25.10.2019
5336 Clouds 20 1021 7 0 4.54 31 00:59 25.10.2019
5337 Clouds 20 1022 8 0 5.86 33 00:20 25.10.2019
5338 Clouds 20 1022 8 0 5.86 33 23:40 24.10.2019
5339 Clouds 20 1022 8 0 5.86 33 23:22 24.10.2019
5340 Clouds 20 1022 8 0 5.86 33 22:56 24.10.2019
5341 Clouds 20 1022 8 0 5.86 33 22:37 24.10.2019
5342 Clouds 20 1022 8 0 5.86 33 22:18 24.10.2019
5343 Clouds 20 1022 8 0 5.86 33 21:56 24.10.2019
5344 Clouds 20 1022 8 0 5.86 33 21:37 24.10.2019
5345 Clouds 20 1022 8 0 5.86 33 21:37 24.10.2019
5346 Clouds 18 1024 10 0 6.91 28 21:19 24.10.2019
5347 Clouds 18 1024 10 0 6.91 28 20:56 24.10.2019
5348 Clouds 18 1024 10 0 6.91 28 20:38 24.10.2019
5349 Clouds 18 1024 10 0 6.91 28 20:19 24.10.2019
5350 Clouds 22 1021 10 0 1.34 69 19:44 24.10.2019
5351 Clouds 21 1021 10 0 3.13 338 19:24 24.10.2019
5352 Clouds 20 1021 11 0 3.13 342 18:59 24.10.2019
5353 Clouds 18 1021 13 0 4.47 337 18:40 24.10.2019
5354 Clouds 15 1023 13 0 6.33 14 18:21 24.10.2019
5355 Clouds 15 1023 13 0 6.33 14 17:59 24.10.2019
5356 Clouds 14 1020 17 0 3.58 340 17:39 24.10.2019
5357 Clouds 13 1020 20 0 1.79 327 17:19 24.10.2019
5358 Clouds 11 1020 23 0 6.33 14 16:55 24.10.2019
5359 Clouds 12 1020 20 0 6.33 14 16:37 24.10.2019
5360 Clouds 13 1020 19 0 2.24 243 16:18 24.10.2019
5361 Clouds 12 1019 19 0 2.24 27 15:55 24.10.2019
5362 Clouds 13 1019 19 0 2.24 331 15:37 24.10.2019
5363 Clouds 13 1019 19 0 2.24 339 15:18 24.10.2019
5364 Clouds 12 1019 20 0 1.34 334 14:44 24.10.2019
5365 Clouds 12 1018 24 0 1.79 316 14:26 24.10.2019
5366 Clouds 13 1018 22 0 1.79 338 13:59 24.10.2019
5367 -273 0 0 0 0 0 13:39 24.10.2019
5368 Clouds 14 1017 17 0 4.47 335 13:19 24.10.2019
5369 Clouds 13 1017 22 0 2.24 334 12:56 24.10.2019
5370 Clouds 13 1017 25 0 2.24 316 12:38 24.10.2019
5371 Clear 13 1017 24 0 2.24 330 12:19 24.10.2019
5372 Clear 14 1017 21 0 0.89 330 11:56 24.10.2019
5373 Clear 14 1017 20 0 2.24 329 11:36 24.10.2019
5374 Clear 14 1017 20 0 2.24 329 11:36 24.10.2019
5375 Clear 15 1017 20 0 3.13 4 11:18 24.10.2019
5376 Clear 15 1017 21 0 1.79 339 10:42 24.10.2019
5377 Clear 16 1020 11 0 3.51 11 10:23 24.10.2019
5378 Clear 16 1020 11 0 3.51 11 09:58 24.10.2019
5379 Clouds 16 1019 11 0 3.32 15 09:37 24.10.2019
5380 Clear 16 1016 23 0 5.36 8 09:18 24.10.2019
5381 Clear 16 1016 23 0 5.36 8 09:18 24.10.2019
5382 Clear 17 1016 24 0 4.92 359 08:42 24.10.2019
5383 Clear 17 1016 26 0 4.92 347 08:20 24.10.2019
5384 Clear 17 1016 26 0 4.92 5 07:49 24.10.2019
5385 Clear 17 1015 26 0 4.92 357 07:24 24.10.2019
5386 Clear 17 1015 26 0 4.47 324 06:59 24.10.2019
5387 Clear 18 1018 9 0 4.35 5 06:37 24.10.2019
5388 Clear 18 1015 23 0 3.13 337 05:56 24.10.2019
5389 Clear 18 1015 23 0 3.13 324 05:36 24.10.2019
5390 Clear 20 1016 19 0 4.1 351 04:44 24.10.2019
5391 Clear 20 1016 19 0 4.1 351 03:36 24.10.2019
5392 Clear 22 1013 19 0 2.68 353 02:50 24.10.2019
5393 Clear 25 1014 17 0 3.99 22 02:21 24.10.2019
5394 Clear 25 1014 17 0 3.99 22 01:32 24.10.2019
5395 Clear 25 1014 17 0 3.99 22 00:57 24.10.2019
5396 Clear 25 1014 17 0 3.99 22 00:37 24.10.2019
5397 Clear 25 1014 16 0 4.58 48 00:18 24.10.2019
5398 Clear 25 1014 16 0 4.58 48 23:42 23.10.2019
5399 Clear 25 1014 16 0 4.58 48 23:21 23.10.2019
5400 Clear 25 1014 16 0 4.58 48 22:57 23.10.2019
5401 Clear 25 1014 16 0 4.58 48 22:57 23.10.2019
5402 Clear 27 1014 13 0 3.13 338 22:37 23.10.2019
5403 Clear 27 1014 12 0 3.13 6 22:18 23.10.2019
5404 Clear 25 1014 16 0 4.58 48 21:57 23.10.2019
5405 Clear 26 1014 13 0 2.24 337 21:38 23.10.2019
5406 Clear 23 1016 16 0 3.7 42 21:19 23.10.2019
5407 Clear 23 1016 16 0 3.7 42 20:56 23.10.2019
5408 Clear 23 1016 16 0 3.7 42 20:37 23.10.2019
5409 Clear 23 1016 16 0 3.7 42 20:19 23.10.2019
5410 Clear 23 1016 16 0 3.7 42 19:54 23.10.2019
5411 Clear 22 1016 16 0 3.58 316 19:36 23.10.2019
5412 Clear 22 1016 17 0 2.68 337 19:18 23.10.2019
5413 Clear 19 1016 19 0 1.34 259 18:39 23.10.2019
5414 Clear 18 1017 16 0 2.75 8 18:19 23.10.2019
5415 Clear 18 1016 21 0 2.24 339 17:59 23.10.2019
5416 Clear 17 1016 22 0 2.24 277 17:41 23.10.2019
5417 Clear 15 1015 25 0 1.79 327 17:19 23.10.2019
5418 Clear 15 1015 25 0 1.79 327 17:19 23.10.2019
5419 Clear 13 1015 27 0 0.45 289 16:54 23.10.2019
5420 Clear 13 1015 26 0 0.45 320 16:36 23.10.2019
5421 Clear 13 1015 26 0 0.45 320 16:36 23.10.2019
5422 Clear 13 1015 27 0 1.79 327 16:18 23.10.2019
5423 Clear 18 1017 16 0 2.75 8 15:41 23.10.2019
5424 Clear 14 1015 26 0 1.79 341 15:21 23.10.2019
5425 Clear 14 1015 26 0 1.34 309 14:58 23.10.2019
5426 Clear 14 1015 26 0 1.79 326 14:38 23.10.2019
5427 Clear 14 1015 26 0 1.79 350 14:19 23.10.2019
5428 Clear 14 1015 25 0 3.13 326 13:57 23.10.2019
5429 Clear 12 1016 24 0 0.53 3 13:38 23.10.2019
5430 Clear 12 1016 24 0 0.53 3 13:20 23.10.2019
5431 -273 0 0 0 0 0 12:54 23.10.2019
5432 Clear 12 1016 24 0 0.53 3 12:54 23.10.2019
5433 Clear 12 1016 24 0 0.53 3 12:36 23.10.2019
5434 Clear 15 1016 21 0 1.79 346 12:18 23.10.2019
5435 Clear 14 1016 22 0 1.34 347 11:54 23.10.2019
5436 Clear 15 1016 21 0 1.34 324 11:36 23.10.2019
5437 Clear 15 1016 21 0 1.34 324 11:36 23.10.2019
5438 Clear 15 1016 21 0 0.89 302 11:18 23.10.2019
5439 Clear 14 1017 17 0 1.25 357 10:42 23.10.2019
5440 Clear 14 1017 17 0 1.25 357 10:23 23.10.2019
5441 Clear 14 1017 17 0 1.25 357 09:42 23.10.2019
5442 Clear 15 1018 20 0 1.54 317 09:23 23.10.2019
5443 Clear 15 1018 20 0 1.54 317 08:59 23.10.2019
5444 Clear 15 1018 20 0 1.54 317 08:41 23.10.2019
5445 Clear 15 1018 20 0 1.54 317 08:22 23.10.2019
5446 Clear 15 1018 20 0 1.54 317 07:45 23.10.2019
5447 Clear 15 1018 20 0 1.54 317 07:22 23.10.2019
5448 Clear 15 1018 20 0 1.54 317 06:46 23.10.2019
5449 Clear 16 1017 20 0 1.32 307 06:21 23.10.2019
5450 Clear 16 1017 20 0 0.45 33 05:41 23.10.2019
5451 Clear 16 1018 20 0 1.32 307 04:38 23.10.2019
5452 Clear 16 1018 20 0 1.32 307 03:34 23.10.2019
5453 Clear 24 1017 12 0 1.49 74 02:40 23.10.2019
5454 Clear 24 1017 13 0 1.55 79 01:28 23.10.2019
5455 Clear 24 1017 13 0 1.55 79 00:56 23.10.2019
5456 Clear 24 1017 13 0 1.55 79 00:28 23.10.2019
5457 Clear 25 1018 13 0 2.15 71 23:40 22.10.2019
5458 Clear 25 1018 13 0 2.15 71 23:18 22.10.2019
5459 Clear 25 1018 13 0 2.15 71 22:56 22.10.2019
5460 Clear 29 1019 10 0 0.89 17 22:38 22.10.2019
5461 Clear 29 1019 10 0 1.34 54 22:19 22.10.2019
5462 Clear 29 1020 11 0 1.34 68 21:56 22.10.2019
5463 Clear 28 1020 11 0 0.89 27 21:37 22.10.2019
5464 Clear 22 1022 16 0 2.86 47 21:18 22.10.2019
5465 Clear 22 1022 16 0 2.86 47 20:56 22.10.2019
5466 Clear 22 1022 16 0 2.86 47 20:37 22.10.2019
5467 Clear 22 1022 16 0 2.86 47 20:19 22.10.2019
5468 Clear 24 1021 14 0 0.89 72 19:45 22.10.2019
5469 Clear 24 1021 14 0 0.45 70 19:27 22.10.2019
5470 Clear 23 1022 16 0 1.34 67 18:58 22.10.2019
5471 Clear 23 1022 16 0 1.34 67 18:58 22.10.2019
5472 Clear 22 1022 17 0 0.45 118 18:40 22.10.2019
5473 Clear 16 1023 24 0 2.56 3 18:22 22.10.2019
5474 Clear 18 1022 20 0 0.45 235 17:57 22.10.2019
5475 Clear 14 1021 27 0 0.45 218 17:38 22.10.2019
5476 Clear 14 1021 27 0 0.45 218 17:38 22.10.2019
5477 Clear 11 1021 33 0 2.56 3 17:20 22.10.2019
5478 Clear 11 1021 33 0 2.56 3 17:20 22.10.2019
5479 Clear 11 1021 33 0 2.56 3 17:20 22.10.2019
5480 Clear 11 1021 33 0 2.56 3 17:20 22.10.2019
5481 Clear 9 1021 37 0 2.56 3 16:57 22.10.2019
5482 Clear 8 1021 35 0 2.56 3 16:37 22.10.2019
5483 Clear 8 1021 36 0 2.56 3 16:19 22.10.2019
5484 Clear 8 1020 36 0 2.56 3 15:56 22.10.2019
5485 Clear 9 1020 33 0 2.56 3 15:38 22.10.2019
5486 Clear 9 1020 33 0 2.83 4 15:18 22.10.2019
5487 Clear 11 1020 29 0 2.83 4 14:43 22.10.2019
5488 Clear 13 1020 28 0 1.34 338 14:20 22.10.2019
5489 Clear 12 1020 28 0 2.64 357 13:42 22.10.2019
5490 Clear 14 1022 39 0 2.64 357 13:22 22.10.2019
5491 Clear 14 1022 39 0 2.64 357 12:59 22.10.2019
5492 Clear 14 1022 39 0 2.64 357 12:40 22.10.2019
5493 Clear 12 1021 28 0 0.45 312 12:21 22.10.2019
5494 Clear 12 1021 29 0 0.45 316 11:56 22.10.2019
5495 Clear 12 1022 29 0 0.89 334 11:38 22.10.2019
5496 Clear 13 1022 29 0 0.89 337 11:20 22.10.2019
5497 Clear 13 1022 28 0 0.89 331 10:56 22.10.2019
5498 Clear 14 1022 27 0 2.22 358 10:37 22.10.2019
5499 Clear 13 1022 28 0 1.34 335 10:18 22.10.2019
5500 Clear 13 1022 29 0 0.45 332 09:54 22.10.2019
5501 Clear 13 1022 30 0 1.34 327 09:36 22.10.2019
5502 Clear 13 1022 30 0 1.34 356 09:18 22.10.2019
5503 Clear 14 1022 28 0 1.51 358 08:42 22.10.2019
5504 Clear 15 1022 27 0 0.45 148 08:20 22.10.2019
5505 Clear 16 1022 25 0 0.89 329 07:45 22.10.2019
5506 Clear 16 1022 24 0 0.89 290 07:26 22.10.2019
5507 Clear 18 1021 22 0 2.68 354 06:48 22.10.2019
5508 Clear 18 1021 22 0 1.34 18 06:30 22.10.2019
5509 Clear 18 1021 22 0 1.34 6 05:50 22.10.2019
5510 Clear 19 1021 21 0 2.24 346 05:19 22.10.2019
5511 Clear 24 1018 16 0 2.24 2 02:47 22.10.2019
5512 Clear 24 1018 18 0 1.73 81 02:28 22.10.2019
5513 Clear 24 1018 18 0 1.73 81 01:27 22.10.2019
5514 Clear 24 1018 18 0 1.73 81 00:57 22.10.2019
5515 Clear 24 1018 18 0 1.73 81 00:39 22.10.2019
5516 Clear 23 1018 20 0 2.53 67 00:20 22.10.2019
5517 Clear 23 1018 20 0 2.53 67 23:54 21.10.2019
5518 Clear 23 1018 20 0 2.53 67 23:36 21.10.2019
5519 Clear 23 1018 20 0 2.53 67 23:18 21.10.2019
5520 Clear 28 1019 13 0 2.68 345 22:54 21.10.2019
5521 Clear 28 1019 13 0 1.79 29 22:36 21.10.2019
5522 Clear 27 1019 14 0 2.68 1 22:18 21.10.2019
5523 Clear 26 1020 15 0 3.58 3 21:41 21.10.2019
5524 Clouds 20 1020 24 0 2.3 51 21:23 21.10.2019
5525 Clouds 20 1020 24 0 2.3 51 20:59 21.10.2019
5526 Clouds 20 1020 24 0 2.3 51 20:41 21.10.2019
5527 Clouds 20 1020 24 0 2.3 51 20:21 21.10.2019
5528 Clouds 20 1020 24 0 2.3 51 19:59 21.10.2019
5529 Clouds 22 1021 19 0 3.58 346 19:40 21.10.2019
5530 Clouds 21 1020 21 0 4.02 9 19:22 21.10.2019
5531 Clouds 21 1020 22 0 3.13 338 18:56 21.10.2019
5532 Clouds 20 1020 24 0 2.3 51 18:37 21.10.2019
5533 Clouds 15 1020 30 0 1.27 352 18:19 21.10.2019
5534 Clouds 15 1020 30 0 1.27 352 17:57 21.10.2019
5535 Clouds 16 1020 29 0 1.34 327 17:38 21.10.2019
5536 Clouds 14 1020 31 0 3.13 293 17:18 21.10.2019
5537 Clouds 13 1019 32 0 1.79 340 16:56 21.10.2019
5538 Clouds 13 1019 34 0 2.24 352 16:38 21.10.2019
5539 Clouds 12 1019 34 0 2.24 335 16:20 21.10.2019
5540 Clouds 12 1018 34 0 2.24 331 15:46 21.10.2019
5541 Clouds 12 1018 34 0 1.79 340 15:25 21.10.2019
5542 Clouds 12 1018 33 0 2.24 356 14:58 21.10.2019
5543 Clouds 12 1018 33 0 2.68 350 14:39 21.10.2019
5544 Clouds 12 1018 33 0 2.24 12 14:20 21.10.2019
5545 Clouds 11 1017 35 0 2.68 341 13:56 21.10.2019
5546 Clouds 8 1017 38 0 0.45 302 13:38 21.10.2019
5547 Clouds 8 1017 38 0 0.45 274 13:19 21.10.2019
5548 Clouds 9 1017 37 0 0.4 333 12:42 21.10.2019
5549 Clear 8 1017 37 0 0.7 356.246 12:22 21.10.2019
5550 Clear 8 1017 40 0 0.45 262 11:57 21.10.2019
5551 Clear 8 1017 41 0 0.7 356.246 11:39 21.10.2019
5552 Clear 8 1017 40 0 0.7 356.246 11:20 21.10.2019
5553 Clear 8 1017 40 0 0.7 356.246 10:57 21.10.2019
5554 Clear 8 1017 38 0 0.7 356.246 10:38 21.10.2019
5555 Clear 9 1017 36 0 0.7 356.246 10:19 21.10.2019
5556 Clear 9 1017 37 0 0.89 345 09:48 21.10.2019
5557 Clear 9 1017 35 0 0.7 356.246 09:26 21.10.2019
5558 Clear 9 1017 36 0 0.89 338 08:58 21.10.2019
5559 Clear 9 1017 33 0 0.59 293.211 08:40 21.10.2019
5560 Clear 11 1017 33 0 0.59 293.211 08:22 21.10.2019
5561 Clear 10 1017 35 0 0.89 12 07:44 21.10.2019
5562 Clear 10 1017 32 0 0.45 14 07:21 21.10.2019
5563 Clear 11 1017 30 0 0.59 293.211 06:57 21.10.2019
5564 Clear 15 1018 27 0 0.59 293.211 06:39 21.10.2019
5565 Clear 14 1016 26 0 0.89 358 05:57 21.10.2019
5566 Clear 14 1016 26 0 0.89 358 05:57 21.10.2019
5567 Clear 14 1016 26 0 0.89 358 05:57 21.10.2019
5568 Clear 17 1017 25 0 0.93 319.785 04:50 21.10.2019
5569 Clear 17 1017 25 0 0.93 319.785 03:38 21.10.2019
5570 Clear 25 1015 14 0 1.71 347.453 02:37 21.10.2019
5571 Clear 25 1015 14 0 1.71 347.453 02:19 21.10.2019
5572 Clear 25 1015 14 0 1.71 347.453 01:38 21.10.2019
5573 Clear 25 1015 14 0 1.72 323.456 00:51 21.10.2019
5574 Clear 25 1015 14 0 1.72 323.456 00:28 21.10.2019
5575 Clear 24 1015 16 0 2.06 358.916 23:57 20.10.2019
5576 Clear 24 1015 16 0 2.06 358.916 23:38 20.10.2019
5577 Clear 24 1015 16 0 2.06 358.916 23:20 20.10.2019
5578 Clear 24 1015 14 0 0.89 36 22:41 20.10.2019
5579 Clear 24 1015 16 0 2.06 358.916 22:23 20.10.2019
5580 Clear 24 1015 16 0 2.06 358.916 21:59 20.10.2019
5581 Clear 23 1016 15 0 2.24 358 21:40 20.10.2019
5582 Clear 20 1018 21 0 1.1 1.298 21:21 20.10.2019
5583 Clear 20 1018 23 0 1.12 3.678 20:56 20.10.2019
5584 Clear 20 1018 23 0 1.12 3.678 20:38 20.10.2019
5585 Clear 20 1018 23 0 1.12 3.678 20:18 20.10.2019
5586 Clear 20 1016 19 0 0.89 83 19:55 20.10.2019
5587 Clear 19 1016 21 0 0.89 29 19:37 20.10.2019
5588 Clear 18 1017 22 0 0.89 352 19:18 20.10.2019
5589 Clear 16 1017 26 0 1.34 344 18:40 20.10.2019
5590 Clear 15 1018 34 0 1.21 331.651 18:22 20.10.2019
5591 Clear 13 1016 29 0 0.89 337 17:57 20.10.2019
5592 Clear 11 1016 33 0 0.45 301 17:38 20.10.2019
5593 Clear 10 1015 35 0 0.89 315 17:20 20.10.2019
5594 Clear 9 1015 36 0 0.89 349 16:43 20.10.2019
5595 Clear 9 1014 37 0 2.24 316 16:24 20.10.2019
5596 Clear 8 1014 37 0 3.13 316 15:59 20.10.2019
5597 Clear 9 1014 37 0 1.79 335 15:40 20.10.2019
5598 Clear 9 1014 37 0 1.79 335 15:40 20.10.2019
5599 Clear 9 1014 35 0 1.34 328 15:21 20.10.2019
5600 Clear 10 1013 34 0 1.34 320 14:58 20.10.2019
5601 Clear 10 1013 34 0 1.34 321 14:38 20.10.2019
5602 Clear 10 1013 34 0 1.34 321 14:19 20.10.2019
5603 Clear 10 1013 34 0 1.79 343 13:56 20.10.2019
5604 Clear 10 1012 32 0 1.34 7 13:37 20.10.2019
5605 Clouds 12 1015 36 0 1.44 342.836 13:18 20.10.2019
5606 Clouds 12 1015 36 0 1.44 342.836 12:57 20.10.2019
5607 Clouds 12 1015 36 0 1.44 342.836 12:39 20.10.2019
5608 Clouds 11 1012 30 0 1.79 340 12:21 20.10.2019
5609 Clouds 11 1012 28 0 0.89 304 11:57 20.10.2019
5610 Clouds 12 1012 27 0 0.89 296 11:39 20.10.2019
5611 Clouds 12 1012 28 0 0.89 309 11:21 20.10.2019
5612 Clouds 12 1012 28 0 1.34 335 10:54 20.10.2019
5613 Clouds 12 1012 28 0 1.34 321 10:36 20.10.2019
5614 Clouds 12 1012 27 0 1.34 329 10:18 20.10.2019
5615 Clouds 12 1012 24 0 0.45 281 09:42 20.10.2019
5616 Clear 10 1012 26 0 1.79 347 09:22 20.10.2019
5617 Clouds 9 1012 30 0 1.2 351.54 08:49 20.10.2019
5618 Clouds 8 1012 32 0 1.2 351.54 08:27 20.10.2019
5619 Clouds 8 1012 33 0 1.2 351.54 07:57 20.10.2019
5620 Clouds 9 1012 31 0 1.2 351.54 07:39 20.10.2019
5621 Clouds 9 1012 31 0 1.2 351.54 07:20 20.10.2019
5622 Clouds 10 1011 30 0 1.23 280.778 06:23 20.10.2019
5623 Clouds 17 1011 18 0 1.23 280.778 04:28 20.10.2019
5624 Clouds 17 1011 18 0 1.23 280.778 04:28 20.10.2019
5625 Clouds 17 1011 18 0 1.23 280.778 03:48 20.10.2019
5626 Clouds 16 1010 22 0 0.45 8 03:21 20.10.2019
5627 Clouds 18 1010 18 0 1.34 56 02:45 20.10.2019
5628 Clouds 22 1010 14 0 1.34 59 02:18 20.10.2019
5629 Clouds 23 1010 14 0 1.34 67 01:43 20.10.2019
5630 Clouds 23 1011 13 0 1.34 62 01:19 20.10.2019
5631 Clouds 23 1011 13 0 2.24 10 00:42 20.10.2019
5632 Clouds 22 1011 13 0 1.34 50 00:20 20.10.2019
5633 Clouds 21 1011 15 0 1.79 3 23:43 19.10.2019
5634 Clouds 22 1012 14 0 1.79 24 23:24 19.10.2019
5635 Clouds 22 1012 14 0 1.79 65 22:58 19.10.2019
5636 Clouds 22 1012 14 0 2.24 33 22:40 19.10.2019
5637 Clouds 22 1012 13 0 2.24 29 22:20 19.10.2019
5638 Clouds 24 1012 11 0 1.34 35 21:46 19.10.2019
5639 Clouds 24 1012 11 0 1.34 35 21:46 19.10.2019
5640 Clouds 25 1011 9 0 2.87 88.723 21:25 19.10.2019
5641 Clear 23 1014 10 0 2.12 81.032 20:57 19.10.2019
5642 Clear 23 1014 10 0 2.12 81.032 20:39 19.10.2019
5643 Clear 23 1014 10 0 2.12 81.032 20:20 19.10.2019
5644 Clear 21 1014 15 0 1.34 79 19:41 19.10.2019
5645 Clear 19 1014 17 0 0.89 75 19:23 19.10.2019
5646 Clear 17 1014 20 0 0.45 204 18:54 19.10.2019
5647 Clear 16 1014 20 0 0.89 212 18:36 19.10.2019
5648 Clear 16 1014 21 0 0.89 177 18:18 19.10.2019
5649 Clear 16 1014 21 0 0.89 177 18:18 19.10.2019
5650 Clear 16 1014 21 0 0.89 177 18:18 19.10.2019
5651 Clear 13 1015 24 0 0.45 221 17:40 19.10.2019
5652 Clear 10 1014 30 0 0.89 182.324 17:21 19.10.2019
5653 Clear 10 1014 30 0 0.45 321 16:55 19.10.2019
5654 Clear 10 1013 29 0 0.89 182.324 16:37 19.10.2019
5655 Clear 10 1014 29 0 0.89 315 16:18 19.10.2019
5656 Clear 10 1014 29 0 0.89 315 16:18 19.10.2019
5657 Clear 10 1014 28 0 1.34 339 15:40 19.10.2019
5658 Clear 10 1013 27 0 1.34 340 15:22 19.10.2019
5659 Clear 9 1014 30 0 1.79 7 14:38 19.10.2019
5660 Clear 5 1013 34 0 0.89 345 14:20 19.10.2019
5661 Clear 5 1013 34 0 0.89 345 13:57 19.10.2019
5662 Clear 4 1013 34 0 0.59 313.478 13:39 19.10.2019
5663 Clear 4 1013 35 0 0.67 287.222 13:18 19.10.2019
5664 Clear 4 1013 34 0 0.67 287.222 12:55 19.10.2019
5665 Clear 4 1013 34 0 0.67 287.222 12:36 19.10.2019
5666 Clear 4 1014 33 0 0.76 266.292 12:18 19.10.2019
5667 Clear 4 1014 35 0 0.76 266.292 11:41 19.10.2019
5668 Clear 4 1014 35 0 0.76 266.292 11:22 19.10.2019
5669 Clear 4 1014 34 0 0.76 266.292 10:56 19.10.2019
5670 Clear 5 1013 32 0 0.76 266.292 10:38 19.10.2019
5671 Clear 6 1013 31 0 0.76 266.292 10:19 19.10.2019
5672 Clear 6 1013 33 0 0.76 266.292 09:42 19.10.2019
5673 Clear 6 1013 33 0 0.59 289.359 09:24 19.10.2019
5674 Clear 6 1013 32 0 0.88 308.069 08:59 19.10.2019
5675 Clear 7 1013 31 0 0.88 308.069 08:40 19.10.2019
5676 Clear 7 1013 31 0 0.88 308.069 08:21 19.10.2019
5677 Clear 7 1013 30 0 0.88 308.069 07:44 19.10.2019
5678 Clear 7 1013 31 0 0.88 308.069 07:25 19.10.2019
5679 Clear 7 1013 31 0 0.88 308.069 07:25 19.10.2019
5680 Clear 8 1012 30 0 0.88 308.069 06:47 19.10.2019
5681 Clear 9 1012 29 0 0.78 166.895 05:58 19.10.2019
5682 Clear 11 1012 26 0 0.78 166.895 05:33 19.10.2019
5683 Clear 15 1012 15 0 0.78 166.895 04:22 19.10.2019
5684 Clear 18 1011 13 0 1.34 205 02:46 19.10.2019
5685 Clear 24 1011 9 0 1.6 90.322 01:53 19.10.2019
5686 Clear 24 1011 9 0 1.59 99.587 01:25 19.10.2019
5687 Clear 24 1011 9 0 1.59 99.587 00:48 19.10.2019
5688 Clear 24 1011 9 0 1.59 99.587 00:27 19.10.2019
5689 Clear 24 1012 9 0 1.75 12.273 23:45 18.10.2019
5690 Clear 24 1012 9 0 1.75 12.273 23:27 18.10.2019
5691 Clear 24 1012 9 0 1.75 12.273 22:58 18.10.2019
5692 Clear 24 1011 7 0 1.34 87 22:40 18.10.2019
5693 Clear 21 1012 9 0 0.89 126 22:20 18.10.2019
5694 Clear 21 1012 10 0 0.89 177 21:59 18.10.2019
5695 Clear 23 1013 11 0 1.34 66 21:39 18.10.2019
5696 Clear 21 1015 13 0 1.62 10.416 21:20 18.10.2019
5697 Clear 21 1015 13 0 1.62 10.416 20:58 18.10.2019
5698 Clear 21 1015 13 0 1.62 10.416 20:40 18.10.2019
5699 Clear 21 1015 13 0 1.62 10.416 20:21 18.10.2019
5700 Clear 21 1015 13 0 1.62 10.416 20:21 18.10.2019
5701 Clear 21 1015 13 0 1.62 10.416 19:57 18.10.2019
5702 Clear 17 1014 18 0 1.34 262 19:39 18.10.2019
5703 Clear 17 1014 17 0 0.89 314 19:20 18.10.2019
5704 Clear 17 1014 17 0 1.79 13 18:57 18.10.2019
5705 Clear 16 1013 19 0 2.68 347 18:38 18.10.2019
5706 Clear 15 1015 17 0 0.63 11.813 18:20 18.10.2019
5707 Clear 15 1015 17 0 0.63 11.813 17:39 18.10.2019
5708 Clear 11 1012 26 0 1.79 344 17:20 18.10.2019
5709 Clear 11 1012 27 0 2.68 341 16:59 18.10.2019
5710 Clear 9 1011 29 0 4.02 333 16:38 18.10.2019
5711 Clear 8 1011 32 0 3.58 306 16:19 18.10.2019
5712 Clear 8 1011 32 0 3.58 306 16:19 18.10.2019
5713 Clear 7 1011 35 0 1.79 326 15:54 18.10.2019
5714 Clear 7 1011 37 0 1.79 318 15:36 18.10.2019
5715 Clear 6 1011 37 0 1.34 308 15:18 18.10.2019
5716 Clear 6 1011 37 0 1.34 308 15:18 18.10.2019
5717 Clear 6 1010 39 0 0.45 329 14:54 18.10.2019
5718 Clear 7 1010 36 0 0.45 327 14:36 18.10.2019
5719 Clear 7 1010 36 0 0.45 327 14:36 18.10.2019
5720 Clear 7 1010 36 0 0.45 327 14:18 18.10.2019
5721 Clear 7 1010 36 0 1.34 334 13:41 18.10.2019
5722 Clear 7 1009 36 0 0.45 306 13:23 18.10.2019
5723 Clear 8 1009 35 0 0.45 301 12:58 18.10.2019
5724 Clear 8 1009 34 0 1.34 281 12:39 18.10.2019
5725 Clear 8 1009 35 0 1.34 4 12:21 18.10.2019
5726 Clear 8 1008 35 0 1.34 330 11:56 18.10.2019
5727 Clear 8 1008 35 0 1.79 310 11:38 18.10.2019
5728 Clear 8 1008 34 0 0.89 314 11:19 18.10.2019
5729 Clear 8 1008 34 0 0.89 314 11:19 18.10.2019
5730 Clear 9 1007 34 0 2.24 335 10:56 18.10.2019
5731 Clear 9 1007 34 0 2.24 335 10:55 18.10.2019
5732 -273 0 0 0 0 0 10:55 18.10.2019
5733 Clear 9 1007 34 0 1.34 282 10:37 18.10.2019
5734 Clear 9 1007 34 0 4.47 347 10:18 18.10.2019
5735 Clear 10 1007 34 0 1.34 285 09:54 18.10.2019
5736 Clear 10 1006 33 0 1.34 292 09:36 18.10.2019
5737 Clear 11 1006 33 0 1.79 315 09:18 18.10.2019
5738 Clear 11 1006 31 0 2.24 1 08:42 18.10.2019
5739 Clear 12 1005 31 0 1.34 302 08:22 18.10.2019
5740 Clear 12 1005 29 0 1.79 270 07:44 18.10.2019
5741 Clear 13 1005 28 0 1.79 353 07:26 18.10.2019
5742 Clear 19 1009 17 0 3.73 307.451 06:40 18.10.2019
5743 Clear 15 1003 25 0 4.92 337 06:22 18.10.2019
5744 Clear 15 1003 25 0 4.92 337 06:22 18.10.2019
5745 Clear 15 1002 26 0 4.47 355 05:57 18.10.2019
5746 Clear 16 1001 30 0 2.68 331 05:24 18.10.2019
5747 Clear 16 1001 30 0 2.68 331 05:24 18.10.2019
5748 Clear 20 1004 20 0 0.92 309.526 04:47 18.10.2019
5749 Clear 20 1004 20 0 0.92 309.526 03:33 18.10.2019
5750 Clear 20 998 22 0 1.79 232 02:36 18.10.2019
5751 Clear 22 998 18 0 2.68 181 01:55 18.10.2019
5752 Clear 22 998 17 0 2.68 165 01:30 18.10.2019
5753 Clear 29 1001 11 0 2.08 99.403 00:46 18.10.2019
5754 Clear 28 1002 12 0 2.47 28.64 00:21 18.10.2019
5755 Clear 28 1002 12 0 2.47 28.64 23:59 17.10.2019
5756 Clear 28 1002 12 0 2.47 28.64 23:38 17.10.2019
5757 Clear 28 1002 12 0 2.47 28.64 23:19 17.10.2019
5758 Clear 26 999 18 0 2.24 4 22:55 17.10.2019
5759 Clear 26 999 18 0 2.24 4 22:55 17.10.2019
5760 Clear 26 1000 17 0 1.79 55 22:37 17.10.2019
5761 Clear 26 1000 17 0 1.79 55 22:37 17.10.2019
5762 Clear 25 1000 18 0 1.79 59 22:18 17.10.2019
5763 Clear 24 1000 19 0 1.34 60 21:56 17.10.2019
5764 Clear 24 1001 19 0 3.58 355 21:37 17.10.2019
5765 Clear 24 1001 19 0 3.58 355 21:37 17.10.2019
5766 Clouds 26 1005 15 0 1.72 14.666 21:19 17.10.2019
5767 Clouds 26 1006 16 0 1.64 41.038 20:56 17.10.2019
5768 Clouds 22 1001 22 0 2.24 92 20:38 17.10.2019
5769 Clouds 26 1006 16 0 1.64 41.038 20:18 17.10.2019
5770 Clouds 21 1002 23 0 1.79 85 19:55 17.10.2019
5771 Clouds 20 1002 24 0 2.24 81 19:37 17.10.2019
5772 Clouds 19 1002 25 0 1.79 32 19:18 17.10.2019
5773 Clouds 19 1002 25 0 1.79 32 19:18 17.10.2019
5774 Clouds 18 1002 27 0 1.79 31 18:42 17.10.2019
5775 Clouds 20 1007 24 0 0.79 145.049 18:21 17.10.2019
5776 Clouds 20 1007 24 0 0.79 145.049 18:21 17.10.2019
5777 Clouds 17 1002 28 0 1.79 75 17:55 17.10.2019
5778 Clouds 16 1002 29 0 1.34 45 17:37 17.10.2019
5779 Clouds 15 1002 30 0 0.89 28 17:19 17.10.2019
5780 Clouds 13 1002 34 0 1.34 108 16:55 17.10.2019
5781 Clouds 14 1002 33 0 1.79 99 16:36 17.10.2019
5782 Clouds 14 1003 33 0 0.89 130 16:18 17.10.2019
5783 Clouds 14 1003 32 0 2.24 159 15:41 17.10.2019
5784 Clouds 17 1007 27 0 4.407 224 15:21 17.10.2019
5785 Clouds 17 1007 27 0 4.407 224 14:59 17.10.2019
5786 Clouds 17 1007 27 0 4.407 224 14:41 17.10.2019
5787 Clouds 17 1007 26 0 4.23 242 14:23 17.10.2019
5788 Clouds 17 1007 26 0 4.23 242 13:54 17.10.2019
5789 Clouds 17 1007 26 0 4.23 242 13:36 17.10.2019
5790 Clouds 17 1007 26 0 4.23 242 13:18 17.10.2019
5791 Clouds 17 1007 26 0 4.23 242 12:41 17.10.2019
5792 Clouds 18 1008 26 0 3.222 245 12:20 17.10.2019
5793 Clouds 18 1008 26 0 3.222 245 11:58 17.10.2019
5794 Clouds 18 1008 26 0 3.222 245 11:40 17.10.2019
5795 Clouds 18 1008 26 0 3.222 245 11:19 17.10.2019
5796 Clouds 18 1008 26 0 3.222 245 10:54 17.10.2019
5797 Clouds 14 1007 29 0 0.45 208 10:36 17.10.2019
5798 Clouds 13 1008 30 0 0.45 90 10:18 17.10.2019
5799 Clouds 13 1008 30 0 0.45 90 10:18 17.10.2019
5800 Clouds 13 1008 29 0 3.222 245 09:41 17.10.2019
5801 Clouds 14 1008 28 0 0.45 341 09:22 17.10.2019
5802 Clouds 14 1008 27 0 1.619 212 08:58 17.10.2019
5803 Clouds 13 1009 30 0 0.45 226 08:39 17.10.2019
5804 Clouds 12 1009 32 0 0.45 10 08:21 17.10.2019
5805 Clouds 11 1009 29 0 0.45 16 07:55 17.10.2019
5806 Clouds 11 1009 29 0 0.45 16 07:55 17.10.2019
5807 Clouds 12 1010 28 0 1.619 212 07:37 17.10.2019
5808 Clouds 12 1010 28 0 1.619 212 07:18 17.10.2019
5809 Clouds 13 1010 26 0 0.45 237 06:40 17.10.2019
5810 Clouds 14 1010 23 0 0.45 219 06:21 17.10.2019
5811 Clouds 17 1010 21 0 2.363 233 05:52 17.10.2019
5812 Clouds 17 1010 20 0 2.363 233 05:32 17.10.2019
5813 Clouds 17 1010 20 0 2.363 233 05:32 17.10.2019
5814 Clouds 17 1010 20 0 2.363 233 04:53 17.10.2019
5815 Clouds 18 1010 18 0 0.45 233 03:55 17.10.2019
5816 Clouds 22 1011 15 0 1.79 191 02:36 17.10.2019
5817 Clouds 23 1011 14 0 3.13 235 01:27 17.10.2019
5818 Clouds 23 1012 15 0 2.68 222 00:38 17.10.2019
5819 Clouds 24 1012 13 0 3.58 185 00:19 17.10.2019
5820 Clouds 26 1012 13 0 1.79 201 23:42 16.10.2019
5821 Clouds 26 1013 13 0 2.68 119 23:21 16.10.2019
5822 Clouds 26 1013 11 0 0.89 185 22:56 16.10.2019
5823 Clouds 27 1013 11 0 1.79 93 22:37 16.10.2019
5824 Clouds 27 1013 12 0 3.13 202 22:19 16.10.2019
5825 Clouds 28 1014 10 0 2.24 115 21:56 16.10.2019
5826 Clouds 28 1014 8 0 2.24 82 21:37 16.10.2019
5827 Clouds 25 1016 9 0 1.984 107 21:19 16.10.2019
5828 Clouds 25 1016 9 0 1.984 107 20:58 16.10.2019
5829 Clouds 25 1016 9 0 1.984 107 20:39 16.10.2019
5830 Clouds 25 1016 9 0 1.984 107 20:20 16.10.2019
5831 Clouds 25 1016 9 0 1.984 107 19:58 16.10.2019
5832 Clouds 25 1016 9 0 1.984 107 19:38 16.10.2019
5833 Clouds 25 1016 15 0 1.34 116 19:20 16.10.2019
5834 Clouds 25 1016 15 0 1.34 116 19:20 16.10.2019
5835 Clouds 23 1016 17 0 1.984 107 18:39 16.10.2019
5836 Clouds 17 1016 12 0 0.365 318 18:20 16.10.2019
5837 Clouds 20 1017 20 0 0.365 318 17:58 16.10.2019
5838 Clouds 14 1017 29 0 0.365 318 17:39 16.10.2019
5839 Clouds 11 1017 35 0 0.365 318 17:21 16.10.2019
5840 Clouds 17 1016 12 0 0.365 318 17:00 16.10.2019
5841 Clouds 7 1017 40 0 0.365 318 16:41 16.10.2019
5842 Clouds 7 1017 37 0 0.365 318 16:21 16.10.2019
5843 Clouds 7 1017 37 0 0.365 318 15:57 16.10.2019
5844 Clouds 6 1017 38 0 0.365 318 15:38 16.10.2019
5845 Clouds 6 1017 37 0 0.583 17 15:18 16.10.2019
5846 Clouds 6 1016 36 0 0.583 17 14:56 16.10.2019
5847 Clouds 6 1017 35 0 0.583 17 14:38 16.10.2019
5848 Clouds 6 1017 33 0 0.655 10 14:18 16.10.2019
5849 Clouds 6 1017 34 0 0.655 10 13:56 16.10.2019
5850 Clouds 6 1017 34 0 0.655 10 13:56 16.10.2019
5851 Clouds 6 1017 34 0 0.655 10 13:56 16.10.2019
5852 Clouds 7 1016 32 0 0.655 10 13:37 16.10.2019
5853 Clouds 7 1016 32 0 0.655 10 13:19 16.10.2019
5854 Clouds 7 1017 28 0 0.655 10 12:41 16.10.2019
5855 Clouds 7 1017 28 0 0.45 342 12:19 16.10.2019
5856 Clouds 7 1017 25 0 0.703 330 11:44 16.10.2019
5857 Clouds 7 1017 22 0 0.703 330 11:19 16.10.2019
5858 Clouds 7 1018 21 0 0.45 342 10:41 16.10.2019
5859 Clouds 7 1017 22 0 0.703 330 10:22 16.10.2019
5860 Clouds 7 1017 22 0 0.703 330 10:22 16.10.2019
5861 Clouds 7 1017 20 0 0.703 330 09:58 16.10.2019
5862 Clouds 7 1017 20 0 0.703 330 09:58 16.10.2019
5863 Clouds 8 1017 19 0 0.869 298 09:39 16.10.2019
5864 Clouds 8 1017 19 0 0.869 298 09:39 16.10.2019
5865 Clear 9 1017 19 0 0.896 300 09:20 16.10.2019
5866 Clear 9 1018 18 0 0.45 340 08:44 16.10.2019
5867 Clear 8 1018 18 0 0.45 248 08:26 16.10.2019
5868 Clear 8 1018 18 0 0.896 300 07:56 16.10.2019
5869 Clear 9 1018 17 0 0.896 300 07:38 16.10.2019
5870 Clear 9 1018 17 0 0.896 300 07:20 16.10.2019
5871 Clear 9 1018 16 0 0.896 300 06:40 16.10.2019
5872 Clear 10 1017 16 0 0.185 9 06:19 16.10.2019
5873 Clear 15 1017 11 0 0.185 9 03:46 16.10.2019
5874 Clear 24 1016 5 0 1.34 33 02:50 16.10.2019
5875 Clear 25 1015 6 0 2.09 126 01:20 16.10.2019
5876 Clear 25 1015 6 0 2.09 126 00:58 16.10.2019
5877 Clear 25 1015 6 0 2.09 126 00:39 16.10.2019
5878 Clear 25 1016 6 0 2.351 110 23:42 15.10.2019
5879 Clear 25 1016 6 0 2.351 110 23:23 15.10.2019
5880 Clear 25 1016 6 0 2.351 110 22:59 15.10.2019
5881 Clear 25 1016 6 0 2.351 110 22:40 15.10.2019
5882 Clear 29 1017 4 0 0.89 73 22:21 15.10.2019
5883 Clear 29 1018 4 0 0.45 159 21:57 15.10.2019
5884 Clear 29 1018 4 0 0.89 9 21:39 15.10.2019
5885 Clear 23 1019 6 0 2.198 76 21:20 15.10.2019
5886 Clear 23 1019 6 0 2.198 76 20:58 15.10.2019
5887 -273 0 0 0 0 0 20:40 15.10.2019
5888 Clear 23 1019 6 0 2.198 76 20:22 15.10.2019
5889 Clear 23 1019 6 0 2.198 76 19:59 15.10.2019
5890 Clear 26 1019 5 0 0.89 74 19:41 15.10.2019
5891 Clear 22 1019 7 0 0.45 20 19:20 15.10.2019
5892 Clear 23 1019 6 0 2.198 76 18:57 15.10.2019
5893 Clear 23 1019 6 0 2.198 76 18:57 15.10.2019
5894 Clear 23 1019 6 0 2.198 76 18:39 15.10.2019
5895 Clear 16 1018 11 0 1.754 14 18:20 15.10.2019
5896 Clear 17 1019 11 0 1.34 293 17:42 15.10.2019
5897 Clear 16 1018 11 0 1.754 14 17:21 15.10.2019
5898 Clear 16 1018 11 0 1.754 14 16:59 15.10.2019
5899 Clear 13 1019 14 0 1.79 338 16:41 15.10.2019
5900 Clear 16 1018 11 0 1.754 14 16:21 15.10.2019
5901 Clear 5 1018 22 0 1.754 14 15:56 15.10.2019
5902 Clear 6 1018 21 0 1.754 14 15:37 15.10.2019
5903 Clear 7 1018 20 0 1.479 1 15:19 15.10.2019
5904 Clear 7 1017 19 0 1.479 1 14:55 15.10.2019
5905 Clear 7 1017 19 0 1.502 4 14:36 15.10.2019
5906 Clear 7 1017 18 0 0.45 333 14:18 15.10.2019
5907 Clear 8 1017 19 0 1.502 4 13:43 15.10.2019
5908 Clear 9 1017 18 0 0.45 316 13:20 15.10.2019
5909 Clear 9 1017 18 0 1.502 4 12:56 15.10.2019
5910 Clear 7 1016 21 0 0.45 338 12:37 15.10.2019
5911 Clear 6 1016 21 0 1.321 330 12:18 15.10.2019
5912 Clear 7 1017 19 0 0.45 115 11:42 15.10.2019
5913 Clear 8 1017 16 0 1.321 330 11:20 15.10.2019
5914 Clear 8 1017 16 0 1.321 330 11:20 15.10.2019
5915 Clear 12 1016 18 0 1.321 330 10:55 15.10.2019
5916 Clear 15 1017 18 0 0.5 251.06 10:37 15.10.2019
5917 Clear 10 1016 17 0 1.79 353 10:18 15.10.2019
5918 Clear 7 1016 21 0 0.5 251.06 09:40 15.10.2019
5919 Clear 7 1016 21 0 0.5 251.06 09:40 15.10.2019
5920 Clear 7 1016 21 0 0.88 256.059 09:21 15.10.2019
5921 Clear 7 1016 20 0 0.86 243.316 08:58 15.10.2019
5922 Clear 7 1016 20 0 0.86 243.316 08:58 15.10.2019
5923 Clear 7 1015 20 0 0.86 243.316 08:40 15.10.2019
5924 Clear 8 1015 19 0 0.86 243.316 08:20 15.10.2019
5925 Clear 7 1015 21 0 0.86 243.316 07:44 15.10.2019
5926 Clear 8 1015 19 0 0.86 243.316 07:23 15.10.2019
5927 Clear 8 1015 18 0 0.86 243.316 06:58 15.10.2019
5928 Clear 10 1015 16 0 0.86 243.316 06:39 15.10.2019
5929 Clear 9 1014 17 0 1.13 220.326 05:58 15.10.2019
5930 Clear 11 1014 16 0 1.13 220.326 05:37 15.10.2019
5931 Clear 18 1014 11 0 1.13 220.326 04:53 15.10.2019
5932 Clear 18 1014 11 0 1.13 220.326 04:19 15.10.2019
5933 Clear 18 1014 11 0 1.13 220.326 03:35 15.10.2019
5934 Clear 28 1012 6 0 1.17 356.485 02:19 15.10.2019
5935 Clear 28 1012 6 0 1.17 356.485 01:41 15.10.2019
5936 Clear 28 1011 6 0 0.88 18.394 01:18 15.10.2019
5937 Clear 28 1011 6 0 0.88 18.394 00:26 15.10.2019
5938 Clear 27 1012 6 0 1.86 359.907 23:59 14.10.2019
5939 Clear 27 1012 6 0 1.86 359.907 23:38 14.10.2019
5940 Clear 27 1012 6 0 1.86 359.907 23:19 14.10.2019
5941 Clear 27 1012 6 0 1.86 359.907 22:40 14.10.2019
5942 Clear 27 1012 6 0 1.86 359.907 22:21 14.10.2019
5943 Clear 26 1013 6 0 1.34 10 21:59 14.10.2019
5944 Clear 26 1013 6 0 1.34 58 21:40 14.10.2019
5945 Clear 25 1013 7 0 1.82 8.612 21:21 14.10.2019
5946 Clear 25 1013 7 0 1.82 8.612 21:21 14.10.2019
5947 Clear 25 1013 7 0 1.66 11.88 20:58 14.10.2019
5948 Clear 25 1013 7 0 1.66 11.88 20:38 14.10.2019
5949 Clear 25 1013 7 0 1.66 11.88 20:20 14.10.2019
5950 Clear 25 1013 7 0 1.66 11.88 19:58 14.10.2019
5951 -273 0 0 0 0 0 19:39 14.10.2019
5952 Clouds 20 1013 10 0 0.89 331 19:39 14.10.2019
5953 Clouds 19 1013 10 0 0.89 289 19:21 14.10.2019
5954 Clouds 19 1013 10 0 0.89 289 19:21 14.10.2019
5955 Clear 19 1013 10 0 0.89 271 18:57 14.10.2019
5956 Clear 18 1013 11 0 0.89 315 18:38 14.10.2019
5957 Clear 18 1013 12 0 0.63 287.576 18:18 14.10.2019
5958 Clear 18 1013 12 0 0.63 287.576 18:18 14.10.2019
5959 Clear 15 1013 14 0 1.79 328 17:44 14.10.2019
5960 Clear 14 1013 16 0 1.34 320 17:25 14.10.2019
5961 Clear 12 1013 16 0 0.89 291 16:59 14.10.2019
5962 Clear 12 1012 18 0 1.79 299 16:40 14.10.2019
5963 Clear 12 1012 18 0 2.68 331 16:20 14.10.2019
5964 Clear 11 1012 18 0 1.79 327 15:42 14.10.2019
5965 Clouds 11 1012 19 0 2.24 331 15:22 14.10.2019
5966 Clouds 10 1012 20 0 1.34 324 14:56 14.10.2019
5967 Clouds 6 1012 26 0 1.34 345 14:38 14.10.2019
5968 Clouds 6 1012 27 0 0.47 278.922 14:18 14.10.2019
5969 Clouds 6 1011 26 0 0.47 278.922 13:42 14.10.2019
5970 Clouds 6 1011 25 0 0.45 92 13:21 14.10.2019
5971 Clouds 7 1011 24 0 0.7 298.512 12:54 14.10.2019
5972 Clouds 7 1011 24 0 0.7 298.512 12:36 14.10.2019
5973 Clouds 7 1011 24 0 0.45 268 12:18 14.10.2019
5974 Clouds 7 1011 23 0 0.42 317.581 11:44 14.10.2019
5975 Clouds 8 1011 23 0 0.42 317.581 11:24 14.10.2019
5976 Clouds 8 1011 23 0 0.42 317.581 10:55 14.10.2019
5977 Clouds 7 1011 25 0 0.45 4 10:37 14.10.2019
5978 Clouds 7 1011 24 0 0.42 317.581 10:18 14.10.2019
5979 Clouds 7 1011 24 0 0.42 317.581 10:18 14.10.2019
5980 Clouds 8 1011 23 0 0.42 317.581 09:41 14.10.2019
5981 Clouds 8 1011 23 0 0.42 317.581 09:41 14.10.2019
5982 Clouds 8 1011 23 0 0.42 317.581 09:41 14.10.2019
5983 Clear 8 1011 23 0 0.38 175.426 09:21 14.10.2019
5984 Clear 8 1011 22 0 0.38 175.426 08:50 14.10.2019
5985 Clear 9 1011 20 0 0.38 175.426 08:23 14.10.2019
5986 Clear 11 1011 19 0 0.38 175.426 07:47 14.10.2019
5987 Clear 15 1010 11 0 0.38 175.426 07:25 14.10.2019
5988 Clear 15 1010 11 0 0.38 175.426 06:59 14.10.2019
5989 Clear 15 1010 11 0 0.38 175.426 06:28 14.10.2019
5990 Clear 13 1011 16 0 0.89 154 05:57 14.10.2019
5991 Clear 14 1011 13 0 0.89 218 05:27 14.10.2019
5992 Clear 17 1009 10 0 1.27 265.847 03:51 14.10.2019
5993 Clear 17 1009 10 0 1.27 265.847 03:26 14.10.2019
5994 Clear 19 1011 8 0 2.68 233 02:34 14.10.2019
5995 Clouds 21 1011 8 0 3.13 192 01:22 14.10.2019
5996 Clouds 27 1008 4 0 2.19 94.188 00:45 14.10.2019
5997 Clouds 22 1011 8 0 2.68 210 00:19 14.10.2019
5998 Clouds 22 1011 9 0 1.79 186 23:44 13.10.2019
5999 Clouds 22 1011 8 0 2.68 173 23:20 13.10.2019
6000 Clouds 22 1011 8 0 2.68 173 23:20 13.10.2019
6001 Clouds 22 1011 8 0 3.58 107 22:58 13.10.2019
6002 Clouds 22 1011 8 0 3.58 107 22:58 13.10.2019
6003 Clouds 21 1011 7 0 2.24 202 22:40 13.10.2019
6004 Clouds 21 1012 8 0 2.68 195 22:21 13.10.2019
6005 Clouds 22 1012 8 0 2.68 247 21:58 13.10.2019
6006 Clouds 21 1012 8 0 3.58 250 21:37 13.10.2019
6007 Clouds 23 1012 4 0 1.6 46.142 21:18 13.10.2019
6008 Clouds 23 1012 4 0 1.6 46.142 21:18 13.10.2019
6009 -273 0 0 0 0 0 20:57 13.10.2019
6010 Clouds 24 1011 4 0 1.53 37.888 20:38 13.10.2019
6011 Clouds 24 1011 4 0 1.53 37.888 20:19 13.10.2019
6012 Clouds 24 1011 4 0 1.53 37.888 19:57 13.10.2019
6013 Clouds 24 1011 4 0 1.53 37.888 19:57 13.10.2019
6014 Clouds 24 1011 4 0 1.53 37.888 19:57 13.10.2019
6015 Clouds 20 1013 4 0 1.79 69 19:39 13.10.2019
6016 Clouds 19 1013 4 0 1.34 66 19:20 13.10.2019
6017 Clouds 19 1013 5 0 0.89 81 18:55 13.10.2019
6018 -273 0 0 0 0 0 18:55 13.10.2019
6019 -273 0 0 0 0 0 18:54 13.10.2019
6020 Clouds 18 1013 5 0 0.89 77 18:36 13.10.2019
6021 Clear 14 1013 8 0 0.23 138.285 18:18 13.10.2019
6022 Clear 14 1013 8 0 0.23 138.285 18:18 13.10.2019
6023 Clear 13 1013 8 0 0.45 156 17:43 13.10.2019
6024 Clear 10 1013 11 0 0.23 138.285 17:25 13.10.2019
6025 Clear 5 1013 15 0 0.23 138.285 16:56 13.10.2019
6026 Clear 2 1013 18 0 0.23 138.285 16:36 13.10.2019
6027 Clear 2 1013 17 0 0.23 138.285 16:18 13.10.2019
6028 Clear 2 1013 16 0 0.45 28 15:55 13.10.2019
6029 Clear 2 1013 16 0 0.23 138.285 15:36 13.10.2019
6030 -273 0 0 0 0 0 15:18 13.10.2019
6031 Clear 2 1013 17 0 0.18 271.899 14:56 13.10.2019
6032 Clear 2 1013 16 0 0.18 271.899 14:37 13.10.2019
6033 Clear 2 1013 16 0 0.45 76 14:18 13.10.2019
6034 Clear 2 1013 15 0 0.18 271.899 13:39 13.10.2019
6035 Clear 2 1013 15 0 0.24 291.623 13:21 13.10.2019
6036 Clear 3 1013 14 0 0.24 291.623 12:57 13.10.2019
6037 Clear 3 1013 15 0 0.24 291.623 12:39 13.10.2019
6038 Clear 3 1013 14 0 0.42 286.803 12:20 13.10.2019
6039 Clear 3 1013 15 0 0.42 286.803 11:58 13.10.2019
6040 Clear 4 1013 13 0 0.42 286.803 11:38 13.10.2019
6041 Clear 4 1013 13 0 0.42 286.803 11:38 13.10.2019
6042 Clear 12 1012 16 0 0.42 286.803 11:19 13.10.2019
6043 Clear 4 1013 13 0 0.42 286.803 10:43 13.10.2019
6044 Clear 3 1013 15 0 0.42 286.803 10:24 13.10.2019
6045 Clear 3 1014 15 0 0.45 349 09:59 13.10.2019
6046 Clear 3 1013 14 0 0.42 286.803 09:39 13.10.2019
6047 Clear 3 1014 14 0 0.43 219.28 09:20 13.10.2019
6048 Clear 3 1014 14 0 0.43 219.28 09:20 13.10.2019
6049 Clear 3 1014 13 0 0.41 289.852 08:43 13.10.2019
6050 Clear 4 1014 12 0 0.41 289.852 08:25 13.10.2019
6051 Clear 4 1014 12 0 0.41 289.852 08:25 13.10.2019
6052 Clear 5 1014 10 0 0.41 289.852 07:51 13.10.2019
6053 Clear 6 1014 10 0 0.41 289.852 07:32 13.10.2019
6054 Clear 8 1014 9 0 0.45 344 06:51 13.10.2019
6055 Clear 7 1014 10 0 0.45 353 06:23 13.10.2019
6056 Clear 7 1014 10 0 0.45 353 06:23 13.10.2019
6057 Clear 8 1014 9 0 1.04 175.737 05:19 13.10.2019
6058 Clear 15 1012 7 0 1.04 175.737 04:34 13.10.2019
6059 Clear 19 1013 2 0 1.34 1 02:53 13.10.2019
6060 Clear 25 1010 3 0 0.87 78.767 02:27 13.10.2019
6061 Clear 25 1010 3 0 0.87 78.767 01:36 13.10.2019
6062 Clear 25 1010 3 0 0.87 78.767 01:36 13.10.2019
6063 Clear 25 1010 3 0 1 77.403 00:55 13.10.2019
6064 Clear 25 1010 3 0 1 77.403 00:37 13.10.2019
6065 Clear 25 1010 3 0 1 77.403 00:37 13.10.2019
6066 Clear 25 1012 3 0 1.74 38.408 00:18 13.10.2019
6067 Clear 25 1012 3 0 1.74 38.408 23:41 12.10.2019
6068 Clear 25 1012 3 0 1.74 38.408 23:23 12.10.2019
6069 Clear 25 1012 3 0 1.74 38.408 22:58 12.10.2019
6070 Clear 26 1014 1 0 1.79 50 22:40 12.10.2019
6071 Clear 26 1015 1 0 1.34 40 22:22 12.10.2019
6072 Clear 26 1015 1 0 0.89 9 21:58 12.10.2019
6073 Clear 26 1015 1 0 0.89 9 21:58 12.10.2019
6074 Clear 24 1016 1 0 0.89 58 21:39 12.10.2019
6075 Clear 22 1015 4 0 1.44 8.287 21:21 12.10.2019
6076 Clear 22 1014 4 0 1.45 12.722 20:54 12.10.2019
6077 Clear 22 1014 4 0 1.45 12.722 20:36 12.10.2019
6078 Clear 22 1014 4 0 1.45 12.722 20:18 12.10.2019
6079 Clear 19 1016 3 0 0.45 87 19:36 12.10.2019
6080 Clear 19 1017 3 0 0.45 92 19:18 12.10.2019
6081 Clear 17 1017 4 0 0.45 225 18:43 12.10.2019
6082 Clear 22 1014 4 0 1.45 12.722 18:24 12.10.2019
6083 Clear 12 1016 8 0 0.45 216 17:46 12.10.2019
6084 Clear 6 1016 16 0 0.78 297.776 17:22 12.10.2019
6085 Clear 15 1015 7 0 0.78 297.776 16:59 12.10.2019
6086 Clear 15 1015 7 0 0.78 297.776 16:59 12.10.2019
6087 Clear 2 1016 18 0 0.45 356 16:40 12.10.2019
6088 Clear 1 1016 17 0 0.78 297.776 16:21 12.10.2019
6089 Clear 15 1015 7 0 0.78 297.776 15:56 12.10.2019
6090 Clear 2 1016 14 0 0.78 297.776 15:37 12.10.2019
6091 Clear 3 1016 14 0 0.79 292.904 15:18 12.10.2019
6092 Clear 2 1016 14 0 0.79 292.904 14:40 12.10.2019
6093 Clear 2 1016 14 0 0.79 292.904 14:20 12.10.2019
6094 Clear 2 1016 14 0 0.79 292.904 13:51 12.10.2019
6095 Clear 2 1016 14 0 0.8 286.123 13:32 12.10.2019
6096 Clear 3 1016 12 0 0.8 286.123 12:56 12.10.2019
6097 Clear 3 1016 12 0 0.8 286.123 12:38 12.10.2019
6098 Clear 3 1016 13 0 0.87 270.197 12:20 12.10.2019
6099 Clear 3 1016 12 0 0.87 270.197 11:46 12.10.2019
6100 Clear 4 1017 10 0 0.87 270.197 11:24 12.10.2019
6101 Clear 4 1017 11 0 0.87 270.197 10:58 12.10.2019
6102 Clear 4 1017 10 0 0.87 270.197 10:40 12.10.2019
6103 Clear 3 1017 11 0 0.45 345 10:20 12.10.2019
6104 Clear 3 1017 11 0 0.87 270.197 09:57 12.10.2019
6105 -273 0 0 0 0 0 09:57 12.10.2019
6106 Clear 3 1017 11 0 0.87 270.197 09:38 12.10.2019
6107 Clear 3 1017 10 0 1.24 275.056 09:19 12.10.2019
6108 Clear 3 1017 10 0 1.21 268.575 08:45 12.10.2019
6109 Clear 3 1017 10 0 1.21 268.575 08:25 12.10.2019
6110 Clear 4 1017 9 0 1.21 268.575 07:59 12.10.2019
6111 Clear 4 1017 8 0 1.21 268.575 07:31 12.10.2019
6112 Clear 6 1017 8 0 1.21 268.575 06:37 12.10.2019
6113 Clear 6 1017 6 0 0.68 263.622 05:44 12.10.2019
6114 Clear 9 1016 5 0 0.68 263.622 04:43 12.10.2019
6115 Clear 13 1017 7 0 0.68 263.622 03:56 12.10.2019
6116 Clouds 22 1016 4 0 1.97 334.827 02:54 12.10.2019
6117 Clouds 22 1016 5 0 1.76 326.165 01:35 12.10.2019
6118 Clouds 22 1016 5 0 1.76 326.165 00:57 12.10.2019
6119 Clouds 22 1016 5 0 1.76 326.165 00:38 12.10.2019
6120 Clouds 21 1018 5 0 1.36 348.094 23:56 11.10.2019
6121 Clouds 21 1018 5 0 1.36 348.094 23:37 11.10.2019
6122 Clouds 21 1018 5 0 1.36 348.094 23:19 11.10.2019
6123 Clouds 22 1019 1 0 2.24 54 22:39 11.10.2019
6124 Clouds 22 1019 1 0 1.34 23 22:21 11.10.2019
6125 Clouds 22 1020 1 0 1.34 33 21:55 11.10.2019
6126 Clouds 21 1021 2 0 2.24 107 21:36 11.10.2019
6127 Clouds 17 1022 8 0 1.4 35.229 21:18 11.10.2019
6128 Clouds 17 1022 8 0 1.45 38.493 20:43 11.10.2019
6129 Clouds 18 1022 5 0 0.45 91 20:25 11.10.2019
6130 Clouds 18 1022 5 0 0.45 91 19:56 11.10.2019
6131 Clouds 18 1022 5 0 0.45 91 19:38 11.10.2019
6132 Clouds 17 1022 5 0 0.45 143 19:18 11.10.2019
6133 Clouds 17 1022 5 0 0.89 27 18:57 11.10.2019
6134 Clouds 16 1022 5 0 0.89 175 18:37 11.10.2019
6135 Clouds 16 1022 5 0 0.89 175 18:37 11.10.2019
6136 Clouds 12 1024 11 0 0.66 14.735 18:19 11.10.2019
6137 Clouds 12 1024 11 0 0.66 14.735 17:58 11.10.2019
6138 Clouds 11 1022 8 0 0.45 69 17:37 11.10.2019
6139 Clouds 10 1022 10 0 0.66 14.735 17:18 11.10.2019
6140 Clouds 8 1022 10 0 0.45 304 16:54 11.10.2019
6141 Clouds 8 1022 10 0 0.45 304 16:54 11.10.2019
6142 Clouds 7 1022 10 0 1.34 312 16:36 11.10.2019
6143 Clouds 5 1022 12 0 0.89 356 16:18 11.10.2019
6144 Clouds 4 1022 13 0 1.34 31 15:39 11.10.2019
6145 Clouds 4 1022 13 0 0.51 328.823 15:19 11.10.2019
6146 Clouds 4 1022 13 0 0.45 321 14:49 11.10.2019
6147 Clouds 4 1022 13 0 1.34 270 14:30 11.10.2019
6148 Clouds 3 1022 14 0 0.51 328.823 13:58 11.10.2019
6149 Clouds 4 1022 14 0 0.51 328.823 13:40 11.10.2019
6150 Clouds 5 1022 13 0 0.92 333.24 13:22 11.10.2019
6151 Clouds 6 1022 12 0 0.45 320 12:56 11.10.2019
6152 Clouds 7 1022 11 0 0.92 333.24 12:38 11.10.2019
6153 Clouds 7 1022 10 0 0.45 342 12:20 11.10.2019
6154 Clouds 8 1022 9 0 0.89 1 11:55 11.10.2019
6155 Clouds 8 1022 9 0 0.89 1 11:55 11.10.2019
6156 Clouds 8 1022 9 0 0.89 315 11:36 11.10.2019
6157 Clouds 8 1022 9 0 0.89 18 11:18 11.10.2019
6158 Clouds 9 1022 8 0 1.79 21 10:41 11.10.2019
6159 Clouds 9 1022 8 0 1.79 21 10:23 11.10.2019
6160 Clouds 9 1022 8 0 3.13 337 09:57 11.10.2019
6161 Clouds 9 1022 8 0 1.34 351 09:38 11.10.2019
6162 Clear 9 1022 9 0 3.13 345 09:20 11.10.2019
6163 Clear 9 1022 9 0 3.13 345 09:20 11.10.2019
6164 Clear 9 1022 9 0 1.34 319 08:56 11.10.2019
6165 Clear 9 1022 8 0 1.79 358 08:37 11.10.2019
6166 Clear 9 1022 9 0 1.34 326 08:19 11.10.2019
6167 Clear 11 1022 7 0 2.68 4 07:45 11.10.2019
6168 Clear 11 1022 7 0 2.68 4 07:27 11.10.2019
6169 Clear 11 1022 7 0 3.13 331 06:49 11.10.2019
6170 Clear 11 1022 7 0 2.68 353 06:24 11.10.2019
6171 Clear 11 1021 7 0 3.13 323 05:41 11.10.2019
6172 Clear 11 1021 7 0 3.58 355 05:20 11.10.2019
6173 Clear 15 1021 6 0 2.28 327.984 04:28 11.10.2019
6174 Clear 16 1019 4 0 1.79 21 02:47 11.10.2019
6175 Clear 21 1018 5 0 3.16 299.23 00:52 11.10.2019
6176 Clear 21 1018 5 0 3.16 299.23 00:29 11.10.2019
6177 Clear 20 1019 6 0 5.02 303.43 23:48 10.10.2019
6178 Clear 20 1019 6 0 5.02 303.43 23:23 10.10.2019
6179 Clear 20 1019 6 0 5.02 303.43 22:58 10.10.2019
6180 Clear 17 1018 5 0 2.24 56 22:39 10.10.2019
6181 Clear 17 1018 5 0 2.68 65 22:21 10.10.2019
6182 Clear 17 1018 6 0 1.79 40 21:58 10.10.2019
6183 Clear 16 1019 7 0 4.02 360 21:40 10.10.2019
6184 Clear 17 1022 10 0 4.62 332.775 21:21 10.10.2019
6185 Clear 17 1022 9 0 4.01 345.093 20:57 10.10.2019
6186 Clear 17 1022 9 0 4.01 345.093 20:57 10.10.2019
6187 Clear 17 1022 9 0 4.01 345.093 20:38 10.10.2019
6188 Clear 17 1022 9 0 4.01 345.093 20:18 10.10.2019
6189 Clear 13 1019 9 0 1.79 336 19:54 10.10.2019
6190 Clear 13 1019 9 0 4.92 334 19:36 10.10.2019
6191 Clear 12 1019 10 0 1.79 331 19:18 10.10.2019
6192 Clear 11 1018 11 0 5.36 349 18:41 10.10.2019
6193 Clear 13 1022 15 0 2.34 348.911 18:20 10.10.2019
6194 Clear 8 1017 14 0 4.92 357 17:57 10.10.2019
6195 Clear 6 1017 16 0 6.26 352 17:37 10.10.2019
6196 Clear 6 1017 16 0 6.26 352 17:18 10.10.2019
6197 Clear 6 1016 18 0 5.36 339 16:48 10.10.2019
6198 Clear 5 1016 18 0 5.36 310 16:27 10.10.2019
6199 Clear 5 1016 19 0 5.36 341 15:59 10.10.2019
6200 Clear 5 1015 21 0 7.6 339 15:39 10.10.2019
6201 Clear 5 1015 21 0 7.6 339 15:39 10.10.2019
6202 Clear 5 1015 21 0 6.71 1 15:20 10.10.2019
6203 Clear 6 1014 20 0 5.81 1 14:56 10.10.2019
6204 Clear 6 1014 21 0 7.15 335 14:37 10.10.2019
6205 Clear 6 1014 21 0 7.15 347 14:18 10.10.2019
6206 Clear 6 1013 24 0 2.68 322 13:55 10.10.2019
6207 Clear 6 1013 22 0 4.02 330 13:37 10.10.2019
6208 Clear 6 1013 23 0 4.47 335 13:18 10.10.2019
6209 Clear 6 1012 24 0 4.47 260 12:41 10.10.2019
6210 Clear 14 1017 11 0 2.67 356.733 12:20 10.10.2019
6211 Clear 6 1012 28 0 2.68 337 11:58 10.10.2019
6212 Clear 6 1012 28 0 2.68 337 11:58 10.10.2019
6213 Clear 6 1012 28 0 2.68 337 11:58 10.10.2019
6214 Clear 7 1011 27 0 3.13 290 11:39 10.10.2019
6215 Clear 7 1011 27 0 3.13 324 11:19 10.10.2019
6216 Clear 7 1011 27 0 3.13 330 10:46 10.10.2019
6217 Clear 7 1011 27 0 2.68 330 10:27 10.10.2019
6218 Clear 7 1010 26 0 3.58 254 09:58 10.10.2019
6219 Clear 8 1009 27 0 2.24 325 09:40 10.10.2019
6220 Clear 8 1009 27 0 2.68 329 09:22 10.10.2019
6221 Clear 8 1009 27 0 4.02 322 08:58 10.10.2019
6222 Clear 9 1008 27 0 3.13 338 08:38 10.10.2019
6223 Clear 9 1008 27 0 3.13 338 08:38 10.10.2019
6224 Clear 9 1008 27 0 1.79 254 08:19 10.10.2019
6225 Clear 10 1007 28 0 2.68 288 07:46 10.10.2019
6226 Clear 11 1007 29 0 2.24 272 07:23 10.10.2019
6227 Clear 12 1006 28 0 3.13 316 06:55 10.10.2019
6228 Clear 13 1005 28 0 3.13 328 06:36 10.10.2019
6229 Clear 16 1004 23 0 1.34 246 05:39 10.10.2019
6230 Clear 17 1004 22 0 1.79 320 05:18 10.10.2019
6231 Clear 20 1008 15 0 2.84 26.538 04:34 10.10.2019
6232 Clear 26 1001 10 0 1.79 34 02:29 10.10.2019
6233 Clear 31 1003 9 0 6 32.117 01:37 10.10.2019
6234 Clear 31 1002 9 0 6.27 34.481 01:18 10.10.2019
6235 Clear 31 1002 9 0 6.27 34.481 00:29 10.10.2019
6236 Clear 30 1002 11 0 1.98 56.406 23:42 09.10.2019
6237 Clear 30 1002 11 0 1.98 56.406 23:24 09.10.2019
6238 Clear 30 1002 11 0 1.98 56.406 22:59 09.10.2019
6239 Clear 28 1001 9 0 2.24 67 22:41 09.10.2019
6240 Clear 28 1001 9 0 2.24 22 22:22 09.10.2019
6241 Clear 28 1002 10 0 2.68 354 21:57 09.10.2019
6242 Clear 27 1002 10 0 3.13 33 21:38 09.10.2019
6243 Clear 27 1005 15 0 2.21 85.986 21:19 09.10.2019
6244 Clear 27 1005 15 0 1.94 73.49 20:55 09.10.2019
6245 Clear 27 1005 15 0 1.94 73.49 20:36 09.10.2019
6246 Clear 27 1005 15 0 1.94 73.49 20:18 09.10.2019
6247 Clear 27 1005 15 0 1.94 73.49 20:18 09.10.2019
6248 Clear 24 1004 12 0 2.24 45 19:44 09.10.2019
6249 Clear 24 1004 12 0 1.34 33 19:23 09.10.2019
6250 Clear 23 1004 12 0 0.89 56 18:40 09.10.2019
6251 Clear 22 1007 20 0 0.67 71.43 18:21 09.10.2019
6252 Clear 22 1007 20 0 0.67 71.43 17:59 09.10.2019
6253 Clear 19 1004 12 0 0.67 71.43 17:40 09.10.2019
6254 Clear 19 1004 12 0 0.67 71.43 17:40 09.10.2019
6255 Clear 16 1004 17 0 0.45 258 17:22 09.10.2019
6256 Clear 14 1004 19 0 0.67 71.43 16:58 09.10.2019
6257 Clear 11 1004 24 0 1.79 331 16:40 09.10.2019
6258 Clear 10 1004 26 0 0.67 71.43 16:21 09.10.2019
6259 Clear 11 1004 25 0 0.45 326 15:57 09.10.2019
6260 Clear 9 1003 28 0 0.45 262 15:38 09.10.2019
6261 Clear 9 1003 28 0 0.45 262 15:38 09.10.2019
6262 Clear 10 1003 27 0 0.35 101.634 15:19 09.10.2019
6263 Clear 9 1003 28 0 0.35 101.634 14:55 09.10.2019
6264 Clear 9 1004 29 0 0.35 101.634 14:37 09.10.2019
6265 Clear 9 1004 28 0 0.35 101.634 14:18 09.10.2019
6266 Clear 10 1003 27 0 0.35 101.634 13:39 09.10.2019
6267 Clear 11 1003 26 0 0.45 308 13:20 09.10.2019
6268 Clear 11 1003 27 0 0.47 87.18 12:57 09.10.2019
6269 Clear 11 1003 26 0 0.45 345 12:37 09.10.2019
6270 Clear 11 1004 26 0 0.45 87 12:19 09.10.2019
6271 Clear 12 1004 24 0 0.74 142.483 11:54 09.10.2019
6272 Clear 12 1004 24 0 0.74 142.483 11:36 09.10.2019
6273 Clear 12 1004 24 0 0.74 142.483 11:36 09.10.2019
6274 Clear 12 1004 24 0 0.74 142.483 11:18 09.10.2019
6275 Clear 14 1004 22 0 0.45 50 10:42 09.10.2019
6276 Clear 11 1004 27 0 0.74 142.483 10:20 09.10.2019
6277 Clear 12 1004 27 0 0.74 142.483 09:57 09.10.2019
6278 Clear 12 1004 27 0 0.74 142.483 09:38 09.10.2019
6279 Clouds 12 1004 28 0 0.34 174.56 09:18 09.10.2019
6280 -273 0 0 0 0 0 08:39 09.10.2019
6281 Clouds 12 1005 27 0 0.64 158.049 08:20 09.10.2019
6282 Clouds 12 1005 27 0 0.64 158.049 08:20 09.10.2019
6283 Clouds 12 1005 28 0 0.64 158.049 07:47 09.10.2019
6284 Clouds 12 1005 28 0 0.64 158.049 07:47 09.10.2019
6285 Clouds 13 1005 28 0 0.64 158.049 07:25 09.10.2019
6286 Clouds 13 1005 26 0 0.64 158.049 06:59 09.10.2019
6287 Clouds 14 1005 26 0 0.64 158.049 06:41 09.10.2019
6288 Clouds 16 1005 25 0 0.92 175.247 05:53 09.10.2019
6289 Clouds 17 1005 23 0 0.92 175.247 05:18 09.10.2019
6290 Clouds 24 1008 15 0 0.92 175.247 03:49 09.10.2019
6291 Clouds 26 1005 13 0 3.13 247 02:35 09.10.2019
6292 Clouds 33 1006 8 0 3.22 119.191 01:39 09.10.2019
6293 Clouds 33 1006 8 0 3.22 119.191 01:39 09.10.2019
6294 Clouds 33 1005 8 0 3.13 115.041 01:19 09.10.2019
6295 Clouds 33 1005 8 0 3.13 115.041 00:55 09.10.2019
6296 Clouds 33 1005 8 0 3.13 115.041 00:37 09.10.2019
6297 Clear 32 1008 7 0 2.86 106.947 00:19 09.10.2019
6298 Clear 32 1008 7 0 2.86 106.947 23:39 08.10.2019
6299 Clear 32 1008 7 0 2.86 106.947 23:18 08.10.2019
6300 Clear 31 1007 7 0 2.68 358 22:56 08.10.2019
6301 Clear 31 1007 7 0 1.79 45 22:37 08.10.2019
6302 Clear 30 1008 8 0 1.79 50 22:18 08.10.2019
6303 Clear 31 1008 7 0 2.68 64 21:56 08.10.2019
6304 Clear 31 1008 8 0 1.79 18 21:38 08.10.2019
6305 Clear 29 1010 8 0 1.47 92.736 21:18 08.10.2019
6306 Clear 29 1010 8 0 1.47 92.736 20:55 08.10.2019
6307 Clear 29 1010 8 0 1.47 92.736 20:55 08.10.2019
6308 Clear 30 1010 8 0 1.7 90.067 20:37 08.10.2019
6309 Clear 30 1010 8 0 1.7 90.067 20:18 08.10.2019
6310 -273 0 0 0 0 0 19:56 08.10.2019
6311 Clear 28 1010 10 0 1.7 90.067 19:36 08.10.2019
6312 Clear 27 1010 11 0 0.45 316 19:18 08.10.2019
6313 Clear 25 1010 12 0 1.34 342 18:45 08.10.2019
6314 Clear 24 1010 13 0 1.34 347 18:25 08.10.2019
6315 Clear 22 1010 14 0 1.79 342 17:58 08.10.2019
6316 Clear 20 1010 16 0 2.68 286 17:39 08.10.2019
6317 Clear 18 1010 19 0 1.34 315 17:20 08.10.2019
6318 Clear 16 1010 21 0 0.45 301 16:56 08.10.2019
6319 Clear 16 1010 21 0 0.45 301 16:56 08.10.2019
6320 Clear 14 1010 22 0 0.08 172.266 16:37 08.10.2019
6321 Clear 16 1010 20 0 0.08 172.266 16:19 08.10.2019
6322 Clear 16 1010 19 0 0.45 293 15:40 08.10.2019
6323 Clear 16 1010 19 0 1.79 336 15:20 08.10.2019
6324 Clear 16 1010 19 0 1.79 336 15:20 08.10.2019
6325 Clear 16 1010 19 0 2.24 347 14:57 08.10.2019
6326 Clear 16 1010 20 0 1.34 351 14:38 08.10.2019
6327 Clear 15 1010 20 0 0.89 335 14:19 08.10.2019
6328 Clear 15 1010 20 0 0.45 330 13:55 08.10.2019
6329 Clear 14 1010 21 0 0.41 302.035 13:37 08.10.2019
6330 Clear 14 1010 21 0 0.41 302.035 13:37 08.10.2019
6331 Clear 14 1010 20 0 0.45 337 13:18 08.10.2019
6332 Clear 9 1011 30 0 0.45 322 12:41 08.10.2019
6333 Clear 9 1011 29 0 0.37 311.673 12:20 08.10.2019
6334 Clear 9 1011 29 0 0.37 311.673 11:58 08.10.2019
6335 Clear 9 1011 28 0 0.37 311.673 11:39 08.10.2019
6336 Clear 10 1011 26 0 0.37 311.673 11:21 08.10.2019
6337 Clear 11 1011 27 0 0.37 311.673 10:55 08.10.2019
6338 Clear 10 1011 27 0 0.37 311.673 10:36 08.10.2019
6339 Clear 10 1011 26 0 0.37 311.673 10:18 08.10.2019
6340 Clear 11 1012 26 0 0.37 311.673 09:40 08.10.2019
6341 Clear 11 1012 25 0 0.61 270.657 09:22 08.10.2019
6342 Clear 11 1012 27 0 0.61 270.657 08:54 08.10.2019
6343 Clouds 11 1012 25 0 0.61 278.17 08:36 08.10.2019
6344 Clouds 11 1012 25 0 0.61 278.17 08:18 08.10.2019
6345 Clouds 11 1012 25 0 0.61 278.17 07:41 08.10.2019
6346 Clouds 12 1012 24 0 0.61 278.17 07:19 08.10.2019
6347 Clouds 12 1012 24 0 0.61 278.17 06:46 08.10.2019
6348 Clouds 13 1012 23 0 0.87 175.717 06:23 08.10.2019
6349 Clouds 14 1012 20 0 0.87 175.717 05:44 08.10.2019
6350 Clouds 14 1012 20 0 0.87 175.717 05:44 08.10.2019
6351 Clouds 17 1012 18 0 0.87 175.717 05:21 08.10.2019
6352 Clouds 17 1012 18 0 0.87 175.717 05:21 08.10.2019
6353 Clouds 22 1012 11 0 0.87 175.717 03:32 08.10.2019
6354 Clear 26 1011 11 0 0.89 23 02:46 08.10.2019
6355 Clear 26 1012 10 0 0.89 28 02:26 08.10.2019
6356 Clear 31 1011 6 0 1.06 111.48 01:42 08.10.2019
6357 Clouds 31 1011 6 0 1.24 117.204 01:19 08.10.2019
6358 Clouds 31 1011 6 0 1.24 117.204 00:38 08.10.2019
6359 Clear 31 1014 6 0 1.72 43.303 00:19 08.10.2019
6360 Clear 31 1014 6 0 1.72 43.303 23:39 07.10.2019
6361 Clear 31 1014 6 0 1.72 43.303 23:19 07.10.2019
6362 Clear 31 1014 6 0 1.72 43.303 22:55 07.10.2019
6363 Clear 31 1014 6 0 1.72 43.303 22:55 07.10.2019
6364 Clear 30 1013 9 0 1.79 3 22:37 07.10.2019
6365 Clear 29 1014 9 0 1.79 62 22:19 07.10.2019
6366 Clear 29 1014 9 0 2.24 26 21:55 07.10.2019
6367 Clear 29 1015 9 0 1.79 75 21:37 07.10.2019
6368 Clear 28 1017 9 0 1.72 26.654 21:18 07.10.2019
6369 Clear 28 1017 9 0 1.57 27.989 20:56 07.10.2019
6370 Clear 28 1017 9 0 1.57 27.989 20:38 07.10.2019
6371 Clear 28 1017 9 0 1.57 27.989 20:38 07.10.2019
6372 Clear 28 1017 9 0 1.57 27.989 20:19 07.10.2019
6373 Clear 27 1016 12 0 0.89 56 19:54 07.10.2019
6374 Clear 26 1016 12 0 0.89 56 19:36 07.10.2019
6375 Clear 25 1016 12 0 0.89 83 19:18 07.10.2019
6376 Clear 25 1016 12 0 0.89 83 19:18 07.10.2019
6377 Clear 24 1016 13 0 0.89 102 18:43 07.10.2019
6378 Clear 22 1019 14 0 0.59 314.654 18:20 07.10.2019
6379 Clear 21 1017 17 0 0.59 314.654 17:59 07.10.2019
6380 Clear 19 1017 19 0 0.59 314.654 17:41 07.10.2019
6381 Clear 14 1017 27 0 0.59 314.654 17:19 07.10.2019
6382 Clear 12 1017 34 0 0.59 314.654 16:55 07.10.2019
6383 Clear 12 1017 34 0 0.59 314.654 16:55 07.10.2019
6384 Clear 8 1017 37 0 0.59 314.654 16:37 07.10.2019
6385 Clear 7 1017 37 0 0.45 347 16:18 07.10.2019
6386 Clear 7 1016 35 0 0.59 314.654 15:41 07.10.2019
6387 Clear 7 1016 35 0 0.59 314.654 15:41 07.10.2019
6388 Clear 7 1016 35 0 0.59 314.654 15:41 07.10.2019
6389 Clear 7 1016 34 0 0.17 347.4 15:22 07.10.2019
6390 Clear 7 1016 33 0 0.17 347.4 14:42 07.10.2019
6391 Clear 7 1016 33 0 0.17 347.4 14:42 07.10.2019
6392 Clear 8 1016 31 0 0.17 347.4 14:23 07.10.2019
6393 Clear 8 1016 31 0 0.17 347.4 13:59 07.10.2019
6394 Clear 9 1016 31 0 0.17 347.4 13:40 07.10.2019
6395 Clear 9 1016 31 0 0.2 335.225 13:18 07.10.2019
6396 Clear 9 1015 31 0 0.2 335.225 12:54 07.10.2019
6397 Clear 9 1016 30 0 0.2 335.225 12:36 07.10.2019
6398 Clear 10 1016 28 0 0.29 336.749 12:18 07.10.2019
6399 Clear 10 1016 29 0 0.29 336.749 11:56 07.10.2019
6400 Clear 11 1016 27 0 0.29 336.749 11:36 07.10.2019
6401 Clear 11 1016 27 0 0.29 336.749 11:18 07.10.2019
6402 Clear 11 1017 27 0 0.29 336.749 10:40 07.10.2019
6403 Clear 11 1017 26 0 0.29 336.749 10:20 07.10.2019
6404 Clear 11 1017 27 0 0.29 336.749 09:42 07.10.2019
6405 Clear 11 1017 27 0 0.88 275.336 09:23 07.10.2019
6406 Clear 11 1017 26 0 0.88 275.336 08:56 07.10.2019
6407 Clear 11 1017 26 0 0.82 266.515 08:37 07.10.2019
6408 Clear 11 1017 25 0 0.82 266.515 08:18 07.10.2019
6409 Clear 12 1017 24 0 0.82 266.515 07:41 07.10.2019
6410 Clear 12 1018 25 0 0.82 266.515 07:21 07.10.2019
6411 Clear 12 1018 25 0 0.82 266.515 06:48 07.10.2019
6412 Clear 13 1018 24 0 0.82 266.515 06:27 07.10.2019
6413 Clear 14 1017 22 0 1.32 299.782 05:47 07.10.2019
6414 Clear 16 1017 19 0 1.32 299.782 05:21 07.10.2019
6415 Clear 22 1019 14 0 1.32 299.782 04:24 07.10.2019
6416 Clear 22 1019 14 0 1.32 299.782 03:44 07.10.2019
6417 Clear 22 1019 14 0 1.32 299.782 03:44 07.10.2019
6418 Clear 22 1019 14 0 1.32 299.782 03:44 07.10.2019
6419 Clear 22 1016 13 0 1.34 4 03:20 07.10.2019
6420 Clear 22 1016 13 0 1.34 4 03:20 07.10.2019
6421 Clear 30 1017 8 0 2.17 351.26 02:21 07.10.2019
6422 Clear 30 1017 8 0 2.17 351.26 02:21 07.10.2019
6423 Clear 30 1017 8 0 2.17 351.26 01:50 07.10.2019
6424 Clear 30 1017 8 0 2.83 334.222 01:21 07.10.2019
6425 Clear 30 1017 8 0 2.83 334.222 00:39 07.10.2019
6426 Clear 29 1019 8 0 2.16 5.579 00:20 07.10.2019
6427 Clear 29 1019 8 0 2.16 5.579 23:42 06.10.2019
6428 Clear 29 1019 8 0 2.16 5.579 23:22 06.10.2019
6429 Clear 29 1019 8 0 2.16 5.579 22:59 06.10.2019
6430 Clear 29 1018 9 0 2.24 29 22:41 06.10.2019
6431 Clear 29 1018 9 0 1.34 32 22:22 06.10.2019
6432 Clear 29 1019 9 0 0.89 81 21:58 06.10.2019
6433 Clear 28 1019 9 0 1.79 17 21:38 06.10.2019
6434 Clear 26 1021 9 0 2.36 352.71 21:19 06.10.2019
6435 Clear 26 1021 9 0 2.36 352.71 20:58 06.10.2019
6436 Clear 27 1021 9 0 2.22 0.567 20:40 06.10.2019
6437 Clear 27 1021 9 0 2.22 0.567 20:40 06.10.2019
6438 Clear 27 1021 9 0 2.22 0.567 20:21 06.10.2019
6439 Clear 27 1021 9 0 2.22 0.567 19:57 06.10.2019
6440 Clear 23 1020 13 0 0.89 40 19:37 06.10.2019
6441 Clear 21 1020 14 0 1.34 274 19:19 06.10.2019
6442 Clear 21 1020 15 0 1.79 323 18:57 06.10.2019
6443 Clear 19 1020 17 0 1.34 287 18:39 06.10.2019
6444 Clear 19 1019 17 0 1.79 326 18:19 06.10.2019
6445 Clear 19 1019 17 0 1.79 326 18:19 06.10.2019
6446 Clear 18 1019 17 0 1.34 297 17:58 06.10.2019
6447 Clear 16 1019 20 0 2.24 324 17:39 06.10.2019
6448 Clear 16 1019 21 0 2.68 320 17:19 06.10.2019
6449 Clear 14 1019 23 0 3.13 321 16:42 06.10.2019
6450 Clear 13 1018 24 0 3.13 321 16:24 06.10.2019
6451 Clear 13 1018 24 0 2.68 318 15:59 06.10.2019
6452 Clear 13 1018 24 0 1.79 315 15:41 06.10.2019
6453 Clear 13 1018 24 0 3.13 335 15:18 06.10.2019
6454 Clear 13 1018 24 0 3.13 322 14:43 06.10.2019
6455 Clear 13 1018 23 0 3.58 330 14:24 06.10.2019
6456 Clear 13 1018 23 0 3.13 337 13:58 06.10.2019
6457 Clear 13 1017 22 0 2.24 307 13:39 06.10.2019
6458 Clear 14 1017 21 0 3.13 322 13:21 06.10.2019
6459 Clear 14 1018 19 0 1.79 287 12:57 06.10.2019
6460 Clear 17 1017 16 0 1.79 324 12:39 06.10.2019
6461 Clear 18 1018 10 0 0.9 283.014 12:20 06.10.2019
6462 Clear 18 1018 10 0 0.9 283.014 11:57 06.10.2019
6463 Clear 18 1018 10 0 0.9 283.014 11:38 06.10.2019
6464 Clear 16 1018 18 0 2.68 348 11:20 06.10.2019
6465 Clear 10 1018 23 0 0.9 283.014 10:44 06.10.2019
6466 Clear 11 1018 23 0 0.9 283.014 10:26 06.10.2019
6467 Clear 11 1017 22 0 0.9 283.014 09:58 06.10.2019
6468 Clear 11 1017 22 0 1.34 95 09:40 06.10.2019
6469 Clear 10 1017 23 0 0.74 269.766 09:19 06.10.2019
6470 Clear 11 1017 23 0 0.74 269.766 08:45 06.10.2019
6471 Clear 10 1017 23 0 0.91 250.291 08:21 06.10.2019
6472 Clear 10 1017 24 0 0.91 250.291 07:57 06.10.2019
6473 Clear 9 1017 23 0 0.91 250.291 07:35 06.10.2019
6474 Clear 11 1017 22 0 0.91 250.291 06:32 06.10.2019
6475 Clear 14 1016 17 0 0.93 291.527 05:35 06.10.2019
6476 Clear 20 1016 10 0 0.93 291.527 04:26 06.10.2019
6477 Clear 24 1015 9 0 2.24 25 02:47 06.10.2019
6478 Clear 25 1015 8 0 1.79 15 02:27 06.10.2019
6479 Clear 29 1015 6 0 1.01 47.878 01:46 06.10.2019
6480 Clear 29 1014 6 0 1.07 46.671 01:27 06.10.2019
6481 Clear 29 1014 6 0 1.07 46.671 00:59 06.10.2019
6482 Clear 29 1014 6 0 1.07 46.671 00:29 06.10.2019
6483 Clear 28 1016 6 0 1.79 36.199 23:46 05.10.2019
6484 Clear 28 1016 6 0 1.79 36.199 23:23 05.10.2019
6485 Clear 28 1016 6 0 1.79 36.199 22:59 05.10.2019
6486 Clear 27 1016 8 0 2.24 355 22:40 05.10.2019
6487 Clear 27 1016 8 0 1.79 50 22:21 05.10.2019
6488 Clear 27 1016 8 0 1.79 50 22:21 05.10.2019
6489 Clear 27 1017 8 0 2.24 79 21:59 05.10.2019
6490 Clear 26 1017 8 0 2.24 7 21:40 05.10.2019
6491 Clear 25 1019 7 0 2.18 352.435 21:21 05.10.2019
6492 Clear 25 1019 7 0 2.18 352.435 20:56 05.10.2019
6493 Clear 25 1019 7 0 2.47 350.572 20:38 05.10.2019
6494 Clear 25 1019 7 0 2.47 350.572 20:19 05.10.2019
6495 Clear 24 1018 10 0 1.34 3 19:40 05.10.2019
6496 Clear 23 1018 11 0 0.89 25 19:22 05.10.2019
6497 Clear 23 1019 11 0 0.89 62 18:57 05.10.2019
6498 Clear 21 1019 13 0 0.45 104 18:39 05.10.2019
6499 Clear 20 1020 9 0 1.61 325.44 18:21 05.10.2019
6500 Clear 17 1019 18 0 0.45 50 17:56 05.10.2019
6501 Clear 14 1019 21 0 1.61 325.44 17:37 05.10.2019
6502 Clear 12 1018 23 0 1.61 325.44 17:19 05.10.2019
6503 Clear 11 1018 24 0 1.61 325.44 16:42 05.10.2019
6504 Clear 20 1020 9 0 1.61 325.44 16:22 05.10.2019
6505 Clear 20 1020 9 0 1.61 325.44 15:58 05.10.2019
6506 Clear 20 1020 9 0 1.61 325.44 15:40 05.10.2019
6507 Clear 8 1018 27 0 1.34 330 15:21 05.10.2019
6508 Clear 9 1018 25 0 1.23 316.688 14:58 05.10.2019
6509 Clear 9 1018 25 0 1.23 316.688 14:58 05.10.2019
6510 Clear 10 1018 23 0 1.23 316.688 14:40 05.10.2019
6511 Clear 12 1018 20 0 0.45 335 14:20 05.10.2019
6512 Clear 12 1017 20 0 1.79 308 13:42 05.10.2019
6513 Clear 10 1017 22 0 1.79 329 13:22 05.10.2019
6514 Clear 8 1017 27 0 1.2 332.17 12:47 05.10.2019
6515 Clear 8 1017 28 0 1.42 297.52 12:21 05.10.2019
6516 Clear 8 1017 28 0 1.42 297.52 12:21 05.10.2019
6517 Clear 8 1017 27 0 1.42 297.52 11:59 05.10.2019
6518 Clear 8 1017 28 0 1.42 297.52 11:39 05.10.2019
6519 Clear 7 1017 29 0 1.42 297.52 11:19 05.10.2019
6520 Clear 8 1017 27 0 1.42 297.52 10:45 05.10.2019
6521 Clear 8 1017 27 0 1.42 297.52 10:26 05.10.2019
6522 Clear 8 1017 27 0 1.42 297.52 10:26 05.10.2019
6523 Clear 9 1017 25 0 1.42 297.52 09:59 05.10.2019
6524 Clear 10 1017 24 0 1.42 297.52 09:39 05.10.2019
6525 Clear 10 1017 24 0 0.89 332 09:20 05.10.2019
6526 Clear 8 1017 25 0 0.41 47.084 08:40 05.10.2019
6527 Clear 9 1017 24 0 0.41 47.084 08:21 05.10.2019
6528 Clear 9 1017 24 0 0.41 47.084 07:58 05.10.2019
6529 Clear 11 1016 24 0 0.41 47.084 07:37 05.10.2019
6530 Clear 11 1016 24 0 0.41 47.084 07:19 05.10.2019
6531 Clear 12 1016 21 0 0.45 175 06:28 05.10.2019
6532 Clear 13 1016 20 0 0.7 160.313 05:52 05.10.2019
6533 Clear 20 1016 14 0 0.7 160.313 04:33 05.10.2019
6534 Clear 20 1016 14 0 0.7 160.313 03:29 05.10.2019
6535 Clear 29 1013 7 0 1.33 41.763 01:55 05.10.2019
6536 Clear 28 1013 8 0 1.42 86.044 01:23 05.10.2019
6537 Clear 28 1013 8 0 1.42 86.044 00:45 05.10.2019
6538 Clear 28 1013 8 0 1.42 86.044 00:26 05.10.2019
6539 Clear 27 1013 10 0 1.56 49.582 23:45 04.10.2019
6540 Clear 27 1013 10 0 1.56 49.582 23:26 04.10.2019
6541 Clear 27 1013 10 0 1.56 49.582 22:59 04.10.2019
6542 Clear 26 1014 10 0 2.24 31 22:40 04.10.2019
6543 Clear 26 1014 10 0 1.79 59 22:22 04.10.2019
6544 Clear 26 1014 10 0 1.34 54 21:58 04.10.2019
6545 Clear 25 1014 11 0 1.79 56 21:39 04.10.2019
6546 Clear 24 1015 14 0 1.34 77.732 21:21 04.10.2019
6547 Clear 24 1015 14 0 1.34 77.732 20:57 04.10.2019
6548 Clear 24 1015 14 0 1.34 77.732 20:57 04.10.2019
6549 Clear 24 1015 13 0 1.33 45.948 20:39 04.10.2019
6550 Clear 24 1015 13 0 1.33 45.948 20:20 04.10.2019
6551 Clear 24 1015 13 0 1.33 45.948 20:20 04.10.2019
6552 Clear 22 1014 14 0 1.34 57 19:49 04.10.2019
6553 Clear 21 1014 15 0 0.89 71 19:30 04.10.2019
6554 Clear 21 1014 15 0 0.89 71 19:30 04.10.2019
6555 Clear 21 1014 16 0 0.45 33 18:59 04.10.2019
6556 Clear 18 1014 18 0 0.45 55 18:39 04.10.2019
6557 Clear 17 1014 20 0 0.29 106.526 18:19 04.10.2019
6558 Clear 15 1014 23 0 0.45 19 17:57 04.10.2019
6559 Clear 12 1013 27 0 0.29 106.526 17:38 04.10.2019
6560 Clear 9 1013 31 0 0.29 106.526 17:20 04.10.2019
6561 Clear 6 1013 37 0 0.29 106.526 16:55 04.10.2019
6562 Clear 5 1013 38 0 0.29 106.526 16:36 04.10.2019
6563 Clear 4 1012 40 0 0.29 106.526 16:18 04.10.2019
6564 -273 0 0 0 0 0 15:55 04.10.2019
6565 Clear 4 1012 40 0 0.45 271 15:36 04.10.2019
6566 Clouds 3 1012 41 0 0.9 165.902 15:18 04.10.2019
6567 Clouds 4 1011 40 0 0.45 295 14:42 04.10.2019
6568 Clouds 4 1011 41 0 0.9 165.902 14:22 04.10.2019
6569 Clouds 4 1011 40 0 0.9 165.902 13:59 04.10.2019
6570 Clouds 4 1011 39 0 0.9 165.902 13:41 04.10.2019
6571 Clouds 4 1011 38 0 0.38 155.793 13:19 04.10.2019
6572 Clouds 6 1010 36 0 0.38 155.793 12:45 04.10.2019
6573 Clouds 6 1010 35 0 0.38 155.793 12:27 04.10.2019
6574 Clouds 6 1010 35 0 0.38 155.793 12:27 04.10.2019
6575 Clouds 7 1010 32 0 0.34 294.822 11:56 04.10.2019
6576 Clouds 7 1010 32 0 0.34 294.822 11:56 04.10.2019
6577 Clouds 8 1010 29 0 0.34 294.822 11:38 04.10.2019
6578 Clouds 8 1010 27 0 0.45 75 11:19 04.10.2019
6579 Clouds 8 1010 28 0 0.45 279 10:39 04.10.2019
6580 Clouds 8 1010 27 0 0.34 294.822 10:20 04.10.2019
6581 Clouds 9 1010 26 0 0.34 294.822 09:45 04.10.2019
6582 Clouds 9 1010 26 0 0.34 294.822 09:45 04.10.2019
6583 Clear 9 1010 25 0 0.31 293.223 09:27 04.10.2019
6584 Clear 12 1010 22 0 0.82 237.185 08:56 04.10.2019
6585 Clear 14 1010 19 0 0.82 237.185 08:37 04.10.2019
6586 Clear 14 1010 19 0 1.34 181 08:19 04.10.2019
6587 Clear 14 1010 18 0 0.89 164 07:43 04.10.2019
6588 Clear 18 1011 14 0 0.82 237.185 07:21 04.10.2019
6589 Clear 14 1010 18 0 0.45 75 06:42 04.10.2019
6590 Clear 16 1010 17 0 2.68 181 06:24 04.10.2019
6591 -273 0 0 0 0 0 05:24 04.10.2019
6592 Clear 17 1010 16 0 0.89 197 04:56 04.10.2019
6593 Clear 20 1010 10 0 0.77 122.068 03:43 04.10.2019
6594 Clear 21 1010 12 0 5.36 231 02:53 04.10.2019
6595 Clear 22 1010 10 0 5.36 222 01:55 04.10.2019
6596 Clear 22 1010 10 0 5.36 222 01:55 04.10.2019
6597 Clear 22 1010 11 0 5.81 214 01:29 04.10.2019
6598 Clear 23 1010 9 0 5.36 249 00:56 04.10.2019
6599 Clear 23 1010 9 0 5.81 212 23:55 03.10.2019
6600 Clear 23 1010 10 0 4.47 245 23:37 03.10.2019
6601 Clear 23 1011 11 0 3.58 206 23:18 03.10.2019
6602 Clear 23 1011 11 0 4.02 238 22:55 03.10.2019
6603 Clear 23 1011 10 0 3.13 215 22:37 03.10.2019
6604 Clear 22 1012 12 0 3.58 131 22:18 03.10.2019
6605 Clear 22 1012 12 0 3.58 149 21:55 03.10.2019
6606 Clear 22 1012 13 0 3.58 125 21:36 03.10.2019
6607 Clear 22 1012 14 0 3.13 129 21:18 03.10.2019
6608 Clear 21 1013 13 0 3.58 231 20:41 03.10.2019
6609 Clear 21 1013 14 0 3.13 116 20:23 03.10.2019
6610 Clear 20 1013 14 0 3.13 233 19:59 03.10.2019
6611 Clear 20 1014 14 0 2.24 250 19:41 03.10.2019
6612 Clear 19 1014 15 0 2.68 219 19:22 03.10.2019
6613 Clear 19 1014 15 0 1.79 283 18:58 03.10.2019
6614 Clear 18 1014 15 0 2.24 171 18:39 03.10.2019
6615 Clear 19 1014 12 0 0.19 349.23 18:19 03.10.2019
6616 Clear 17 1014 14 0 1.34 191 17:56 03.10.2019
6617 Clear 15 1014 17 0 1.79 226 17:37 03.10.2019
6618 Clear 13 1014 20 0 1.79 189 17:19 03.10.2019
6619 Clear 13 1014 20 0 1.79 189 17:19 03.10.2019
6620 Clear 10 1014 25 0 0.19 349.23 16:43 03.10.2019
6621 Clear 8 1014 27 0 0.19 349.23 16:25 03.10.2019
6622 Clear 8 1014 27 0 0.45 183 15:56 03.10.2019
6623 Clear 19 1014 12 0 0.19 349.23 15:38 03.10.2019
6624 Clear 8 1014 26 0 0.45 151 15:20 03.10.2019
6625 Clear 8 1014 27 0 0.45 161.606 14:46 03.10.2019
6626 Clear 5 1013 30 0 0.45 161.606 14:27 03.10.2019
6627 Clear 5 1014 32 0 0.45 161.606 13:59 03.10.2019
6628 Clear 5 1013 31 0 0.45 161.606 13:41 03.10.2019
6629 Clear 6 1014 31 0 0.89 8 13:19 03.10.2019
6630 Clear 4 1014 33 0 0.34 172.416 12:56 03.10.2019
6631 Clear 4 1014 35 0 0.34 172.416 12:38 03.10.2019
6632 Clear 4 1014 34 0 0.22 183.397 12:19 03.10.2019
6633 Clear 4 1014 34 0 0.22 183.397 12:19 03.10.2019
6634 Clear 4 1014 33 0 0.22 183.397 11:41 03.10.2019
6635 Clear 4 1014 33 0 0.22 183.397 11:41 03.10.2019
6636 Clear 4 1014 34 0 0.22 183.397 11:23 03.10.2019
6637 Clear 4 1015 32 0 0.22 183.397 10:59 03.10.2019
6638 Clear 5 1015 31 0 0.22 183.397 10:40 03.10.2019
6639 Clear 5 1015 32 0 0.22 183.397 10:19 03.10.2019
6640 Clear 5 1015 31 0 0.22 183.397 09:58 03.10.2019
6641 Clear 6 1015 30 0 0.22 183.397 09:40 03.10.2019
6642 Clear 6 1015 29 0 0.95 184.366 09:21 03.10.2019
6643 Clear 6 1015 30 0 0.5 203.517 08:45 03.10.2019
6644 Clear 6 1015 31 0 0.5 203.517 08:27 03.10.2019
6645 Clear 6 1015 30 0 0.5 203.517 07:57 03.10.2019
6646 Clear 7 1015 29 0 0.5 203.517 07:39 03.10.2019
6647 Clear 7 1015 28 0 0.5 203.517 07:19 03.10.2019
6648 Clear 8 1015 27 0 0.5 203.517 06:50 03.10.2019
6649 Clear 9 1015 25 0 0.5 203.517 06:24 03.10.2019
6650 Clear 11 1015 23 0 1.12 181.748 05:46 03.10.2019
6651 Clear 12 1014 21 0 1.12 181.748 05:19 03.10.2019
6652 Clear 18 1014 13 0 1.12 181.748 04:31 03.10.2019
6653 Clear 18 1013 16 0 0.89 27 03:24 03.10.2019
6654 Clear 25 1013 8 0 1 61.738 02:39 03.10.2019
6655 Clear 25 1013 8 0 1 61.738 01:59 03.10.2019
6656 Clear 25 1012 8 0 1.03 62.91 01:35 03.10.2019
6657 Clear 25 1012 8 0 1.03 62.91 00:51 03.10.2019
6658 Clear 25 1014 10 0 2.46 37.033 00:23 03.10.2019
6659 Clear 25 1014 10 0 2.46 37.033 23:44 02.10.2019
6660 Clear 25 1014 10 0 2.46 37.033 23:22 02.10.2019
6661 Clear 25 1015 12 0 0.89 10 22:46 02.10.2019
6662 Clear 24 1016 12 0 1.34 30 22:23 02.10.2019
6663 Clear 23 1016 12 0 1.79 106 21:58 02.10.2019
6664 Clear 23 1016 12 0 1.79 106 21:58 02.10.2019
6665 Clear 23 1016 13 0 2.68 114 21:39 02.10.2019
6666 Clear 22 1017 14 0 2.12 342.752 21:20 02.10.2019
6667 Clear 22 1017 13 0 2.18 343.361 20:57 02.10.2019
6668 Clear 22 1017 13 0 2.18 343.361 20:39 02.10.2019
6669 Clear 22 1017 13 0 2.18 343.361 20:20 02.10.2019
6670 Clear 22 1017 13 0 2.18 343.361 19:57 02.10.2019
6671 Clear 17 1017 20 0 0.89 200 19:39 02.10.2019
6672 Clear 17 1018 20 0 0.89 305 19:20 02.10.2019
6673 Clear 17 1018 21 0 0.89 275 18:57 02.10.2019
6674 Clear 16 1017 23 0 1.34 321 18:38 02.10.2019
6675 Clear 18 1017 18 0 1.33 305.568 18:19 02.10.2019
6676 Clear 18 1017 18 0 1.33 305.568 17:56 02.10.2019
6677 Clear 12 1017 30 0 2.68 324 17:37 02.10.2019
6678 Clear 11 1017 31 0 2.68 321 17:19 02.10.2019
6679 Clear 11 1017 31 0 2.68 321 17:19 02.10.2019
6680 Clear 9 1017 35 0 1.79 343 16:42 02.10.2019
6681 Clear 8 1017 36 0 1.34 334 16:22 02.10.2019
6682 Clear 8 1016 36 0 2.68 360 15:57 02.10.2019
6683 Clear 8 1016 36 0 2.68 317 15:38 02.10.2019
6684 Clear 8 1016 37 0 2.68 331 15:20 02.10.2019
6685 Clear 8 1016 37 0 1.79 329 14:57 02.10.2019
6686 Clear 8 1015 37 0 2.68 337 14:39 02.10.2019
6687 Clear 8 1015 37 0 3.58 299 14:20 02.10.2019
6688 Clear 8 1015 37 0 3.58 299 14:20 02.10.2019
6689 Clear 8 1015 37 0 2.68 311 13:43 02.10.2019
6690 Clear 8 1015 37 0 3.13 299 13:24 02.10.2019
6691 Clear 8 1015 37 0 2.24 333 12:57 02.10.2019
6692 Clear 8 1015 35 0 2.68 318 12:37 02.10.2019
6693 Clear 8 1015 35 0 2.68 322 12:18 02.10.2019
6694 Clear 9 1015 34 0 2.24 337 11:44 02.10.2019
6695 Clear 8 1015 34 0 1.79 311 11:23 02.10.2019
6696 Clear 4 1015 40 0 2.24 333 10:42 02.10.2019
6697 Clear 4 1014 39 0 0.92 334.577 10:20 02.10.2019
6698 Clear 5 1014 38 0 0.92 334.577 09:59 02.10.2019
6699 Clear 5 1014 38 0 0.92 334.577 09:37 02.10.2019
6700 Clear 5 1013 37 0 0.63 302.576 09:18 02.10.2019
6701 Clear 6 1013 36 0 0.92 334.02 08:44 02.10.2019
6702 Clear 7 1013 33 0 0.45 338 08:24 02.10.2019
6703 Clear 8 1013 31 0 0.92 334.02 07:58 02.10.2019
6704 Clear 8 1013 31 0 0.45 329 07:38 02.10.2019
6705 Clear 8 1013 31 0 0.45 328 07:20 02.10.2019
6706 Clear 8 1013 31 0 0.45 328 07:20 02.10.2019
6707 Clear 11 1013 27 0 0.92 334.02 06:31 02.10.2019
6708 Clear 11 1012 27 0 1.34 22 05:55 02.10.2019
6709 Clear 12 1012 26 0 0.89 354 05:24 02.10.2019
6710 Clear 12 1011 26 0 0.89 20 04:53 02.10.2019
6711 Clear 17 1011 20 0 0.77 210.075 03:52 02.10.2019
6712 Clear 23 1008 12 0 2.08 110.653 02:41 02.10.2019
6713 Clear 23 1008 12 0 2.08 110.653 02:23 02.10.2019
6714 Clear 24 1008 11 0 2.43 115.594 01:24 02.10.2019
6715 Clear 24 1008 11 0 2.43 115.594 00:49 02.10.2019
6716 Clear 24 1008 11 0 2.43 115.594 00:25 02.10.2019
6717 Clear 23 1009 11 0 1.89 46.633 23:43 01.10.2019
6718 Clear 23 1009 11 0 1.89 46.633 23:25 01.10.2019
6719 Clear 22 1009 14 0 1.79 40 22:59 01.10.2019
6720 Clear 22 1010 14 0 1.34 132 22:39 01.10.2019
6721 Clear 20 1010 16 0 1.79 94 22:19 01.10.2019
6722 Clear 18 1010 18 0 2.24 108 21:57 01.10.2019
6723 Clear 18 1010 19 0 0.45 347 21:37 01.10.2019
6724 Clear 16 1010 20 0 0.89 219 21:19 01.10.2019
6725 Clear 16 1010 20 0 0.89 245 20:55 01.10.2019
6726 Clear 16 1010 21 0 0.89 348 20:37 01.10.2019
6727 Clear 14 1010 22 0 1.34 247 20:18 01.10.2019
6728 Clear 15 1010 22 0 1.34 250 19:55 01.10.2019
6729 Clear 15 1010 22 0 1.34 250 19:55 01.10.2019
6730 Clear 15 1010 22 0 1.34 250 19:55 01.10.2019
6731 Clear 13 1010 24 0 1.34 216 19:37 01.10.2019
6732 Clear 13 1010 24 0 1.34 216 19:37 01.10.2019
6733 Clear 14 1011 24 0 1.79 268 19:18 01.10.2019
6734 Clear 12 1010 27 0 1.34 296 18:40 01.10.2019
6735 Clear 11 1010 29 0 1.34 266 18:22 01.10.2019
6736 Clear 11 1010 31 0 1.34 300 17:58 01.10.2019
6737 Clear 16 1011 19 0 0.44 249.047 17:39 01.10.2019
6738 Clear 8 1010 37 0 3.58 312 17:19 01.10.2019
6739 Clear 7 1010 39 0 3.13 335 16:57 01.10.2019
6740 Clear 6 1010 42 0 3.13 296 16:39 01.10.2019
6741 Clear 6 1009 44 0 1.79 328 16:21 01.10.2019
6742 Clear 5 1009 43 0 3.13 337 15:46 01.10.2019
6743 Clear 6 1009 43 0 1.79 1 15:23 01.10.2019
6744 Clear 6 1009 41 0 3.13 337 14:42 01.10.2019
6745 Clear 6 1009 40 0 1.79 335 14:21 01.10.2019
6746 Clear 7 1009 39 0 1.79 259 13:59 01.10.2019
6747 Clear 7 1009 40 0 2.24 308 13:40 01.10.2019
6748 Clear 7 1009 37 0 2.68 328 13:21 01.10.2019
6749 Clear 7 1009 37 0 2.68 328 13:21 01.10.2019
6750 Clear 7 1009 37 0 2.24 293 12:58 01.10.2019
6751 Clear 7 1009 37 0 3.13 331 12:39 01.10.2019
6752 Clear 7 1009 35 0 4.47 302 12:19 01.10.2019
6753 Clear 7 1009 35 0 3.13 282 11:58 01.10.2019
6754 Clear 7 1009 35 0 2.68 328 11:38 01.10.2019
6755 Clear 7 1009 34 0 4.92 347 11:19 01.10.2019
6756 Clear 8 1009 30 0 2.68 311 10:49 01.10.2019
6757 Clear 9 1009 28 0 2.24 329 10:29 01.10.2019
6758 Clear 9 1009 27 0 3.58 318 09:57 01.10.2019
6759 Clear 9 1009 30 0 1.34 300 09:39 01.10.2019
6760 Clear 8 1009 31 0 1.34 257 09:21 01.10.2019
6761 Clear 6 1008 39 0 1.21 261.629 08:42 01.10.2019
6762 Clear 7 1008 38 0 0.45 328 08:24 01.10.2019
6763 Clear 7 1008 37 0 1.21 261.629 07:48 01.10.2019
6764 Clear 8 1008 34 0 1.21 261.629 07:25 01.10.2019
6765 Clear 9 1008 31 0 0.45 302 06:48 01.10.2019
6766 Clear 8 1008 34 0 0.45 5 06:20 01.10.2019
6767 Clear 8 1008 34 0 2.61 308.704 05:46 01.10.2019
6768 Clear 9 1008 32 0 2.61 308.704 05:18 01.10.2019
6769 Clear 12 1007 26 0 0.45 150 04:30 01.10.2019
6770 Clear 19 1007 16 0 2.68 45 02:29 01.10.2019
6771 Clear 23 1005 8 0 2.22 65.875 01:59 01.10.2019
6772 Clear 23 1005 10 0 2.25 92.883 01:25 01.10.2019
6773 Clear 23 1005 10 0 2.25 92.883 00:40 01.10.2019
6774 Clear 22 1006 14 0 2.84 98.786 00:22 01.10.2019
6775 Clear 22 1006 14 0 2.84 98.786 23:41 30.09.2019
6776 Clear 22 1006 14 0 2.84 98.786 23:41 30.09.2019
6777 Clear 22 1006 14 0 2.84 98.786 23:21 30.09.2019
6778 Clear 18 1008 20 0 1.79 36 22:45 30.09.2019
6779 Clear 18 1008 20 0 1.79 36 22:45 30.09.2019
6780 Clear 19 1009 20 0 2.68 36 22:26 30.09.2019
6781 Clear 18 1009 21 0 2.24 334 21:58 30.09.2019
6782 Clear 18 1009 21 0 2.24 63 21:39 30.09.2019
6783 Clear 19 1009 18 0 2.22 83.72 21:20 30.09.2019
6784 Clear 19 1009 18 0 2.22 83.72 21:20 30.09.2019
6785 Clear 19 1009 18 0 2.22 83.72 20:58 30.09.2019
6786 Clear 16 1010 24 0 2.24 40 20:39 30.09.2019
6787 Clear 19 1010 17 0 2.2 82.959 20:20 30.09.2019
6788 Clear 14 1010 25 0 2.68 27 19:58 30.09.2019
6789 Clear 14 1010 26 0 2.68 352 19:40 30.09.2019
6790 Clear 14 1011 27 0 1.34 2 19:19 30.09.2019
6791 Clear 13 1011 27 0 1.79 12 18:58 30.09.2019
6792 Clear 13 1011 27 0 1.79 12 18:58 30.09.2019
6793 Clear 13 1011 27 0 1.79 12 18:58 30.09.2019
6794 Clear 12 1010 28 0 1.34 50 18:39 30.09.2019
6795 Clear 14 1010 22 0 1.06 145.428 18:20 30.09.2019
6796 Clear 10 1010 33 0 1.34 40 17:54 30.09.2019
6797 Clear 9 1010 36 0 0.89 30 17:36 30.09.2019
6798 Clear 7 1010 42 0 0.89 50 17:18 30.09.2019
6799 Clear 1 1010 55 0 1.06 145.428 16:41 30.09.2019
6800 Clear 1 1010 55 0 1.06 145.428 16:41 30.09.2019
6801 Clear 1 1010 55 0 1.06 145.428 16:41 30.09.2019
6802 Clear 0 1009 55 0 1.06 145.428 16:19 30.09.2019
6803 Clear 0 1009 52 0 1.06 145.428 15:59 30.09.2019
6804 Clear 0 1009 52 0 1.06 145.428 15:38 30.09.2019
6805 Clear 1 1009 50 0 0.29 88.229 15:19 30.09.2019
6806 Clear 1 1009 50 0 0.29 88.229 14:58 30.09.2019
6807 Clear 1 1009 51 0 0.29 88.229 14:38 30.09.2019
6808 Clear 1 1008 50 0 0.29 88.229 14:19 30.09.2019
6809 Clear 2 1008 49 0 0.29 88.229 13:58 30.09.2019
6810 Clear 2 1008 48 0 0.29 88.229 13:40 30.09.2019
6811 Clear 3 1008 47 0 0.45 321 13:21 30.09.2019
6812 Clear 2 1008 48 0 0.45 73 12:44 30.09.2019
6813 Clear 3 1008 45 0 0.52 21.781 12:25 30.09.2019
6814 Clear 3 1008 43 0 1.78 181.804 11:59 30.09.2019
6815 Clear 3 1008 46 0 0.45 15 11:40 30.09.2019
6816 Clear 3 1008 45 0 1.78 181.804 11:21 30.09.2019
6817 Clear 4 1008 43 0 0.45 120 10:56 30.09.2019
6818 Clear 4 1007 45 0 1.78 181.804 10:37 30.09.2019
6819 Clear 3 1007 45 0 0.45 342 10:18 30.09.2019
6820 Clear 4 1007 42 0 1.78 181.804 09:40 30.09.2019
6821 Clear 6 1006 39 0 2.11 196.798 09:22 30.09.2019
6822 Clear 6 1006 39 0 2.11 196.798 08:52 30.09.2019
6823 Clear 6 1006 38 0 0.45 81 08:34 30.09.2019
6824 Clear 6 1006 38 0 2.17 207.912 07:59 30.09.2019
6825